<?xml version="1.0" encoding="UTF-8" standalone="no" ?>
<gpx xmlns="http://www.topografix.com/GPX/1/1" xmlns:xsi="http://www.w3.org/2001/XMLSchema-instance" xsi:schemaLocation="http://www.topografix.com/GPX/1/1 http://www.topografix.com/GPX/1/1/gpx.xsd" version="1.1" creator="VisuGPX - https://www.visugpx.com">
  <metadata>
    <name>Jour 4 Pradel Fouzilhac</name>
    <desc><![CDATA[Stevenson Jour 4]]></desc>
  </metadata>
  <trk>
    <name><![CDATA[S4]]></name>
    <trkseg>
      <trkpt lat="44.77169" lon="3.88324">
        <ele>1156</ele>
        <time>2013-09-26T06:46:05Z</time>
      </trkpt>
      <trkpt lat="44.77166" lon="3.88319">
        <ele>1156</ele>
        <time>2013-09-26T06:49:09Z</time>
      </trkpt>
      <trkpt lat="44.77161" lon="3.88315">
        <ele>1155</ele>
        <time>2013-09-26T06:49:15Z</time>
      </trkpt>
      <trkpt lat="44.77158" lon="3.8831">
        <ele>1154</ele>
        <time>2013-09-26T06:49:21Z</time>
      </trkpt>
      <trkpt lat="44.77155" lon="3.88306">
        <ele>1154</ele>
        <time>2013-09-26T06:49:27Z</time>
      </trkpt>
      <trkpt lat="44.77152" lon="3.88311">
        <ele>1154</ele>
        <time>2013-09-26T06:49:42Z</time>
      </trkpt>
      <trkpt lat="44.77152" lon="3.88321">
        <ele>1156</ele>
        <time>2013-09-26T06:49:51Z</time>
      </trkpt>
      <trkpt lat="44.77151" lon="3.88328">
        <ele>1156</ele>
        <time>2013-09-26T06:49:52Z</time>
      </trkpt>
      <trkpt lat="44.7715" lon="3.88336">
        <ele>1163</ele>
        <time>2013-09-26T06:49:53Z</time>
      </trkpt>
      <trkpt lat="44.7715" lon="3.88342">
        <ele>1163</ele>
        <time>2013-09-26T06:49:54Z</time>
      </trkpt>
      <trkpt lat="44.77149" lon="3.88356">
        <ele>1165</ele>
        <time>2013-09-26T06:49:56Z</time>
      </trkpt>
      <trkpt lat="44.77146" lon="3.88362">
        <ele>1165</ele>
        <time>2013-09-26T06:49:57Z</time>
      </trkpt>
      <trkpt lat="44.77145" lon="3.88369">
        <ele>1166</ele>
        <time>2013-09-26T06:49:59Z</time>
      </trkpt>
      <trkpt lat="44.77141" lon="3.88376">
        <ele>1166</ele>
        <time>2013-09-26T06:50:02Z</time>
      </trkpt>
      <trkpt lat="44.77138" lon="3.88383">
        <ele>1167</ele>
        <time>2013-09-26T06:50:04Z</time>
      </trkpt>
      <trkpt lat="44.77133" lon="3.88388">
        <ele>1167</ele>
        <time>2013-09-26T06:50:06Z</time>
      </trkpt>
      <trkpt lat="44.77123" lon="3.88391">
        <ele>1167</ele>
        <time>2013-09-26T06:50:08Z</time>
      </trkpt>
      <trkpt lat="44.77117" lon="3.88392">
        <ele>1168</ele>
        <time>2013-09-26T06:50:14Z</time>
      </trkpt>
      <trkpt lat="44.77111" lon="3.88394">
        <ele>1168</ele>
        <time>2013-09-26T06:50:17Z</time>
      </trkpt>
      <trkpt lat="44.77106" lon="3.88399">
        <ele>1168</ele>
        <time>2013-09-26T06:50:26Z</time>
      </trkpt>
      <trkpt lat="44.77101" lon="3.884">
        <ele>1168</ele>
        <time>2013-09-26T06:50:30Z</time>
      </trkpt>
      <trkpt lat="44.77097" lon="3.88401">
        <ele>1169</ele>
        <time>2013-09-26T06:51:12Z</time>
      </trkpt>
      <trkpt lat="44.77092" lon="3.88399">
        <ele>1169</ele>
        <time>2013-09-26T06:51:23Z</time>
      </trkpt>
      <trkpt lat="44.77088" lon="3.88401">
        <ele>1169</ele>
        <time>2013-09-26T06:51:32Z</time>
      </trkpt>
      <trkpt lat="44.77083" lon="3.88403">
        <ele>1168</ele>
        <time>2013-09-26T06:51:45Z</time>
      </trkpt>
      <trkpt lat="44.77079" lon="3.88399">
        <ele>1167</ele>
        <time>2013-09-26T06:52:07Z</time>
      </trkpt>
      <trkpt lat="44.77074" lon="3.88395">
        <ele>1166</ele>
        <time>2013-09-26T06:52:12Z</time>
      </trkpt>
      <trkpt lat="44.7707" lon="3.88392">
        <ele>1166</ele>
        <time>2013-09-26T06:52:15Z</time>
      </trkpt>
      <trkpt lat="44.77065" lon="3.88394">
        <ele>1166</ele>
        <time>2013-09-26T06:52:21Z</time>
      </trkpt>
      <trkpt lat="44.77061" lon="3.884">
        <ele>1166</ele>
        <time>2013-09-26T06:52:42Z</time>
      </trkpt>
      <trkpt lat="44.77058" lon="3.88406">
        <ele>1166</ele>
        <time>2013-09-26T06:52:50Z</time>
      </trkpt>
      <trkpt lat="44.77051" lon="3.8842">
        <ele>1166</ele>
        <time>2013-09-26T06:52:51Z</time>
      </trkpt>
      <trkpt lat="44.77047" lon="3.8843">
        <ele>1166</ele>
        <time>2013-09-26T06:52:54Z</time>
      </trkpt>
      <trkpt lat="44.77044" lon="3.88436">
        <ele>1165</ele>
        <time>2013-09-26T06:53:02Z</time>
      </trkpt>
      <trkpt lat="44.76995" lon="3.88467">
        <ele>1153</ele>
        <time>2013-09-26T06:54:53Z</time>
      </trkpt>
      <trkpt lat="44.76965" lon="3.88429">
        <ele>1153</ele>
        <time>2013-09-26T06:55:03Z</time>
      </trkpt>
      <trkpt lat="44.76971" lon="3.8841">
        <ele>1156</ele>
        <time>2013-09-26T06:55:05Z</time>
      </trkpt>
      <trkpt lat="44.76975" lon="3.88401">
        <ele>1157</ele>
        <time>2013-09-26T06:55:06Z</time>
      </trkpt>
      <trkpt lat="44.76978" lon="3.88394">
        <ele>1157</ele>
        <time>2013-09-26T06:55:07Z</time>
      </trkpt>
      <trkpt lat="44.76981" lon="3.88389">
        <ele>1157</ele>
        <time>2013-09-26T06:55:08Z</time>
      </trkpt>
      <trkpt lat="44.76986" lon="3.88383">
        <ele>1157</ele>
        <time>2013-09-26T06:55:13Z</time>
      </trkpt>
      <trkpt lat="44.76989" lon="3.88378">
        <ele>1157</ele>
        <time>2013-09-26T06:55:24Z</time>
      </trkpt>
      <trkpt lat="44.76984" lon="3.88384">
        <ele>1157</ele>
        <time>2013-09-26T06:55:32Z</time>
      </trkpt>
      <trkpt lat="44.76982" lon="3.88392">
        <ele>1157</ele>
        <time>2013-09-26T06:55:36Z</time>
      </trkpt>
      <trkpt lat="44.76978" lon="3.88401">
        <ele>1157</ele>
        <time>2013-09-26T06:55:38Z</time>
      </trkpt>
      <trkpt lat="44.76973" lon="3.88402">
        <ele>1156</ele>
        <time>2013-09-26T06:55:39Z</time>
      </trkpt>
      <trkpt lat="44.76968" lon="3.88405">
        <ele>1156</ele>
        <time>2013-09-26T06:55:40Z</time>
      </trkpt>
      <trkpt lat="44.7696" lon="3.88408">
        <ele>1155</ele>
        <time>2013-09-26T06:55:42Z</time>
      </trkpt>
      <trkpt lat="44.76956" lon="3.88402">
        <ele>1155</ele>
        <time>2013-09-26T06:55:52Z</time>
      </trkpt>
      <trkpt lat="44.76952" lon="3.88398">
        <ele>1154</ele>
        <time>2013-09-26T06:55:55Z</time>
      </trkpt>
      <trkpt lat="44.76947" lon="3.88398">
        <ele>1154</ele>
        <time>2013-09-26T06:55:58Z</time>
      </trkpt>
      <trkpt lat="44.76942" lon="3.88398">
        <ele>1154</ele>
        <time>2013-09-26T06:56:03Z</time>
      </trkpt>
      <trkpt lat="44.76938" lon="3.88393">
        <ele>1154</ele>
        <time>2013-09-26T06:56:06Z</time>
      </trkpt>
      <trkpt lat="44.76934" lon="3.8839">
        <ele>1153</ele>
        <time>2013-09-26T06:56:10Z</time>
      </trkpt>
      <trkpt lat="44.76928" lon="3.88389">
        <ele>1153</ele>
        <time>2013-09-26T06:56:15Z</time>
      </trkpt>
      <trkpt lat="44.76923" lon="3.88391">
        <ele>1153</ele>
        <time>2013-09-26T06:56:19Z</time>
      </trkpt>
      <trkpt lat="44.76918" lon="3.88391">
        <ele>1153</ele>
        <time>2013-09-26T06:56:20Z</time>
      </trkpt>
      <trkpt lat="44.76914" lon="3.88393">
        <ele>1148</ele>
        <time>2013-09-26T06:56:22Z</time>
      </trkpt>
      <trkpt lat="44.76909" lon="3.88395">
        <ele>1148</ele>
        <time>2013-09-26T06:56:24Z</time>
      </trkpt>
      <trkpt lat="44.76905" lon="3.88393">
        <ele>1148</ele>
        <time>2013-09-26T06:56:27Z</time>
      </trkpt>
      <trkpt lat="44.76901" lon="3.8839">
        <ele>1148</ele>
        <time>2013-09-26T06:56:30Z</time>
      </trkpt>
      <trkpt lat="44.76901" lon="3.88383">
        <ele>1148</ele>
        <time>2013-09-26T06:56:36Z</time>
      </trkpt>
      <trkpt lat="44.76896" lon="3.88379">
        <ele>1148</ele>
        <time>2013-09-26T06:56:51Z</time>
      </trkpt>
      <trkpt lat="44.76891" lon="3.88379">
        <ele>1148</ele>
        <time>2013-09-26T06:56:55Z</time>
      </trkpt>
      <trkpt lat="44.76887" lon="3.88376">
        <ele>1147</ele>
        <time>2013-09-26T06:57:03Z</time>
      </trkpt>
      <trkpt lat="44.76882" lon="3.8838">
        <ele>1147</ele>
        <time>2013-09-26T06:57:07Z</time>
      </trkpt>
      <trkpt lat="44.76878" lon="3.88382">
        <ele>1147</ele>
        <time>2013-09-26T06:57:11Z</time>
      </trkpt>
      <trkpt lat="44.76873" lon="3.88385">
        <ele>1146</ele>
        <time>2013-09-26T06:57:15Z</time>
      </trkpt>
      <trkpt lat="44.76868" lon="3.88387">
        <ele>1146</ele>
        <time>2013-09-26T06:57:19Z</time>
      </trkpt>
      <trkpt lat="44.76864" lon="3.88386">
        <ele>1146</ele>
        <time>2013-09-26T06:57:26Z</time>
      </trkpt>
      <trkpt lat="44.76867" lon="3.88392">
        <ele>1146</ele>
        <time>2013-09-26T06:58:07Z</time>
      </trkpt>
      <trkpt lat="44.76874" lon="3.88394">
        <ele>1146</ele>
        <time>2013-09-26T06:58:11Z</time>
      </trkpt>
      <trkpt lat="44.76878" lon="3.88391">
        <ele>1147</ele>
        <time>2013-09-26T06:58:26Z</time>
      </trkpt>
      <trkpt lat="44.76874" lon="3.88395">
        <ele>1146</ele>
        <time>2013-09-26T06:59:04Z</time>
      </trkpt>
      <trkpt lat="44.7687" lon="3.88394">
        <ele>1146</ele>
        <time>2013-09-26T06:59:26Z</time>
      </trkpt>
      <trkpt lat="44.76864" lon="3.88394">
        <ele>1146</ele>
        <time>2013-09-26T06:59:32Z</time>
      </trkpt>
      <trkpt lat="44.76859" lon="3.88394">
        <ele>1145</ele>
        <time>2013-09-26T06:59:38Z</time>
      </trkpt>
      <trkpt lat="44.76855" lon="3.88394">
        <ele>1145</ele>
        <time>2013-09-26T06:59:46Z</time>
      </trkpt>
      <trkpt lat="44.76849" lon="3.88398">
        <ele>1144</ele>
        <time>2013-09-26T06:59:58Z</time>
      </trkpt>
      <trkpt lat="44.76846" lon="3.88402">
        <ele>1143</ele>
        <time>2013-09-26T07:00:01Z</time>
      </trkpt>
      <trkpt lat="44.76841" lon="3.88405">
        <ele>1142</ele>
        <time>2013-09-26T07:00:04Z</time>
      </trkpt>
      <trkpt lat="44.76835" lon="3.88406">
        <ele>1142</ele>
        <time>2013-09-26T07:00:07Z</time>
      </trkpt>
      <trkpt lat="44.7683" lon="3.88409">
        <ele>1139</ele>
        <time>2013-09-26T07:00:10Z</time>
      </trkpt>
      <trkpt lat="44.76825" lon="3.8841">
        <ele>1138</ele>
        <time>2013-09-26T07:00:12Z</time>
      </trkpt>
      <trkpt lat="44.7682" lon="3.88413">
        <ele>1138</ele>
        <time>2013-09-26T07:00:15Z</time>
      </trkpt>
      <trkpt lat="44.76815" lon="3.88414">
        <ele>1138</ele>
        <time>2013-09-26T07:00:18Z</time>
      </trkpt>
      <trkpt lat="44.76811" lon="3.88412">
        <ele>1137</ele>
        <time>2013-09-26T07:00:21Z</time>
      </trkpt>
      <trkpt lat="44.76807" lon="3.8841">
        <ele>1137</ele>
        <time>2013-09-26T07:00:27Z</time>
      </trkpt>
      <trkpt lat="44.76801" lon="3.88411">
        <ele>1137</ele>
        <time>2013-09-26T07:00:31Z</time>
      </trkpt>
      <trkpt lat="44.76797" lon="3.88415">
        <ele>1136</ele>
        <time>2013-09-26T07:00:33Z</time>
      </trkpt>
      <trkpt lat="44.76792" lon="3.88418">
        <ele>1132</ele>
        <time>2013-09-26T07:00:40Z</time>
      </trkpt>
      <trkpt lat="44.76787" lon="3.88418">
        <ele>1131</ele>
        <time>2013-09-26T07:01:11Z</time>
      </trkpt>
      <trkpt lat="44.76782" lon="3.88421">
        <ele>1131</ele>
        <time>2013-09-26T07:01:15Z</time>
      </trkpt>
      <trkpt lat="44.76776" lon="3.88424">
        <ele>1130</ele>
        <time>2013-09-26T07:01:19Z</time>
      </trkpt>
      <trkpt lat="44.76772" lon="3.88428">
        <ele>1130</ele>
        <time>2013-09-26T07:01:22Z</time>
      </trkpt>
      <trkpt lat="44.76769" lon="3.88431">
        <ele>1130</ele>
        <time>2013-09-26T07:01:25Z</time>
      </trkpt>
      <trkpt lat="44.76765" lon="3.88436">
        <ele>1130</ele>
        <time>2013-09-26T07:01:28Z</time>
      </trkpt>
      <trkpt lat="44.7676" lon="3.88438">
        <ele>1129</ele>
        <time>2013-09-26T07:01:32Z</time>
      </trkpt>
      <trkpt lat="44.76758" lon="3.88445">
        <ele>1129</ele>
        <time>2013-09-26T07:02:04Z</time>
      </trkpt>
      <trkpt lat="44.76765" lon="3.8845">
        <ele>1130</ele>
        <time>2013-09-26T07:02:17Z</time>
      </trkpt>
      <trkpt lat="44.76772" lon="3.88446">
        <ele>1130</ele>
        <time>2013-09-26T07:02:21Z</time>
      </trkpt>
      <trkpt lat="44.76776" lon="3.88443">
        <ele>1130</ele>
        <time>2013-09-26T07:02:22Z</time>
      </trkpt>
      <trkpt lat="44.76783" lon="3.88433">
        <ele>1131</ele>
        <time>2013-09-26T07:02:23Z</time>
      </trkpt>
      <trkpt lat="44.7679" lon="3.88426">
        <ele>1131</ele>
        <time>2013-09-26T07:02:24Z</time>
      </trkpt>
      <trkpt lat="44.76797" lon="3.88424">
        <ele>1132</ele>
        <time>2013-09-26T07:02:33Z</time>
      </trkpt>
      <trkpt lat="44.76806" lon="3.88425">
        <ele>1133</ele>
        <time>2013-09-26T07:02:42Z</time>
      </trkpt>
      <trkpt lat="44.76813" lon="3.88419">
        <ele>1134</ele>
        <time>2013-09-26T07:02:45Z</time>
      </trkpt>
      <trkpt lat="44.76823" lon="3.88406">
        <ele>1138</ele>
        <time>2013-09-26T07:02:46Z</time>
      </trkpt>
      <trkpt lat="44.76827" lon="3.88402">
        <ele>1138</ele>
        <time>2013-09-26T07:02:47Z</time>
      </trkpt>
      <trkpt lat="44.76831" lon="3.88401">
        <ele>1138</ele>
        <time>2013-09-26T07:02:58Z</time>
      </trkpt>
      <trkpt lat="44.76836" lon="3.88403">
        <ele>1142</ele>
        <time>2013-09-26T07:03:07Z</time>
      </trkpt>
      <trkpt lat="44.76838" lon="3.88397">
        <ele>1143</ele>
        <time>2013-09-26T07:03:40Z</time>
      </trkpt>
      <trkpt lat="44.76838" lon="3.8839">
        <ele>1144</ele>
        <time>2013-09-26T07:03:45Z</time>
      </trkpt>
      <trkpt lat="44.76833" lon="3.8839">
        <ele>1139</ele>
        <time>2013-09-26T07:04:02Z</time>
      </trkpt>
      <trkpt lat="44.76728" lon="3.88478">
        <ele>1125</ele>
        <time>2013-09-26T07:07:53Z</time>
      </trkpt>
      <trkpt lat="44.76726" lon="3.88439">
        <ele>1125</ele>
        <time>2013-09-26T07:07:53Z</time>
      </trkpt>
      <trkpt lat="44.7672" lon="3.88421">
        <ele>1125</ele>
        <time>2013-09-26T07:07:54Z</time>
      </trkpt>
      <trkpt lat="44.76728" lon="3.88407">
        <ele>1126</ele>
        <time>2013-09-26T07:07:56Z</time>
      </trkpt>
      <trkpt lat="44.76732" lon="3.88399">
        <ele>1126</ele>
        <time>2013-09-26T07:07:57Z</time>
      </trkpt>
      <trkpt lat="44.76728" lon="3.88392">
        <ele>1126</ele>
        <time>2013-09-26T07:07:59Z</time>
      </trkpt>
      <trkpt lat="44.7673" lon="3.8838">
        <ele>1127</ele>
        <time>2013-09-26T07:08:05Z</time>
      </trkpt>
      <trkpt lat="44.76728" lon="3.88386">
        <ele>1126</ele>
        <time>2013-09-26T07:08:07Z</time>
      </trkpt>
      <trkpt lat="44.76734" lon="3.88387">
        <ele>1127</ele>
        <time>2013-09-26T07:08:42Z</time>
      </trkpt>
      <trkpt lat="44.7674" lon="3.88385">
        <ele>1127</ele>
        <time>2013-09-26T07:08:44Z</time>
      </trkpt>
      <trkpt lat="44.76747" lon="3.8838">
        <ele>1127</ele>
        <time>2013-09-26T07:08:46Z</time>
      </trkpt>
      <trkpt lat="44.76754" lon="3.88373">
        <ele>1135</ele>
        <time>2013-09-26T07:08:48Z</time>
      </trkpt>
      <trkpt lat="44.76759" lon="3.88368">
        <ele>1135</ele>
        <time>2013-09-26T07:08:49Z</time>
      </trkpt>
      <trkpt lat="44.76764" lon="3.88364">
        <ele>1136</ele>
        <time>2013-09-26T07:08:50Z</time>
      </trkpt>
      <trkpt lat="44.76767" lon="3.8836">
        <ele>1136</ele>
        <time>2013-09-26T07:08:53Z</time>
      </trkpt>
      <trkpt lat="44.76769" lon="3.88354">
        <ele>1136</ele>
        <time>2013-09-26T07:09:05Z</time>
      </trkpt>
      <trkpt lat="44.76771" lon="3.88347">
        <ele>1136</ele>
        <time>2013-09-26T07:09:21Z</time>
      </trkpt>
      <trkpt lat="44.76776" lon="3.88342">
        <ele>1137</ele>
        <time>2013-09-26T07:09:26Z</time>
      </trkpt>
      <trkpt lat="44.76778" lon="3.88336">
        <ele>1137</ele>
        <time>2013-09-26T07:09:32Z</time>
      </trkpt>
      <trkpt lat="44.76773" lon="3.88343">
        <ele>1136</ele>
        <time>2013-09-26T07:11:19Z</time>
      </trkpt>
      <trkpt lat="44.76767" lon="3.88349">
        <ele>1136</ele>
        <time>2013-09-26T07:11:21Z</time>
      </trkpt>
      <trkpt lat="44.7676" lon="3.88353">
        <ele>1136</ele>
        <time>2013-09-26T07:11:23Z</time>
      </trkpt>
      <trkpt lat="44.76752" lon="3.88356">
        <ele>1135</ele>
        <time>2013-09-26T07:11:25Z</time>
      </trkpt>
      <trkpt lat="44.76745" lon="3.88359">
        <ele>1129</ele>
        <time>2013-09-26T07:11:27Z</time>
      </trkpt>
      <trkpt lat="44.76738" lon="3.8836">
        <ele>1128</ele>
        <time>2013-09-26T07:11:29Z</time>
      </trkpt>
      <trkpt lat="44.76732" lon="3.8836">
        <ele>1128</ele>
        <time>2013-09-26T07:11:31Z</time>
      </trkpt>
      <trkpt lat="44.76726" lon="3.8836">
        <ele>1127</ele>
        <time>2013-09-26T07:11:33Z</time>
      </trkpt>
      <trkpt lat="44.7672" lon="3.8836">
        <ele>1127</ele>
        <time>2013-09-26T07:11:35Z</time>
      </trkpt>
      <trkpt lat="44.76714" lon="3.88361">
        <ele>1126</ele>
        <time>2013-09-26T07:11:37Z</time>
      </trkpt>
      <trkpt lat="44.76709" lon="3.88362">
        <ele>1126</ele>
        <time>2013-09-26T07:11:39Z</time>
      </trkpt>
      <trkpt lat="44.76708" lon="3.88368">
        <ele>1126</ele>
        <time>2013-09-26T07:11:44Z</time>
      </trkpt>
      <trkpt lat="44.76703" lon="3.88373">
        <ele>1125</ele>
        <time>2013-09-26T07:11:48Z</time>
      </trkpt>
      <trkpt lat="44.767" lon="3.88379">
        <ele>1125</ele>
        <time>2013-09-26T07:11:52Z</time>
      </trkpt>
      <trkpt lat="44.76696" lon="3.88383">
        <ele>1124</ele>
        <time>2013-09-26T07:11:55Z</time>
      </trkpt>
      <trkpt lat="44.7669" lon="3.88384">
        <ele>1124</ele>
        <time>2013-09-26T07:11:58Z</time>
      </trkpt>
      <trkpt lat="44.76685" lon="3.88385">
        <ele>1124</ele>
        <time>2013-09-26T07:12:01Z</time>
      </trkpt>
      <trkpt lat="44.7668" lon="3.88385">
        <ele>1123</ele>
        <time>2013-09-26T07:12:04Z</time>
      </trkpt>
      <trkpt lat="44.76675" lon="3.88383">
        <ele>1123</ele>
        <time>2013-09-26T07:12:08Z</time>
      </trkpt>
      <trkpt lat="44.76671" lon="3.88379">
        <ele>1123</ele>
        <time>2013-09-26T07:12:12Z</time>
      </trkpt>
      <trkpt lat="44.76666" lon="3.88375">
        <ele>1119</ele>
        <time>2013-09-26T07:12:17Z</time>
      </trkpt>
      <trkpt lat="44.76662" lon="3.8837">
        <ele>1119</ele>
        <time>2013-09-26T07:12:21Z</time>
      </trkpt>
      <trkpt lat="44.76658" lon="3.88365">
        <ele>1119</ele>
        <time>2013-09-26T07:12:26Z</time>
      </trkpt>
      <trkpt lat="44.76653" lon="3.88361">
        <ele>1119</ele>
        <time>2013-09-26T07:12:31Z</time>
      </trkpt>
      <trkpt lat="44.76649" lon="3.88358">
        <ele>1119</ele>
        <time>2013-09-26T07:12:36Z</time>
      </trkpt>
      <trkpt lat="44.76643" lon="3.88357">
        <ele>1119</ele>
        <time>2013-09-26T07:12:41Z</time>
      </trkpt>
      <trkpt lat="44.76638" lon="3.88356">
        <ele>1119</ele>
        <time>2013-09-26T07:12:45Z</time>
      </trkpt>
      <trkpt lat="44.76634" lon="3.88353">
        <ele>1119</ele>
        <time>2013-09-26T07:12:49Z</time>
      </trkpt>
      <trkpt lat="44.76629" lon="3.88351">
        <ele>1118</ele>
        <time>2013-09-26T07:12:53Z</time>
      </trkpt>
      <trkpt lat="44.76625" lon="3.88348">
        <ele>1118</ele>
        <time>2013-09-26T07:12:57Z</time>
      </trkpt>
      <trkpt lat="44.76621" lon="3.88343">
        <ele>1118</ele>
        <time>2013-09-26T07:13:01Z</time>
      </trkpt>
      <trkpt lat="44.76617" lon="3.88339">
        <ele>1118</ele>
        <time>2013-09-26T07:13:06Z</time>
      </trkpt>
      <trkpt lat="44.76612" lon="3.88337">
        <ele>1118</ele>
        <time>2013-09-26T07:13:09Z</time>
      </trkpt>
      <trkpt lat="44.76608" lon="3.88334">
        <ele>1118</ele>
        <time>2013-09-26T07:13:13Z</time>
      </trkpt>
      <trkpt lat="44.76604" lon="3.88331">
        <ele>1119</ele>
        <time>2013-09-26T07:13:17Z</time>
      </trkpt>
      <trkpt lat="44.76599" lon="3.88328">
        <ele>1119</ele>
        <time>2013-09-26T07:13:21Z</time>
      </trkpt>
      <trkpt lat="44.76594" lon="3.88326">
        <ele>1118</ele>
        <time>2013-09-26T07:13:25Z</time>
      </trkpt>
      <trkpt lat="44.7659" lon="3.88323">
        <ele>1118</ele>
        <time>2013-09-26T07:13:28Z</time>
      </trkpt>
      <trkpt lat="44.76584" lon="3.88321">
        <ele>1118</ele>
        <time>2013-09-26T07:13:32Z</time>
      </trkpt>
      <trkpt lat="44.76579" lon="3.88317">
        <ele>1115</ele>
        <time>2013-09-26T07:13:36Z</time>
      </trkpt>
      <trkpt lat="44.76574" lon="3.88316">
        <ele>1114</ele>
        <time>2013-09-26T07:13:40Z</time>
      </trkpt>
      <trkpt lat="44.76569" lon="3.88312">
        <ele>1114</ele>
        <time>2013-09-26T07:13:44Z</time>
      </trkpt>
      <trkpt lat="44.76565" lon="3.88308">
        <ele>1113</ele>
        <time>2013-09-26T07:13:47Z</time>
      </trkpt>
      <trkpt lat="44.76561" lon="3.88306">
        <ele>1113</ele>
        <time>2013-09-26T07:13:50Z</time>
      </trkpt>
      <trkpt lat="44.76556" lon="3.88303">
        <ele>1112</ele>
        <time>2013-09-26T07:13:55Z</time>
      </trkpt>
      <trkpt lat="44.76551" lon="3.883">
        <ele>1112</ele>
        <time>2013-09-26T07:13:57Z</time>
      </trkpt>
      <trkpt lat="44.76546" lon="3.88297">
        <ele>1111</ele>
        <time>2013-09-26T07:14:01Z</time>
      </trkpt>
      <trkpt lat="44.7654" lon="3.88296">
        <ele>1111</ele>
        <time>2013-09-26T07:14:05Z</time>
      </trkpt>
      <trkpt lat="44.76535" lon="3.88293">
        <ele>1110</ele>
        <time>2013-09-26T07:14:10Z</time>
      </trkpt>
      <trkpt lat="44.7653" lon="3.88292">
        <ele>1110</ele>
        <time>2013-09-26T07:14:12Z</time>
      </trkpt>
      <trkpt lat="44.76526" lon="3.88289">
        <ele>1110</ele>
        <time>2013-09-26T07:14:16Z</time>
      </trkpt>
      <trkpt lat="44.7652" lon="3.88288">
        <ele>1109</ele>
        <time>2013-09-26T07:14:20Z</time>
      </trkpt>
      <trkpt lat="44.76515" lon="3.88287">
        <ele>1109</ele>
        <time>2013-09-26T07:14:24Z</time>
      </trkpt>
      <trkpt lat="44.7651" lon="3.88285">
        <ele>1109</ele>
        <time>2013-09-26T07:14:28Z</time>
      </trkpt>
      <trkpt lat="44.76505" lon="3.88284">
        <ele>1109</ele>
        <time>2013-09-26T07:14:33Z</time>
      </trkpt>
      <trkpt lat="44.765" lon="3.88282">
        <ele>1109</ele>
        <time>2013-09-26T07:14:38Z</time>
      </trkpt>
      <trkpt lat="44.76496" lon="3.88279">
        <ele>1101</ele>
        <time>2013-09-26T07:14:42Z</time>
      </trkpt>
      <trkpt lat="44.76492" lon="3.88275">
        <ele>1101</ele>
        <time>2013-09-26T07:14:46Z</time>
      </trkpt>
      <trkpt lat="44.76487" lon="3.88273">
        <ele>1101</ele>
        <time>2013-09-26T07:14:50Z</time>
      </trkpt>
      <trkpt lat="44.76482" lon="3.8827">
        <ele>1100</ele>
        <time>2013-09-26T07:14:54Z</time>
      </trkpt>
      <trkpt lat="44.76477" lon="3.88268">
        <ele>1100</ele>
        <time>2013-09-26T07:14:58Z</time>
      </trkpt>
      <trkpt lat="44.76473" lon="3.88267">
        <ele>1100</ele>
        <time>2013-09-26T07:15:02Z</time>
      </trkpt>
      <trkpt lat="44.76468" lon="3.88264">
        <ele>1099</ele>
        <time>2013-09-26T07:15:07Z</time>
      </trkpt>
      <trkpt lat="44.76463" lon="3.88263">
        <ele>1099</ele>
        <time>2013-09-26T07:15:11Z</time>
      </trkpt>
      <trkpt lat="44.76458" lon="3.8826">
        <ele>1098</ele>
        <time>2013-09-26T07:15:15Z</time>
      </trkpt>
      <trkpt lat="44.76454" lon="3.88257">
        <ele>1098</ele>
        <time>2013-09-26T07:15:19Z</time>
      </trkpt>
      <trkpt lat="44.76449" lon="3.88254">
        <ele>1097</ele>
        <time>2013-09-26T07:15:24Z</time>
      </trkpt>
      <trkpt lat="44.76445" lon="3.88251">
        <ele>1097</ele>
        <time>2013-09-26T07:15:27Z</time>
      </trkpt>
      <trkpt lat="44.7644" lon="3.88248">
        <ele>1101</ele>
        <time>2013-09-26T07:15:31Z</time>
      </trkpt>
      <trkpt lat="44.76435" lon="3.88247">
        <ele>1100</ele>
        <time>2013-09-26T07:15:35Z</time>
      </trkpt>
      <trkpt lat="44.76431" lon="3.88244">
        <ele>1099</ele>
        <time>2013-09-26T07:15:39Z</time>
      </trkpt>
      <trkpt lat="44.76426" lon="3.88241">
        <ele>1099</ele>
        <time>2013-09-26T07:15:43Z</time>
      </trkpt>
      <trkpt lat="44.76421" lon="3.88237">
        <ele>1099</ele>
        <time>2013-09-26T07:15:47Z</time>
      </trkpt>
      <trkpt lat="44.76417" lon="3.88234">
        <ele>1099</ele>
        <time>2013-09-26T07:15:51Z</time>
      </trkpt>
      <trkpt lat="44.76412" lon="3.88229">
        <ele>1095</ele>
        <time>2013-09-26T07:15:55Z</time>
      </trkpt>
      <trkpt lat="44.76408" lon="3.88225">
        <ele>1095</ele>
        <time>2013-09-26T07:15:58Z</time>
      </trkpt>
      <trkpt lat="44.76404" lon="3.88222">
        <ele>1095</ele>
        <time>2013-09-26T07:16:01Z</time>
      </trkpt>
      <trkpt lat="44.764" lon="3.88217">
        <ele>1095</ele>
        <time>2013-09-26T07:16:05Z</time>
      </trkpt>
      <trkpt lat="44.76395" lon="3.88213">
        <ele>1096</ele>
        <time>2013-09-26T07:16:10Z</time>
      </trkpt>
      <trkpt lat="44.7639" lon="3.88209">
        <ele>1096</ele>
        <time>2013-09-26T07:16:13Z</time>
      </trkpt>
      <trkpt lat="44.76385" lon="3.88206">
        <ele>1096</ele>
        <time>2013-09-26T07:16:17Z</time>
      </trkpt>
      <trkpt lat="44.76381" lon="3.88202">
        <ele>1096</ele>
        <time>2013-09-26T07:16:21Z</time>
      </trkpt>
      <trkpt lat="44.76377" lon="3.88198">
        <ele>1096</ele>
        <time>2013-09-26T07:16:25Z</time>
      </trkpt>
      <trkpt lat="44.76373" lon="3.88195">
        <ele>1095</ele>
        <time>2013-09-26T07:16:29Z</time>
      </trkpt>
      <trkpt lat="44.7637" lon="3.88191">
        <ele>1096</ele>
        <time>2013-09-26T07:16:33Z</time>
      </trkpt>
      <trkpt lat="44.76365" lon="3.88187">
        <ele>1095</ele>
        <time>2013-09-26T07:16:37Z</time>
      </trkpt>
      <trkpt lat="44.76361" lon="3.88185">
        <ele>1095</ele>
        <time>2013-09-26T07:16:41Z</time>
      </trkpt>
      <trkpt lat="44.76356" lon="3.88181">
        <ele>1095</ele>
        <time>2013-09-26T07:16:45Z</time>
      </trkpt>
      <trkpt lat="44.76352" lon="3.88177">
        <ele>1095</ele>
        <time>2013-09-26T07:16:49Z</time>
      </trkpt>
      <trkpt lat="44.76347" lon="3.88173">
        <ele>1095</ele>
        <time>2013-09-26T07:16:53Z</time>
      </trkpt>
      <trkpt lat="44.76343" lon="3.8817">
        <ele>1095</ele>
        <time>2013-09-26T07:16:56Z</time>
      </trkpt>
      <trkpt lat="44.76339" lon="3.88166">
        <ele>1097</ele>
        <time>2013-09-26T07:17:00Z</time>
      </trkpt>
      <trkpt lat="44.76334" lon="3.88162">
        <ele>1097</ele>
        <time>2013-09-26T07:17:04Z</time>
      </trkpt>
      <trkpt lat="44.76329" lon="3.88158">
        <ele>1095</ele>
        <time>2013-09-26T07:17:08Z</time>
      </trkpt>
      <trkpt lat="44.76325" lon="3.88154">
        <ele>1095</ele>
        <time>2013-09-26T07:17:12Z</time>
      </trkpt>
      <trkpt lat="44.76321" lon="3.88149">
        <ele>1094</ele>
        <time>2013-09-26T07:17:16Z</time>
      </trkpt>
      <trkpt lat="44.76315" lon="3.88146">
        <ele>1094</ele>
        <time>2013-09-26T07:17:20Z</time>
      </trkpt>
      <trkpt lat="44.7631" lon="3.88142">
        <ele>1094</ele>
        <time>2013-09-26T07:17:24Z</time>
      </trkpt>
      <trkpt lat="44.76306" lon="3.88138">
        <ele>1094</ele>
        <time>2013-09-26T07:17:29Z</time>
      </trkpt>
      <trkpt lat="44.76303" lon="3.88134">
        <ele>1094</ele>
        <time>2013-09-26T07:17:32Z</time>
      </trkpt>
      <trkpt lat="44.76298" lon="3.88131">
        <ele>1094</ele>
        <time>2013-09-26T07:17:36Z</time>
      </trkpt>
      <trkpt lat="44.76294" lon="3.88127">
        <ele>1094</ele>
        <time>2013-09-26T07:17:40Z</time>
      </trkpt>
      <trkpt lat="44.76289" lon="3.88124">
        <ele>1094</ele>
        <time>2013-09-26T07:17:44Z</time>
      </trkpt>
      <trkpt lat="44.76284" lon="3.88119">
        <ele>1093</ele>
        <time>2013-09-26T07:17:48Z</time>
      </trkpt>
      <trkpt lat="44.76281" lon="3.88115">
        <ele>1093</ele>
        <time>2013-09-26T07:17:52Z</time>
      </trkpt>
      <trkpt lat="44.76277" lon="3.8811">
        <ele>1093</ele>
        <time>2013-09-26T07:17:56Z</time>
      </trkpt>
      <trkpt lat="44.76273" lon="3.88107">
        <ele>1093</ele>
        <time>2013-09-26T07:18:00Z</time>
      </trkpt>
      <trkpt lat="44.76268" lon="3.88103">
        <ele>1093</ele>
        <time>2013-09-26T07:18:05Z</time>
      </trkpt>
      <trkpt lat="44.76264" lon="3.88098">
        <ele>1093</ele>
        <time>2013-09-26T07:18:09Z</time>
      </trkpt>
      <trkpt lat="44.7626" lon="3.88094">
        <ele>1092</ele>
        <time>2013-09-26T07:18:13Z</time>
      </trkpt>
      <trkpt lat="44.76256" lon="3.88088">
        <ele>1092</ele>
        <time>2013-09-26T07:18:18Z</time>
      </trkpt>
      <trkpt lat="44.76253" lon="3.88082">
        <ele>1092</ele>
        <time>2013-09-26T07:18:21Z</time>
      </trkpt>
      <trkpt lat="44.76251" lon="3.88076">
        <ele>1093</ele>
        <time>2013-09-26T07:18:25Z</time>
      </trkpt>
      <trkpt lat="44.76249" lon="3.8807">
        <ele>1090</ele>
        <time>2013-09-26T07:18:29Z</time>
      </trkpt>
      <trkpt lat="44.76246" lon="3.88063">
        <ele>1089</ele>
        <time>2013-09-26T07:18:34Z</time>
      </trkpt>
      <trkpt lat="44.76244" lon="3.88057">
        <ele>1089</ele>
        <time>2013-09-26T07:18:38Z</time>
      </trkpt>
      <trkpt lat="44.76242" lon="3.88051">
        <ele>1089</ele>
        <time>2013-09-26T07:18:42Z</time>
      </trkpt>
      <trkpt lat="44.76239" lon="3.88045">
        <ele>1089</ele>
        <time>2013-09-26T07:18:46Z</time>
      </trkpt>
      <trkpt lat="44.76235" lon="3.88041">
        <ele>1089</ele>
        <time>2013-09-26T07:18:51Z</time>
      </trkpt>
      <trkpt lat="44.76233" lon="3.88035">
        <ele>1089</ele>
        <time>2013-09-26T07:18:56Z</time>
      </trkpt>
      <trkpt lat="44.76231" lon="3.88028">
        <ele>1089</ele>
        <time>2013-09-26T07:19:00Z</time>
      </trkpt>
      <trkpt lat="44.76229" lon="3.88022">
        <ele>1090</ele>
        <time>2013-09-26T07:19:04Z</time>
      </trkpt>
      <trkpt lat="44.76226" lon="3.88016">
        <ele>1090</ele>
        <time>2013-09-26T07:19:08Z</time>
      </trkpt>
      <trkpt lat="44.76225" lon="3.8801">
        <ele>1090</ele>
        <time>2013-09-26T07:19:12Z</time>
      </trkpt>
      <trkpt lat="44.76222" lon="3.88004">
        <ele>1090</ele>
        <time>2013-09-26T07:19:16Z</time>
      </trkpt>
      <trkpt lat="44.7622" lon="3.87997">
        <ele>1090</ele>
        <time>2013-09-26T07:19:20Z</time>
      </trkpt>
      <trkpt lat="44.76218" lon="3.87991">
        <ele>1089</ele>
        <time>2013-09-26T07:19:26Z</time>
      </trkpt>
      <trkpt lat="44.76214" lon="3.87986">
        <ele>1089</ele>
        <time>2013-09-26T07:19:32Z</time>
      </trkpt>
      <trkpt lat="44.76211" lon="3.8798">
        <ele>1088</ele>
        <time>2013-09-26T07:19:37Z</time>
      </trkpt>
      <trkpt lat="44.76209" lon="3.87974">
        <ele>1088</ele>
        <time>2013-09-26T07:19:41Z</time>
      </trkpt>
      <trkpt lat="44.76207" lon="3.87966">
        <ele>1088</ele>
        <time>2013-09-26T07:19:45Z</time>
      </trkpt>
      <trkpt lat="44.76206" lon="3.87959">
        <ele>1088</ele>
        <time>2013-09-26T07:19:49Z</time>
      </trkpt>
      <trkpt lat="44.76204" lon="3.87953">
        <ele>1087</ele>
        <time>2013-09-26T07:19:53Z</time>
      </trkpt>
      <trkpt lat="44.76202" lon="3.87947">
        <ele>1087</ele>
        <time>2013-09-26T07:19:57Z</time>
      </trkpt>
      <trkpt lat="44.76198" lon="3.87941">
        <ele>1087</ele>
        <time>2013-09-26T07:20:01Z</time>
      </trkpt>
      <trkpt lat="44.76195" lon="3.87936">
        <ele>1086</ele>
        <time>2013-09-26T07:20:05Z</time>
      </trkpt>
      <trkpt lat="44.76192" lon="3.87929">
        <ele>1086</ele>
        <time>2013-09-26T07:20:09Z</time>
      </trkpt>
      <trkpt lat="44.76189" lon="3.87922">
        <ele>1085</ele>
        <time>2013-09-26T07:20:13Z</time>
      </trkpt>
      <trkpt lat="44.76187" lon="3.87916">
        <ele>1082</ele>
        <time>2013-09-26T07:20:18Z</time>
      </trkpt>
      <trkpt lat="44.76184" lon="3.8791">
        <ele>1082</ele>
        <time>2013-09-26T07:20:21Z</time>
      </trkpt>
      <trkpt lat="44.7618" lon="3.87904">
        <ele>1081</ele>
        <time>2013-09-26T07:20:25Z</time>
      </trkpt>
      <trkpt lat="44.76178" lon="3.87899">
        <ele>1081</ele>
        <time>2013-09-26T07:20:29Z</time>
      </trkpt>
      <trkpt lat="44.76176" lon="3.87893">
        <ele>1081</ele>
        <time>2013-09-26T07:20:33Z</time>
      </trkpt>
      <trkpt lat="44.76172" lon="3.87888">
        <ele>1081</ele>
        <time>2013-09-26T07:20:37Z</time>
      </trkpt>
      <trkpt lat="44.7617" lon="3.87881">
        <ele>1080</ele>
        <time>2013-09-26T07:20:42Z</time>
      </trkpt>
      <trkpt lat="44.76167" lon="3.87875">
        <ele>1074</ele>
        <time>2013-09-26T07:20:47Z</time>
      </trkpt>
      <trkpt lat="44.76163" lon="3.87869">
        <ele>1074</ele>
        <time>2013-09-26T07:20:51Z</time>
      </trkpt>
      <trkpt lat="44.7616" lon="3.87864">
        <ele>1074</ele>
        <time>2013-09-26T07:20:54Z</time>
      </trkpt>
      <trkpt lat="44.76158" lon="3.87859">
        <ele>1073</ele>
        <time>2013-09-26T07:20:57Z</time>
      </trkpt>
      <trkpt lat="44.76155" lon="3.87852">
        <ele>1073</ele>
        <time>2013-09-26T07:21:01Z</time>
      </trkpt>
      <trkpt lat="44.76151" lon="3.87845">
        <ele>1073</ele>
        <time>2013-09-26T07:21:05Z</time>
      </trkpt>
      <trkpt lat="44.76148" lon="3.8784">
        <ele>1073</ele>
        <time>2013-09-26T07:21:09Z</time>
      </trkpt>
      <trkpt lat="44.76146" lon="3.87834">
        <ele>1073</ele>
        <time>2013-09-26T07:21:13Z</time>
      </trkpt>
      <trkpt lat="44.76143" lon="3.87828">
        <ele>1069</ele>
        <time>2013-09-26T07:21:17Z</time>
      </trkpt>
      <trkpt lat="44.7614" lon="3.87822">
        <ele>1069</ele>
        <time>2013-09-26T07:21:21Z</time>
      </trkpt>
      <trkpt lat="44.76136" lon="3.87816">
        <ele>1069</ele>
        <time>2013-09-26T07:21:25Z</time>
      </trkpt>
      <trkpt lat="44.76133" lon="3.8781">
        <ele>1068</ele>
        <time>2013-09-26T07:21:29Z</time>
      </trkpt>
      <trkpt lat="44.76129" lon="3.87806">
        <ele>1068</ele>
        <time>2013-09-26T07:21:34Z</time>
      </trkpt>
      <trkpt lat="44.76126" lon="3.87799">
        <ele>1068</ele>
        <time>2013-09-26T07:21:37Z</time>
      </trkpt>
      <trkpt lat="44.76123" lon="3.87793">
        <ele>1067</ele>
        <time>2013-09-26T07:21:41Z</time>
      </trkpt>
      <trkpt lat="44.7612" lon="3.87788">
        <ele>1067</ele>
        <time>2013-09-26T07:21:45Z</time>
      </trkpt>
      <trkpt lat="44.76117" lon="3.87782">
        <ele>1067</ele>
        <time>2013-09-26T07:21:50Z</time>
      </trkpt>
      <trkpt lat="44.76115" lon="3.87775">
        <ele>1067</ele>
        <time>2013-09-26T07:21:53Z</time>
      </trkpt>
      <trkpt lat="44.76111" lon="3.8777">
        <ele>1066</ele>
        <time>2013-09-26T07:21:57Z</time>
      </trkpt>
      <trkpt lat="44.76107" lon="3.87764">
        <ele>1066</ele>
        <time>2013-09-26T07:22:02Z</time>
      </trkpt>
      <trkpt lat="44.76103" lon="3.87759">
        <ele>1066</ele>
        <time>2013-09-26T07:22:05Z</time>
      </trkpt>
      <trkpt lat="44.76099" lon="3.87755">
        <ele>1065</ele>
        <time>2013-09-26T07:22:09Z</time>
      </trkpt>
      <trkpt lat="44.76096" lon="3.87749">
        <ele>1063</ele>
        <time>2013-09-26T07:22:13Z</time>
      </trkpt>
      <trkpt lat="44.76094" lon="3.87742">
        <ele>1063</ele>
        <time>2013-09-26T07:22:17Z</time>
      </trkpt>
      <trkpt lat="44.76091" lon="3.87735">
        <ele>1063</ele>
        <time>2013-09-26T07:22:21Z</time>
      </trkpt>
      <trkpt lat="44.76089" lon="3.87728">
        <ele>1063</ele>
        <time>2013-09-26T07:22:25Z</time>
      </trkpt>
      <trkpt lat="44.76086" lon="3.87721">
        <ele>1062</ele>
        <time>2013-09-26T07:22:29Z</time>
      </trkpt>
      <trkpt lat="44.76084" lon="3.87715">
        <ele>1062</ele>
        <time>2013-09-26T07:22:33Z</time>
      </trkpt>
      <trkpt lat="44.76083" lon="3.87708">
        <ele>1063</ele>
        <time>2013-09-26T07:22:37Z</time>
      </trkpt>
      <trkpt lat="44.76081" lon="3.877">
        <ele>1062</ele>
        <time>2013-09-26T07:22:41Z</time>
      </trkpt>
      <trkpt lat="44.76078" lon="3.87694">
        <ele>1062</ele>
        <time>2013-09-26T07:22:45Z</time>
      </trkpt>
      <trkpt lat="44.76077" lon="3.87686">
        <ele>1062</ele>
        <time>2013-09-26T07:22:49Z</time>
      </trkpt>
      <trkpt lat="44.76076" lon="3.87679">
        <ele>1061</ele>
        <time>2013-09-26T07:22:54Z</time>
      </trkpt>
      <trkpt lat="44.76075" lon="3.87673">
        <ele>1061</ele>
        <time>2013-09-26T07:22:57Z</time>
      </trkpt>
      <trkpt lat="44.76074" lon="3.87665">
        <ele>1060</ele>
        <time>2013-09-26T07:23:02Z</time>
      </trkpt>
      <trkpt lat="44.76072" lon="3.87658">
        <ele>1060</ele>
        <time>2013-09-26T07:23:06Z</time>
      </trkpt>
      <trkpt lat="44.7607" lon="3.87651">
        <ele>1060</ele>
        <time>2013-09-26T07:23:10Z</time>
      </trkpt>
      <trkpt lat="44.76067" lon="3.87644">
        <ele>1060</ele>
        <time>2013-09-26T07:23:14Z</time>
      </trkpt>
      <trkpt lat="44.76065" lon="3.87638">
        <ele>1060</ele>
        <time>2013-09-26T07:23:18Z</time>
      </trkpt>
      <trkpt lat="44.76062" lon="3.87631">
        <ele>1060</ele>
        <time>2013-09-26T07:23:22Z</time>
      </trkpt>
      <trkpt lat="44.76059" lon="3.87624">
        <ele>1060</ele>
        <time>2013-09-26T07:23:26Z</time>
      </trkpt>
      <trkpt lat="44.76056" lon="3.87618">
        <ele>1060</ele>
        <time>2013-09-26T07:23:30Z</time>
      </trkpt>
      <trkpt lat="44.76055" lon="3.87611">
        <ele>1059</ele>
        <time>2013-09-26T07:23:35Z</time>
      </trkpt>
      <trkpt lat="44.76055" lon="3.87603">
        <ele>1059</ele>
        <time>2013-09-26T07:23:40Z</time>
      </trkpt>
      <trkpt lat="44.76054" lon="3.87596">
        <ele>1059</ele>
        <time>2013-09-26T07:23:43Z</time>
      </trkpt>
      <trkpt lat="44.76053" lon="3.87589">
        <ele>1059</ele>
        <time>2013-09-26T07:23:47Z</time>
      </trkpt>
      <trkpt lat="44.76051" lon="3.87582">
        <ele>1055</ele>
        <time>2013-09-26T07:23:51Z</time>
      </trkpt>
      <trkpt lat="44.76049" lon="3.87576">
        <ele>1055</ele>
        <time>2013-09-26T07:23:55Z</time>
      </trkpt>
      <trkpt lat="44.76046" lon="3.87568">
        <ele>1055</ele>
        <time>2013-09-26T07:24:00Z</time>
      </trkpt>
      <trkpt lat="44.76043" lon="3.87562">
        <ele>1055</ele>
        <time>2013-09-26T07:24:03Z</time>
      </trkpt>
      <trkpt lat="44.7604" lon="3.87557">
        <ele>1055</ele>
        <time>2013-09-26T07:24:08Z</time>
      </trkpt>
      <trkpt lat="44.76037" lon="3.87553">
        <ele>1055</ele>
        <time>2013-09-26T07:24:11Z</time>
      </trkpt>
      <trkpt lat="44.76033" lon="3.87547">
        <ele>1055</ele>
        <time>2013-09-26T07:24:15Z</time>
      </trkpt>
      <trkpt lat="44.7603" lon="3.87543">
        <ele>1055</ele>
        <time>2013-09-26T07:24:19Z</time>
      </trkpt>
      <trkpt lat="44.76026" lon="3.87537">
        <ele>1055</ele>
        <time>2013-09-26T07:24:23Z</time>
      </trkpt>
      <trkpt lat="44.76022" lon="3.87533">
        <ele>1054</ele>
        <time>2013-09-26T07:24:27Z</time>
      </trkpt>
      <trkpt lat="44.76017" lon="3.87529">
        <ele>1054</ele>
        <time>2013-09-26T07:24:31Z</time>
      </trkpt>
      <trkpt lat="44.76012" lon="3.87525">
        <ele>1054</ele>
        <time>2013-09-26T07:24:35Z</time>
      </trkpt>
      <trkpt lat="44.76008" lon="3.87521">
        <ele>1054</ele>
        <time>2013-09-26T07:24:39Z</time>
      </trkpt>
      <trkpt lat="44.76004" lon="3.87517">
        <ele>1054</ele>
        <time>2013-09-26T07:24:43Z</time>
      </trkpt>
      <trkpt lat="44.76" lon="3.87514">
        <ele>1055</ele>
        <time>2013-09-26T07:24:48Z</time>
      </trkpt>
      <trkpt lat="44.75995" lon="3.8751">
        <ele>1055</ele>
        <time>2013-09-26T07:24:51Z</time>
      </trkpt>
      <trkpt lat="44.75991" lon="3.87508">
        <ele>1055</ele>
        <time>2013-09-26T07:24:55Z</time>
      </trkpt>
      <trkpt lat="44.75987" lon="3.87504">
        <ele>1055</ele>
        <time>2013-09-26T07:25:00Z</time>
      </trkpt>
      <trkpt lat="44.75982" lon="3.87501">
        <ele>1055</ele>
        <time>2013-09-26T07:25:03Z</time>
      </trkpt>
      <trkpt lat="44.75978" lon="3.87497">
        <ele>1051</ele>
        <time>2013-09-26T07:25:08Z</time>
      </trkpt>
      <trkpt lat="44.75974" lon="3.87493">
        <ele>1051</ele>
        <time>2013-09-26T07:25:11Z</time>
      </trkpt>
      <trkpt lat="44.7597" lon="3.87489">
        <ele>1051</ele>
        <time>2013-09-26T07:25:15Z</time>
      </trkpt>
      <trkpt lat="44.75965" lon="3.87485">
        <ele>1050</ele>
        <time>2013-09-26T07:25:19Z</time>
      </trkpt>
      <trkpt lat="44.75961" lon="3.8748">
        <ele>1050</ele>
        <time>2013-09-26T07:25:23Z</time>
      </trkpt>
      <trkpt lat="44.75957" lon="3.87476">
        <ele>1050</ele>
        <time>2013-09-26T07:25:27Z</time>
      </trkpt>
      <trkpt lat="44.75953" lon="3.87471">
        <ele>1050</ele>
        <time>2013-09-26T07:25:31Z</time>
      </trkpt>
      <trkpt lat="44.75948" lon="3.87466">
        <ele>1050</ele>
        <time>2013-09-26T07:25:35Z</time>
      </trkpt>
      <trkpt lat="44.75943" lon="3.87463">
        <ele>1049</ele>
        <time>2013-09-26T07:25:40Z</time>
      </trkpt>
      <trkpt lat="44.75938" lon="3.87459">
        <ele>1049</ele>
        <time>2013-09-26T07:25:43Z</time>
      </trkpt>
      <trkpt lat="44.75934" lon="3.87455">
        <ele>1049</ele>
        <time>2013-09-26T07:25:48Z</time>
      </trkpt>
      <trkpt lat="44.75929" lon="3.8745">
        <ele>1049</ele>
        <time>2013-09-26T07:25:51Z</time>
      </trkpt>
      <trkpt lat="44.75924" lon="3.87446">
        <ele>1048</ele>
        <time>2013-09-26T07:25:55Z</time>
      </trkpt>
      <trkpt lat="44.75919" lon="3.87444">
        <ele>1048</ele>
        <time>2013-09-26T07:25:59Z</time>
      </trkpt>
      <trkpt lat="44.75914" lon="3.87441">
        <ele>1048</ele>
        <time>2013-09-26T07:26:03Z</time>
      </trkpt>
      <trkpt lat="44.75909" lon="3.87437">
        <ele>1048</ele>
        <time>2013-09-26T07:26:07Z</time>
      </trkpt>
      <trkpt lat="44.75905" lon="3.87432">
        <ele>1048</ele>
        <time>2013-09-26T07:26:11Z</time>
      </trkpt>
      <trkpt lat="44.759" lon="3.87428">
        <ele>1047</ele>
        <time>2013-09-26T07:26:16Z</time>
      </trkpt>
      <trkpt lat="44.75896" lon="3.87423">
        <ele>1047</ele>
        <time>2013-09-26T07:26:19Z</time>
      </trkpt>
      <trkpt lat="44.75892" lon="3.87418">
        <ele>1047</ele>
        <time>2013-09-26T07:26:23Z</time>
      </trkpt>
      <trkpt lat="44.75887" lon="3.87415">
        <ele>1042</ele>
        <time>2013-09-26T07:26:27Z</time>
      </trkpt>
      <trkpt lat="44.75882" lon="3.87413">
        <ele>1042</ele>
        <time>2013-09-26T07:26:31Z</time>
      </trkpt>
      <trkpt lat="44.75878" lon="3.87409">
        <ele>1041</ele>
        <time>2013-09-26T07:26:35Z</time>
      </trkpt>
      <trkpt lat="44.75872" lon="3.87406">
        <ele>1041</ele>
        <time>2013-09-26T07:26:39Z</time>
      </trkpt>
      <trkpt lat="44.75868" lon="3.87403">
        <ele>1041</ele>
        <time>2013-09-26T07:26:43Z</time>
      </trkpt>
      <trkpt lat="44.75863" lon="3.87401">
        <ele>1041</ele>
        <time>2013-09-26T07:26:47Z</time>
      </trkpt>
      <trkpt lat="44.75858" lon="3.87397">
        <ele>1041</ele>
        <time>2013-09-26T07:26:51Z</time>
      </trkpt>
      <trkpt lat="44.75854" lon="3.87394">
        <ele>1041</ele>
        <time>2013-09-26T07:26:55Z</time>
      </trkpt>
      <trkpt lat="44.75849" lon="3.8739">
        <ele>1041</ele>
        <time>2013-09-26T07:27:00Z</time>
      </trkpt>
      <trkpt lat="44.75845" lon="3.87386">
        <ele>1040</ele>
        <time>2013-09-26T07:27:04Z</time>
      </trkpt>
      <trkpt lat="44.75839" lon="3.87383">
        <ele>1040</ele>
        <time>2013-09-26T07:27:08Z</time>
      </trkpt>
      <trkpt lat="44.75835" lon="3.87379">
        <ele>1040</ele>
        <time>2013-09-26T07:27:11Z</time>
      </trkpt>
      <trkpt lat="44.75831" lon="3.87376">
        <ele>1038</ele>
        <time>2013-09-26T07:27:15Z</time>
      </trkpt>
      <trkpt lat="44.75826" lon="3.87372">
        <ele>1038</ele>
        <time>2013-09-26T07:27:18Z</time>
      </trkpt>
      <trkpt lat="44.75821" lon="3.87369">
        <ele>1038</ele>
        <time>2013-09-26T07:27:23Z</time>
      </trkpt>
      <trkpt lat="44.75816" lon="3.87366">
        <ele>1037</ele>
        <time>2013-09-26T07:27:26Z</time>
      </trkpt>
      <trkpt lat="44.75813" lon="3.87362">
        <ele>1037</ele>
        <time>2013-09-26T07:27:30Z</time>
      </trkpt>
      <trkpt lat="44.75808" lon="3.87358">
        <ele>1037</ele>
        <time>2013-09-26T07:27:35Z</time>
      </trkpt>
      <trkpt lat="44.75803" lon="3.87354">
        <ele>1037</ele>
        <time>2013-09-26T07:27:38Z</time>
      </trkpt>
      <trkpt lat="44.75798" lon="3.87351">
        <ele>1037</ele>
        <time>2013-09-26T07:27:42Z</time>
      </trkpt>
      <trkpt lat="44.75793" lon="3.87347">
        <ele>1037</ele>
        <time>2013-09-26T07:27:46Z</time>
      </trkpt>
      <trkpt lat="44.75789" lon="3.87344">
        <ele>1036</ele>
        <time>2013-09-26T07:27:50Z</time>
      </trkpt>
      <trkpt lat="44.75784" lon="3.87341">
        <ele>1036</ele>
        <time>2013-09-26T07:27:54Z</time>
      </trkpt>
      <trkpt lat="44.7578" lon="3.87338">
        <ele>1036</ele>
        <time>2013-09-26T07:27:58Z</time>
      </trkpt>
      <trkpt lat="44.75776" lon="3.87335">
        <ele>1036</ele>
        <time>2013-09-26T07:28:00Z</time>
      </trkpt>
      <trkpt lat="44.75772" lon="3.87333">
        <ele>1032</ele>
        <time>2013-09-26T07:28:03Z</time>
      </trkpt>
      <trkpt lat="44.75767" lon="3.87329">
        <ele>1032</ele>
        <time>2013-09-26T07:28:07Z</time>
      </trkpt>
      <trkpt lat="44.75762" lon="3.87326">
        <ele>1032</ele>
        <time>2013-09-26T07:28:11Z</time>
      </trkpt>
      <trkpt lat="44.75758" lon="3.87323">
        <ele>1032</ele>
        <time>2013-09-26T07:28:15Z</time>
      </trkpt>
      <trkpt lat="44.75753" lon="3.87318">
        <ele>1032</ele>
        <time>2013-09-26T07:28:19Z</time>
      </trkpt>
      <trkpt lat="44.75749" lon="3.87314">
        <ele>1031</ele>
        <time>2013-09-26T07:28:23Z</time>
      </trkpt>
      <trkpt lat="44.75745" lon="3.8731">
        <ele>1031</ele>
        <time>2013-09-26T07:28:27Z</time>
      </trkpt>
      <trkpt lat="44.7574" lon="3.87306">
        <ele>1030</ele>
        <time>2013-09-26T07:28:30Z</time>
      </trkpt>
      <trkpt lat="44.75736" lon="3.87302">
        <ele>1030</ele>
        <time>2013-09-26T07:28:34Z</time>
      </trkpt>
      <trkpt lat="44.7573" lon="3.87298">
        <ele>1030</ele>
        <time>2013-09-26T07:28:38Z</time>
      </trkpt>
      <trkpt lat="44.75726" lon="3.87294">
        <ele>1030</ele>
        <time>2013-09-26T07:28:42Z</time>
      </trkpt>
      <trkpt lat="44.75722" lon="3.87291">
        <ele>1030</ele>
        <time>2013-09-26T07:28:46Z</time>
      </trkpt>
      <trkpt lat="44.75718" lon="3.87287">
        <ele>1029</ele>
        <time>2013-09-26T07:28:50Z</time>
      </trkpt>
      <trkpt lat="44.75713" lon="3.87283">
        <ele>1029</ele>
        <time>2013-09-26T07:28:54Z</time>
      </trkpt>
      <trkpt lat="44.75709" lon="3.87279">
        <ele>1029</ele>
        <time>2013-09-26T07:29:00Z</time>
      </trkpt>
      <trkpt lat="44.75706" lon="3.87274">
        <ele>1029</ele>
        <time>2013-09-26T07:29:04Z</time>
      </trkpt>
      <trkpt lat="44.75703" lon="3.8727">
        <ele>1029</ele>
        <time>2013-09-26T07:29:07Z</time>
      </trkpt>
      <trkpt lat="44.757" lon="3.87265">
        <ele>1028</ele>
        <time>2013-09-26T07:29:10Z</time>
      </trkpt>
      <trkpt lat="44.75697" lon="3.87259">
        <ele>1028</ele>
        <time>2013-09-26T07:29:14Z</time>
      </trkpt>
      <trkpt lat="44.75693" lon="3.87255">
        <ele>1028</ele>
        <time>2013-09-26T07:29:18Z</time>
      </trkpt>
      <trkpt lat="44.7569" lon="3.8725">
        <ele>1024</ele>
        <time>2013-09-26T07:29:22Z</time>
      </trkpt>
      <trkpt lat="44.75686" lon="3.87246">
        <ele>1024</ele>
        <time>2013-09-26T07:29:26Z</time>
      </trkpt>
      <trkpt lat="44.75682" lon="3.87242">
        <ele>1024</ele>
        <time>2013-09-26T07:29:30Z</time>
      </trkpt>
      <trkpt lat="44.75678" lon="3.87236">
        <ele>1024</ele>
        <time>2013-09-26T07:29:34Z</time>
      </trkpt>
      <trkpt lat="44.75675" lon="3.87231">
        <ele>1024</ele>
        <time>2013-09-26T07:29:38Z</time>
      </trkpt>
      <trkpt lat="44.75671" lon="3.87226">
        <ele>1024</ele>
        <time>2013-09-26T07:29:42Z</time>
      </trkpt>
      <trkpt lat="44.75667" lon="3.8722">
        <ele>1024</ele>
        <time>2013-09-26T07:29:46Z</time>
      </trkpt>
      <trkpt lat="44.75663" lon="3.87216">
        <ele>1023</ele>
        <time>2013-09-26T07:29:50Z</time>
      </trkpt>
      <trkpt lat="44.7566" lon="3.87212">
        <ele>1023</ele>
        <time>2013-09-26T07:29:54Z</time>
      </trkpt>
      <trkpt lat="44.75657" lon="3.87206">
        <ele>1023</ele>
        <time>2013-09-26T07:29:58Z</time>
      </trkpt>
      <trkpt lat="44.75654" lon="3.872">
        <ele>1022</ele>
        <time>2013-09-26T07:30:02Z</time>
      </trkpt>
      <trkpt lat="44.75651" lon="3.87195">
        <ele>1022</ele>
        <time>2013-09-26T07:30:06Z</time>
      </trkpt>
      <trkpt lat="44.75647" lon="3.87189">
        <ele>1022</ele>
        <time>2013-09-26T07:30:10Z</time>
      </trkpt>
      <trkpt lat="44.75643" lon="3.87184">
        <ele>1022</ele>
        <time>2013-09-26T07:30:14Z</time>
      </trkpt>
      <trkpt lat="44.75639" lon="3.8718">
        <ele>1022</ele>
        <time>2013-09-26T07:30:18Z</time>
      </trkpt>
      <trkpt lat="44.75636" lon="3.87175">
        <ele>1022</ele>
        <time>2013-09-26T07:30:23Z</time>
      </trkpt>
      <trkpt lat="44.75633" lon="3.87171">
        <ele>1022</ele>
        <time>2013-09-26T07:30:25Z</time>
      </trkpt>
      <trkpt lat="44.75629" lon="3.87165">
        <ele>1019</ele>
        <time>2013-09-26T07:30:36Z</time>
      </trkpt>
      <trkpt lat="44.75625" lon="3.8716">
        <ele>1019</ele>
        <time>2013-09-26T07:30:40Z</time>
      </trkpt>
      <trkpt lat="44.75621" lon="3.87155">
        <ele>1019</ele>
        <time>2013-09-26T07:30:44Z</time>
      </trkpt>
      <trkpt lat="44.75617" lon="3.8715">
        <ele>1019</ele>
        <time>2013-09-26T07:30:48Z</time>
      </trkpt>
      <trkpt lat="44.75613" lon="3.87146">
        <ele>1019</ele>
        <time>2013-09-26T07:30:52Z</time>
      </trkpt>
      <trkpt lat="44.75609" lon="3.87142">
        <ele>1019</ele>
        <time>2013-09-26T07:30:56Z</time>
      </trkpt>
      <trkpt lat="44.75605" lon="3.87138">
        <ele>1019</ele>
        <time>2013-09-26T07:31:00Z</time>
      </trkpt>
      <trkpt lat="44.756" lon="3.87133">
        <ele>1019</ele>
        <time>2013-09-26T07:31:04Z</time>
      </trkpt>
      <trkpt lat="44.75596" lon="3.87129">
        <ele>1019</ele>
        <time>2013-09-26T07:31:08Z</time>
      </trkpt>
      <trkpt lat="44.75592" lon="3.87123">
        <ele>1019</ele>
        <time>2013-09-26T07:31:12Z</time>
      </trkpt>
      <trkpt lat="44.75589" lon="3.87118">
        <ele>1018</ele>
        <time>2013-09-26T07:31:15Z</time>
      </trkpt>
      <trkpt lat="44.75584" lon="3.87113">
        <ele>1018</ele>
        <time>2013-09-26T07:31:19Z</time>
      </trkpt>
      <trkpt lat="44.75581" lon="3.87109">
        <ele>1018</ele>
        <time>2013-09-26T07:31:23Z</time>
      </trkpt>
      <trkpt lat="44.75577" lon="3.87105">
        <ele>1018</ele>
        <time>2013-09-26T07:31:27Z</time>
      </trkpt>
      <trkpt lat="44.75573" lon="3.87099">
        <ele>1017</ele>
        <time>2013-09-26T07:31:31Z</time>
      </trkpt>
      <trkpt lat="44.7557" lon="3.87092">
        <ele>1017</ele>
        <time>2013-09-26T07:31:35Z</time>
      </trkpt>
      <trkpt lat="44.75567" lon="3.87087">
        <ele>1017</ele>
        <time>2013-09-26T07:31:39Z</time>
      </trkpt>
      <trkpt lat="44.75563" lon="3.87081">
        <ele>1016</ele>
        <time>2013-09-26T07:31:43Z</time>
      </trkpt>
      <trkpt lat="44.7556" lon="3.87074">
        <ele>1016</ele>
        <time>2013-09-26T07:31:47Z</time>
      </trkpt>
      <trkpt lat="44.75558" lon="3.87069">
        <ele>1016</ele>
        <time>2013-09-26T07:31:50Z</time>
      </trkpt>
      <trkpt lat="44.75555" lon="3.87061">
        <ele>1016</ele>
        <time>2013-09-26T07:31:54Z</time>
      </trkpt>
      <trkpt lat="44.75554" lon="3.87054">
        <ele>1015</ele>
        <time>2013-09-26T07:31:58Z</time>
      </trkpt>
      <trkpt lat="44.75552" lon="3.87047">
        <ele>1015</ele>
        <time>2013-09-26T07:32:02Z</time>
      </trkpt>
      <trkpt lat="44.75551" lon="3.87039">
        <ele>1015</ele>
        <time>2013-09-26T07:32:06Z</time>
      </trkpt>
      <trkpt lat="44.75549" lon="3.87032">
        <ele>1015</ele>
        <time>2013-09-26T07:32:11Z</time>
      </trkpt>
      <trkpt lat="44.75548" lon="3.87026">
        <ele>1015</ele>
        <time>2013-09-26T07:32:14Z</time>
      </trkpt>
      <trkpt lat="44.75546" lon="3.87019">
        <ele>1015</ele>
        <time>2013-09-26T07:32:18Z</time>
      </trkpt>
      <trkpt lat="44.75544" lon="3.87013">
        <ele>1015</ele>
        <time>2013-09-26T07:32:22Z</time>
      </trkpt>
      <trkpt lat="44.75542" lon="3.87006">
        <ele>1015</ele>
        <time>2013-09-26T07:32:26Z</time>
      </trkpt>
      <trkpt lat="44.7554" lon="3.87">
        <ele>1015</ele>
        <time>2013-09-26T07:32:30Z</time>
      </trkpt>
      <trkpt lat="44.75538" lon="3.86994">
        <ele>1014</ele>
        <time>2013-09-26T07:32:34Z</time>
      </trkpt>
      <trkpt lat="44.75535" lon="3.86988">
        <ele>1014</ele>
        <time>2013-09-26T07:32:39Z</time>
      </trkpt>
      <trkpt lat="44.75532" lon="3.86982">
        <ele>1014</ele>
        <time>2013-09-26T07:32:44Z</time>
      </trkpt>
      <trkpt lat="44.75528" lon="3.86977">
        <ele>1014</ele>
        <time>2013-09-26T07:32:48Z</time>
      </trkpt>
      <trkpt lat="44.75525" lon="3.86972">
        <ele>1014</ele>
        <time>2013-09-26T07:32:52Z</time>
      </trkpt>
      <trkpt lat="44.75521" lon="3.86968">
        <ele>1014</ele>
        <time>2013-09-26T07:32:56Z</time>
      </trkpt>
      <trkpt lat="44.75519" lon="3.86961">
        <ele>1014</ele>
        <time>2013-09-26T07:33:00Z</time>
      </trkpt>
      <trkpt lat="44.75516" lon="3.86954">
        <ele>1014</ele>
        <time>2013-09-26T07:33:04Z</time>
      </trkpt>
      <trkpt lat="44.75512" lon="3.86949">
        <ele>1014</ele>
        <time>2013-09-26T07:33:08Z</time>
      </trkpt>
      <trkpt lat="44.75509" lon="3.86943">
        <ele>1014</ele>
        <time>2013-09-26T07:33:12Z</time>
      </trkpt>
      <trkpt lat="44.75506" lon="3.86936">
        <ele>1014</ele>
        <time>2013-09-26T07:33:16Z</time>
      </trkpt>
      <trkpt lat="44.75503" lon="3.86931">
        <ele>1013</ele>
        <time>2013-09-26T07:33:20Z</time>
      </trkpt>
      <trkpt lat="44.75499" lon="3.86926">
        <ele>1013</ele>
        <time>2013-09-26T07:33:24Z</time>
      </trkpt>
      <trkpt lat="44.75495" lon="3.86921">
        <ele>1013</ele>
        <time>2013-09-26T07:33:28Z</time>
      </trkpt>
      <trkpt lat="44.7549" lon="3.86916">
        <ele>1012</ele>
        <time>2013-09-26T07:33:32Z</time>
      </trkpt>
      <trkpt lat="44.75486" lon="3.86912">
        <ele>1012</ele>
        <time>2013-09-26T07:33:36Z</time>
      </trkpt>
      <trkpt lat="44.75482" lon="3.86908">
        <ele>1012</ele>
        <time>2013-09-26T07:33:39Z</time>
      </trkpt>
      <trkpt lat="44.75479" lon="3.86904">
        <ele>1012</ele>
        <time>2013-09-26T07:33:42Z</time>
      </trkpt>
      <trkpt lat="44.75475" lon="3.86898">
        <ele>1011</ele>
        <time>2013-09-26T07:33:46Z</time>
      </trkpt>
      <trkpt lat="44.75471" lon="3.86895">
        <ele>1011</ele>
        <time>2013-09-26T07:33:49Z</time>
      </trkpt>
      <trkpt lat="44.75467" lon="3.86891">
        <ele>1011</ele>
        <time>2013-09-26T07:33:52Z</time>
      </trkpt>
      <trkpt lat="44.75464" lon="3.86886">
        <ele>1011</ele>
        <time>2013-09-26T07:33:56Z</time>
      </trkpt>
      <trkpt lat="44.75461" lon="3.86879">
        <ele>1011</ele>
        <time>2013-09-26T07:34:01Z</time>
      </trkpt>
      <trkpt lat="44.75458" lon="3.86873">
        <ele>1011</ele>
        <time>2013-09-26T07:34:05Z</time>
      </trkpt>
      <trkpt lat="44.75455" lon="3.86867">
        <ele>1011</ele>
        <time>2013-09-26T07:34:09Z</time>
      </trkpt>
      <trkpt lat="44.75451" lon="3.86862">
        <ele>1010</ele>
        <time>2013-09-26T07:34:13Z</time>
      </trkpt>
      <trkpt lat="44.75448" lon="3.86857">
        <ele>1010</ele>
        <time>2013-09-26T07:34:17Z</time>
      </trkpt>
      <trkpt lat="44.75444" lon="3.86853">
        <ele>1010</ele>
        <time>2013-09-26T07:34:21Z</time>
      </trkpt>
      <trkpt lat="44.7544" lon="3.86848">
        <ele>1010</ele>
        <time>2013-09-26T07:34:26Z</time>
      </trkpt>
      <trkpt lat="44.75436" lon="3.86844">
        <ele>1010</ele>
        <time>2013-09-26T07:34:30Z</time>
      </trkpt>
      <trkpt lat="44.75432" lon="3.86839">
        <ele>1010</ele>
        <time>2013-09-26T07:34:35Z</time>
      </trkpt>
      <trkpt lat="44.75428" lon="3.86836">
        <ele>1010</ele>
        <time>2013-09-26T07:34:39Z</time>
      </trkpt>
      <trkpt lat="44.75423" lon="3.86832">
        <ele>1009</ele>
        <time>2013-09-26T07:34:43Z</time>
      </trkpt>
      <trkpt lat="44.75419" lon="3.86828">
        <ele>1009</ele>
        <time>2013-09-26T07:34:47Z</time>
      </trkpt>
      <trkpt lat="44.75415" lon="3.86824">
        <ele>1009</ele>
        <time>2013-09-26T07:34:51Z</time>
      </trkpt>
      <trkpt lat="44.75411" lon="3.8682">
        <ele>1009</ele>
        <time>2013-09-26T07:34:55Z</time>
      </trkpt>
      <trkpt lat="44.75406" lon="3.86815">
        <ele>1009</ele>
        <time>2013-09-26T07:34:59Z</time>
      </trkpt>
      <trkpt lat="44.75402" lon="3.86811">
        <ele>1009</ele>
        <time>2013-09-26T07:35:03Z</time>
      </trkpt>
      <trkpt lat="44.75397" lon="3.86807">
        <ele>1009</ele>
        <time>2013-09-26T07:35:08Z</time>
      </trkpt>
      <trkpt lat="44.75393" lon="3.86803">
        <ele>1009</ele>
        <time>2013-09-26T07:35:13Z</time>
      </trkpt>
      <trkpt lat="44.75388" lon="3.868">
        <ele>1009</ele>
        <time>2013-09-26T07:35:18Z</time>
      </trkpt>
      <trkpt lat="44.75383" lon="3.86796">
        <ele>1009</ele>
        <time>2013-09-26T07:35:23Z</time>
      </trkpt>
      <trkpt lat="44.75378" lon="3.86793">
        <ele>1009</ele>
        <time>2013-09-26T07:35:27Z</time>
      </trkpt>
      <trkpt lat="44.75374" lon="3.86791">
        <ele>1009</ele>
        <time>2013-09-26T07:35:31Z</time>
      </trkpt>
      <trkpt lat="44.7537" lon="3.86787">
        <ele>1009</ele>
        <time>2013-09-26T07:35:35Z</time>
      </trkpt>
      <trkpt lat="44.75366" lon="3.86783">
        <ele>1009</ele>
        <time>2013-09-26T07:35:39Z</time>
      </trkpt>
      <trkpt lat="44.75362" lon="3.86779">
        <ele>1009</ele>
        <time>2013-09-26T07:35:43Z</time>
      </trkpt>
      <trkpt lat="44.75357" lon="3.86774">
        <ele>1009</ele>
        <time>2013-09-26T07:35:47Z</time>
      </trkpt>
      <trkpt lat="44.75354" lon="3.86769">
        <ele>1009</ele>
        <time>2013-09-26T07:35:51Z</time>
      </trkpt>
      <trkpt lat="44.7535" lon="3.86765">
        <ele>1009</ele>
        <time>2013-09-26T07:35:55Z</time>
      </trkpt>
      <trkpt lat="44.75346" lon="3.8676">
        <ele>1009</ele>
        <time>2013-09-26T07:35:59Z</time>
      </trkpt>
      <trkpt lat="44.75343" lon="3.86754">
        <ele>1010</ele>
        <time>2013-09-26T07:36:03Z</time>
      </trkpt>
      <trkpt lat="44.75339" lon="3.86749">
        <ele>1010</ele>
        <time>2013-09-26T07:36:08Z</time>
      </trkpt>
      <trkpt lat="44.75335" lon="3.86744">
        <ele>1010</ele>
        <time>2013-09-26T07:36:12Z</time>
      </trkpt>
      <trkpt lat="44.75331" lon="3.86739">
        <ele>1010</ele>
        <time>2013-09-26T07:36:16Z</time>
      </trkpt>
      <trkpt lat="44.75327" lon="3.86735">
        <ele>1010</ele>
        <time>2013-09-26T07:36:20Z</time>
      </trkpt>
      <trkpt lat="44.75324" lon="3.86729">
        <ele>1010</ele>
        <time>2013-09-26T07:36:24Z</time>
      </trkpt>
      <trkpt lat="44.75321" lon="3.86723">
        <ele>1010</ele>
        <time>2013-09-26T07:36:29Z</time>
      </trkpt>
      <trkpt lat="44.75317" lon="3.86717">
        <ele>1010</ele>
        <time>2013-09-26T07:36:33Z</time>
      </trkpt>
      <trkpt lat="44.75314" lon="3.86712">
        <ele>1010</ele>
        <time>2013-09-26T07:36:37Z</time>
      </trkpt>
      <trkpt lat="44.75311" lon="3.86708">
        <ele>1011</ele>
        <time>2013-09-26T07:36:41Z</time>
      </trkpt>
      <trkpt lat="44.75308" lon="3.86703">
        <ele>1011</ele>
        <time>2013-09-26T07:36:45Z</time>
      </trkpt>
      <trkpt lat="44.75304" lon="3.86696">
        <ele>1011</ele>
        <time>2013-09-26T07:36:49Z</time>
      </trkpt>
      <trkpt lat="44.75301" lon="3.86691">
        <ele>1011</ele>
        <time>2013-09-26T07:36:52Z</time>
      </trkpt>
      <trkpt lat="44.75297" lon="3.86686">
        <ele>1011</ele>
        <time>2013-09-26T07:36:56Z</time>
      </trkpt>
      <trkpt lat="44.75293" lon="3.86682">
        <ele>1011</ele>
        <time>2013-09-26T07:37:00Z</time>
      </trkpt>
      <trkpt lat="44.7529" lon="3.86677">
        <ele>1011</ele>
        <time>2013-09-26T07:37:04Z</time>
      </trkpt>
      <trkpt lat="44.75287" lon="3.86672">
        <ele>1011</ele>
        <time>2013-09-26T07:37:07Z</time>
      </trkpt>
      <trkpt lat="44.75284" lon="3.86666">
        <ele>1011</ele>
        <time>2013-09-26T07:37:11Z</time>
      </trkpt>
      <trkpt lat="44.75281" lon="3.86661">
        <ele>1011</ele>
        <time>2013-09-26T07:37:16Z</time>
      </trkpt>
      <trkpt lat="44.75279" lon="3.86655">
        <ele>1011</ele>
        <time>2013-09-26T07:37:21Z</time>
      </trkpt>
      <trkpt lat="44.75275" lon="3.86649">
        <ele>1011</ele>
        <time>2013-09-26T07:37:24Z</time>
      </trkpt>
      <trkpt lat="44.75272" lon="3.86644">
        <ele>1011</ele>
        <time>2013-09-26T07:37:28Z</time>
      </trkpt>
      <trkpt lat="44.75267" lon="3.8664">
        <ele>1011</ele>
        <time>2013-09-26T07:37:32Z</time>
      </trkpt>
      <trkpt lat="44.75263" lon="3.86638">
        <ele>1011</ele>
        <time>2013-09-26T07:37:35Z</time>
      </trkpt>
      <trkpt lat="44.75258" lon="3.86635">
        <ele>1011</ele>
        <time>2013-09-26T07:37:39Z</time>
      </trkpt>
      <trkpt lat="44.75253" lon="3.86629">
        <ele>1011</ele>
        <time>2013-09-26T07:37:44Z</time>
      </trkpt>
      <trkpt lat="44.7525" lon="3.86623">
        <ele>1012</ele>
        <time>2013-09-26T07:37:48Z</time>
      </trkpt>
      <trkpt lat="44.75248" lon="3.86616">
        <ele>1012</ele>
        <time>2013-09-26T07:37:52Z</time>
      </trkpt>
      <trkpt lat="44.75245" lon="3.8661">
        <ele>1012</ele>
        <time>2013-09-26T07:37:57Z</time>
      </trkpt>
      <trkpt lat="44.75243" lon="3.86604">
        <ele>1012</ele>
        <time>2013-09-26T07:38:00Z</time>
      </trkpt>
      <trkpt lat="44.75239" lon="3.866">
        <ele>1012</ele>
        <time>2013-09-26T07:38:05Z</time>
      </trkpt>
      <trkpt lat="44.75235" lon="3.86594">
        <ele>1012</ele>
        <time>2013-09-26T07:38:10Z</time>
      </trkpt>
      <trkpt lat="44.75231" lon="3.86588">
        <ele>1012</ele>
        <time>2013-09-26T07:38:14Z</time>
      </trkpt>
      <trkpt lat="44.75228" lon="3.86582">
        <ele>1013</ele>
        <time>2013-09-26T07:38:19Z</time>
      </trkpt>
      <trkpt lat="44.75225" lon="3.86575">
        <ele>1014</ele>
        <time>2013-09-26T07:38:24Z</time>
      </trkpt>
      <trkpt lat="44.75223" lon="3.86569">
        <ele>1014</ele>
        <time>2013-09-26T07:38:28Z</time>
      </trkpt>
      <trkpt lat="44.7522" lon="3.86563">
        <ele>1014</ele>
        <time>2013-09-26T07:38:32Z</time>
      </trkpt>
      <trkpt lat="44.75217" lon="3.86557">
        <ele>1014</ele>
        <time>2013-09-26T07:38:36Z</time>
      </trkpt>
      <trkpt lat="44.75213" lon="3.86553">
        <ele>1014</ele>
        <time>2013-09-26T07:38:40Z</time>
      </trkpt>
      <trkpt lat="44.75211" lon="3.86546">
        <ele>1014</ele>
        <time>2013-09-26T07:38:45Z</time>
      </trkpt>
      <trkpt lat="44.75208" lon="3.8654">
        <ele>1015</ele>
        <time>2013-09-26T07:38:48Z</time>
      </trkpt>
      <trkpt lat="44.75204" lon="3.86535">
        <ele>1015</ele>
        <time>2013-09-26T07:38:52Z</time>
      </trkpt>
      <trkpt lat="44.75201" lon="3.8653">
        <ele>1015</ele>
        <time>2013-09-26T07:38:56Z</time>
      </trkpt>
      <trkpt lat="44.75196" lon="3.86526">
        <ele>1015</ele>
        <time>2013-09-26T07:39:01Z</time>
      </trkpt>
      <trkpt lat="44.75194" lon="3.86519">
        <ele>1015</ele>
        <time>2013-09-26T07:39:07Z</time>
      </trkpt>
      <trkpt lat="44.75194" lon="3.86512">
        <ele>1015</ele>
        <time>2013-09-26T07:39:13Z</time>
      </trkpt>
      <trkpt lat="44.75192" lon="3.86505">
        <ele>1015</ele>
        <time>2013-09-26T07:39:19Z</time>
      </trkpt>
      <trkpt lat="44.7519" lon="3.86498">
        <ele>1017</ele>
        <time>2013-09-26T07:39:22Z</time>
      </trkpt>
      <trkpt lat="44.75188" lon="3.86492">
        <ele>1017</ele>
        <time>2013-09-26T07:39:26Z</time>
      </trkpt>
      <trkpt lat="44.75185" lon="3.86487">
        <ele>1017</ele>
        <time>2013-09-26T07:39:30Z</time>
      </trkpt>
      <trkpt lat="44.75181" lon="3.86481">
        <ele>1017</ele>
        <time>2013-09-26T07:39:34Z</time>
      </trkpt>
      <trkpt lat="44.75177" lon="3.86477">
        <ele>1017</ele>
        <time>2013-09-26T07:39:37Z</time>
      </trkpt>
      <trkpt lat="44.75174" lon="3.86472">
        <ele>1017</ele>
        <time>2013-09-26T07:39:40Z</time>
      </trkpt>
      <trkpt lat="44.75171" lon="3.86466">
        <ele>1017</ele>
        <time>2013-09-26T07:39:44Z</time>
      </trkpt>
      <trkpt lat="44.7517" lon="3.86459">
        <ele>1017</ele>
        <time>2013-09-26T07:39:48Z</time>
      </trkpt>
      <trkpt lat="44.75169" lon="3.86452">
        <ele>1017</ele>
        <time>2013-09-26T07:39:52Z</time>
      </trkpt>
      <trkpt lat="44.75167" lon="3.86445">
        <ele>1016</ele>
        <time>2013-09-26T07:39:56Z</time>
      </trkpt>
      <trkpt lat="44.75166" lon="3.86438">
        <ele>1014</ele>
        <time>2013-09-26T07:40:01Z</time>
      </trkpt>
      <trkpt lat="44.75163" lon="3.86431">
        <ele>1014</ele>
        <time>2013-09-26T07:40:05Z</time>
      </trkpt>
      <trkpt lat="44.7516" lon="3.86425">
        <ele>1014</ele>
        <time>2013-09-26T07:40:09Z</time>
      </trkpt>
      <trkpt lat="44.75158" lon="3.86418">
        <ele>1015</ele>
        <time>2013-09-26T07:40:12Z</time>
      </trkpt>
      <trkpt lat="44.75157" lon="3.86412">
        <ele>1014</ele>
        <time>2013-09-26T07:40:14Z</time>
      </trkpt>
      <trkpt lat="44.75153" lon="3.86406">
        <ele>1013</ele>
        <time>2013-09-26T07:40:18Z</time>
      </trkpt>
      <trkpt lat="44.75149" lon="3.86403">
        <ele>1013</ele>
        <time>2013-09-26T07:40:23Z</time>
      </trkpt>
      <trkpt lat="44.75144" lon="3.86401">
        <ele>1012</ele>
        <time>2013-09-26T07:40:27Z</time>
      </trkpt>
      <trkpt lat="44.7514" lon="3.86396">
        <ele>1012</ele>
        <time>2013-09-26T07:40:35Z</time>
      </trkpt>
      <trkpt lat="44.75137" lon="3.86391">
        <ele>1012</ele>
        <time>2013-09-26T07:40:38Z</time>
      </trkpt>
      <trkpt lat="44.75133" lon="3.86386">
        <ele>1012</ele>
        <time>2013-09-26T07:40:41Z</time>
      </trkpt>
      <trkpt lat="44.75129" lon="3.86382">
        <ele>1011</ele>
        <time>2013-09-26T07:40:45Z</time>
      </trkpt>
      <trkpt lat="44.75124" lon="3.86378">
        <ele>1011</ele>
        <time>2013-09-26T07:40:49Z</time>
      </trkpt>
      <trkpt lat="44.7512" lon="3.86373">
        <ele>1011</ele>
        <time>2013-09-26T07:40:53Z</time>
      </trkpt>
      <trkpt lat="44.75115" lon="3.86367">
        <ele>1011</ele>
        <time>2013-09-26T07:40:57Z</time>
      </trkpt>
      <trkpt lat="44.75111" lon="3.86363">
        <ele>1011</ele>
        <time>2013-09-26T07:41:00Z</time>
      </trkpt>
      <trkpt lat="44.75107" lon="3.86361">
        <ele>1011</ele>
        <time>2013-09-26T07:41:03Z</time>
      </trkpt>
      <trkpt lat="44.75102" lon="3.86358">
        <ele>1010</ele>
        <time>2013-09-26T07:41:07Z</time>
      </trkpt>
      <trkpt lat="44.75098" lon="3.86355">
        <ele>1010</ele>
        <time>2013-09-26T07:41:11Z</time>
      </trkpt>
      <trkpt lat="44.75094" lon="3.86351">
        <ele>1010</ele>
        <time>2013-09-26T07:41:15Z</time>
      </trkpt>
      <trkpt lat="44.75089" lon="3.86345">
        <ele>1009</ele>
        <time>2013-09-26T07:41:19Z</time>
      </trkpt>
      <trkpt lat="44.75086" lon="3.86342">
        <ele>1009</ele>
        <time>2013-09-26T07:41:22Z</time>
      </trkpt>
      <trkpt lat="44.75081" lon="3.86336">
        <ele>1008</ele>
        <time>2013-09-26T07:41:26Z</time>
      </trkpt>
      <trkpt lat="44.75079" lon="3.8633">
        <ele>1008</ele>
        <time>2013-09-26T07:41:30Z</time>
      </trkpt>
      <trkpt lat="44.75076" lon="3.86325">
        <ele>1008</ele>
        <time>2013-09-26T07:41:34Z</time>
      </trkpt>
      <trkpt lat="44.75072" lon="3.86321">
        <ele>1009</ele>
        <time>2013-09-26T07:41:39Z</time>
      </trkpt>
      <trkpt lat="44.75068" lon="3.86316">
        <ele>1009</ele>
        <time>2013-09-26T07:41:42Z</time>
      </trkpt>
      <trkpt lat="44.75065" lon="3.8631">
        <ele>1009</ele>
        <time>2013-09-26T07:41:46Z</time>
      </trkpt>
      <trkpt lat="44.75061" lon="3.86305">
        <ele>1009</ele>
        <time>2013-09-26T07:41:50Z</time>
      </trkpt>
      <trkpt lat="44.75057" lon="3.86301">
        <ele>1009</ele>
        <time>2013-09-26T07:41:54Z</time>
      </trkpt>
      <trkpt lat="44.75053" lon="3.86297">
        <ele>1009</ele>
        <time>2013-09-26T07:41:57Z</time>
      </trkpt>
      <trkpt lat="44.75048" lon="3.86296">
        <ele>1009</ele>
        <time>2013-09-26T07:42:00Z</time>
      </trkpt>
      <trkpt lat="44.75045" lon="3.8629">
        <ele>1009</ele>
        <time>2013-09-26T07:42:04Z</time>
      </trkpt>
      <trkpt lat="44.75041" lon="3.86286">
        <ele>1009</ele>
        <time>2013-09-26T07:42:08Z</time>
      </trkpt>
      <trkpt lat="44.75037" lon="3.8628">
        <ele>1009</ele>
        <time>2013-09-26T07:42:13Z</time>
      </trkpt>
      <trkpt lat="44.75034" lon="3.86276">
        <ele>1009</ele>
        <time>2013-09-26T07:42:16Z</time>
      </trkpt>
      <trkpt lat="44.75029" lon="3.86271">
        <ele>1009</ele>
        <time>2013-09-26T07:42:20Z</time>
      </trkpt>
      <trkpt lat="44.75026" lon="3.86266">
        <ele>1009</ele>
        <time>2013-09-26T07:42:24Z</time>
      </trkpt>
      <trkpt lat="44.75021" lon="3.86261">
        <ele>1009</ele>
        <time>2013-09-26T07:42:29Z</time>
      </trkpt>
      <trkpt lat="44.75017" lon="3.86255">
        <ele>1009</ele>
        <time>2013-09-26T07:42:32Z</time>
      </trkpt>
      <trkpt lat="44.75014" lon="3.86248">
        <ele>1010</ele>
        <time>2013-09-26T07:42:37Z</time>
      </trkpt>
      <trkpt lat="44.7501" lon="3.86245">
        <ele>1010</ele>
        <time>2013-09-26T07:42:41Z</time>
      </trkpt>
      <trkpt lat="44.75006" lon="3.86241">
        <ele>1010</ele>
        <time>2013-09-26T07:42:45Z</time>
      </trkpt>
      <trkpt lat="44.75002" lon="3.86237">
        <ele>1010</ele>
        <time>2013-09-26T07:42:51Z</time>
      </trkpt>
      <trkpt lat="44.74996" lon="3.86235">
        <ele>1008</ele>
        <time>2013-09-26T07:42:54Z</time>
      </trkpt>
      <trkpt lat="44.74991" lon="3.86233">
        <ele>1008</ele>
        <time>2013-09-26T07:42:58Z</time>
      </trkpt>
      <trkpt lat="44.74987" lon="3.86231">
        <ele>1008</ele>
        <time>2013-09-26T07:43:03Z</time>
      </trkpt>
      <trkpt lat="44.74982" lon="3.86228">
        <ele>1008</ele>
        <time>2013-09-26T07:43:09Z</time>
      </trkpt>
      <trkpt lat="44.74976" lon="3.86227">
        <ele>1008</ele>
        <time>2013-09-26T07:43:12Z</time>
      </trkpt>
      <trkpt lat="44.74971" lon="3.86226">
        <ele>1008</ele>
        <time>2013-09-26T07:43:16Z</time>
      </trkpt>
      <trkpt lat="44.74966" lon="3.86225">
        <ele>1008</ele>
        <time>2013-09-26T07:43:20Z</time>
      </trkpt>
      <trkpt lat="44.74962" lon="3.86223">
        <ele>1008</ele>
        <time>2013-09-26T07:43:24Z</time>
      </trkpt>
      <trkpt lat="44.74957" lon="3.8622">
        <ele>1007</ele>
        <time>2013-09-26T07:43:28Z</time>
      </trkpt>
      <trkpt lat="44.74952" lon="3.86218">
        <ele>1007</ele>
        <time>2013-09-26T07:43:31Z</time>
      </trkpt>
      <trkpt lat="44.74947" lon="3.86218">
        <ele>1007</ele>
        <time>2013-09-26T07:43:36Z</time>
      </trkpt>
      <trkpt lat="44.74942" lon="3.86216">
        <ele>1007</ele>
        <time>2013-09-26T07:43:41Z</time>
      </trkpt>
      <trkpt lat="44.74937" lon="3.86215">
        <ele>1007</ele>
        <time>2013-09-26T07:43:45Z</time>
      </trkpt>
      <trkpt lat="44.74931" lon="3.86212">
        <ele>1007</ele>
        <time>2013-09-26T07:43:49Z</time>
      </trkpt>
      <trkpt lat="44.74926" lon="3.86212">
        <ele>1007</ele>
        <time>2013-09-26T07:43:53Z</time>
      </trkpt>
      <trkpt lat="44.74921" lon="3.86211">
        <ele>1007</ele>
        <time>2013-09-26T07:43:57Z</time>
      </trkpt>
      <trkpt lat="44.74916" lon="3.86209">
        <ele>1004</ele>
        <time>2013-09-26T07:44:01Z</time>
      </trkpt>
      <trkpt lat="44.74911" lon="3.86208">
        <ele>1004</ele>
        <time>2013-09-26T07:44:05Z</time>
      </trkpt>
      <trkpt lat="44.74907" lon="3.86207">
        <ele>1004</ele>
        <time>2013-09-26T07:44:08Z</time>
      </trkpt>
      <trkpt lat="44.74902" lon="3.86204">
        <ele>1004</ele>
        <time>2013-09-26T07:44:12Z</time>
      </trkpt>
      <trkpt lat="44.74897" lon="3.862">
        <ele>1004</ele>
        <time>2013-09-26T07:44:16Z</time>
      </trkpt>
      <trkpt lat="44.74891" lon="3.86198">
        <ele>1004</ele>
        <time>2013-09-26T07:44:20Z</time>
      </trkpt>
      <trkpt lat="44.74886" lon="3.86195">
        <ele>1004</ele>
        <time>2013-09-26T07:44:24Z</time>
      </trkpt>
      <trkpt lat="44.74882" lon="3.86192">
        <ele>1004</ele>
        <time>2013-09-26T07:44:30Z</time>
      </trkpt>
      <trkpt lat="44.74877" lon="3.8619">
        <ele>1003</ele>
        <time>2013-09-26T07:44:34Z</time>
      </trkpt>
      <trkpt lat="44.74872" lon="3.86187">
        <ele>1003</ele>
        <time>2013-09-26T07:44:41Z</time>
      </trkpt>
      <trkpt lat="44.74867" lon="3.86185">
        <ele>1003</ele>
        <time>2013-09-26T07:44:45Z</time>
      </trkpt>
      <trkpt lat="44.74863" lon="3.86183">
        <ele>1003</ele>
        <time>2013-09-26T07:44:50Z</time>
      </trkpt>
      <trkpt lat="44.74859" lon="3.86178">
        <ele>1003</ele>
        <time>2013-09-26T07:44:55Z</time>
      </trkpt>
      <trkpt lat="44.74855" lon="3.86175">
        <ele>1002</ele>
        <time>2013-09-26T07:45:00Z</time>
      </trkpt>
      <trkpt lat="44.74851" lon="3.86172">
        <ele>1002</ele>
        <time>2013-09-26T07:45:04Z</time>
      </trkpt>
      <trkpt lat="44.74845" lon="3.86171">
        <ele>1002</ele>
        <time>2013-09-26T07:45:07Z</time>
      </trkpt>
      <trkpt lat="44.7484" lon="3.86171">
        <ele>1002</ele>
        <time>2013-09-26T07:45:12Z</time>
      </trkpt>
      <trkpt lat="44.74836" lon="3.86168">
        <ele>1001</ele>
        <time>2013-09-26T07:45:15Z</time>
      </trkpt>
      <trkpt lat="44.74831" lon="3.86166">
        <ele>1001</ele>
        <time>2013-09-26T07:45:18Z</time>
      </trkpt>
      <trkpt lat="44.74826" lon="3.86163">
        <ele>1000</ele>
        <time>2013-09-26T07:45:22Z</time>
      </trkpt>
      <trkpt lat="44.74822" lon="3.86158">
        <ele>999</ele>
        <time>2013-09-26T07:45:27Z</time>
      </trkpt>
      <trkpt lat="44.74817" lon="3.86155">
        <ele>999</ele>
        <time>2013-09-26T07:45:30Z</time>
      </trkpt>
      <trkpt lat="44.74813" lon="3.86152">
        <ele>998</ele>
        <time>2013-09-26T07:45:33Z</time>
      </trkpt>
      <trkpt lat="44.74808" lon="3.86148">
        <ele>998</ele>
        <time>2013-09-26T07:45:37Z</time>
      </trkpt>
      <trkpt lat="44.74804" lon="3.86144">
        <ele>997</ele>
        <time>2013-09-26T07:45:41Z</time>
      </trkpt>
      <trkpt lat="44.74799" lon="3.8614">
        <ele>997</ele>
        <time>2013-09-26T07:45:46Z</time>
      </trkpt>
      <trkpt lat="44.74795" lon="3.86136">
        <ele>997</ele>
        <time>2013-09-26T07:45:48Z</time>
      </trkpt>
      <trkpt lat="44.74791" lon="3.86132">
        <ele>997</ele>
        <time>2013-09-26T07:45:51Z</time>
      </trkpt>
      <trkpt lat="44.74786" lon="3.86127">
        <ele>996</ele>
        <time>2013-09-26T07:45:55Z</time>
      </trkpt>
      <trkpt lat="44.74782" lon="3.86123">
        <ele>996</ele>
        <time>2013-09-26T07:45:58Z</time>
      </trkpt>
      <trkpt lat="44.74778" lon="3.86119">
        <ele>996</ele>
        <time>2013-09-26T07:46:01Z</time>
      </trkpt>
      <trkpt lat="44.74775" lon="3.86114">
        <ele>996</ele>
        <time>2013-09-26T07:46:05Z</time>
      </trkpt>
      <trkpt lat="44.74771" lon="3.86109">
        <ele>995</ele>
        <time>2013-09-26T07:46:09Z</time>
      </trkpt>
      <trkpt lat="44.74766" lon="3.86105">
        <ele>995</ele>
        <time>2013-09-26T07:46:13Z</time>
      </trkpt>
      <trkpt lat="44.74762" lon="3.861">
        <ele>994</ele>
        <time>2013-09-26T07:46:17Z</time>
      </trkpt>
      <trkpt lat="44.74757" lon="3.86097">
        <ele>994</ele>
        <time>2013-09-26T07:46:22Z</time>
      </trkpt>
      <trkpt lat="44.74752" lon="3.86095">
        <ele>993</ele>
        <time>2013-09-26T07:46:27Z</time>
      </trkpt>
      <trkpt lat="44.74748" lon="3.86091">
        <ele>990</ele>
        <time>2013-09-26T07:46:44Z</time>
      </trkpt>
      <trkpt lat="44.74745" lon="3.86086">
        <ele>991</ele>
        <time>2013-09-26T07:46:48Z</time>
      </trkpt>
      <trkpt lat="44.74741" lon="3.86082">
        <ele>989</ele>
        <time>2013-09-26T07:46:52Z</time>
      </trkpt>
      <trkpt lat="44.74738" lon="3.86078">
        <ele>989</ele>
        <time>2013-09-26T07:46:59Z</time>
      </trkpt>
      <trkpt lat="44.74733" lon="3.86074">
        <ele>988</ele>
        <time>2013-09-26T07:47:03Z</time>
      </trkpt>
      <trkpt lat="44.74729" lon="3.86069">
        <ele>987</ele>
        <time>2013-09-26T07:47:07Z</time>
      </trkpt>
      <trkpt lat="44.74725" lon="3.86064">
        <ele>987</ele>
        <time>2013-09-26T07:47:10Z</time>
      </trkpt>
      <trkpt lat="44.74722" lon="3.86061">
        <ele>986</ele>
        <time>2013-09-26T07:47:16Z</time>
      </trkpt>
      <trkpt lat="44.74717" lon="3.86057">
        <ele>986</ele>
        <time>2013-09-26T07:47:19Z</time>
      </trkpt>
      <trkpt lat="44.74713" lon="3.86055">
        <ele>986</ele>
        <time>2013-09-26T07:47:23Z</time>
      </trkpt>
      <trkpt lat="44.74709" lon="3.86052">
        <ele>985</ele>
        <time>2013-09-26T07:47:25Z</time>
      </trkpt>
      <trkpt lat="44.74704" lon="3.86049">
        <ele>985</ele>
        <time>2013-09-26T07:47:28Z</time>
      </trkpt>
      <trkpt lat="44.74699" lon="3.86046">
        <ele>985</ele>
        <time>2013-09-26T07:47:31Z</time>
      </trkpt>
      <trkpt lat="44.74694" lon="3.86042">
        <ele>985</ele>
        <time>2013-09-26T07:47:34Z</time>
      </trkpt>
      <trkpt lat="44.7469" lon="3.86037">
        <ele>984</ele>
        <time>2013-09-26T07:47:38Z</time>
      </trkpt>
      <trkpt lat="44.74686" lon="3.86033">
        <ele>984</ele>
        <time>2013-09-26T07:47:41Z</time>
      </trkpt>
      <trkpt lat="44.74681" lon="3.8603">
        <ele>984</ele>
        <time>2013-09-26T07:47:45Z</time>
      </trkpt>
      <trkpt lat="44.74677" lon="3.86025">
        <ele>983</ele>
        <time>2013-09-26T07:47:49Z</time>
      </trkpt>
      <trkpt lat="44.74673" lon="3.86021">
        <ele>983</ele>
        <time>2013-09-26T07:47:53Z</time>
      </trkpt>
      <trkpt lat="44.74669" lon="3.86017">
        <ele>982</ele>
        <time>2013-09-26T07:47:56Z</time>
      </trkpt>
      <trkpt lat="44.74664" lon="3.86012">
        <ele>979</ele>
        <time>2013-09-26T07:48:01Z</time>
      </trkpt>
      <trkpt lat="44.74661" lon="3.86009">
        <ele>979</ele>
        <time>2013-09-26T07:48:04Z</time>
      </trkpt>
      <trkpt lat="44.74656" lon="3.86005">
        <ele>978</ele>
        <time>2013-09-26T07:48:09Z</time>
      </trkpt>
      <trkpt lat="44.74652" lon="3.86001">
        <ele>978</ele>
        <time>2013-09-26T07:48:12Z</time>
      </trkpt>
      <trkpt lat="44.74647" lon="3.85998">
        <ele>978</ele>
        <time>2013-09-26T07:48:16Z</time>
      </trkpt>
      <trkpt lat="44.74642" lon="3.85995">
        <ele>978</ele>
        <time>2013-09-26T07:48:20Z</time>
      </trkpt>
      <trkpt lat="44.74638" lon="3.85992">
        <ele>978</ele>
        <time>2013-09-26T07:48:24Z</time>
      </trkpt>
      <trkpt lat="44.74633" lon="3.8599">
        <ele>977</ele>
        <time>2013-09-26T07:48:28Z</time>
      </trkpt>
      <trkpt lat="44.74628" lon="3.85987">
        <ele>977</ele>
        <time>2013-09-26T07:48:32Z</time>
      </trkpt>
      <trkpt lat="44.74623" lon="3.85982">
        <ele>977</ele>
        <time>2013-09-26T07:48:36Z</time>
      </trkpt>
      <trkpt lat="44.74619" lon="3.85978">
        <ele>977</ele>
        <time>2013-09-26T07:48:39Z</time>
      </trkpt>
      <trkpt lat="44.74615" lon="3.85974">
        <ele>976</ele>
        <time>2013-09-26T07:48:42Z</time>
      </trkpt>
      <trkpt lat="44.7461" lon="3.8597">
        <ele>976</ele>
        <time>2013-09-26T07:48:46Z</time>
      </trkpt>
      <trkpt lat="44.74604" lon="3.85968">
        <ele>976</ele>
        <time>2013-09-26T07:48:50Z</time>
      </trkpt>
      <trkpt lat="44.746" lon="3.85965">
        <ele>976</ele>
        <time>2013-09-26T07:48:54Z</time>
      </trkpt>
      <trkpt lat="44.74595" lon="3.85963">
        <ele>976</ele>
        <time>2013-09-26T07:48:58Z</time>
      </trkpt>
      <trkpt lat="44.7459" lon="3.85961">
        <ele>976</ele>
        <time>2013-09-26T07:49:02Z</time>
      </trkpt>
      <trkpt lat="44.74585" lon="3.85961">
        <ele>976</ele>
        <time>2013-09-26T07:49:06Z</time>
      </trkpt>
      <trkpt lat="44.7458" lon="3.85963">
        <ele>973</ele>
        <time>2013-09-26T07:49:10Z</time>
      </trkpt>
      <trkpt lat="44.74575" lon="3.85966">
        <ele>973</ele>
        <time>2013-09-26T07:49:14Z</time>
      </trkpt>
      <trkpt lat="44.74569" lon="3.85968">
        <ele>973</ele>
        <time>2013-09-26T07:49:19Z</time>
      </trkpt>
      <trkpt lat="44.74565" lon="3.85972">
        <ele>973</ele>
        <time>2013-09-26T07:49:23Z</time>
      </trkpt>
      <trkpt lat="44.7456" lon="3.85975">
        <ele>973</ele>
        <time>2013-09-26T07:49:27Z</time>
      </trkpt>
      <trkpt lat="44.74555" lon="3.85979">
        <ele>973</ele>
        <time>2013-09-26T07:49:31Z</time>
      </trkpt>
      <trkpt lat="44.74551" lon="3.85983">
        <ele>973</ele>
        <time>2013-09-26T07:49:35Z</time>
      </trkpt>
      <trkpt lat="44.74546" lon="3.85986">
        <ele>972</ele>
        <time>2013-09-26T07:49:40Z</time>
      </trkpt>
      <trkpt lat="44.74541" lon="3.8599">
        <ele>972</ele>
        <time>2013-09-26T07:49:44Z</time>
      </trkpt>
      <trkpt lat="44.74537" lon="3.85995">
        <ele>972</ele>
        <time>2013-09-26T07:49:48Z</time>
      </trkpt>
      <trkpt lat="44.74534" lon="3.85999">
        <ele>972</ele>
        <time>2013-09-26T07:49:52Z</time>
      </trkpt>
      <trkpt lat="44.7453" lon="3.86004">
        <ele>968</ele>
        <time>2013-09-26T07:49:56Z</time>
      </trkpt>
      <trkpt lat="44.74524" lon="3.86009">
        <ele>968</ele>
        <time>2013-09-26T07:50:00Z</time>
      </trkpt>
      <trkpt lat="44.7452" lon="3.86014">
        <ele>967</ele>
        <time>2013-09-26T07:50:04Z</time>
      </trkpt>
      <trkpt lat="44.74516" lon="3.86019">
        <ele>967</ele>
        <time>2013-09-26T07:50:08Z</time>
      </trkpt>
      <trkpt lat="44.74513" lon="3.86023">
        <ele>967</ele>
        <time>2013-09-26T07:50:11Z</time>
      </trkpt>
      <trkpt lat="44.74508" lon="3.86027">
        <ele>967</ele>
        <time>2013-09-26T07:50:16Z</time>
      </trkpt>
      <trkpt lat="44.74502" lon="3.86029">
        <ele>967</ele>
        <time>2013-09-26T07:50:19Z</time>
      </trkpt>
      <trkpt lat="44.74497" lon="3.86031">
        <ele>965</ele>
        <time>2013-09-26T07:50:24Z</time>
      </trkpt>
      <trkpt lat="44.74492" lon="3.86031">
        <ele>965</ele>
        <time>2013-09-26T07:50:28Z</time>
      </trkpt>
      <trkpt lat="44.74487" lon="3.86032">
        <ele>965</ele>
        <time>2013-09-26T07:50:31Z</time>
      </trkpt>
      <trkpt lat="44.74482" lon="3.86033">
        <ele>965</ele>
        <time>2013-09-26T07:50:35Z</time>
      </trkpt>
      <trkpt lat="44.74477" lon="3.86034">
        <ele>965</ele>
        <time>2013-09-26T07:50:38Z</time>
      </trkpt>
      <trkpt lat="44.74472" lon="3.86036">
        <ele>965</ele>
        <time>2013-09-26T07:50:41Z</time>
      </trkpt>
      <trkpt lat="44.74466" lon="3.86037">
        <ele>965</ele>
        <time>2013-09-26T07:50:44Z</time>
      </trkpt>
      <trkpt lat="44.74462" lon="3.86038">
        <ele>965</ele>
        <time>2013-09-26T07:50:47Z</time>
      </trkpt>
      <trkpt lat="44.74457" lon="3.86037">
        <ele>965</ele>
        <time>2013-09-26T07:50:51Z</time>
      </trkpt>
      <trkpt lat="44.74452" lon="3.86036">
        <ele>965</ele>
        <time>2013-09-26T07:50:55Z</time>
      </trkpt>
      <trkpt lat="44.74447" lon="3.86035">
        <ele>965</ele>
        <time>2013-09-26T07:51:00Z</time>
      </trkpt>
      <trkpt lat="44.74442" lon="3.86033">
        <ele>965</ele>
        <time>2013-09-26T07:51:05Z</time>
      </trkpt>
      <trkpt lat="44.74437" lon="3.86031">
        <ele>965</ele>
        <time>2013-09-26T07:51:09Z</time>
      </trkpt>
      <trkpt lat="44.74432" lon="3.86029">
        <ele>966</ele>
        <time>2013-09-26T07:51:13Z</time>
      </trkpt>
      <trkpt lat="44.74427" lon="3.86027">
        <ele>966</ele>
        <time>2013-09-26T07:51:17Z</time>
      </trkpt>
      <trkpt lat="44.74422" lon="3.86026">
        <ele>966</ele>
        <time>2013-09-26T07:51:21Z</time>
      </trkpt>
      <trkpt lat="44.74416" lon="3.86025">
        <ele>967</ele>
        <time>2013-09-26T07:51:25Z</time>
      </trkpt>
      <trkpt lat="44.74411" lon="3.86024">
        <ele>967</ele>
        <time>2013-09-26T07:51:28Z</time>
      </trkpt>
      <trkpt lat="44.74407" lon="3.86025">
        <ele>967</ele>
        <time>2013-09-26T07:51:31Z</time>
      </trkpt>
      <trkpt lat="44.74402" lon="3.86025">
        <ele>966</ele>
        <time>2013-09-26T07:51:35Z</time>
      </trkpt>
      <trkpt lat="44.74397" lon="3.86023">
        <ele>966</ele>
        <time>2013-09-26T07:51:39Z</time>
      </trkpt>
      <trkpt lat="44.74392" lon="3.8602">
        <ele>966</ele>
        <time>2013-09-26T07:51:43Z</time>
      </trkpt>
      <trkpt lat="44.74387" lon="3.86018">
        <ele>966</ele>
        <time>2013-09-26T07:51:47Z</time>
      </trkpt>
      <trkpt lat="44.74382" lon="3.86016">
        <ele>966</ele>
        <time>2013-09-26T07:51:51Z</time>
      </trkpt>
      <trkpt lat="44.74377" lon="3.86015">
        <ele>966</ele>
        <time>2013-09-26T07:51:55Z</time>
      </trkpt>
      <trkpt lat="44.74373" lon="3.86012">
        <ele>967</ele>
        <time>2013-09-26T07:51:58Z</time>
      </trkpt>
      <trkpt lat="44.74367" lon="3.86012">
        <ele>967</ele>
        <time>2013-09-26T07:52:02Z</time>
      </trkpt>
      <trkpt lat="44.74361" lon="3.86011">
        <ele>967</ele>
        <time>2013-09-26T07:52:06Z</time>
      </trkpt>
      <trkpt lat="44.74357" lon="3.86011">
        <ele>967</ele>
        <time>2013-09-26T07:52:10Z</time>
      </trkpt>
      <trkpt lat="44.74352" lon="3.86009">
        <ele>967</ele>
        <time>2013-09-26T07:52:14Z</time>
      </trkpt>
      <trkpt lat="44.74347" lon="3.86007">
        <ele>968</ele>
        <time>2013-09-26T07:52:18Z</time>
      </trkpt>
      <trkpt lat="44.74342" lon="3.86004">
        <ele>968</ele>
        <time>2013-09-26T07:52:22Z</time>
      </trkpt>
      <trkpt lat="44.74337" lon="3.86">
        <ele>969</ele>
        <time>2013-09-26T07:52:26Z</time>
      </trkpt>
      <trkpt lat="44.74332" lon="3.85998">
        <ele>970</ele>
        <time>2013-09-26T07:52:30Z</time>
      </trkpt>
      <trkpt lat="44.74327" lon="3.85998">
        <ele>970</ele>
        <time>2013-09-26T07:52:33Z</time>
      </trkpt>
      <trkpt lat="44.74323" lon="3.85997">
        <ele>970</ele>
        <time>2013-09-26T07:52:39Z</time>
      </trkpt>
      <trkpt lat="44.74318" lon="3.86">
        <ele>970</ele>
        <time>2013-09-26T07:52:43Z</time>
      </trkpt>
      <trkpt lat="44.74314" lon="3.86001">
        <ele>965</ele>
        <time>2013-09-26T07:52:47Z</time>
      </trkpt>
      <trkpt lat="44.74309" lon="3.86">
        <ele>970</ele>
        <time>2013-09-26T07:52:50Z</time>
      </trkpt>
      <trkpt lat="44.74304" lon="3.85998">
        <ele>970</ele>
        <time>2013-09-26T07:52:54Z</time>
      </trkpt>
      <trkpt lat="44.74299" lon="3.85997">
        <ele>969</ele>
        <time>2013-09-26T07:52:58Z</time>
      </trkpt>
      <trkpt lat="44.74294" lon="3.85996">
        <ele>969</ele>
        <time>2013-09-26T07:53:01Z</time>
      </trkpt>
      <trkpt lat="44.7429" lon="3.85993">
        <ele>969</ele>
        <time>2013-09-26T07:53:05Z</time>
      </trkpt>
      <trkpt lat="44.74285" lon="3.85991">
        <ele>969</ele>
        <time>2013-09-26T07:53:09Z</time>
      </trkpt>
      <trkpt lat="44.74281" lon="3.85989">
        <ele>968</ele>
        <time>2013-09-26T07:53:12Z</time>
      </trkpt>
      <trkpt lat="44.74276" lon="3.85985">
        <ele>968</ele>
        <time>2013-09-26T07:53:16Z</time>
      </trkpt>
      <trkpt lat="44.74271" lon="3.85982">
        <ele>968</ele>
        <time>2013-09-26T07:53:20Z</time>
      </trkpt>
      <trkpt lat="44.74266" lon="3.85979">
        <ele>968</ele>
        <time>2013-09-26T07:53:24Z</time>
      </trkpt>
      <trkpt lat="44.74262" lon="3.85976">
        <ele>968</ele>
        <time>2013-09-26T07:53:28Z</time>
      </trkpt>
      <trkpt lat="44.74258" lon="3.85972">
        <ele>968</ele>
        <time>2013-09-26T07:53:31Z</time>
      </trkpt>
      <trkpt lat="44.74254" lon="3.85966">
        <ele>969</ele>
        <time>2013-09-26T07:53:35Z</time>
      </trkpt>
      <trkpt lat="44.7425" lon="3.85961">
        <ele>962</ele>
        <time>2013-09-26T07:53:39Z</time>
      </trkpt>
      <trkpt lat="44.74246" lon="3.85958">
        <ele>962</ele>
        <time>2013-09-26T07:53:43Z</time>
      </trkpt>
      <trkpt lat="44.74242" lon="3.85953">
        <ele>962</ele>
        <time>2013-09-26T07:53:46Z</time>
      </trkpt>
      <trkpt lat="44.74239" lon="3.85949">
        <ele>963</ele>
        <time>2013-09-26T07:53:49Z</time>
      </trkpt>
      <trkpt lat="44.74236" lon="3.85943">
        <ele>963</ele>
        <time>2013-09-26T07:53:53Z</time>
      </trkpt>
      <trkpt lat="44.74231" lon="3.85938">
        <ele>963</ele>
        <time>2013-09-26T07:53:57Z</time>
      </trkpt>
      <trkpt lat="44.74228" lon="3.85933">
        <ele>963</ele>
        <time>2013-09-26T07:54:00Z</time>
      </trkpt>
      <trkpt lat="44.74226" lon="3.85927">
        <ele>964</ele>
        <time>2013-09-26T07:54:03Z</time>
      </trkpt>
      <trkpt lat="44.74225" lon="3.8592">
        <ele>964</ele>
        <time>2013-09-26T07:54:07Z</time>
      </trkpt>
      <trkpt lat="44.74224" lon="3.85913">
        <ele>966</ele>
        <time>2013-09-26T07:54:10Z</time>
      </trkpt>
      <trkpt lat="44.74223" lon="3.85906">
        <ele>966</ele>
        <time>2013-09-26T07:54:14Z</time>
      </trkpt>
      <trkpt lat="44.74221" lon="3.859">
        <ele>966</ele>
        <time>2013-09-26T07:54:18Z</time>
      </trkpt>
      <trkpt lat="44.74218" lon="3.85893">
        <ele>965</ele>
        <time>2013-09-26T07:54:23Z</time>
      </trkpt>
      <trkpt lat="44.74217" lon="3.85886">
        <ele>965</ele>
        <time>2013-09-26T07:54:27Z</time>
      </trkpt>
      <trkpt lat="44.74214" lon="3.85879">
        <ele>965</ele>
        <time>2013-09-26T07:54:32Z</time>
      </trkpt>
      <trkpt lat="44.74213" lon="3.85872">
        <ele>965</ele>
        <time>2013-09-26T07:54:36Z</time>
      </trkpt>
      <trkpt lat="44.7421" lon="3.85865">
        <ele>964</ele>
        <time>2013-09-26T07:54:40Z</time>
      </trkpt>
      <trkpt lat="44.74209" lon="3.85858">
        <ele>964</ele>
        <time>2013-09-26T07:54:43Z</time>
      </trkpt>
      <trkpt lat="44.74207" lon="3.85851">
        <ele>964</ele>
        <time>2013-09-26T07:54:47Z</time>
      </trkpt>
      <trkpt lat="44.74206" lon="3.85845">
        <ele>964</ele>
        <time>2013-09-26T07:54:51Z</time>
      </trkpt>
      <trkpt lat="44.74206" lon="3.85838">
        <ele>964</ele>
        <time>2013-09-26T07:54:54Z</time>
      </trkpt>
      <trkpt lat="44.74207" lon="3.85831">
        <ele>964</ele>
        <time>2013-09-26T07:54:58Z</time>
      </trkpt>
      <trkpt lat="44.74207" lon="3.85824">
        <ele>964</ele>
        <time>2013-09-26T07:55:02Z</time>
      </trkpt>
      <trkpt lat="44.74206" lon="3.85817">
        <ele>964</ele>
        <time>2013-09-26T07:55:06Z</time>
      </trkpt>
      <trkpt lat="44.74206" lon="3.85811">
        <ele>964</ele>
        <time>2013-09-26T07:55:11Z</time>
      </trkpt>
      <trkpt lat="44.74204" lon="3.85804">
        <ele>964</ele>
        <time>2013-09-26T07:55:16Z</time>
      </trkpt>
      <trkpt lat="44.74201" lon="3.85799">
        <ele>964</ele>
        <time>2013-09-26T07:55:22Z</time>
      </trkpt>
      <trkpt lat="44.74198" lon="3.85794">
        <ele>964</ele>
        <time>2013-09-26T07:55:28Z</time>
      </trkpt>
      <trkpt lat="44.74196" lon="3.85787">
        <ele>963</ele>
        <time>2013-09-26T07:55:33Z</time>
      </trkpt>
      <trkpt lat="44.74194" lon="3.8578">
        <ele>963</ele>
        <time>2013-09-26T07:55:37Z</time>
      </trkpt>
      <trkpt lat="44.74191" lon="3.85773">
        <ele>963</ele>
        <time>2013-09-26T07:55:41Z</time>
      </trkpt>
      <trkpt lat="44.74188" lon="3.85767">
        <ele>962</ele>
        <time>2013-09-26T07:55:45Z</time>
      </trkpt>
      <trkpt lat="44.74184" lon="3.85762">
        <ele>961</ele>
        <time>2013-09-26T07:55:49Z</time>
      </trkpt>
      <trkpt lat="44.7418" lon="3.85758">
        <ele>961</ele>
        <time>2013-09-26T07:55:53Z</time>
      </trkpt>
      <trkpt lat="44.74176" lon="3.85755">
        <ele>960</ele>
        <time>2013-09-26T07:55:57Z</time>
      </trkpt>
      <trkpt lat="44.74171" lon="3.85753">
        <ele>958</ele>
        <time>2013-09-26T07:56:01Z</time>
      </trkpt>
      <trkpt lat="44.74167" lon="3.85748">
        <ele>957</ele>
        <time>2013-09-26T07:56:05Z</time>
      </trkpt>
      <trkpt lat="44.74163" lon="3.85745">
        <ele>956</ele>
        <time>2013-09-26T07:56:08Z</time>
      </trkpt>
      <trkpt lat="44.74158" lon="3.85741">
        <ele>956</ele>
        <time>2013-09-26T07:56:12Z</time>
      </trkpt>
      <trkpt lat="44.74154" lon="3.85737">
        <ele>955</ele>
        <time>2013-09-26T07:56:16Z</time>
      </trkpt>
      <trkpt lat="44.74149" lon="3.85733">
        <ele>955</ele>
        <time>2013-09-26T07:56:20Z</time>
      </trkpt>
      <trkpt lat="44.74144" lon="3.85733">
        <ele>955</ele>
        <time>2013-09-26T07:56:24Z</time>
      </trkpt>
      <trkpt lat="44.74139" lon="3.85733">
        <ele>954</ele>
        <time>2013-09-26T07:56:29Z</time>
      </trkpt>
      <trkpt lat="44.74134" lon="3.85733">
        <ele>954</ele>
        <time>2013-09-26T07:56:33Z</time>
      </trkpt>
      <trkpt lat="44.7413" lon="3.85732">
        <ele>953</ele>
        <time>2013-09-26T07:56:38Z</time>
      </trkpt>
      <trkpt lat="44.74124" lon="3.85732">
        <ele>953</ele>
        <time>2013-09-26T07:56:43Z</time>
      </trkpt>
      <trkpt lat="44.74119" lon="3.85729">
        <ele>952</ele>
        <time>2013-09-26T07:56:47Z</time>
      </trkpt>
      <trkpt lat="44.74115" lon="3.85726">
        <ele>952</ele>
        <time>2013-09-26T07:56:53Z</time>
      </trkpt>
      <trkpt lat="44.74112" lon="3.85721">
        <ele>952</ele>
        <time>2013-09-26T07:56:58Z</time>
      </trkpt>
      <trkpt lat="44.74108" lon="3.85717">
        <ele>952</ele>
        <time>2013-09-26T07:57:04Z</time>
      </trkpt>
      <trkpt lat="44.74104" lon="3.85713">
        <ele>951</ele>
        <time>2013-09-26T07:57:08Z</time>
      </trkpt>
      <trkpt lat="44.741" lon="3.85707">
        <ele>951</ele>
        <time>2013-09-26T07:57:11Z</time>
      </trkpt>
      <trkpt lat="44.74096" lon="3.85703">
        <ele>951</ele>
        <time>2013-09-26T07:57:15Z</time>
      </trkpt>
      <trkpt lat="44.74091" lon="3.85701">
        <ele>951</ele>
        <time>2013-09-26T07:57:19Z</time>
      </trkpt>
      <trkpt lat="44.74086" lon="3.85698">
        <ele>951</ele>
        <time>2013-09-26T07:57:22Z</time>
      </trkpt>
      <trkpt lat="44.74081" lon="3.85694">
        <ele>943</ele>
        <time>2013-09-26T07:57:27Z</time>
      </trkpt>
      <trkpt lat="44.74078" lon="3.8569">
        <ele>944</ele>
        <time>2013-09-26T07:57:34Z</time>
      </trkpt>
      <trkpt lat="44.74074" lon="3.85685">
        <ele>944</ele>
        <time>2013-09-26T07:57:38Z</time>
      </trkpt>
      <trkpt lat="44.7407" lon="3.85681">
        <ele>944</ele>
        <time>2013-09-26T07:57:43Z</time>
      </trkpt>
      <trkpt lat="44.74066" lon="3.85677">
        <ele>944</ele>
        <time>2013-09-26T07:57:46Z</time>
      </trkpt>
      <trkpt lat="44.74061" lon="3.85676">
        <ele>943</ele>
        <time>2013-09-26T07:57:50Z</time>
      </trkpt>
      <trkpt lat="44.74056" lon="3.85675">
        <ele>943</ele>
        <time>2013-09-26T07:57:54Z</time>
      </trkpt>
      <trkpt lat="44.7405" lon="3.85674">
        <ele>942</ele>
        <time>2013-09-26T07:57:58Z</time>
      </trkpt>
      <trkpt lat="44.74044" lon="3.85674">
        <ele>942</ele>
        <time>2013-09-26T07:58:02Z</time>
      </trkpt>
      <trkpt lat="44.7404" lon="3.85674">
        <ele>942</ele>
        <time>2013-09-26T07:58:06Z</time>
      </trkpt>
      <trkpt lat="44.74035" lon="3.85676">
        <ele>941</ele>
        <time>2013-09-26T07:58:09Z</time>
      </trkpt>
      <trkpt lat="44.7403" lon="3.85678">
        <ele>941</ele>
        <time>2013-09-26T07:58:11Z</time>
      </trkpt>
      <trkpt lat="44.74025" lon="3.85682">
        <ele>940</ele>
        <time>2013-09-26T07:58:13Z</time>
      </trkpt>
      <trkpt lat="44.74021" lon="3.85685">
        <ele>940</ele>
        <time>2013-09-26T07:58:16Z</time>
      </trkpt>
      <trkpt lat="44.74016" lon="3.85689">
        <ele>940</ele>
        <time>2013-09-26T07:58:19Z</time>
      </trkpt>
      <trkpt lat="44.74012" lon="3.85692">
        <ele>940</ele>
        <time>2013-09-26T07:58:22Z</time>
      </trkpt>
      <trkpt lat="44.74007" lon="3.85695">
        <ele>940</ele>
        <time>2013-09-26T07:58:26Z</time>
      </trkpt>
      <trkpt lat="44.74003" lon="3.85699">
        <ele>940</ele>
        <time>2013-09-26T07:58:31Z</time>
      </trkpt>
      <trkpt lat="44.73998" lon="3.85701">
        <ele>934</ele>
        <time>2013-09-26T07:58:36Z</time>
      </trkpt>
      <trkpt lat="44.73993" lon="3.85702">
        <ele>934</ele>
        <time>2013-09-26T07:58:45Z</time>
      </trkpt>
      <trkpt lat="44.73988" lon="3.85704">
        <ele>934</ele>
        <time>2013-09-26T07:58:49Z</time>
      </trkpt>
      <trkpt lat="44.73984" lon="3.85707">
        <ele>933</ele>
        <time>2013-09-26T07:58:55Z</time>
      </trkpt>
      <trkpt lat="44.7398" lon="3.85711">
        <ele>933</ele>
        <time>2013-09-26T07:58:59Z</time>
      </trkpt>
      <trkpt lat="44.73975" lon="3.85714">
        <ele>933</ele>
        <time>2013-09-26T07:59:02Z</time>
      </trkpt>
      <trkpt lat="44.73971" lon="3.85717">
        <ele>932</ele>
        <time>2013-09-26T07:59:06Z</time>
      </trkpt>
      <trkpt lat="44.73967" lon="3.85721">
        <ele>932</ele>
        <time>2013-09-26T07:59:11Z</time>
      </trkpt>
      <trkpt lat="44.73964" lon="3.85726">
        <ele>932</ele>
        <time>2013-09-26T07:59:15Z</time>
      </trkpt>
      <trkpt lat="44.73959" lon="3.85732">
        <ele>931</ele>
        <time>2013-09-26T07:59:19Z</time>
      </trkpt>
      <trkpt lat="44.73954" lon="3.85737">
        <ele>930</ele>
        <time>2013-09-26T07:59:22Z</time>
      </trkpt>
      <trkpt lat="44.7395" lon="3.85741">
        <ele>930</ele>
        <time>2013-09-26T07:59:26Z</time>
      </trkpt>
      <trkpt lat="44.73945" lon="3.85744">
        <ele>929</ele>
        <time>2013-09-26T07:59:30Z</time>
      </trkpt>
      <trkpt lat="44.7394" lon="3.85748">
        <ele>928</ele>
        <time>2013-09-26T07:59:34Z</time>
      </trkpt>
      <trkpt lat="44.73936" lon="3.85753">
        <ele>924</ele>
        <time>2013-09-26T07:59:39Z</time>
      </trkpt>
      <trkpt lat="44.73931" lon="3.85756">
        <ele>924</ele>
        <time>2013-09-26T07:59:42Z</time>
      </trkpt>
      <trkpt lat="44.73927" lon="3.85759">
        <ele>923</ele>
        <time>2013-09-26T07:59:46Z</time>
      </trkpt>
      <trkpt lat="44.73922" lon="3.85761">
        <ele>923</ele>
        <time>2013-09-26T07:59:48Z</time>
      </trkpt>
      <trkpt lat="44.73917" lon="3.85764">
        <ele>923</ele>
        <time>2013-09-26T07:59:51Z</time>
      </trkpt>
      <trkpt lat="44.73912" lon="3.85766">
        <ele>918</ele>
        <time>2013-09-26T07:59:54Z</time>
      </trkpt>
      <trkpt lat="44.73908" lon="3.85767">
        <ele>918</ele>
        <time>2013-09-26T07:59:57Z</time>
      </trkpt>
      <trkpt lat="44.73903" lon="3.85768">
        <ele>918</ele>
        <time>2013-09-26T08:00:03Z</time>
      </trkpt>
      <trkpt lat="44.73897" lon="3.85768">
        <ele>917</ele>
        <time>2013-09-26T08:00:06Z</time>
      </trkpt>
      <trkpt lat="44.73892" lon="3.85767">
        <ele>917</ele>
        <time>2013-09-26T08:00:10Z</time>
      </trkpt>
      <trkpt lat="44.73887" lon="3.85767">
        <ele>916</ele>
        <time>2013-09-26T08:00:14Z</time>
      </trkpt>
      <trkpt lat="44.73882" lon="3.85766">
        <ele>916</ele>
        <time>2013-09-26T08:00:19Z</time>
      </trkpt>
      <trkpt lat="44.73877" lon="3.85763">
        <ele>916</ele>
        <time>2013-09-26T08:00:22Z</time>
      </trkpt>
      <trkpt lat="44.73872" lon="3.85763">
        <ele>915</ele>
        <time>2013-09-26T08:00:26Z</time>
      </trkpt>
      <trkpt lat="44.73867" lon="3.85763">
        <ele>915</ele>
        <time>2013-09-26T08:00:30Z</time>
      </trkpt>
      <trkpt lat="44.73862" lon="3.85762">
        <ele>914</ele>
        <time>2013-09-26T08:00:35Z</time>
      </trkpt>
      <trkpt lat="44.73857" lon="3.8576">
        <ele>914</ele>
        <time>2013-09-26T08:00:37Z</time>
      </trkpt>
      <trkpt lat="44.73851" lon="3.85758">
        <ele>914</ele>
        <time>2013-09-26T08:00:41Z</time>
      </trkpt>
      <trkpt lat="44.73847" lon="3.85753">
        <ele>913</ele>
        <time>2013-09-26T08:00:55Z</time>
      </trkpt>
      <trkpt lat="44.73843" lon="3.8575">
        <ele>915</ele>
        <time>2013-09-26T08:01:23Z</time>
      </trkpt>
      <trkpt lat="44.73838" lon="3.85747">
        <ele>914</ele>
        <time>2013-09-26T08:01:28Z</time>
      </trkpt>
      <trkpt lat="44.73833" lon="3.85747">
        <ele>912</ele>
        <time>2013-09-26T08:01:34Z</time>
      </trkpt>
      <trkpt lat="44.73828" lon="3.85746">
        <ele>912</ele>
        <time>2013-09-26T08:01:39Z</time>
      </trkpt>
      <trkpt lat="44.73822" lon="3.85747">
        <ele>912</ele>
        <time>2013-09-26T08:01:44Z</time>
      </trkpt>
      <trkpt lat="44.73816" lon="3.85745">
        <ele>912</ele>
        <time>2013-09-26T08:01:48Z</time>
      </trkpt>
      <trkpt lat="44.73811" lon="3.85742">
        <ele>912</ele>
        <time>2013-09-26T08:01:52Z</time>
      </trkpt>
      <trkpt lat="44.73806" lon="3.85742">
        <ele>911</ele>
        <time>2013-09-26T08:01:57Z</time>
      </trkpt>
      <trkpt lat="44.73801" lon="3.85742">
        <ele>911</ele>
        <time>2013-09-26T08:02:02Z</time>
      </trkpt>
      <trkpt lat="44.73796" lon="3.8574">
        <ele>911</ele>
        <time>2013-09-26T08:02:07Z</time>
      </trkpt>
      <trkpt lat="44.73791" lon="3.85739">
        <ele>911</ele>
        <time>2013-09-26T08:02:12Z</time>
      </trkpt>
      <trkpt lat="44.73787" lon="3.85736">
        <ele>910</ele>
        <time>2013-09-26T08:02:17Z</time>
      </trkpt>
      <trkpt lat="44.73782" lon="3.85734">
        <ele>910</ele>
        <time>2013-09-26T08:02:21Z</time>
      </trkpt>
      <trkpt lat="44.73777" lon="3.85731">
        <ele>910</ele>
        <time>2013-09-26T08:02:26Z</time>
      </trkpt>
      <trkpt lat="44.73772" lon="3.85733">
        <ele>909</ele>
        <time>2013-09-26T08:02:31Z</time>
      </trkpt>
      <trkpt lat="44.73767" lon="3.8573">
        <ele>909</ele>
        <time>2013-09-26T08:02:38Z</time>
      </trkpt>
      <trkpt lat="44.73766" lon="3.85723">
        <ele>909</ele>
        <time>2013-09-26T08:02:59Z</time>
      </trkpt>
      <trkpt lat="44.73764" lon="3.85717">
        <ele>910</ele>
        <time>2013-09-26T08:03:08Z</time>
      </trkpt>
      <trkpt lat="44.73762" lon="3.85711">
        <ele>910</ele>
        <time>2013-09-26T08:03:12Z</time>
      </trkpt>
      <trkpt lat="44.73744" lon="3.85731">
        <ele>905</ele>
        <time>2013-09-26T08:03:38Z</time>
      </trkpt>
      <trkpt lat="44.73739" lon="3.85731">
        <ele>905</ele>
        <time>2013-09-26T08:03:43Z</time>
      </trkpt>
      <trkpt lat="44.73734" lon="3.85729">
        <ele>905</ele>
        <time>2013-09-26T08:03:48Z</time>
      </trkpt>
      <trkpt lat="44.7373" lon="3.85727">
        <ele>905</ele>
        <time>2013-09-26T08:03:53Z</time>
      </trkpt>
      <trkpt lat="44.73725" lon="3.85723">
        <ele>905</ele>
        <time>2013-09-26T08:03:58Z</time>
      </trkpt>
      <trkpt lat="44.73723" lon="3.85717">
        <ele>905</ele>
        <time>2013-09-26T08:04:03Z</time>
      </trkpt>
      <trkpt lat="44.73719" lon="3.85715">
        <ele>905</ele>
        <time>2013-09-26T08:04:11Z</time>
      </trkpt>
      <trkpt lat="44.73717" lon="3.8572">
        <ele>905</ele>
        <time>2013-09-26T08:04:18Z</time>
      </trkpt>
      <trkpt lat="44.73717" lon="3.85728">
        <ele>905</ele>
        <time>2013-09-26T08:04:22Z</time>
      </trkpt>
      <trkpt lat="44.73717" lon="3.85735">
        <ele>905</ele>
        <time>2013-09-26T08:04:27Z</time>
      </trkpt>
      <trkpt lat="44.73718" lon="3.85743">
        <ele>905</ele>
        <time>2013-09-26T08:04:32Z</time>
      </trkpt>
      <trkpt lat="44.73718" lon="3.85749">
        <ele>905</ele>
        <time>2013-09-26T08:04:34Z</time>
      </trkpt>
      <trkpt lat="44.73716" lon="3.85757">
        <ele>908</ele>
        <time>2013-09-26T08:04:38Z</time>
      </trkpt>
      <trkpt lat="44.73714" lon="3.85763">
        <ele>908</ele>
        <time>2013-09-26T08:04:41Z</time>
      </trkpt>
      <trkpt lat="44.7371" lon="3.85768">
        <ele>908</ele>
        <time>2013-09-26T08:04:45Z</time>
      </trkpt>
      <trkpt lat="44.73705" lon="3.8577">
        <ele>908</ele>
        <time>2013-09-26T08:04:49Z</time>
      </trkpt>
      <trkpt lat="44.737" lon="3.85773">
        <ele>908</ele>
        <time>2013-09-26T08:04:53Z</time>
      </trkpt>
      <trkpt lat="44.73695" lon="3.85776">
        <ele>908</ele>
        <time>2013-09-26T08:04:57Z</time>
      </trkpt>
      <trkpt lat="44.7369" lon="3.85776">
        <ele>908</ele>
        <time>2013-09-26T08:05:02Z</time>
      </trkpt>
      <trkpt lat="44.73686" lon="3.85772">
        <ele>908</ele>
        <time>2013-09-26T08:05:06Z</time>
      </trkpt>
      <trkpt lat="44.73681" lon="3.85771">
        <ele>908</ele>
        <time>2013-09-26T08:05:10Z</time>
      </trkpt>
      <trkpt lat="44.73676" lon="3.8577">
        <ele>908</ele>
        <time>2013-09-26T08:05:13Z</time>
      </trkpt>
      <trkpt lat="44.73671" lon="3.85768">
        <ele>907</ele>
        <time>2013-09-26T08:05:17Z</time>
      </trkpt>
      <trkpt lat="44.73665" lon="3.85769">
        <ele>907</ele>
        <time>2013-09-26T08:05:22Z</time>
      </trkpt>
      <trkpt lat="44.7366" lon="3.85771">
        <ele>907</ele>
        <time>2013-09-26T08:05:25Z</time>
      </trkpt>
      <trkpt lat="44.73655" lon="3.85773">
        <ele>907</ele>
        <time>2013-09-26T08:05:29Z</time>
      </trkpt>
      <trkpt lat="44.7365" lon="3.85775">
        <ele>907</ele>
        <time>2013-09-26T08:05:32Z</time>
      </trkpt>
      <trkpt lat="44.73645" lon="3.85777">
        <ele>907</ele>
        <time>2013-09-26T08:05:36Z</time>
      </trkpt>
      <trkpt lat="44.73641" lon="3.85781">
        <ele>907</ele>
        <time>2013-09-26T08:05:41Z</time>
      </trkpt>
      <trkpt lat="44.73637" lon="3.85785">
        <ele>908</ele>
        <time>2013-09-26T08:05:45Z</time>
      </trkpt>
      <trkpt lat="44.73632" lon="3.85789">
        <ele>908</ele>
        <time>2013-09-26T08:05:48Z</time>
      </trkpt>
      <trkpt lat="44.73629" lon="3.85794">
        <ele>908</ele>
        <time>2013-09-26T08:05:51Z</time>
      </trkpt>
      <trkpt lat="44.73625" lon="3.85798">
        <ele>908</ele>
        <time>2013-09-26T08:05:54Z</time>
      </trkpt>
      <trkpt lat="44.73621" lon="3.85802">
        <ele>908</ele>
        <time>2013-09-26T08:05:57Z</time>
      </trkpt>
      <trkpt lat="44.73617" lon="3.85807">
        <ele>908</ele>
        <time>2013-09-26T08:06:02Z</time>
      </trkpt>
      <trkpt lat="44.73611" lon="3.8581">
        <ele>908</ele>
        <time>2013-09-26T08:06:05Z</time>
      </trkpt>
      <trkpt lat="44.73606" lon="3.85811">
        <ele>908</ele>
        <time>2013-09-26T08:06:10Z</time>
      </trkpt>
      <trkpt lat="44.73601" lon="3.85815">
        <ele>908</ele>
        <time>2013-09-26T08:06:15Z</time>
      </trkpt>
      <trkpt lat="44.73597" lon="3.85819">
        <ele>908</ele>
        <time>2013-09-26T08:06:21Z</time>
      </trkpt>
      <trkpt lat="44.73594" lon="3.85823">
        <ele>908</ele>
        <time>2013-09-26T08:06:26Z</time>
      </trkpt>
      <trkpt lat="44.73589" lon="3.85827">
        <ele>908</ele>
        <time>2013-09-26T08:06:30Z</time>
      </trkpt>
      <trkpt lat="44.73584" lon="3.8583">
        <ele>908</ele>
        <time>2013-09-26T08:06:35Z</time>
      </trkpt>
      <trkpt lat="44.73579" lon="3.85835">
        <ele>908</ele>
        <time>2013-09-26T08:06:41Z</time>
      </trkpt>
      <trkpt lat="44.73575" lon="3.8584">
        <ele>909</ele>
        <time>2013-09-26T08:06:46Z</time>
      </trkpt>
      <trkpt lat="44.73571" lon="3.85844">
        <ele>910</ele>
        <time>2013-09-26T08:06:50Z</time>
      </trkpt>
      <trkpt lat="44.73566" lon="3.85846">
        <ele>910</ele>
        <time>2013-09-26T08:06:54Z</time>
      </trkpt>
      <trkpt lat="44.73561" lon="3.85849">
        <ele>910</ele>
        <time>2013-09-26T08:06:58Z</time>
      </trkpt>
      <trkpt lat="44.73556" lon="3.8585">
        <ele>910</ele>
        <time>2013-09-26T08:07:01Z</time>
      </trkpt>
      <trkpt lat="44.7355" lon="3.85851">
        <ele>910</ele>
        <time>2013-09-26T08:07:05Z</time>
      </trkpt>
      <trkpt lat="44.73545" lon="3.85852">
        <ele>910</ele>
        <time>2013-09-26T08:07:09Z</time>
      </trkpt>
      <trkpt lat="44.73541" lon="3.85854">
        <ele>910</ele>
        <time>2013-09-26T08:07:13Z</time>
      </trkpt>
      <trkpt lat="44.73536" lon="3.85851">
        <ele>910</ele>
        <time>2013-09-26T08:07:17Z</time>
      </trkpt>
      <trkpt lat="44.73531" lon="3.85847">
        <ele>909</ele>
        <time>2013-09-26T08:07:21Z</time>
      </trkpt>
      <trkpt lat="44.73525" lon="3.85848">
        <ele>909</ele>
        <time>2013-09-26T08:07:25Z</time>
      </trkpt>
      <trkpt lat="44.7352" lon="3.85845">
        <ele>908</ele>
        <time>2013-09-26T08:07:30Z</time>
      </trkpt>
      <trkpt lat="44.7352" lon="3.85839">
        <ele>908</ele>
        <time>2013-09-26T08:07:34Z</time>
      </trkpt>
      <trkpt lat="44.73517" lon="3.85832">
        <ele>904</ele>
        <time>2013-09-26T08:07:38Z</time>
      </trkpt>
      <trkpt lat="44.73515" lon="3.85826">
        <ele>904</ele>
        <time>2013-09-26T08:07:42Z</time>
      </trkpt>
      <trkpt lat="44.73514" lon="3.85818">
        <ele>903</ele>
        <time>2013-09-26T08:07:46Z</time>
      </trkpt>
      <trkpt lat="44.73513" lon="3.85812">
        <ele>903</ele>
        <time>2013-09-26T08:07:52Z</time>
      </trkpt>
      <trkpt lat="44.7351" lon="3.85806">
        <ele>903</ele>
        <time>2013-09-26T08:07:54Z</time>
      </trkpt>
      <trkpt lat="44.73507" lon="3.85801">
        <ele>903</ele>
        <time>2013-09-26T08:07:58Z</time>
      </trkpt>
      <trkpt lat="44.73504" lon="3.85794">
        <ele>903</ele>
        <time>2013-09-26T08:08:03Z</time>
      </trkpt>
      <trkpt lat="44.73501" lon="3.85789">
        <ele>902</ele>
        <time>2013-09-26T08:08:06Z</time>
      </trkpt>
      <trkpt lat="44.73497" lon="3.85784">
        <ele>901</ele>
        <time>2013-09-26T08:08:10Z</time>
      </trkpt>
      <trkpt lat="44.73494" lon="3.85779">
        <ele>901</ele>
        <time>2013-09-26T08:08:14Z</time>
      </trkpt>
      <trkpt lat="44.73491" lon="3.85773">
        <ele>901</ele>
        <time>2013-09-26T08:08:18Z</time>
      </trkpt>
      <trkpt lat="44.73488" lon="3.85766">
        <ele>901</ele>
        <time>2013-09-26T08:08:22Z</time>
      </trkpt>
      <trkpt lat="44.73484" lon="3.8576">
        <ele>900</ele>
        <time>2013-09-26T08:08:26Z</time>
      </trkpt>
      <trkpt lat="44.73481" lon="3.85755">
        <ele>900</ele>
        <time>2013-09-26T08:08:31Z</time>
      </trkpt>
      <trkpt lat="44.73479" lon="3.8575">
        <ele>901</ele>
        <time>2013-09-26T08:08:35Z</time>
      </trkpt>
      <trkpt lat="44.73477" lon="3.85743">
        <ele>901</ele>
        <time>2013-09-26T08:08:39Z</time>
      </trkpt>
      <trkpt lat="44.73474" lon="3.85738">
        <ele>902</ele>
        <time>2013-09-26T08:08:44Z</time>
      </trkpt>
      <trkpt lat="44.73472" lon="3.85732">
        <ele>902</ele>
        <time>2013-09-26T08:08:50Z</time>
      </trkpt>
      <trkpt lat="44.73467" lon="3.85728">
        <ele>902</ele>
        <time>2013-09-26T08:09:02Z</time>
      </trkpt>
      <trkpt lat="44.73463" lon="3.85726">
        <ele>902</ele>
        <time>2013-09-26T08:09:52Z</time>
      </trkpt>
      <trkpt lat="44.73459" lon="3.85722">
        <ele>902</ele>
        <time>2013-09-26T08:09:57Z</time>
      </trkpt>
      <trkpt lat="44.73454" lon="3.85721">
        <ele>903</ele>
        <time>2013-09-26T08:10:03Z</time>
      </trkpt>
      <trkpt lat="44.73449" lon="3.85719">
        <ele>903</ele>
        <time>2013-09-26T08:10:09Z</time>
      </trkpt>
      <trkpt lat="44.73443" lon="3.85717">
        <ele>903</ele>
        <time>2013-09-26T08:10:15Z</time>
      </trkpt>
      <trkpt lat="44.73439" lon="3.85718">
        <ele>903</ele>
        <time>2013-09-26T08:10:19Z</time>
      </trkpt>
      <trkpt lat="44.73434" lon="3.85721">
        <ele>903</ele>
        <time>2013-09-26T08:10:23Z</time>
      </trkpt>
      <trkpt lat="44.73429" lon="3.85723">
        <ele>903</ele>
        <time>2013-09-26T08:10:26Z</time>
      </trkpt>
      <trkpt lat="44.73423" lon="3.85725">
        <ele>903</ele>
        <time>2013-09-26T08:10:30Z</time>
      </trkpt>
      <trkpt lat="44.73419" lon="3.85728">
        <ele>903</ele>
        <time>2013-09-26T08:10:34Z</time>
      </trkpt>
      <trkpt lat="44.73413" lon="3.85731">
        <ele>904</ele>
        <time>2013-09-26T08:10:38Z</time>
      </trkpt>
      <trkpt lat="44.73408" lon="3.85734">
        <ele>904</ele>
        <time>2013-09-26T08:10:41Z</time>
      </trkpt>
      <trkpt lat="44.73403" lon="3.85736">
        <ele>905</ele>
        <time>2013-09-26T08:10:44Z</time>
      </trkpt>
      <trkpt lat="44.73399" lon="3.8574">
        <ele>905</ele>
        <time>2013-09-26T08:10:47Z</time>
      </trkpt>
      <trkpt lat="44.73395" lon="3.85744">
        <ele>905</ele>
        <time>2013-09-26T08:10:50Z</time>
      </trkpt>
      <trkpt lat="44.73391" lon="3.85746">
        <ele>905</ele>
        <time>2013-09-26T08:10:53Z</time>
      </trkpt>
      <trkpt lat="44.73386" lon="3.85749">
        <ele>905</ele>
        <time>2013-09-26T08:10:57Z</time>
      </trkpt>
      <trkpt lat="44.73382" lon="3.85754">
        <ele>904</ele>
        <time>2013-09-26T08:11:03Z</time>
      </trkpt>
      <trkpt lat="44.73377" lon="3.85757">
        <ele>904</ele>
        <time>2013-09-26T08:11:08Z</time>
      </trkpt>
      <trkpt lat="44.73374" lon="3.85762">
        <ele>904</ele>
        <time>2013-09-26T08:11:12Z</time>
      </trkpt>
      <trkpt lat="44.7337" lon="3.85766">
        <ele>905</ele>
        <time>2013-09-26T08:11:16Z</time>
      </trkpt>
      <trkpt lat="44.73366" lon="3.8577">
        <ele>905</ele>
        <time>2013-09-26T08:11:20Z</time>
      </trkpt>
      <trkpt lat="44.73364" lon="3.85776">
        <ele>905</ele>
        <time>2013-09-26T08:11:24Z</time>
      </trkpt>
      <trkpt lat="44.7336" lon="3.85782">
        <ele>905</ele>
        <time>2013-09-26T08:11:29Z</time>
      </trkpt>
      <trkpt lat="44.73356" lon="3.85787">
        <ele>905</ele>
        <time>2013-09-26T08:11:32Z</time>
      </trkpt>
      <trkpt lat="44.73352" lon="3.85791">
        <ele>905</ele>
        <time>2013-09-26T08:11:35Z</time>
      </trkpt>
      <trkpt lat="44.73348" lon="3.85795">
        <ele>905</ele>
        <time>2013-09-26T08:11:38Z</time>
      </trkpt>
      <trkpt lat="44.73344" lon="3.85799">
        <ele>905</ele>
        <time>2013-09-26T08:11:42Z</time>
      </trkpt>
      <trkpt lat="44.73341" lon="3.85805">
        <ele>905</ele>
        <time>2013-09-26T08:11:47Z</time>
      </trkpt>
      <trkpt lat="44.73336" lon="3.85809">
        <ele>905</ele>
        <time>2013-09-26T08:11:51Z</time>
      </trkpt>
      <trkpt lat="44.73331" lon="3.85812">
        <ele>907</ele>
        <time>2013-09-26T08:11:56Z</time>
      </trkpt>
      <trkpt lat="44.73327" lon="3.85814">
        <ele>907</ele>
        <time>2013-09-26T08:12:00Z</time>
      </trkpt>
      <trkpt lat="44.73323" lon="3.85818">
        <ele>906</ele>
        <time>2013-09-26T08:12:05Z</time>
      </trkpt>
      <trkpt lat="44.73319" lon="3.85823">
        <ele>906</ele>
        <time>2013-09-26T08:12:08Z</time>
      </trkpt>
      <trkpt lat="44.73315" lon="3.85829">
        <ele>906</ele>
        <time>2013-09-26T08:12:11Z</time>
      </trkpt>
      <trkpt lat="44.73311" lon="3.85833">
        <ele>907</ele>
        <time>2013-09-26T08:12:15Z</time>
      </trkpt>
      <trkpt lat="44.73306" lon="3.85835">
        <ele>904</ele>
        <time>2013-09-26T08:12:19Z</time>
      </trkpt>
      <trkpt lat="44.73301" lon="3.85836">
        <ele>904</ele>
        <time>2013-09-26T08:12:25Z</time>
      </trkpt>
      <trkpt lat="44.73296" lon="3.85839">
        <ele>904</ele>
        <time>2013-09-26T08:12:28Z</time>
      </trkpt>
      <trkpt lat="44.73291" lon="3.85841">
        <ele>904</ele>
        <time>2013-09-26T08:12:33Z</time>
      </trkpt>
      <trkpt lat="44.73286" lon="3.85842">
        <ele>904</ele>
        <time>2013-09-26T08:12:36Z</time>
      </trkpt>
      <trkpt lat="44.73281" lon="3.85844">
        <ele>904</ele>
        <time>2013-09-26T08:12:40Z</time>
      </trkpt>
      <trkpt lat="44.73275" lon="3.85845">
        <ele>904</ele>
        <time>2013-09-26T08:12:44Z</time>
      </trkpt>
      <trkpt lat="44.73269" lon="3.85846">
        <ele>904</ele>
        <time>2013-09-26T08:12:47Z</time>
      </trkpt>
      <trkpt lat="44.73264" lon="3.85848">
        <ele>904</ele>
        <time>2013-09-26T08:12:50Z</time>
      </trkpt>
      <trkpt lat="44.7326" lon="3.85852">
        <ele>904</ele>
        <time>2013-09-26T08:12:53Z</time>
      </trkpt>
      <trkpt lat="44.73255" lon="3.85856">
        <ele>904</ele>
        <time>2013-09-26T08:12:56Z</time>
      </trkpt>
      <trkpt lat="44.73249" lon="3.85857">
        <ele>905</ele>
        <time>2013-09-26T08:13:00Z</time>
      </trkpt>
      <trkpt lat="44.73243" lon="3.85857">
        <ele>905</ele>
        <time>2013-09-26T08:13:04Z</time>
      </trkpt>
      <trkpt lat="44.73239" lon="3.85857">
        <ele>905</ele>
        <time>2013-09-26T08:13:07Z</time>
      </trkpt>
      <trkpt lat="44.73234" lon="3.85855">
        <ele>905</ele>
        <time>2013-09-26T08:13:15Z</time>
      </trkpt>
      <trkpt lat="44.73229" lon="3.85856">
        <ele>905</ele>
        <time>2013-09-26T08:13:25Z</time>
      </trkpt>
      <trkpt lat="44.73224" lon="3.85851">
        <ele>905</ele>
        <time>2013-09-26T08:13:31Z</time>
      </trkpt>
      <trkpt lat="44.73219" lon="3.85847">
        <ele>905</ele>
        <time>2013-09-26T08:13:35Z</time>
      </trkpt>
      <trkpt lat="44.73214" lon="3.85846">
        <ele>905</ele>
        <time>2013-09-26T08:13:39Z</time>
      </trkpt>
      <trkpt lat="44.73209" lon="3.85845">
        <ele>905</ele>
        <time>2013-09-26T08:13:43Z</time>
      </trkpt>
      <trkpt lat="44.73203" lon="3.85842">
        <ele>905</ele>
        <time>2013-09-26T08:13:47Z</time>
      </trkpt>
      <trkpt lat="44.73198" lon="3.85841">
        <ele>905</ele>
        <time>2013-09-26T08:13:50Z</time>
      </trkpt>
      <trkpt lat="44.73193" lon="3.8584">
        <ele>906</ele>
        <time>2013-09-26T08:13:54Z</time>
      </trkpt>
      <trkpt lat="44.73187" lon="3.85839">
        <ele>906</ele>
        <time>2013-09-26T08:13:59Z</time>
      </trkpt>
      <trkpt lat="44.73182" lon="3.85837">
        <ele>906</ele>
        <time>2013-09-26T08:14:02Z</time>
      </trkpt>
      <trkpt lat="44.73176" lon="3.85835">
        <ele>907</ele>
        <time>2013-09-26T08:14:06Z</time>
      </trkpt>
      <trkpt lat="44.73172" lon="3.85833">
        <ele>909</ele>
        <time>2013-09-26T08:14:09Z</time>
      </trkpt>
      <trkpt lat="44.73168" lon="3.85829">
        <ele>909</ele>
        <time>2013-09-26T08:14:13Z</time>
      </trkpt>
      <trkpt lat="44.73164" lon="3.85824">
        <ele>909</ele>
        <time>2013-09-26T08:14:18Z</time>
      </trkpt>
      <trkpt lat="44.73159" lon="3.8582">
        <ele>909</ele>
        <time>2013-09-26T08:14:43Z</time>
      </trkpt>
      <trkpt lat="44.73154" lon="3.85818">
        <ele>909</ele>
        <time>2013-09-26T08:14:44Z</time>
      </trkpt>
      <trkpt lat="44.73149" lon="3.85817">
        <ele>909</ele>
        <time>2013-09-26T08:14:47Z</time>
      </trkpt>
      <trkpt lat="44.73143" lon="3.85816">
        <ele>909</ele>
        <time>2013-09-26T08:14:51Z</time>
      </trkpt>
      <trkpt lat="44.73137" lon="3.85815">
        <ele>909</ele>
        <time>2013-09-26T08:14:53Z</time>
      </trkpt>
      <trkpt lat="44.73132" lon="3.85814">
        <ele>909</ele>
        <time>2013-09-26T08:14:56Z</time>
      </trkpt>
      <trkpt lat="44.73127" lon="3.85811">
        <ele>909</ele>
        <time>2013-09-26T08:15:00Z</time>
      </trkpt>
      <trkpt lat="44.73122" lon="3.85808">
        <ele>909</ele>
        <time>2013-09-26T08:15:03Z</time>
      </trkpt>
      <trkpt lat="44.73117" lon="3.85804">
        <ele>909</ele>
        <time>2013-09-26T08:15:06Z</time>
      </trkpt>
      <trkpt lat="44.73112" lon="3.85802">
        <ele>909</ele>
        <time>2013-09-26T08:15:10Z</time>
      </trkpt>
      <trkpt lat="44.73107" lon="3.858">
        <ele>909</ele>
        <time>2013-09-26T08:15:14Z</time>
      </trkpt>
      <trkpt lat="44.73104" lon="3.85795">
        <ele>909</ele>
        <time>2013-09-26T08:15:19Z</time>
      </trkpt>
      <trkpt lat="44.73102" lon="3.85788">
        <ele>909</ele>
        <time>2013-09-26T08:15:22Z</time>
      </trkpt>
      <trkpt lat="44.73099" lon="3.85783">
        <ele>909</ele>
        <time>2013-09-26T08:15:26Z</time>
      </trkpt>
      <trkpt lat="44.73096" lon="3.85778">
        <ele>909</ele>
        <time>2013-09-26T08:15:30Z</time>
      </trkpt>
      <trkpt lat="44.73092" lon="3.85772">
        <ele>909</ele>
        <time>2013-09-26T08:15:34Z</time>
      </trkpt>
      <trkpt lat="44.73087" lon="3.85766">
        <ele>909</ele>
        <time>2013-09-26T08:15:38Z</time>
      </trkpt>
      <trkpt lat="44.73083" lon="3.85762">
        <ele>908</ele>
        <time>2013-09-26T08:15:40Z</time>
      </trkpt>
      <trkpt lat="44.73078" lon="3.8576">
        <ele>908</ele>
        <time>2013-09-26T08:15:43Z</time>
      </trkpt>
      <trkpt lat="44.73073" lon="3.85758">
        <ele>908</ele>
        <time>2013-09-26T08:15:45Z</time>
      </trkpt>
      <trkpt lat="44.73068" lon="3.85756">
        <ele>908</ele>
        <time>2013-09-26T08:15:49Z</time>
      </trkpt>
      <trkpt lat="44.73065" lon="3.8575">
        <ele>910</ele>
        <time>2013-09-26T08:15:56Z</time>
      </trkpt>
      <trkpt lat="44.73061" lon="3.85745">
        <ele>910</ele>
        <time>2013-09-26T08:16:02Z</time>
      </trkpt>
      <trkpt lat="44.73058" lon="3.8574">
        <ele>910</ele>
        <time>2013-09-26T08:16:08Z</time>
      </trkpt>
      <trkpt lat="44.73057" lon="3.85733">
        <ele>910</ele>
        <time>2013-09-26T08:16:11Z</time>
      </trkpt>
      <trkpt lat="44.73056" lon="3.85726">
        <ele>910</ele>
        <time>2013-09-26T08:16:15Z</time>
      </trkpt>
      <trkpt lat="44.73053" lon="3.85719">
        <ele>911</ele>
        <time>2013-09-26T08:16:21Z</time>
      </trkpt>
      <trkpt lat="44.73051" lon="3.85714">
        <ele>911</ele>
        <time>2013-09-26T08:16:26Z</time>
      </trkpt>
      <trkpt lat="44.73046" lon="3.8571">
        <ele>911</ele>
        <time>2013-09-26T08:16:31Z</time>
      </trkpt>
      <trkpt lat="44.73043" lon="3.85706">
        <ele>911</ele>
        <time>2013-09-26T08:16:35Z</time>
      </trkpt>
      <trkpt lat="44.73039" lon="3.85702">
        <ele>911</ele>
        <time>2013-09-26T08:16:40Z</time>
      </trkpt>
      <trkpt lat="44.73034" lon="3.85698">
        <ele>911</ele>
        <time>2013-09-26T08:16:43Z</time>
      </trkpt>
      <trkpt lat="44.73029" lon="3.85697">
        <ele>911</ele>
        <time>2013-09-26T08:16:47Z</time>
      </trkpt>
      <trkpt lat="44.73024" lon="3.85696">
        <ele>911</ele>
        <time>2013-09-26T08:16:52Z</time>
      </trkpt>
      <trkpt lat="44.73019" lon="3.85693">
        <ele>911</ele>
        <time>2013-09-26T08:16:56Z</time>
      </trkpt>
      <trkpt lat="44.73014" lon="3.85691">
        <ele>911</ele>
        <time>2013-09-26T08:16:59Z</time>
      </trkpt>
      <trkpt lat="44.7301" lon="3.85689">
        <ele>911</ele>
        <time>2013-09-26T08:17:03Z</time>
      </trkpt>
      <trkpt lat="44.73005" lon="3.85689">
        <ele>911</ele>
        <time>2013-09-26T08:17:07Z</time>
      </trkpt>
      <trkpt lat="44.73" lon="3.8569">
        <ele>909</ele>
        <time>2013-09-26T08:17:10Z</time>
      </trkpt>
      <trkpt lat="44.72994" lon="3.85691">
        <ele>909</ele>
        <time>2013-09-26T08:17:14Z</time>
      </trkpt>
      <trkpt lat="44.72989" lon="3.85691">
        <ele>909</ele>
        <time>2013-09-26T08:17:18Z</time>
      </trkpt>
      <trkpt lat="44.72985" lon="3.85693">
        <ele>909</ele>
        <time>2013-09-26T08:17:23Z</time>
      </trkpt>
      <trkpt lat="44.7298" lon="3.8569">
        <ele>909</ele>
        <time>2013-09-26T08:17:31Z</time>
      </trkpt>
      <trkpt lat="44.72975" lon="3.85685">
        <ele>909</ele>
        <time>2013-09-26T08:17:34Z</time>
      </trkpt>
      <trkpt lat="44.72972" lon="3.8568">
        <ele>909</ele>
        <time>2013-09-26T08:17:37Z</time>
      </trkpt>
      <trkpt lat="44.72968" lon="3.85677">
        <ele>909</ele>
        <time>2013-09-26T08:17:41Z</time>
      </trkpt>
      <trkpt lat="44.72963" lon="3.85674">
        <ele>909</ele>
        <time>2013-09-26T08:17:44Z</time>
      </trkpt>
      <trkpt lat="44.72959" lon="3.8567">
        <ele>909</ele>
        <time>2013-09-26T08:17:48Z</time>
      </trkpt>
      <trkpt lat="44.72954" lon="3.8567">
        <ele>908</ele>
        <time>2013-09-26T08:17:54Z</time>
      </trkpt>
      <trkpt lat="44.72949" lon="3.8567">
        <ele>908</ele>
        <time>2013-09-26T08:17:57Z</time>
      </trkpt>
      <trkpt lat="44.72944" lon="3.85668">
        <ele>908</ele>
        <time>2013-09-26T08:18:01Z</time>
      </trkpt>
      <trkpt lat="44.72939" lon="3.85668">
        <ele>908</ele>
        <time>2013-09-26T08:18:05Z</time>
      </trkpt>
      <trkpt lat="44.72934" lon="3.85669">
        <ele>908</ele>
        <time>2013-09-26T08:18:09Z</time>
      </trkpt>
      <trkpt lat="44.72928" lon="3.85672">
        <ele>908</ele>
        <time>2013-09-26T08:18:12Z</time>
      </trkpt>
      <trkpt lat="44.72923" lon="3.85674">
        <ele>908</ele>
        <time>2013-09-26T08:18:15Z</time>
      </trkpt>
      <trkpt lat="44.72918" lon="3.85676">
        <ele>908</ele>
        <time>2013-09-26T08:18:18Z</time>
      </trkpt>
      <trkpt lat="44.72913" lon="3.85676">
        <ele>908</ele>
        <time>2013-09-26T08:18:23Z</time>
      </trkpt>
      <trkpt lat="44.7291" lon="3.85671">
        <ele>908</ele>
        <time>2013-09-26T08:18:29Z</time>
      </trkpt>
      <trkpt lat="44.72905" lon="3.85668">
        <ele>908</ele>
        <time>2013-09-26T08:18:34Z</time>
      </trkpt>
      <trkpt lat="44.72902" lon="3.85663">
        <ele>910</ele>
        <time>2013-09-26T08:18:41Z</time>
      </trkpt>
      <trkpt lat="44.72897" lon="3.8566">
        <ele>910</ele>
        <time>2013-09-26T08:18:45Z</time>
      </trkpt>
      <trkpt lat="44.72893" lon="3.85658">
        <ele>910</ele>
        <time>2013-09-26T08:18:49Z</time>
      </trkpt>
      <trkpt lat="44.72887" lon="3.85657">
        <ele>910</ele>
        <time>2013-09-26T08:18:54Z</time>
      </trkpt>
      <trkpt lat="44.72883" lon="3.85655">
        <ele>911</ele>
        <time>2013-09-26T08:18:59Z</time>
      </trkpt>
      <trkpt lat="44.72879" lon="3.8566">
        <ele>910</ele>
        <time>2013-09-26T08:19:03Z</time>
      </trkpt>
      <trkpt lat="44.72878" lon="3.85667">
        <ele>910</ele>
        <time>2013-09-26T08:19:06Z</time>
      </trkpt>
      <trkpt lat="44.72879" lon="3.85673">
        <ele>908</ele>
        <time>2013-09-26T08:19:15Z</time>
      </trkpt>
      <trkpt lat="44.72876" lon="3.85679">
        <ele>908</ele>
        <time>2013-09-26T08:19:22Z</time>
      </trkpt>
      <trkpt lat="44.72871" lon="3.85679">
        <ele>908</ele>
        <time>2013-09-26T08:19:27Z</time>
      </trkpt>
      <trkpt lat="44.72868" lon="3.85676">
        <ele>908</ele>
        <time>2013-09-26T08:19:30Z</time>
      </trkpt>
      <trkpt lat="44.72863" lon="3.85672">
        <ele>908</ele>
        <time>2013-09-26T08:19:34Z</time>
      </trkpt>
      <trkpt lat="44.7286" lon="3.85666">
        <ele>910</ele>
        <time>2013-09-26T08:19:41Z</time>
      </trkpt>
      <trkpt lat="44.72858" lon="3.8566">
        <ele>910</ele>
        <time>2013-09-26T08:19:44Z</time>
      </trkpt>
      <trkpt lat="44.72856" lon="3.85652">
        <ele>910</ele>
        <time>2013-09-26T08:19:48Z</time>
      </trkpt>
      <trkpt lat="44.72854" lon="3.85645">
        <ele>911</ele>
        <time>2013-09-26T08:19:53Z</time>
      </trkpt>
      <trkpt lat="44.72851" lon="3.8564">
        <ele>911</ele>
        <time>2013-09-26T08:19:58Z</time>
      </trkpt>
      <trkpt lat="44.72846" lon="3.85637">
        <ele>911</ele>
        <time>2013-09-26T08:20:05Z</time>
      </trkpt>
      <trkpt lat="44.72841" lon="3.85634">
        <ele>911</ele>
        <time>2013-09-26T08:20:11Z</time>
      </trkpt>
      <trkpt lat="44.72838" lon="3.85629">
        <ele>911</ele>
        <time>2013-09-26T08:20:18Z</time>
      </trkpt>
      <trkpt lat="44.72834" lon="3.85625">
        <ele>911</ele>
        <time>2013-09-26T08:20:23Z</time>
      </trkpt>
      <trkpt lat="44.7283" lon="3.85621">
        <ele>912</ele>
        <time>2013-09-26T08:20:27Z</time>
      </trkpt>
      <trkpt lat="44.72825" lon="3.85618">
        <ele>912</ele>
        <time>2013-09-26T08:20:32Z</time>
      </trkpt>
      <trkpt lat="44.7282" lon="3.85615">
        <ele>912</ele>
        <time>2013-09-26T08:20:37Z</time>
      </trkpt>
      <trkpt lat="44.72815" lon="3.85614">
        <ele>912</ele>
        <time>2013-09-26T08:20:41Z</time>
      </trkpt>
      <trkpt lat="44.72811" lon="3.85612">
        <ele>912</ele>
        <time>2013-09-26T08:20:45Z</time>
      </trkpt>
      <trkpt lat="44.72806" lon="3.85609">
        <ele>912</ele>
        <time>2013-09-26T08:20:49Z</time>
      </trkpt>
      <trkpt lat="44.72801" lon="3.85606">
        <ele>912</ele>
        <time>2013-09-26T08:20:54Z</time>
      </trkpt>
      <trkpt lat="44.72797" lon="3.85603">
        <ele>912</ele>
        <time>2013-09-26T08:20:59Z</time>
      </trkpt>
      <trkpt lat="44.72792" lon="3.85603">
        <ele>912</ele>
        <time>2013-09-26T08:21:01Z</time>
      </trkpt>
      <trkpt lat="44.72788" lon="3.85603">
        <ele>912</ele>
        <time>2013-09-26T08:21:05Z</time>
      </trkpt>
      <trkpt lat="44.72743" lon="3.85781">
        <ele>915</ele>
        <time>2013-09-26T08:22:56Z</time>
      </trkpt>
      <trkpt lat="44.72752" lon="3.85754">
        <ele>912</ele>
        <time>2013-09-26T08:23:09Z</time>
      </trkpt>
      <trkpt lat="44.72756" lon="3.85762">
        <ele>912</ele>
        <time>2013-09-26T08:23:15Z</time>
      </trkpt>
      <trkpt lat="44.7276" lon="3.85767">
        <ele>913</ele>
        <time>2013-09-26T08:23:39Z</time>
      </trkpt>
      <trkpt lat="44.72762" lon="3.85773">
        <ele>913</ele>
        <time>2013-09-26T08:23:56Z</time>
      </trkpt>
      <trkpt lat="44.72763" lon="3.8578">
        <ele>914</ele>
        <time>2013-09-26T08:24:05Z</time>
      </trkpt>
      <trkpt lat="44.72768" lon="3.85782">
        <ele>914</ele>
        <time>2013-09-26T08:24:20Z</time>
      </trkpt>
      <trkpt lat="44.72773" lon="3.8578">
        <ele>914</ele>
        <time>2013-09-26T08:24:23Z</time>
      </trkpt>
      <trkpt lat="44.72768" lon="3.8578">
        <ele>914</ele>
        <time>2013-09-26T08:24:29Z</time>
      </trkpt>
      <trkpt lat="44.72763" lon="3.85784">
        <ele>914</ele>
        <time>2013-09-26T08:24:33Z</time>
      </trkpt>
      <trkpt lat="44.72758" lon="3.85781">
        <ele>914</ele>
        <time>2013-09-26T08:24:35Z</time>
      </trkpt>
      <trkpt lat="44.72754" lon="3.85778">
        <ele>913</ele>
        <time>2013-09-26T08:24:39Z</time>
      </trkpt>
      <trkpt lat="44.72751" lon="3.85772">
        <ele>913</ele>
        <time>2013-09-26T08:25:19Z</time>
      </trkpt>
      <trkpt lat="44.72749" lon="3.85765">
        <ele>913</ele>
        <time>2013-09-26T08:25:21Z</time>
      </trkpt>
      <trkpt lat="44.72745" lon="3.85759">
        <ele>913</ele>
        <time>2013-09-26T08:25:23Z</time>
      </trkpt>
      <trkpt lat="44.72744" lon="3.85751">
        <ele>912</ele>
        <time>2013-09-26T08:25:48Z</time>
      </trkpt>
      <trkpt lat="44.72736" lon="3.85749">
        <ele>911</ele>
        <time>2013-09-26T08:26:13Z</time>
      </trkpt>
      <trkpt lat="44.72733" lon="3.8574">
        <ele>911</ele>
        <time>2013-09-26T08:26:15Z</time>
      </trkpt>
      <trkpt lat="44.72731" lon="3.85734">
        <ele>911</ele>
        <time>2013-09-26T08:26:16Z</time>
      </trkpt>
      <trkpt lat="44.72729" lon="3.85727">
        <ele>911</ele>
        <time>2013-09-26T08:26:17Z</time>
      </trkpt>
      <trkpt lat="44.72726" lon="3.85719">
        <ele>911</ele>
        <time>2013-09-26T08:26:19Z</time>
      </trkpt>
      <trkpt lat="44.72724" lon="3.85713">
        <ele>911</ele>
        <time>2013-09-26T08:26:24Z</time>
      </trkpt>
      <trkpt lat="44.72762" lon="3.85694">
        <ele>910</ele>
        <time>2013-09-26T08:29:44Z</time>
      </trkpt>
      <trkpt lat="44.72756" lon="3.85692">
        <ele>910</ele>
        <time>2013-09-26T08:30:20Z</time>
      </trkpt>
      <trkpt lat="44.72756" lon="3.85684">
        <ele>910</ele>
        <time>2013-09-26T08:30:42Z</time>
      </trkpt>
      <trkpt lat="44.72759" lon="3.85679">
        <ele>910</ele>
        <time>2013-09-26T08:31:10Z</time>
      </trkpt>
      <trkpt lat="44.72763" lon="3.85678">
        <ele>910</ele>
        <time>2013-09-26T08:31:15Z</time>
      </trkpt>
      <trkpt lat="44.72766" lon="3.85672">
        <ele>910</ele>
        <time>2013-09-26T08:31:28Z</time>
      </trkpt>
      <trkpt lat="44.72765" lon="3.85678">
        <ele>910</ele>
        <time>2013-09-26T08:31:57Z</time>
      </trkpt>
      <trkpt lat="44.72765" lon="3.85685">
        <ele>910</ele>
        <time>2013-09-26T08:32:04Z</time>
      </trkpt>
      <trkpt lat="44.72769" lon="3.85689">
        <ele>910</ele>
        <time>2013-09-26T08:32:15Z</time>
      </trkpt>
      <trkpt lat="44.72772" lon="3.85695">
        <ele>909</ele>
        <time>2013-09-26T08:32:37Z</time>
      </trkpt>
      <trkpt lat="44.72774" lon="3.85688">
        <ele>909</ele>
        <time>2013-09-26T08:33:24Z</time>
      </trkpt>
      <trkpt lat="44.72778" lon="3.85684">
        <ele>909</ele>
        <time>2013-09-26T08:33:28Z</time>
      </trkpt>
      <trkpt lat="44.72783" lon="3.85679">
        <ele>909</ele>
        <time>2013-09-26T08:33:33Z</time>
      </trkpt>
      <trkpt lat="44.72788" lon="3.85678">
        <ele>909</ele>
        <time>2013-09-26T08:33:40Z</time>
      </trkpt>
      <trkpt lat="44.72784" lon="3.85672">
        <ele>909</ele>
        <time>2013-09-26T08:34:06Z</time>
      </trkpt>
      <trkpt lat="44.72784" lon="3.85665">
        <ele>911</ele>
        <time>2013-09-26T08:34:18Z</time>
      </trkpt>
      <trkpt lat="44.72786" lon="3.85658">
        <ele>911</ele>
        <time>2013-09-26T08:34:42Z</time>
      </trkpt>
      <trkpt lat="44.72788" lon="3.85652">
        <ele>911</ele>
        <time>2013-09-26T08:34:54Z</time>
      </trkpt>
      <trkpt lat="44.72788" lon="3.85644">
        <ele>911</ele>
        <time>2013-09-26T08:35:18Z</time>
      </trkpt>
      <trkpt lat="44.72793" lon="3.85637">
        <ele>911</ele>
        <time>2013-09-26T08:35:27Z</time>
      </trkpt>
      <trkpt lat="44.72799" lon="3.85637">
        <ele>911</ele>
        <time>2013-09-26T08:36:01Z</time>
      </trkpt>
      <trkpt lat="44.72804" lon="3.85638">
        <ele>911</ele>
        <time>2013-09-26T08:36:21Z</time>
      </trkpt>
      <trkpt lat="44.72809" lon="3.85639">
        <ele>911</ele>
        <time>2013-09-26T08:36:55Z</time>
      </trkpt>
      <trkpt lat="44.72814" lon="3.85641">
        <ele>911</ele>
        <time>2013-09-26T08:37:29Z</time>
      </trkpt>
      <trkpt lat="44.72818" lon="3.85642">
        <ele>911</ele>
        <time>2013-09-26T08:37:44Z</time>
      </trkpt>
      <trkpt lat="44.72822" lon="3.85646">
        <ele>910</ele>
        <time>2013-09-26T08:38:06Z</time>
      </trkpt>
      <trkpt lat="44.72826" lon="3.85651">
        <ele>910</ele>
        <time>2013-09-26T08:38:12Z</time>
      </trkpt>
      <trkpt lat="44.7283" lon="3.85655">
        <ele>909</ele>
        <time>2013-09-26T08:38:15Z</time>
      </trkpt>
      <trkpt lat="44.72836" lon="3.85653">
        <ele>910</ele>
        <time>2013-09-26T08:38:22Z</time>
      </trkpt>
      <trkpt lat="44.72836" lon="3.85664">
        <ele>909</ele>
        <time>2013-09-26T08:38:41Z</time>
      </trkpt>
      <trkpt lat="44.72833" lon="3.85669">
        <ele>908</ele>
        <time>2013-09-26T08:38:48Z</time>
      </trkpt>
      <trkpt lat="44.72826" lon="3.85668">
        <ele>908</ele>
        <time>2013-09-26T08:39:18Z</time>
      </trkpt>
      <trkpt lat="44.72821" lon="3.85666">
        <ele>909</ele>
        <time>2013-09-26T08:39:22Z</time>
      </trkpt>
      <trkpt lat="44.72816" lon="3.85665">
        <ele>910</ele>
        <time>2013-09-26T08:39:23Z</time>
      </trkpt>
      <trkpt lat="44.72812" lon="3.85663">
        <ele>910</ele>
        <time>2013-09-26T08:39:24Z</time>
      </trkpt>
      <trkpt lat="44.72805" lon="3.85663">
        <ele>910</ele>
        <time>2013-09-26T08:39:26Z</time>
      </trkpt>
      <trkpt lat="44.728" lon="3.85665">
        <ele>910</ele>
        <time>2013-09-26T08:39:29Z</time>
      </trkpt>
      <trkpt lat="44.72796" lon="3.85666">
        <ele>910</ele>
        <time>2013-09-26T08:39:32Z</time>
      </trkpt>
      <trkpt lat="44.72801" lon="3.85664">
        <ele>910</ele>
        <time>2013-09-26T08:39:59Z</time>
      </trkpt>
      <trkpt lat="44.72799" lon="3.85658">
        <ele>911</ele>
        <time>2013-09-26T08:40:10Z</time>
      </trkpt>
      <trkpt lat="44.72794" lon="3.85655">
        <ele>911</ele>
        <time>2013-09-26T08:40:15Z</time>
      </trkpt>
      <trkpt lat="44.7279" lon="3.85651">
        <ele>911</ele>
        <time>2013-09-26T08:40:19Z</time>
      </trkpt>
      <trkpt lat="44.72785" lon="3.85648">
        <ele>911</ele>
        <time>2013-09-26T08:40:25Z</time>
      </trkpt>
      <trkpt lat="44.7278" lon="3.85644">
        <ele>911</ele>
        <time>2013-09-26T08:40:35Z</time>
      </trkpt>
      <trkpt lat="44.72776" lon="3.85642">
        <ele>911</ele>
        <time>2013-09-26T08:40:50Z</time>
      </trkpt>
      <trkpt lat="44.72771" lon="3.85638">
        <ele>911</ele>
        <time>2013-09-26T08:40:54Z</time>
      </trkpt>
      <trkpt lat="44.72767" lon="3.85636">
        <ele>911</ele>
        <time>2013-09-26T08:41:00Z</time>
      </trkpt>
      <trkpt lat="44.72762" lon="3.85633">
        <ele>911</ele>
        <time>2013-09-26T08:41:09Z</time>
      </trkpt>
      <trkpt lat="44.72757" lon="3.8563">
        <ele>911</ele>
        <time>2013-09-26T08:42:20Z</time>
      </trkpt>
      <trkpt lat="44.72752" lon="3.8563">
        <ele>912</ele>
        <time>2013-09-26T08:42:31Z</time>
      </trkpt>
      <trkpt lat="44.72748" lon="3.85628">
        <ele>912</ele>
        <time>2013-09-26T08:42:56Z</time>
      </trkpt>
      <trkpt lat="44.72743" lon="3.85625">
        <ele>912</ele>
        <time>2013-09-26T08:43:26Z</time>
      </trkpt>
      <trkpt lat="44.72739" lon="3.8563">
        <ele>912</ele>
        <time>2013-09-26T08:43:36Z</time>
      </trkpt>
      <trkpt lat="44.72735" lon="3.85631">
        <ele>912</ele>
        <time>2013-09-26T08:43:46Z</time>
      </trkpt>
      <trkpt lat="44.7273" lon="3.8563">
        <ele>912</ele>
        <time>2013-09-26T08:43:55Z</time>
      </trkpt>
      <trkpt lat="44.72725" lon="3.85628">
        <ele>912</ele>
        <time>2013-09-26T08:44:00Z</time>
      </trkpt>
      <trkpt lat="44.7272" lon="3.85627">
        <ele>912</ele>
        <time>2013-09-26T08:44:06Z</time>
      </trkpt>
      <trkpt lat="44.72715" lon="3.85622">
        <ele>912</ele>
        <time>2013-09-26T08:44:10Z</time>
      </trkpt>
      <trkpt lat="44.7271" lon="3.85622">
        <ele>912</ele>
        <time>2013-09-26T08:44:15Z</time>
      </trkpt>
      <trkpt lat="44.72705" lon="3.85622">
        <ele>912</ele>
        <time>2013-09-26T08:44:20Z</time>
      </trkpt>
      <trkpt lat="44.727" lon="3.8562">
        <ele>912</ele>
        <time>2013-09-26T08:44:24Z</time>
      </trkpt>
      <trkpt lat="44.72695" lon="3.85617">
        <ele>912</ele>
        <time>2013-09-26T08:44:32Z</time>
      </trkpt>
      <trkpt lat="44.72693" lon="3.8561">
        <ele>912</ele>
        <time>2013-09-26T08:44:47Z</time>
      </trkpt>
      <trkpt lat="44.72692" lon="3.85603">
        <ele>912</ele>
        <time>2013-09-26T08:44:50Z</time>
      </trkpt>
      <trkpt lat="44.72692" lon="3.85595">
        <ele>912</ele>
        <time>2013-09-26T08:44:51Z</time>
      </trkpt>
      <trkpt lat="44.72694" lon="3.85578">
        <ele>915</ele>
        <time>2013-09-26T08:45:41Z</time>
      </trkpt>
      <trkpt lat="44.72706" lon="3.85547">
        <ele>916</ele>
        <time>2013-09-26T08:45:41Z</time>
      </trkpt>
      <trkpt lat="44.72704" lon="3.85541">
        <ele>916</ele>
        <time>2013-09-26T08:45:47Z</time>
      </trkpt>
      <trkpt lat="44.72701" lon="3.85535">
        <ele>916</ele>
        <time>2013-09-26T08:45:52Z</time>
      </trkpt>
      <trkpt lat="44.72702" lon="3.85528">
        <ele>916</ele>
        <time>2013-09-26T08:46:42Z</time>
      </trkpt>
      <trkpt lat="44.72704" lon="3.85522">
        <ele>917</ele>
        <time>2013-09-26T08:47:42Z</time>
      </trkpt>
      <trkpt lat="44.72704" lon="3.85514">
        <ele>917</ele>
        <time>2013-09-26T08:48:35Z</time>
      </trkpt>
      <trkpt lat="44.72702" lon="3.85508">
        <ele>917</ele>
        <time>2013-09-26T08:50:21Z</time>
      </trkpt>
      <trkpt lat="44.72699" lon="3.85501">
        <ele>917</ele>
        <time>2013-09-26T08:50:24Z</time>
      </trkpt>
      <trkpt lat="44.72696" lon="3.85495">
        <ele>921</ele>
        <time>2013-09-26T08:50:27Z</time>
      </trkpt>
      <trkpt lat="44.72693" lon="3.85488">
        <ele>921</ele>
        <time>2013-09-26T08:50:30Z</time>
      </trkpt>
      <trkpt lat="44.72689" lon="3.85481">
        <ele>921</ele>
        <time>2013-09-26T08:50:32Z</time>
      </trkpt>
      <trkpt lat="44.72686" lon="3.85477">
        <ele>921</ele>
        <time>2013-09-26T08:50:34Z</time>
      </trkpt>
      <trkpt lat="44.72681" lon="3.85474">
        <ele>921</ele>
        <time>2013-09-26T08:50:36Z</time>
      </trkpt>
      <trkpt lat="44.72678" lon="3.85468">
        <ele>922</ele>
        <time>2013-09-26T08:50:39Z</time>
      </trkpt>
      <trkpt lat="44.72672" lon="3.85465">
        <ele>922</ele>
        <time>2013-09-26T08:50:42Z</time>
      </trkpt>
      <trkpt lat="44.72667" lon="3.85462">
        <ele>922</ele>
        <time>2013-09-26T08:50:46Z</time>
      </trkpt>
      <trkpt lat="44.72662" lon="3.85464">
        <ele>920</ele>
        <time>2013-09-26T08:50:57Z</time>
      </trkpt>
      <trkpt lat="44.72658" lon="3.85468">
        <ele>920</ele>
        <time>2013-09-26T08:51:06Z</time>
      </trkpt>
      <trkpt lat="44.72657" lon="3.85475">
        <ele>919</ele>
        <time>2013-09-26T08:51:12Z</time>
      </trkpt>
      <trkpt lat="44.72661" lon="3.85481">
        <ele>919</ele>
        <time>2013-09-26T08:51:17Z</time>
      </trkpt>
      <trkpt lat="44.72664" lon="3.85488">
        <ele>919</ele>
        <time>2013-09-26T08:51:21Z</time>
      </trkpt>
      <trkpt lat="44.72665" lon="3.85495">
        <ele>918</ele>
        <time>2013-09-26T08:51:24Z</time>
      </trkpt>
      <trkpt lat="44.72666" lon="3.85501">
        <ele>918</ele>
        <time>2013-09-26T08:51:27Z</time>
      </trkpt>
      <trkpt lat="44.7267" lon="3.85508">
        <ele>917</ele>
        <time>2013-09-26T08:51:31Z</time>
      </trkpt>
      <trkpt lat="44.72672" lon="3.85515">
        <ele>917</ele>
        <time>2013-09-26T08:51:35Z</time>
      </trkpt>
      <trkpt lat="44.72675" lon="3.85521">
        <ele>917</ele>
        <time>2013-09-26T08:51:38Z</time>
      </trkpt>
      <trkpt lat="44.72679" lon="3.85526">
        <ele>916</ele>
        <time>2013-09-26T08:51:41Z</time>
      </trkpt>
      <trkpt lat="44.72677" lon="3.85532">
        <ele>916</ele>
        <time>2013-09-26T08:51:46Z</time>
      </trkpt>
      <trkpt lat="44.72681" lon="3.85533">
        <ele>916</ele>
        <time>2013-09-26T08:51:52Z</time>
      </trkpt>
      <trkpt lat="44.72686" lon="3.85535">
        <ele>916</ele>
        <time>2013-09-26T08:51:57Z</time>
      </trkpt>
      <trkpt lat="44.72689" lon="3.8554">
        <ele>916</ele>
        <time>2013-09-26T08:52:01Z</time>
      </trkpt>
      <trkpt lat="44.72692" lon="3.85546">
        <ele>916</ele>
        <time>2013-09-26T08:52:05Z</time>
      </trkpt>
      <trkpt lat="44.72695" lon="3.85551">
        <ele>916</ele>
        <time>2013-09-26T08:52:10Z</time>
      </trkpt>
      <trkpt lat="44.72699" lon="3.85554">
        <ele>916</ele>
        <time>2013-09-26T08:52:15Z</time>
      </trkpt>
      <trkpt lat="44.72705" lon="3.85554">
        <ele>916</ele>
        <time>2013-09-26T08:52:29Z</time>
      </trkpt>
      <trkpt lat="44.72709" lon="3.85549">
        <ele>916</ele>
        <time>2013-09-26T08:53:10Z</time>
      </trkpt>
      <trkpt lat="44.72713" lon="3.85547">
        <ele>916</ele>
        <time>2013-09-26T08:53:34Z</time>
      </trkpt>
      <trkpt lat="44.72709" lon="3.85541">
        <ele>916</ele>
        <time>2013-09-26T08:54:08Z</time>
      </trkpt>
      <trkpt lat="44.72709" lon="3.85534">
        <ele>916</ele>
        <time>2013-09-26T08:54:16Z</time>
      </trkpt>
      <trkpt lat="44.72706" lon="3.85539">
        <ele>916</ele>
        <time>2013-09-26T08:54:30Z</time>
      </trkpt>
      <trkpt lat="44.72702" lon="3.85554">
        <ele>916</ele>
        <time>2013-09-26T08:54:42Z</time>
      </trkpt>
      <trkpt lat="44.72702" lon="3.85562">
        <ele>915</ele>
        <time>2013-09-26T08:54:43Z</time>
      </trkpt>
      <trkpt lat="44.72701" lon="3.85571">
        <ele>915</ele>
        <time>2013-09-26T08:54:44Z</time>
      </trkpt>
      <trkpt lat="44.72701" lon="3.85582">
        <ele>915</ele>
        <time>2013-09-26T08:54:45Z</time>
      </trkpt>
      <trkpt lat="44.72701" lon="3.85593">
        <ele>912</ele>
        <time>2013-09-26T08:54:56Z</time>
      </trkpt>
      <trkpt lat="44.72705" lon="3.85603">
        <ele>912</ele>
        <time>2013-09-26T08:55:13Z</time>
      </trkpt>
      <trkpt lat="44.7271" lon="3.85622">
        <ele>912</ele>
        <time>2013-09-26T08:55:14Z</time>
      </trkpt>
      <trkpt lat="44.72718" lon="3.85648">
        <ele>912</ele>
        <time>2013-09-26T08:55:18Z</time>
      </trkpt>
      <trkpt lat="44.72721" lon="3.85655">
        <ele>911</ele>
        <time>2013-09-26T08:55:27Z</time>
      </trkpt>
      <trkpt lat="44.72722" lon="3.85662">
        <ele>911</ele>
        <time>2013-09-26T08:55:31Z</time>
      </trkpt>
      <trkpt lat="44.72722" lon="3.85671">
        <ele>911</ele>
        <time>2013-09-26T08:55:37Z</time>
      </trkpt>
      <trkpt lat="44.72718" lon="3.8568">
        <ele>911</ele>
        <time>2013-09-26T08:55:39Z</time>
      </trkpt>
      <trkpt lat="44.72715" lon="3.85687">
        <ele>911</ele>
        <time>2013-09-26T08:55:40Z</time>
      </trkpt>
      <trkpt lat="44.72712" lon="3.85692">
        <ele>911</ele>
        <time>2013-09-26T08:55:41Z</time>
      </trkpt>
      <trkpt lat="44.72709" lon="3.857">
        <ele>911</ele>
        <time>2013-09-26T08:55:44Z</time>
      </trkpt>
      <trkpt lat="44.72706" lon="3.85707">
        <ele>911</ele>
        <time>2013-09-26T08:56:02Z</time>
      </trkpt>
      <trkpt lat="44.72703" lon="3.85714">
        <ele>911</ele>
        <time>2013-09-26T08:56:05Z</time>
      </trkpt>
      <trkpt lat="44.72697" lon="3.85717">
        <ele>911</ele>
        <time>2013-09-26T08:56:07Z</time>
      </trkpt>
      <trkpt lat="44.72694" lon="3.85721">
        <ele>911</ele>
        <time>2013-09-26T08:56:21Z</time>
      </trkpt>
      <trkpt lat="44.72699" lon="3.8572">
        <ele>911</ele>
        <time>2013-09-26T08:56:28Z</time>
      </trkpt>
      <trkpt lat="44.72703" lon="3.85719">
        <ele>911</ele>
        <time>2013-09-26T08:56:57Z</time>
      </trkpt>
      <trkpt lat="44.72709" lon="3.85719">
        <ele>911</ele>
        <time>2013-09-26T08:57:21Z</time>
      </trkpt>
      <trkpt lat="44.72708" lon="3.85712">
        <ele>911</ele>
        <time>2013-09-26T08:57:44Z</time>
      </trkpt>
      <trkpt lat="44.72707" lon="3.85705">
        <ele>911</ele>
        <time>2013-09-26T08:57:51Z</time>
      </trkpt>
      <trkpt lat="44.72711" lon="3.85705">
        <ele>911</ele>
        <time>2013-09-26T08:58:35Z</time>
      </trkpt>
      <trkpt lat="44.72717" lon="3.85705">
        <ele>911</ele>
        <time>2013-09-26T08:59:27Z</time>
      </trkpt>
      <trkpt lat="44.7272" lon="3.85701">
        <ele>911</ele>
        <time>2013-09-26T08:59:39Z</time>
      </trkpt>
      <trkpt lat="44.72724" lon="3.85697">
        <ele>911</ele>
        <time>2013-09-26T09:00:54Z</time>
      </trkpt>
      <trkpt lat="44.72719" lon="3.85697">
        <ele>911</ele>
        <time>2013-09-26T09:01:49Z</time>
      </trkpt>
      <trkpt lat="44.72715" lon="3.85693">
        <ele>911</ele>
        <time>2013-09-26T09:01:55Z</time>
      </trkpt>
      <trkpt lat="44.72712" lon="3.85689">
        <ele>911</ele>
        <time>2013-09-26T09:02:03Z</time>
      </trkpt>
      <trkpt lat="44.72708" lon="3.85683">
        <ele>911</ele>
        <time>2013-09-26T09:02:17Z</time>
      </trkpt>
      <trkpt lat="44.72705" lon="3.85677">
        <ele>911</ele>
        <time>2013-09-26T09:02:22Z</time>
      </trkpt>
      <trkpt lat="44.72704" lon="3.85671">
        <ele>911</ele>
        <time>2013-09-26T09:02:27Z</time>
      </trkpt>
      <trkpt lat="44.72707" lon="3.85663">
        <ele>911</ele>
        <time>2013-09-26T09:02:30Z</time>
      </trkpt>
      <trkpt lat="44.72709" lon="3.85656">
        <ele>912</ele>
        <time>2013-09-26T09:02:33Z</time>
      </trkpt>
      <trkpt lat="44.72711" lon="3.85648">
        <ele>912</ele>
        <time>2013-09-26T09:02:36Z</time>
      </trkpt>
      <trkpt lat="44.72713" lon="3.85642">
        <ele>912</ele>
        <time>2013-09-26T09:02:39Z</time>
      </trkpt>
      <trkpt lat="44.72717" lon="3.85639">
        <ele>912</ele>
        <time>2013-09-26T09:02:43Z</time>
      </trkpt>
      <trkpt lat="44.72722" lon="3.85635">
        <ele>912</ele>
        <time>2013-09-26T09:02:46Z</time>
      </trkpt>
      <trkpt lat="44.72721" lon="3.85628">
        <ele>912</ele>
        <time>2013-09-26T09:02:52Z</time>
      </trkpt>
      <trkpt lat="44.72719" lon="3.85621">
        <ele>912</ele>
        <time>2013-09-26T09:02:57Z</time>
      </trkpt>
      <trkpt lat="44.72715" lon="3.85615">
        <ele>912</ele>
        <time>2013-09-26T09:03:03Z</time>
      </trkpt>
      <trkpt lat="44.72711" lon="3.8561">
        <ele>912</ele>
        <time>2013-09-26T09:03:07Z</time>
      </trkpt>
      <trkpt lat="44.72711" lon="3.85603">
        <ele>912</ele>
        <time>2013-09-26T09:03:12Z</time>
      </trkpt>
      <trkpt lat="44.72708" lon="3.85597">
        <ele>912</ele>
        <time>2013-09-26T09:03:19Z</time>
      </trkpt>
      <trkpt lat="44.72705" lon="3.85591">
        <ele>912</ele>
        <time>2013-09-26T09:03:24Z</time>
      </trkpt>
      <trkpt lat="44.72703" lon="3.85585">
        <ele>913</ele>
        <time>2013-09-26T09:03:27Z</time>
      </trkpt>
      <trkpt lat="44.72699" lon="3.8558">
        <ele>915</ele>
        <time>2013-09-26T09:03:33Z</time>
      </trkpt>
      <trkpt lat="44.72694" lon="3.8558">
        <ele>915</ele>
        <time>2013-09-26T09:03:37Z</time>
      </trkpt>
      <trkpt lat="44.72691" lon="3.85575">
        <ele>915</ele>
        <time>2013-09-26T09:03:41Z</time>
      </trkpt>
      <trkpt lat="44.72688" lon="3.85569">
        <ele>915</ele>
        <time>2013-09-26T09:03:45Z</time>
      </trkpt>
      <trkpt lat="44.72685" lon="3.85564">
        <ele>915</ele>
        <time>2013-09-26T09:03:48Z</time>
      </trkpt>
      <trkpt lat="44.7268" lon="3.85562">
        <ele>915</ele>
        <time>2013-09-26T09:03:50Z</time>
      </trkpt>
      <trkpt lat="44.72676" lon="3.85558">
        <ele>915</ele>
        <time>2013-09-26T09:03:53Z</time>
      </trkpt>
      <trkpt lat="44.72672" lon="3.85554">
        <ele>915</ele>
        <time>2013-09-26T09:03:57Z</time>
      </trkpt>
      <trkpt lat="44.72668" lon="3.85548">
        <ele>916</ele>
        <time>2013-09-26T09:04:01Z</time>
      </trkpt>
      <trkpt lat="44.72664" lon="3.85544">
        <ele>915</ele>
        <time>2013-09-26T09:04:04Z</time>
      </trkpt>
      <trkpt lat="44.7266" lon="3.85541">
        <ele>915</ele>
        <time>2013-09-26T09:04:07Z</time>
      </trkpt>
      <trkpt lat="44.72656" lon="3.85537">
        <ele>915</ele>
        <time>2013-09-26T09:04:11Z</time>
      </trkpt>
      <trkpt lat="44.72653" lon="3.8553">
        <ele>915</ele>
        <time>2013-09-26T09:04:16Z</time>
      </trkpt>
      <trkpt lat="44.72651" lon="3.85523">
        <ele>915</ele>
        <time>2013-09-26T09:04:21Z</time>
      </trkpt>
      <trkpt lat="44.72649" lon="3.85516">
        <ele>916</ele>
        <time>2013-09-26T09:04:28Z</time>
      </trkpt>
      <trkpt lat="44.72644" lon="3.8551">
        <ele>916</ele>
        <time>2013-09-26T09:04:33Z</time>
      </trkpt>
      <trkpt lat="44.7264" lon="3.85509">
        <ele>916</ele>
        <time>2013-09-26T09:04:37Z</time>
      </trkpt>
      <trkpt lat="44.72635" lon="3.85508">
        <ele>915</ele>
        <time>2013-09-26T09:04:39Z</time>
      </trkpt>
      <trkpt lat="44.72632" lon="3.85503">
        <ele>915</ele>
        <time>2013-09-26T09:04:43Z</time>
      </trkpt>
      <trkpt lat="44.7263" lon="3.85497">
        <ele>919</ele>
        <time>2013-09-26T09:04:47Z</time>
      </trkpt>
      <trkpt lat="44.72628" lon="3.85489">
        <ele>919</ele>
        <time>2013-09-26T09:04:51Z</time>
      </trkpt>
      <trkpt lat="44.72626" lon="3.85482">
        <ele>919</ele>
        <time>2013-09-26T09:04:55Z</time>
      </trkpt>
      <trkpt lat="44.72621" lon="3.85478">
        <ele>919</ele>
        <time>2013-09-26T09:05:00Z</time>
      </trkpt>
      <trkpt lat="44.72615" lon="3.85476">
        <ele>919</ele>
        <time>2013-09-26T09:05:04Z</time>
      </trkpt>
      <trkpt lat="44.72611" lon="3.85475">
        <ele>919</ele>
        <time>2013-09-26T09:05:08Z</time>
      </trkpt>
      <trkpt lat="44.72607" lon="3.8547">
        <ele>919</ele>
        <time>2013-09-26T09:05:12Z</time>
      </trkpt>
      <trkpt lat="44.72603" lon="3.85466">
        <ele>919</ele>
        <time>2013-09-26T09:05:16Z</time>
      </trkpt>
      <trkpt lat="44.72599" lon="3.85461">
        <ele>919</ele>
        <time>2013-09-26T09:05:20Z</time>
      </trkpt>
      <trkpt lat="44.72598" lon="3.85454">
        <ele>919</ele>
        <time>2013-09-26T09:05:24Z</time>
      </trkpt>
      <trkpt lat="44.72598" lon="3.85447">
        <ele>920</ele>
        <time>2013-09-26T09:05:29Z</time>
      </trkpt>
      <trkpt lat="44.72598" lon="3.8544">
        <ele>920</ele>
        <time>2013-09-26T09:05:34Z</time>
      </trkpt>
      <trkpt lat="44.72596" lon="3.85433">
        <ele>920</ele>
        <time>2013-09-26T09:05:39Z</time>
      </trkpt>
      <trkpt lat="44.72593" lon="3.85428">
        <ele>920</ele>
        <time>2013-09-26T09:05:45Z</time>
      </trkpt>
      <trkpt lat="44.72588" lon="3.85424">
        <ele>921</ele>
        <time>2013-09-26T09:05:48Z</time>
      </trkpt>
      <trkpt lat="44.72584" lon="3.85419">
        <ele>921</ele>
        <time>2013-09-26T09:05:53Z</time>
      </trkpt>
      <trkpt lat="44.72581" lon="3.85412">
        <ele>921</ele>
        <time>2013-09-26T09:05:57Z</time>
      </trkpt>
      <trkpt lat="44.72578" lon="3.85407">
        <ele>921</ele>
        <time>2013-09-26T09:06:00Z</time>
      </trkpt>
      <trkpt lat="44.72575" lon="3.85402">
        <ele>921</ele>
        <time>2013-09-26T09:06:03Z</time>
      </trkpt>
      <trkpt lat="44.72571" lon="3.85396">
        <ele>922</ele>
        <time>2013-09-26T09:06:07Z</time>
      </trkpt>
      <trkpt lat="44.72566" lon="3.85392">
        <ele>922</ele>
        <time>2013-09-26T09:06:11Z</time>
      </trkpt>
      <trkpt lat="44.72562" lon="3.85387">
        <ele>922</ele>
        <time>2013-09-26T09:06:16Z</time>
      </trkpt>
      <trkpt lat="44.72559" lon="3.85381">
        <ele>922</ele>
        <time>2013-09-26T09:06:19Z</time>
      </trkpt>
      <trkpt lat="44.72556" lon="3.85375">
        <ele>922</ele>
        <time>2013-09-26T09:06:23Z</time>
      </trkpt>
      <trkpt lat="44.72554" lon="3.85369">
        <ele>922</ele>
        <time>2013-09-26T09:06:28Z</time>
      </trkpt>
      <trkpt lat="44.7255" lon="3.85364">
        <ele>922</ele>
        <time>2013-09-26T09:06:33Z</time>
      </trkpt>
      <trkpt lat="44.72546" lon="3.85362">
        <ele>922</ele>
        <time>2013-09-26T09:06:38Z</time>
      </trkpt>
      <trkpt lat="44.72543" lon="3.85356">
        <ele>922</ele>
        <time>2013-09-26T09:06:44Z</time>
      </trkpt>
      <trkpt lat="44.72539" lon="3.85352">
        <ele>922</ele>
        <time>2013-09-26T09:06:49Z</time>
      </trkpt>
      <trkpt lat="44.72536" lon="3.85346">
        <ele>922</ele>
        <time>2013-09-26T09:06:55Z</time>
      </trkpt>
      <trkpt lat="44.72535" lon="3.8534">
        <ele>922</ele>
        <time>2013-09-26T09:07:00Z</time>
      </trkpt>
      <trkpt lat="44.72539" lon="3.85334">
        <ele>922</ele>
        <time>2013-09-26T09:07:06Z</time>
      </trkpt>
      <trkpt lat="44.72542" lon="3.85328">
        <ele>926</ele>
        <time>2013-09-26T09:07:10Z</time>
      </trkpt>
      <trkpt lat="44.72546" lon="3.85321">
        <ele>926</ele>
        <time>2013-09-26T09:07:13Z</time>
      </trkpt>
      <trkpt lat="44.72549" lon="3.85313">
        <ele>926</ele>
        <time>2013-09-26T09:07:16Z</time>
      </trkpt>
      <trkpt lat="44.7255" lon="3.85306">
        <ele>927</ele>
        <time>2013-09-26T09:07:19Z</time>
      </trkpt>
      <trkpt lat="44.72552" lon="3.853">
        <ele>927</ele>
        <time>2013-09-26T09:07:23Z</time>
      </trkpt>
      <trkpt lat="44.72552" lon="3.85293">
        <ele>927</ele>
        <time>2013-09-26T09:07:27Z</time>
      </trkpt>
      <trkpt lat="44.72554" lon="3.85287">
        <ele>927</ele>
        <time>2013-09-26T09:07:31Z</time>
      </trkpt>
      <trkpt lat="44.72559" lon="3.85284">
        <ele>928</ele>
        <time>2013-09-26T09:07:34Z</time>
      </trkpt>
      <trkpt lat="44.72564" lon="3.85282">
        <ele>928</ele>
        <time>2013-09-26T09:07:38Z</time>
      </trkpt>
      <trkpt lat="44.7257" lon="3.8528">
        <ele>928</ele>
        <time>2013-09-26T09:07:43Z</time>
      </trkpt>
      <trkpt lat="44.72574" lon="3.85277">
        <ele>929</ele>
        <time>2013-09-26T09:07:46Z</time>
      </trkpt>
      <trkpt lat="44.7258" lon="3.85275">
        <ele>929</ele>
        <time>2013-09-26T09:07:49Z</time>
      </trkpt>
      <trkpt lat="44.72584" lon="3.85274">
        <ele>932</ele>
        <time>2013-09-26T09:07:53Z</time>
      </trkpt>
      <trkpt lat="44.72589" lon="3.85272">
        <ele>932</ele>
        <time>2013-09-26T09:07:56Z</time>
      </trkpt>
      <trkpt lat="44.72594" lon="3.85269">
        <ele>932</ele>
        <time>2013-09-26T09:08:00Z</time>
      </trkpt>
      <trkpt lat="44.72598" lon="3.85266">
        <ele>933</ele>
        <time>2013-09-26T09:08:02Z</time>
      </trkpt>
      <trkpt lat="44.72602" lon="3.85264">
        <ele>933</ele>
        <time>2013-09-26T09:08:05Z</time>
      </trkpt>
      <trkpt lat="44.72607" lon="3.85262">
        <ele>933</ele>
        <time>2013-09-26T09:08:09Z</time>
      </trkpt>
      <trkpt lat="44.72611" lon="3.85256">
        <ele>933</ele>
        <time>2013-09-26T09:08:14Z</time>
      </trkpt>
      <trkpt lat="44.72616" lon="3.85253">
        <ele>933</ele>
        <time>2013-09-26T09:08:19Z</time>
      </trkpt>
      <trkpt lat="44.7262" lon="3.85249">
        <ele>936</ele>
        <time>2013-09-26T09:08:24Z</time>
      </trkpt>
      <trkpt lat="44.72625" lon="3.85248">
        <ele>936</ele>
        <time>2013-09-26T09:08:28Z</time>
      </trkpt>
      <trkpt lat="44.72629" lon="3.85245">
        <ele>937</ele>
        <time>2013-09-26T09:08:32Z</time>
      </trkpt>
      <trkpt lat="44.72633" lon="3.85242">
        <ele>937</ele>
        <time>2013-09-26T09:08:36Z</time>
      </trkpt>
      <trkpt lat="44.72638" lon="3.8524">
        <ele>937</ele>
        <time>2013-09-26T09:08:39Z</time>
      </trkpt>
      <trkpt lat="44.72643" lon="3.85237">
        <ele>937</ele>
        <time>2013-09-26T09:08:42Z</time>
      </trkpt>
      <trkpt lat="44.72647" lon="3.85235">
        <ele>937</ele>
        <time>2013-09-26T09:08:45Z</time>
      </trkpt>
      <trkpt lat="44.72651" lon="3.85232">
        <ele>937</ele>
        <time>2013-09-26T09:08:47Z</time>
      </trkpt>
      <trkpt lat="44.72656" lon="3.8523">
        <ele>937</ele>
        <time>2013-09-26T09:08:52Z</time>
      </trkpt>
      <trkpt lat="44.72661" lon="3.85227">
        <ele>938</ele>
        <time>2013-09-26T09:08:59Z</time>
      </trkpt>
      <trkpt lat="44.72665" lon="3.85227">
        <ele>938</ele>
        <time>2013-09-26T09:09:03Z</time>
      </trkpt>
      <trkpt lat="44.7267" lon="3.85225">
        <ele>941</ele>
        <time>2013-09-26T09:09:09Z</time>
      </trkpt>
      <trkpt lat="44.72675" lon="3.85222">
        <ele>942</ele>
        <time>2013-09-26T09:09:12Z</time>
      </trkpt>
      <trkpt lat="44.72678" lon="3.85217">
        <ele>942</ele>
        <time>2013-09-26T09:09:15Z</time>
      </trkpt>
      <trkpt lat="44.72683" lon="3.85214">
        <ele>943</ele>
        <time>2013-09-26T09:09:18Z</time>
      </trkpt>
      <trkpt lat="44.72688" lon="3.85211">
        <ele>943</ele>
        <time>2013-09-26T09:09:23Z</time>
      </trkpt>
      <trkpt lat="44.72693" lon="3.8521">
        <ele>943</ele>
        <time>2013-09-26T09:09:26Z</time>
      </trkpt>
      <trkpt lat="44.72699" lon="3.85208">
        <ele>943</ele>
        <time>2013-09-26T09:09:30Z</time>
      </trkpt>
      <trkpt lat="44.72703" lon="3.85206">
        <ele>944</ele>
        <time>2013-09-26T09:09:33Z</time>
      </trkpt>
      <trkpt lat="44.72708" lon="3.85203">
        <ele>944</ele>
        <time>2013-09-26T09:09:37Z</time>
      </trkpt>
      <trkpt lat="44.72713" lon="3.85201">
        <ele>944</ele>
        <time>2013-09-26T09:09:41Z</time>
      </trkpt>
      <trkpt lat="44.72718" lon="3.852">
        <ele>945</ele>
        <time>2013-09-26T09:09:45Z</time>
      </trkpt>
      <trkpt lat="44.72722" lon="3.85197">
        <ele>945</ele>
        <time>2013-09-26T09:09:49Z</time>
      </trkpt>
      <trkpt lat="44.72726" lon="3.85194">
        <ele>945</ele>
        <time>2013-09-26T09:09:52Z</time>
      </trkpt>
      <trkpt lat="44.72731" lon="3.85193">
        <ele>946</ele>
        <time>2013-09-26T09:09:56Z</time>
      </trkpt>
      <trkpt lat="44.72736" lon="3.85192">
        <ele>946</ele>
        <time>2013-09-26T09:10:00Z</time>
      </trkpt>
      <trkpt lat="44.72741" lon="3.8519">
        <ele>946</ele>
        <time>2013-09-26T09:10:04Z</time>
      </trkpt>
      <trkpt lat="44.72746" lon="3.85188">
        <ele>947</ele>
        <time>2013-09-26T09:10:07Z</time>
      </trkpt>
      <trkpt lat="44.72751" lon="3.85186">
        <ele>951</ele>
        <time>2013-09-26T09:10:11Z</time>
      </trkpt>
      <trkpt lat="44.72755" lon="3.85183">
        <ele>951</ele>
        <time>2013-09-26T09:10:14Z</time>
      </trkpt>
      <trkpt lat="44.7276" lon="3.85179">
        <ele>951</ele>
        <time>2013-09-26T09:10:19Z</time>
      </trkpt>
      <trkpt lat="44.72764" lon="3.85175">
        <ele>951</ele>
        <time>2013-09-26T09:10:24Z</time>
      </trkpt>
      <trkpt lat="44.72768" lon="3.85172">
        <ele>951</ele>
        <time>2013-09-26T09:10:29Z</time>
      </trkpt>
      <trkpt lat="44.72773" lon="3.85169">
        <ele>951</ele>
        <time>2013-09-26T09:10:34Z</time>
      </trkpt>
      <trkpt lat="44.72777" lon="3.85165">
        <ele>955</ele>
        <time>2013-09-26T09:10:37Z</time>
      </trkpt>
      <trkpt lat="44.72781" lon="3.85162">
        <ele>955</ele>
        <time>2013-09-26T09:10:41Z</time>
      </trkpt>
      <trkpt lat="44.72785" lon="3.85158">
        <ele>956</ele>
        <time>2013-09-26T09:10:46Z</time>
      </trkpt>
      <trkpt lat="44.7279" lon="3.85155">
        <ele>956</ele>
        <time>2013-09-26T09:10:51Z</time>
      </trkpt>
      <trkpt lat="44.72794" lon="3.85155">
        <ele>956</ele>
        <time>2013-09-26T09:10:55Z</time>
      </trkpt>
      <trkpt lat="44.72799" lon="3.85151">
        <ele>957</ele>
        <time>2013-09-26T09:11:02Z</time>
      </trkpt>
      <trkpt lat="44.72802" lon="3.85144">
        <ele>957</ele>
        <time>2013-09-26T09:11:11Z</time>
      </trkpt>
      <trkpt lat="44.72805" lon="3.85139">
        <ele>957</ele>
        <time>2013-09-26T09:11:22Z</time>
      </trkpt>
      <trkpt lat="44.72807" lon="3.85132">
        <ele>957</ele>
        <time>2013-09-26T09:11:34Z</time>
      </trkpt>
      <trkpt lat="44.72809" lon="3.85126">
        <ele>957</ele>
        <time>2013-09-26T09:11:58Z</time>
      </trkpt>
      <trkpt lat="44.72805" lon="3.85121">
        <ele>957</ele>
        <time>2013-09-26T09:12:01Z</time>
      </trkpt>
      <trkpt lat="44.72803" lon="3.85114">
        <ele>958</ele>
        <time>2013-09-26T09:12:06Z</time>
      </trkpt>
      <trkpt lat="44.728" lon="3.85107">
        <ele>958</ele>
        <time>2013-09-26T09:12:10Z</time>
      </trkpt>
      <trkpt lat="44.72799" lon="3.85099">
        <ele>958</ele>
        <time>2013-09-26T09:12:14Z</time>
      </trkpt>
      <trkpt lat="44.72799" lon="3.85091">
        <ele>958</ele>
        <time>2013-09-26T09:12:17Z</time>
      </trkpt>
      <trkpt lat="44.72796" lon="3.85086">
        <ele>958</ele>
        <time>2013-09-26T09:12:26Z</time>
      </trkpt>
      <trkpt lat="44.72794" lon="3.8508">
        <ele>958</ele>
        <time>2013-09-26T09:12:29Z</time>
      </trkpt>
      <trkpt lat="44.72793" lon="3.85072">
        <ele>958</ele>
        <time>2013-09-26T09:12:32Z</time>
      </trkpt>
      <trkpt lat="44.72791" lon="3.85065">
        <ele>958</ele>
        <time>2013-09-26T09:12:35Z</time>
      </trkpt>
      <trkpt lat="44.72788" lon="3.85059">
        <ele>958</ele>
        <time>2013-09-26T09:12:38Z</time>
      </trkpt>
      <trkpt lat="44.72783" lon="3.85054">
        <ele>957</ele>
        <time>2013-09-26T09:12:42Z</time>
      </trkpt>
      <trkpt lat="44.7278" lon="3.8505">
        <ele>957</ele>
        <time>2013-09-26T09:12:46Z</time>
      </trkpt>
      <trkpt lat="44.72777" lon="3.85045">
        <ele>957</ele>
        <time>2013-09-26T09:12:50Z</time>
      </trkpt>
      <trkpt lat="44.72775" lon="3.85038">
        <ele>957</ele>
        <time>2013-09-26T09:12:54Z</time>
      </trkpt>
      <trkpt lat="44.72773" lon="3.8503">
        <ele>957</ele>
        <time>2013-09-26T09:12:59Z</time>
      </trkpt>
      <trkpt lat="44.72771" lon="3.85024">
        <ele>956</ele>
        <time>2013-09-26T09:13:02Z</time>
      </trkpt>
      <trkpt lat="44.72769" lon="3.85017">
        <ele>956</ele>
        <time>2013-09-26T09:13:06Z</time>
      </trkpt>
      <trkpt lat="44.72766" lon="3.85011">
        <ele>955</ele>
        <time>2013-09-26T09:13:10Z</time>
      </trkpt>
      <trkpt lat="44.72765" lon="3.85005">
        <ele>955</ele>
        <time>2013-09-26T09:13:14Z</time>
      </trkpt>
      <trkpt lat="44.72763" lon="3.84999">
        <ele>954</ele>
        <time>2013-09-26T09:13:18Z</time>
      </trkpt>
      <trkpt lat="44.7276" lon="3.84992">
        <ele>954</ele>
        <time>2013-09-26T09:13:22Z</time>
      </trkpt>
      <trkpt lat="44.72758" lon="3.84987">
        <ele>954</ele>
        <time>2013-09-26T09:13:26Z</time>
      </trkpt>
      <trkpt lat="44.72757" lon="3.8498">
        <ele>955</ele>
        <time>2013-09-26T09:13:29Z</time>
      </trkpt>
      <trkpt lat="44.72755" lon="3.84972">
        <ele>955</ele>
        <time>2013-09-26T09:13:33Z</time>
      </trkpt>
      <trkpt lat="44.72752" lon="3.84966">
        <ele>955</ele>
        <time>2013-09-26T09:13:37Z</time>
      </trkpt>
      <trkpt lat="44.7275" lon="3.8496">
        <ele>950</ele>
        <time>2013-09-26T09:13:42Z</time>
      </trkpt>
      <trkpt lat="44.72748" lon="3.84953">
        <ele>950</ele>
        <time>2013-09-26T09:13:46Z</time>
      </trkpt>
      <trkpt lat="44.72745" lon="3.84949">
        <ele>950</ele>
        <time>2013-09-26T09:13:52Z</time>
      </trkpt>
      <trkpt lat="44.72741" lon="3.84945">
        <ele>950</ele>
        <time>2013-09-26T09:13:59Z</time>
      </trkpt>
      <trkpt lat="44.72736" lon="3.84941">
        <ele>950</ele>
        <time>2013-09-26T09:14:05Z</time>
      </trkpt>
      <trkpt lat="44.72732" lon="3.84937">
        <ele>950</ele>
        <time>2013-09-26T09:14:10Z</time>
      </trkpt>
      <trkpt lat="44.72727" lon="3.84933">
        <ele>950</ele>
        <time>2013-09-26T09:14:14Z</time>
      </trkpt>
      <trkpt lat="44.72723" lon="3.84929">
        <ele>950</ele>
        <time>2013-09-26T09:14:19Z</time>
      </trkpt>
      <trkpt lat="44.72719" lon="3.84925">
        <ele>950</ele>
        <time>2013-09-26T09:14:24Z</time>
      </trkpt>
      <trkpt lat="44.72715" lon="3.84921">
        <ele>949</ele>
        <time>2013-09-26T09:14:29Z</time>
      </trkpt>
      <trkpt lat="44.7271" lon="3.84917">
        <ele>949</ele>
        <time>2013-09-26T09:14:34Z</time>
      </trkpt>
      <trkpt lat="44.72705" lon="3.84914">
        <ele>952</ele>
        <time>2013-09-26T09:14:38Z</time>
      </trkpt>
      <trkpt lat="44.72699" lon="3.84913">
        <ele>952</ele>
        <time>2013-09-26T09:14:42Z</time>
      </trkpt>
      <trkpt lat="44.72694" lon="3.8491">
        <ele>952</ele>
        <time>2013-09-26T09:14:46Z</time>
      </trkpt>
      <trkpt lat="44.7269" lon="3.84908">
        <ele>951</ele>
        <time>2013-09-26T09:14:51Z</time>
      </trkpt>
      <trkpt lat="44.72687" lon="3.84904">
        <ele>951</ele>
        <time>2013-09-26T09:14:57Z</time>
      </trkpt>
      <trkpt lat="44.72683" lon="3.849">
        <ele>951</ele>
        <time>2013-09-26T09:15:00Z</time>
      </trkpt>
      <trkpt lat="44.7268" lon="3.84894">
        <ele>952</ele>
        <time>2013-09-26T09:15:05Z</time>
      </trkpt>
      <trkpt lat="44.72678" lon="3.84887">
        <ele>952</ele>
        <time>2013-09-26T09:15:08Z</time>
      </trkpt>
      <trkpt lat="44.72675" lon="3.84881">
        <ele>953</ele>
        <time>2013-09-26T09:15:12Z</time>
      </trkpt>
      <trkpt lat="44.72673" lon="3.84874">
        <ele>954</ele>
        <time>2013-09-26T09:15:17Z</time>
      </trkpt>
      <trkpt lat="44.72674" lon="3.84867">
        <ele>954</ele>
        <time>2013-09-26T09:15:25Z</time>
      </trkpt>
      <trkpt lat="44.72674" lon="3.84861">
        <ele>955</ele>
        <time>2013-09-26T09:15:28Z</time>
      </trkpt>
      <trkpt lat="44.72673" lon="3.84853">
        <ele>955</ele>
        <time>2013-09-26T09:15:32Z</time>
      </trkpt>
      <trkpt lat="44.72673" lon="3.84847">
        <ele>956</ele>
        <time>2013-09-26T09:15:35Z</time>
      </trkpt>
      <trkpt lat="44.72673" lon="3.84839">
        <ele>957</ele>
        <time>2013-09-26T09:15:39Z</time>
      </trkpt>
      <trkpt lat="44.72674" lon="3.84832">
        <ele>959</ele>
        <time>2013-09-26T09:15:43Z</time>
      </trkpt>
      <trkpt lat="44.72675" lon="3.84825">
        <ele>960</ele>
        <time>2013-09-26T09:15:47Z</time>
      </trkpt>
      <trkpt lat="44.72676" lon="3.84818">
        <ele>961</ele>
        <time>2013-09-26T09:15:50Z</time>
      </trkpt>
      <trkpt lat="44.72676" lon="3.84811">
        <ele>961</ele>
        <time>2013-09-26T09:15:54Z</time>
      </trkpt>
      <trkpt lat="44.72679" lon="3.84805">
        <ele>962</ele>
        <time>2013-09-26T09:15:57Z</time>
      </trkpt>
      <trkpt lat="44.7268" lon="3.84799">
        <ele>963</ele>
        <time>2013-09-26T09:16:01Z</time>
      </trkpt>
      <trkpt lat="44.72681" lon="3.84792">
        <ele>963</ele>
        <time>2013-09-26T09:16:05Z</time>
      </trkpt>
      <trkpt lat="44.72682" lon="3.84786">
        <ele>964</ele>
        <time>2013-09-26T09:16:10Z</time>
      </trkpt>
      <trkpt lat="44.72683" lon="3.84779">
        <ele>964</ele>
        <time>2013-09-26T09:16:17Z</time>
      </trkpt>
      <trkpt lat="44.72681" lon="3.84772">
        <ele>965</ele>
        <time>2013-09-26T09:16:21Z</time>
      </trkpt>
      <trkpt lat="44.72678" lon="3.84766">
        <ele>966</ele>
        <time>2013-09-26T09:16:25Z</time>
      </trkpt>
      <trkpt lat="44.72675" lon="3.84759">
        <ele>967</ele>
        <time>2013-09-26T09:16:29Z</time>
      </trkpt>
      <trkpt lat="44.72672" lon="3.84753">
        <ele>968</ele>
        <time>2013-09-26T09:16:33Z</time>
      </trkpt>
      <trkpt lat="44.72671" lon="3.84748">
        <ele>969</ele>
        <time>2013-09-26T09:16:37Z</time>
      </trkpt>
      <trkpt lat="44.7267" lon="3.84741">
        <ele>969</ele>
        <time>2013-09-26T09:16:41Z</time>
      </trkpt>
      <trkpt lat="44.72669" lon="3.84734">
        <ele>970</ele>
        <time>2013-09-26T09:16:46Z</time>
      </trkpt>
      <trkpt lat="44.72669" lon="3.84727">
        <ele>970</ele>
        <time>2013-09-26T09:16:52Z</time>
      </trkpt>
      <trkpt lat="44.7267" lon="3.8472">
        <ele>970</ele>
        <time>2013-09-26T09:16:56Z</time>
      </trkpt>
      <trkpt lat="44.72669" lon="3.84713">
        <ele>971</ele>
        <time>2013-09-26T09:17:00Z</time>
      </trkpt>
      <trkpt lat="44.72669" lon="3.84706">
        <ele>971</ele>
        <time>2013-09-26T09:17:05Z</time>
      </trkpt>
      <trkpt lat="44.72669" lon="3.84698">
        <ele>971</ele>
        <time>2013-09-26T09:17:09Z</time>
      </trkpt>
      <trkpt lat="44.72669" lon="3.84689">
        <ele>972</ele>
        <time>2013-09-26T09:17:14Z</time>
      </trkpt>
      <trkpt lat="44.7267" lon="3.84683">
        <ele>972</ele>
        <time>2013-09-26T09:17:19Z</time>
      </trkpt>
      <trkpt lat="44.7267" lon="3.84676">
        <ele>973</ele>
        <time>2013-09-26T09:17:22Z</time>
      </trkpt>
      <trkpt lat="44.72671" lon="3.8467">
        <ele>973</ele>
        <time>2013-09-26T09:17:25Z</time>
      </trkpt>
      <trkpt lat="44.72673" lon="3.84662">
        <ele>974</ele>
        <time>2013-09-26T09:17:28Z</time>
      </trkpt>
      <trkpt lat="44.72675" lon="3.84655">
        <ele>974</ele>
        <time>2013-09-26T09:17:32Z</time>
      </trkpt>
      <trkpt lat="44.72677" lon="3.84649">
        <ele>974</ele>
        <time>2013-09-26T09:17:35Z</time>
      </trkpt>
      <trkpt lat="44.72679" lon="3.84643">
        <ele>974</ele>
        <time>2013-09-26T09:17:38Z</time>
      </trkpt>
      <trkpt lat="44.7268" lon="3.84636">
        <ele>974</ele>
        <time>2013-09-26T09:17:42Z</time>
      </trkpt>
      <trkpt lat="44.72681" lon="3.84629">
        <ele>974</ele>
        <time>2013-09-26T09:17:46Z</time>
      </trkpt>
      <trkpt lat="44.72682" lon="3.84621">
        <ele>974</ele>
        <time>2013-09-26T09:17:49Z</time>
      </trkpt>
      <trkpt lat="44.72684" lon="3.84616">
        <ele>974</ele>
        <time>2013-09-26T09:17:53Z</time>
      </trkpt>
      <trkpt lat="44.72684" lon="3.84608">
        <ele>974</ele>
        <time>2013-09-26T09:17:57Z</time>
      </trkpt>
      <trkpt lat="44.72685" lon="3.84601">
        <ele>974</ele>
        <time>2013-09-26T09:18:01Z</time>
      </trkpt>
      <trkpt lat="44.72685" lon="3.84595">
        <ele>974</ele>
        <time>2013-09-26T09:18:07Z</time>
      </trkpt>
      <trkpt lat="44.72688" lon="3.84589">
        <ele>974</ele>
        <time>2013-09-26T09:18:12Z</time>
      </trkpt>
      <trkpt lat="44.72689" lon="3.84582">
        <ele>973</ele>
        <time>2013-09-26T09:18:17Z</time>
      </trkpt>
      <trkpt lat="44.7269" lon="3.84575">
        <ele>973</ele>
        <time>2013-09-26T09:18:24Z</time>
      </trkpt>
      <trkpt lat="44.72691" lon="3.84568">
        <ele>973</ele>
        <time>2013-09-26T09:18:27Z</time>
      </trkpt>
      <trkpt lat="44.72693" lon="3.84561">
        <ele>973</ele>
        <time>2013-09-26T09:18:31Z</time>
      </trkpt>
      <trkpt lat="44.72693" lon="3.84554">
        <ele>973</ele>
        <time>2013-09-26T09:18:36Z</time>
      </trkpt>
      <trkpt lat="44.72697" lon="3.84549">
        <ele>973</ele>
        <time>2013-09-26T09:18:51Z</time>
      </trkpt>
      <trkpt lat="44.72698" lon="3.84543">
        <ele>973</ele>
        <time>2013-09-26T09:19:06Z</time>
      </trkpt>
      <trkpt lat="44.72697" lon="3.84536">
        <ele>973</ele>
        <time>2013-09-26T09:19:11Z</time>
      </trkpt>
      <trkpt lat="44.72691" lon="3.84532">
        <ele>973</ele>
        <time>2013-09-26T09:19:16Z</time>
      </trkpt>
      <trkpt lat="44.72686" lon="3.84532">
        <ele>973</ele>
        <time>2013-09-26T09:19:20Z</time>
      </trkpt>
      <trkpt lat="44.72685" lon="3.84525">
        <ele>973</ele>
        <time>2013-09-26T09:19:28Z</time>
      </trkpt>
      <trkpt lat="44.72683" lon="3.8452">
        <ele>972</ele>
        <time>2013-09-26T09:19:32Z</time>
      </trkpt>
      <trkpt lat="44.72678" lon="3.84522">
        <ele>972</ele>
        <time>2013-09-26T09:19:37Z</time>
      </trkpt>
      <trkpt lat="44.72673" lon="3.8452">
        <ele>972</ele>
        <time>2013-09-26T09:19:46Z</time>
      </trkpt>
      <trkpt lat="44.72672" lon="3.84513">
        <ele>972</ele>
        <time>2013-09-26T09:19:54Z</time>
      </trkpt>
      <trkpt lat="44.7267" lon="3.84504">
        <ele>971</ele>
        <time>2013-09-26T09:19:56Z</time>
      </trkpt>
      <trkpt lat="44.72669" lon="3.84498">
        <ele>970</ele>
        <time>2013-09-26T09:19:58Z</time>
      </trkpt>
      <trkpt lat="44.7267" lon="3.84491">
        <ele>970</ele>
        <time>2013-09-26T09:20:00Z</time>
      </trkpt>
      <trkpt lat="44.72672" lon="3.84485">
        <ele>970</ele>
        <time>2013-09-26T09:20:02Z</time>
      </trkpt>
      <trkpt lat="44.72676" lon="3.84478">
        <ele>971</ele>
        <time>2013-09-26T09:20:04Z</time>
      </trkpt>
      <trkpt lat="44.72678" lon="3.8447">
        <ele>970</ele>
        <time>2013-09-26T09:20:07Z</time>
      </trkpt>
      <trkpt lat="44.72681" lon="3.84465">
        <ele>970</ele>
        <time>2013-09-26T09:20:08Z</time>
      </trkpt>
      <trkpt lat="44.72685" lon="3.8446">
        <ele>970</ele>
        <time>2013-09-26T09:20:10Z</time>
      </trkpt>
      <trkpt lat="44.7269" lon="3.84453">
        <ele>970</ele>
        <time>2013-09-26T09:20:14Z</time>
      </trkpt>
      <trkpt lat="44.72693" lon="3.84448">
        <ele>970</ele>
        <time>2013-09-26T09:20:16Z</time>
      </trkpt>
      <trkpt lat="44.72696" lon="3.84443">
        <ele>970</ele>
        <time>2013-09-26T09:20:18Z</time>
      </trkpt>
      <trkpt lat="44.72699" lon="3.84436">
        <ele>970</ele>
        <time>2013-09-26T09:20:21Z</time>
      </trkpt>
      <trkpt lat="44.72701" lon="3.84428">
        <ele>970</ele>
        <time>2013-09-26T09:20:24Z</time>
      </trkpt>
      <trkpt lat="44.72703" lon="3.84421">
        <ele>970</ele>
        <time>2013-09-26T09:20:27Z</time>
      </trkpt>
      <trkpt lat="44.72705" lon="3.84413">
        <ele>969</ele>
        <time>2013-09-26T09:20:30Z</time>
      </trkpt>
      <trkpt lat="44.72707" lon="3.84407">
        <ele>969</ele>
        <time>2013-09-26T09:20:33Z</time>
      </trkpt>
      <trkpt lat="44.7271" lon="3.844">
        <ele>969</ele>
        <time>2013-09-26T09:20:37Z</time>
      </trkpt>
      <trkpt lat="44.72708" lon="3.84394">
        <ele>969</ele>
        <time>2013-09-26T09:20:43Z</time>
      </trkpt>
      <trkpt lat="44.72707" lon="3.84387">
        <ele>968</ele>
        <time>2013-09-26T09:20:48Z</time>
      </trkpt>
      <trkpt lat="44.72704" lon="3.84381">
        <ele>968</ele>
        <time>2013-09-26T09:20:52Z</time>
      </trkpt>
      <trkpt lat="44.72703" lon="3.84373">
        <ele>968</ele>
        <time>2013-09-26T09:20:56Z</time>
      </trkpt>
      <trkpt lat="44.72701" lon="3.84367">
        <ele>968</ele>
        <time>2013-09-26T09:20:59Z</time>
      </trkpt>
      <trkpt lat="44.72698" lon="3.8436">
        <ele>967</ele>
        <time>2013-09-26T09:21:05Z</time>
      </trkpt>
      <trkpt lat="44.72694" lon="3.84356">
        <ele>967</ele>
        <time>2013-09-26T09:21:09Z</time>
      </trkpt>
      <trkpt lat="44.72693" lon="3.8435">
        <ele>966</ele>
        <time>2013-09-26T09:21:16Z</time>
      </trkpt>
      <trkpt lat="44.72693" lon="3.84342">
        <ele>966</ele>
        <time>2013-09-26T09:21:21Z</time>
      </trkpt>
      <trkpt lat="44.72693" lon="3.84335">
        <ele>966</ele>
        <time>2013-09-26T09:21:23Z</time>
      </trkpt>
      <trkpt lat="44.72694" lon="3.84328">
        <ele>964</ele>
        <time>2013-09-26T09:21:26Z</time>
      </trkpt>
      <trkpt lat="44.72694" lon="3.8432">
        <ele>965</ele>
        <time>2013-09-26T09:21:30Z</time>
      </trkpt>
      <trkpt lat="44.72695" lon="3.84313">
        <ele>965</ele>
        <time>2013-09-26T09:21:35Z</time>
      </trkpt>
      <trkpt lat="44.72694" lon="3.84305">
        <ele>965</ele>
        <time>2013-09-26T09:21:40Z</time>
      </trkpt>
      <trkpt lat="44.72693" lon="3.84299">
        <ele>965</ele>
        <time>2013-09-26T09:21:45Z</time>
      </trkpt>
      <trkpt lat="44.7269" lon="3.84293">
        <ele>964</ele>
        <time>2013-09-26T09:21:49Z</time>
      </trkpt>
      <trkpt lat="44.7269" lon="3.84287">
        <ele>964</ele>
        <time>2013-09-26T09:21:53Z</time>
      </trkpt>
      <trkpt lat="44.7269" lon="3.8428">
        <ele>964</ele>
        <time>2013-09-26T09:21:57Z</time>
      </trkpt>
      <trkpt lat="44.72691" lon="3.84273">
        <ele>964</ele>
        <time>2013-09-26T09:22:02Z</time>
      </trkpt>
      <trkpt lat="44.72693" lon="3.84266">
        <ele>964</ele>
        <time>2013-09-26T09:22:05Z</time>
      </trkpt>
      <trkpt lat="44.72694" lon="3.84258">
        <ele>964</ele>
        <time>2013-09-26T09:22:08Z</time>
      </trkpt>
      <trkpt lat="44.72696" lon="3.8425">
        <ele>964</ele>
        <time>2013-09-26T09:22:11Z</time>
      </trkpt>
      <trkpt lat="44.72697" lon="3.84243">
        <ele>964</ele>
        <time>2013-09-26T09:22:14Z</time>
      </trkpt>
      <trkpt lat="44.72698" lon="3.84236">
        <ele>964</ele>
        <time>2013-09-26T09:22:18Z</time>
      </trkpt>
      <trkpt lat="44.727" lon="3.8423">
        <ele>964</ele>
        <time>2013-09-26T09:22:22Z</time>
      </trkpt>
      <trkpt lat="44.72702" lon="3.84221">
        <ele>964</ele>
        <time>2013-09-26T09:22:26Z</time>
      </trkpt>
      <trkpt lat="44.72703" lon="3.84214">
        <ele>965</ele>
        <time>2013-09-26T09:22:29Z</time>
      </trkpt>
      <trkpt lat="44.72706" lon="3.84207">
        <ele>965</ele>
        <time>2013-09-26T09:22:32Z</time>
      </trkpt>
      <trkpt lat="44.72709" lon="3.84201">
        <ele>965</ele>
        <time>2013-09-26T09:22:35Z</time>
      </trkpt>
      <trkpt lat="44.72714" lon="3.84197">
        <ele>965</ele>
        <time>2013-09-26T09:22:39Z</time>
      </trkpt>
      <trkpt lat="44.72718" lon="3.84194">
        <ele>965</ele>
        <time>2013-09-26T09:22:41Z</time>
      </trkpt>
      <trkpt lat="44.72722" lon="3.8419">
        <ele>965</ele>
        <time>2013-09-26T09:22:44Z</time>
      </trkpt>
      <trkpt lat="44.72725" lon="3.84184">
        <ele>965</ele>
        <time>2013-09-26T09:22:48Z</time>
      </trkpt>
      <trkpt lat="44.72729" lon="3.84178">
        <ele>965</ele>
        <time>2013-09-26T09:22:50Z</time>
      </trkpt>
      <trkpt lat="44.72733" lon="3.84172">
        <ele>965</ele>
        <time>2013-09-26T09:22:54Z</time>
      </trkpt>
      <trkpt lat="44.72736" lon="3.84167">
        <ele>967</ele>
        <time>2013-09-26T09:22:56Z</time>
      </trkpt>
      <trkpt lat="44.72738" lon="3.8416">
        <ele>967</ele>
        <time>2013-09-26T09:23:00Z</time>
      </trkpt>
      <trkpt lat="44.72742" lon="3.84154">
        <ele>967</ele>
        <time>2013-09-26T09:23:02Z</time>
      </trkpt>
      <trkpt lat="44.72745" lon="3.8415">
        <ele>967</ele>
        <time>2013-09-26T09:23:05Z</time>
      </trkpt>
      <trkpt lat="44.72748" lon="3.84145">
        <ele>967</ele>
        <time>2013-09-26T09:23:08Z</time>
      </trkpt>
      <trkpt lat="44.72751" lon="3.84138">
        <ele>968</ele>
        <time>2013-09-26T09:23:11Z</time>
      </trkpt>
      <trkpt lat="44.72754" lon="3.84133">
        <ele>969</ele>
        <time>2013-09-26T09:23:14Z</time>
      </trkpt>
      <trkpt lat="44.72756" lon="3.84127">
        <ele>969</ele>
        <time>2013-09-26T09:23:17Z</time>
      </trkpt>
      <trkpt lat="44.7276" lon="3.84122">
        <ele>969</ele>
        <time>2013-09-26T09:23:21Z</time>
      </trkpt>
      <trkpt lat="44.72763" lon="3.84117">
        <ele>970</ele>
        <time>2013-09-26T09:23:26Z</time>
      </trkpt>
      <trkpt lat="44.72768" lon="3.84112">
        <ele>970</ele>
        <time>2013-09-26T09:23:31Z</time>
      </trkpt>
      <trkpt lat="44.72773" lon="3.84109">
        <ele>970</ele>
        <time>2013-09-26T09:23:35Z</time>
      </trkpt>
      <trkpt lat="44.72779" lon="3.84107">
        <ele>970</ele>
        <time>2013-09-26T09:23:39Z</time>
      </trkpt>
      <trkpt lat="44.72784" lon="3.84103">
        <ele>970</ele>
        <time>2013-09-26T09:23:43Z</time>
      </trkpt>
      <trkpt lat="44.72788" lon="3.84099">
        <ele>970</ele>
        <time>2013-09-26T09:23:46Z</time>
      </trkpt>
      <trkpt lat="44.72792" lon="3.84093">
        <ele>970</ele>
        <time>2013-09-26T09:23:50Z</time>
      </trkpt>
      <trkpt lat="44.72795" lon="3.84088">
        <ele>970</ele>
        <time>2013-09-26T09:23:52Z</time>
      </trkpt>
      <trkpt lat="44.72799" lon="3.84082">
        <ele>973</ele>
        <time>2013-09-26T09:23:55Z</time>
      </trkpt>
      <trkpt lat="44.72802" lon="3.84076">
        <ele>973</ele>
        <time>2013-09-26T09:23:58Z</time>
      </trkpt>
      <trkpt lat="44.72803" lon="3.84068">
        <ele>973</ele>
        <time>2013-09-26T09:24:02Z</time>
      </trkpt>
      <trkpt lat="44.72805" lon="3.8406">
        <ele>973</ele>
        <time>2013-09-26T09:24:05Z</time>
      </trkpt>
      <trkpt lat="44.72807" lon="3.84054">
        <ele>974</ele>
        <time>2013-09-26T09:24:08Z</time>
      </trkpt>
      <trkpt lat="44.72808" lon="3.84047">
        <ele>974</ele>
        <time>2013-09-26T09:24:12Z</time>
      </trkpt>
      <trkpt lat="44.7281" lon="3.8404">
        <ele>974</ele>
        <time>2013-09-26T09:24:34Z</time>
      </trkpt>
      <trkpt lat="44.72813" lon="3.84034">
        <ele>974</ele>
        <time>2013-09-26T09:24:38Z</time>
      </trkpt>
      <trkpt lat="44.72817" lon="3.84029">
        <ele>975</ele>
        <time>2013-09-26T09:24:43Z</time>
      </trkpt>
      <trkpt lat="44.72818" lon="3.84037">
        <ele>974</ele>
        <time>2013-09-26T09:25:00Z</time>
      </trkpt>
      <trkpt lat="44.7282" lon="3.84043">
        <ele>974</ele>
        <time>2013-09-26T09:25:02Z</time>
      </trkpt>
      <trkpt lat="44.72822" lon="3.8405">
        <ele>974</ele>
        <time>2013-09-26T09:25:06Z</time>
      </trkpt>
      <trkpt lat="44.72823" lon="3.84057">
        <ele>973</ele>
        <time>2013-09-26T09:25:11Z</time>
      </trkpt>
      <trkpt lat="44.72825" lon="3.84064">
        <ele>973</ele>
        <time>2013-09-26T09:25:15Z</time>
      </trkpt>
      <trkpt lat="44.72825" lon="3.84071">
        <ele>972</ele>
        <time>2013-09-26T09:25:20Z</time>
      </trkpt>
      <trkpt lat="44.72824" lon="3.84078">
        <ele>972</ele>
        <time>2013-09-26T09:25:25Z</time>
      </trkpt>
      <trkpt lat="44.72821" lon="3.84084">
        <ele>970</ele>
        <time>2013-09-26T09:25:30Z</time>
      </trkpt>
      <trkpt lat="44.72818" lon="3.84088">
        <ele>970</ele>
        <time>2013-09-26T09:25:34Z</time>
      </trkpt>
      <trkpt lat="44.72812" lon="3.8409">
        <ele>970</ele>
        <time>2013-09-26T09:25:40Z</time>
      </trkpt>
      <trkpt lat="44.72807" lon="3.8409">
        <ele>970</ele>
        <time>2013-09-26T09:25:44Z</time>
      </trkpt>
      <trkpt lat="44.72802" lon="3.84091">
        <ele>970</ele>
        <time>2013-09-26T09:25:49Z</time>
      </trkpt>
      <trkpt lat="44.72797" lon="3.84091">
        <ele>970</ele>
        <time>2013-09-26T09:25:56Z</time>
      </trkpt>
      <trkpt lat="44.72796" lon="3.84085">
        <ele>970</ele>
        <time>2013-09-26T09:26:00Z</time>
      </trkpt>
      <trkpt lat="44.72795" lon="3.84078">
        <ele>973</ele>
        <time>2013-09-26T09:26:05Z</time>
      </trkpt>
      <trkpt lat="44.72794" lon="3.84069">
        <ele>973</ele>
        <time>2013-09-26T09:26:08Z</time>
      </trkpt>
      <trkpt lat="44.72793" lon="3.84063">
        <ele>973</ele>
        <time>2013-09-26T09:26:11Z</time>
      </trkpt>
      <trkpt lat="44.72792" lon="3.84056">
        <ele>974</ele>
        <time>2013-09-26T09:26:15Z</time>
      </trkpt>
      <trkpt lat="44.72791" lon="3.84049">
        <ele>974</ele>
        <time>2013-09-26T09:26:17Z</time>
      </trkpt>
      <trkpt lat="44.72792" lon="3.84041">
        <ele>974</ele>
        <time>2013-09-26T09:26:21Z</time>
      </trkpt>
      <trkpt lat="44.72792" lon="3.84034">
        <ele>974</ele>
        <time>2013-09-26T09:26:25Z</time>
      </trkpt>
      <trkpt lat="44.72793" lon="3.84027">
        <ele>974</ele>
        <time>2013-09-26T09:26:29Z</time>
      </trkpt>
      <trkpt lat="44.72795" lon="3.8402">
        <ele>975</ele>
        <time>2013-09-26T09:26:36Z</time>
      </trkpt>
      <trkpt lat="44.72798" lon="3.84015">
        <ele>975</ele>
        <time>2013-09-26T09:26:39Z</time>
      </trkpt>
      <trkpt lat="44.728" lon="3.84008">
        <ele>975</ele>
        <time>2013-09-26T09:26:43Z</time>
      </trkpt>
      <trkpt lat="44.72803" lon="3.84002">
        <ele>975</ele>
        <time>2013-09-26T09:26:48Z</time>
      </trkpt>
      <trkpt lat="44.72807" lon="3.83996">
        <ele>978</ele>
        <time>2013-09-26T09:26:54Z</time>
      </trkpt>
      <trkpt lat="44.72809" lon="3.83991">
        <ele>978</ele>
        <time>2013-09-26T09:26:57Z</time>
      </trkpt>
      <trkpt lat="44.7281" lon="3.83984">
        <ele>978</ele>
        <time>2013-09-26T09:27:01Z</time>
      </trkpt>
      <trkpt lat="44.72813" lon="3.83979">
        <ele>978</ele>
        <time>2013-09-26T09:27:05Z</time>
      </trkpt>
      <trkpt lat="44.72816" lon="3.83972">
        <ele>978</ele>
        <time>2013-09-26T09:27:07Z</time>
      </trkpt>
      <trkpt lat="44.72819" lon="3.83966">
        <ele>978</ele>
        <time>2013-09-26T09:27:11Z</time>
      </trkpt>
      <trkpt lat="44.72822" lon="3.83959">
        <ele>978</ele>
        <time>2013-09-26T09:27:17Z</time>
      </trkpt>
      <trkpt lat="44.72826" lon="3.83953">
        <ele>979</ele>
        <time>2013-09-26T09:27:21Z</time>
      </trkpt>
      <trkpt lat="44.72829" lon="3.83948">
        <ele>979</ele>
        <time>2013-09-26T09:27:25Z</time>
      </trkpt>
      <trkpt lat="44.72833" lon="3.83943">
        <ele>979</ele>
        <time>2013-09-26T09:27:28Z</time>
      </trkpt>
      <trkpt lat="44.72836" lon="3.83937">
        <ele>980</ele>
        <time>2013-09-26T09:27:32Z</time>
      </trkpt>
      <trkpt lat="44.72839" lon="3.83932">
        <ele>980</ele>
        <time>2013-09-26T09:27:36Z</time>
      </trkpt>
      <trkpt lat="44.72841" lon="3.83925">
        <ele>980</ele>
        <time>2013-09-26T09:27:40Z</time>
      </trkpt>
      <trkpt lat="44.72844" lon="3.83919">
        <ele>980</ele>
        <time>2013-09-26T09:27:44Z</time>
      </trkpt>
      <trkpt lat="44.72846" lon="3.83913">
        <ele>981</ele>
        <time>2013-09-26T09:27:47Z</time>
      </trkpt>
      <trkpt lat="44.72849" lon="3.83907">
        <ele>981</ele>
        <time>2013-09-26T09:27:50Z</time>
      </trkpt>
      <trkpt lat="44.72852" lon="3.83901">
        <ele>981</ele>
        <time>2013-09-26T09:27:53Z</time>
      </trkpt>
      <trkpt lat="44.72855" lon="3.83895">
        <ele>981</ele>
        <time>2013-09-26T09:27:57Z</time>
      </trkpt>
      <trkpt lat="44.72858" lon="3.8389">
        <ele>981</ele>
        <time>2013-09-26T09:28:02Z</time>
      </trkpt>
      <trkpt lat="44.72861" lon="3.83884">
        <ele>981</ele>
        <time>2013-09-26T09:28:04Z</time>
      </trkpt>
      <trkpt lat="44.72864" lon="3.83877">
        <ele>981</ele>
        <time>2013-09-26T09:28:08Z</time>
      </trkpt>
      <trkpt lat="44.72867" lon="3.83871">
        <ele>981</ele>
        <time>2013-09-26T09:28:13Z</time>
      </trkpt>
      <trkpt lat="44.7287" lon="3.83866">
        <ele>981</ele>
        <time>2013-09-26T09:28:15Z</time>
      </trkpt>
      <trkpt lat="44.72873" lon="3.8386">
        <ele>981</ele>
        <time>2013-09-26T09:28:18Z</time>
      </trkpt>
      <trkpt lat="44.72876" lon="3.83854">
        <ele>981</ele>
        <time>2013-09-26T09:28:22Z</time>
      </trkpt>
      <trkpt lat="44.72878" lon="3.83848">
        <ele>982</ele>
        <time>2013-09-26T09:28:25Z</time>
      </trkpt>
      <trkpt lat="44.7288" lon="3.83842">
        <ele>982</ele>
        <time>2013-09-26T09:28:28Z</time>
      </trkpt>
      <trkpt lat="44.72882" lon="3.83834">
        <ele>982</ele>
        <time>2013-09-26T09:28:33Z</time>
      </trkpt>
      <trkpt lat="44.72884" lon="3.83829">
        <ele>979</ele>
        <time>2013-09-26T09:28:35Z</time>
      </trkpt>
      <trkpt lat="44.72887" lon="3.83822">
        <ele>979</ele>
        <time>2013-09-26T09:28:39Z</time>
      </trkpt>
      <trkpt lat="44.72889" lon="3.83816">
        <ele>979</ele>
        <time>2013-09-26T09:28:42Z</time>
      </trkpt>
      <trkpt lat="44.72892" lon="3.83809">
        <ele>979</ele>
        <time>2013-09-26T09:28:45Z</time>
      </trkpt>
      <trkpt lat="44.72894" lon="3.83802">
        <ele>978</ele>
        <time>2013-09-26T09:28:49Z</time>
      </trkpt>
      <trkpt lat="44.72895" lon="3.83795">
        <ele>978</ele>
        <time>2013-09-26T09:28:53Z</time>
      </trkpt>
      <trkpt lat="44.72897" lon="3.83789">
        <ele>978</ele>
        <time>2013-09-26T09:29:00Z</time>
      </trkpt>
      <trkpt lat="44.72898" lon="3.83781">
        <ele>977</ele>
        <time>2013-09-26T09:29:03Z</time>
      </trkpt>
      <trkpt lat="44.72894" lon="3.83777">
        <ele>977</ele>
        <time>2013-09-26T09:29:10Z</time>
      </trkpt>
      <trkpt lat="44.72889" lon="3.83779">
        <ele>977</ele>
        <time>2013-09-26T09:29:15Z</time>
      </trkpt>
      <trkpt lat="44.72884" lon="3.8378">
        <ele>977</ele>
        <time>2013-09-26T09:29:20Z</time>
      </trkpt>
      <trkpt lat="44.72879" lon="3.83778">
        <ele>977</ele>
        <time>2013-09-26T09:29:24Z</time>
      </trkpt>
      <trkpt lat="44.72874" lon="3.83774">
        <ele>977</ele>
        <time>2013-09-26T09:29:29Z</time>
      </trkpt>
      <trkpt lat="44.7287" lon="3.83769">
        <ele>976</ele>
        <time>2013-09-26T09:29:33Z</time>
      </trkpt>
      <trkpt lat="44.72867" lon="3.83764">
        <ele>976</ele>
        <time>2013-09-26T09:29:37Z</time>
      </trkpt>
      <trkpt lat="44.72863" lon="3.83759">
        <ele>975</ele>
        <time>2013-09-26T09:29:42Z</time>
      </trkpt>
      <trkpt lat="44.72861" lon="3.83753">
        <ele>975</ele>
        <time>2013-09-26T09:29:45Z</time>
      </trkpt>
      <trkpt lat="44.72858" lon="3.83747">
        <ele>968</ele>
        <time>2013-09-26T09:29:48Z</time>
      </trkpt>
      <trkpt lat="44.72857" lon="3.83741">
        <ele>968</ele>
        <time>2013-09-26T09:29:52Z</time>
      </trkpt>
      <trkpt lat="44.72855" lon="3.83734">
        <ele>968</ele>
        <time>2013-09-26T09:29:57Z</time>
      </trkpt>
      <trkpt lat="44.72855" lon="3.83727">
        <ele>967</ele>
        <time>2013-09-26T09:30:01Z</time>
      </trkpt>
      <trkpt lat="44.7285" lon="3.83722">
        <ele>967</ele>
        <time>2013-09-26T09:31:28Z</time>
      </trkpt>
      <trkpt lat="44.72834" lon="3.83721">
        <ele>967</ele>
        <time>2013-09-26T09:35:38Z</time>
      </trkpt>
      <trkpt lat="44.72826" lon="3.83726">
        <ele>966</ele>
        <time>2013-09-26T09:36:20Z</time>
      </trkpt>
      <trkpt lat="44.72803" lon="3.83721">
        <ele>964</ele>
        <time>2013-09-26T09:40:00Z</time>
      </trkpt>
      <trkpt lat="44.72763" lon="3.83717">
        <ele>963</ele>
        <time>2013-09-26T09:40:01Z</time>
      </trkpt>
      <trkpt lat="44.72728" lon="3.83719">
        <ele>961</ele>
        <time>2013-09-26T09:40:02Z</time>
      </trkpt>
      <trkpt lat="44.72714" lon="3.83722">
        <ele>961</ele>
        <time>2013-09-26T09:40:04Z</time>
      </trkpt>
      <trkpt lat="44.72688" lon="3.83725">
        <ele>960</ele>
        <time>2013-09-26T09:40:05Z</time>
      </trkpt>
      <trkpt lat="44.72681" lon="3.83728">
        <ele>961</ele>
        <time>2013-09-26T09:40:09Z</time>
      </trkpt>
      <trkpt lat="44.72674" lon="3.83729">
        <ele>961</ele>
        <time>2013-09-26T09:40:11Z</time>
      </trkpt>
      <trkpt lat="44.72669" lon="3.83731">
        <ele>961</ele>
        <time>2013-09-26T09:41:13Z</time>
      </trkpt>
      <trkpt lat="44.72663" lon="3.83729">
        <ele>958</ele>
        <time>2013-09-26T09:42:04Z</time>
      </trkpt>
      <trkpt lat="44.72654" lon="3.8373">
        <ele>958</ele>
        <time>2013-09-26T09:44:29Z</time>
      </trkpt>
      <trkpt lat="44.72639" lon="3.83736">
        <ele>957</ele>
        <time>2013-09-26T09:45:20Z</time>
      </trkpt>
      <trkpt lat="44.72633" lon="3.83736">
        <ele>957</ele>
        <time>2013-09-26T09:45:23Z</time>
      </trkpt>
      <trkpt lat="44.72624" lon="3.83738">
        <ele>956</ele>
        <time>2013-09-26T09:45:46Z</time>
      </trkpt>
      <trkpt lat="44.72616" lon="3.83739">
        <ele>956</ele>
        <time>2013-09-26T09:48:54Z</time>
      </trkpt>
      <trkpt lat="44.72603" lon="3.83741">
        <ele>956</ele>
        <time>2013-09-26T09:48:55Z</time>
      </trkpt>
      <trkpt lat="44.72599" lon="3.83743">
        <ele>956</ele>
        <time>2013-09-26T09:48:59Z</time>
      </trkpt>
      <trkpt lat="44.72588" lon="3.83745">
        <ele>956</ele>
        <time>2013-09-26T09:49:00Z</time>
      </trkpt>
      <trkpt lat="44.72577" lon="3.83749">
        <ele>955</ele>
        <time>2013-09-26T09:49:01Z</time>
      </trkpt>
      <trkpt lat="44.7257" lon="3.83753">
        <ele>956</ele>
        <time>2013-09-26T09:49:02Z</time>
      </trkpt>
      <trkpt lat="44.72562" lon="3.83758">
        <ele>956</ele>
        <time>2013-09-26T09:49:03Z</time>
      </trkpt>
      <trkpt lat="44.72553" lon="3.83764">
        <ele>956</ele>
        <time>2013-09-26T09:49:06Z</time>
      </trkpt>
      <trkpt lat="44.72547" lon="3.83767">
        <ele>956</ele>
        <time>2013-09-26T09:49:07Z</time>
      </trkpt>
      <trkpt lat="44.72541" lon="3.83769">
        <ele>956</ele>
        <time>2013-09-26T09:49:08Z</time>
      </trkpt>
      <trkpt lat="44.72535" lon="3.83772">
        <ele>955</ele>
        <time>2013-09-26T09:49:09Z</time>
      </trkpt>
      <trkpt lat="44.7253" lon="3.83774">
        <ele>955</ele>
        <time>2013-09-26T09:49:10Z</time>
      </trkpt>
      <trkpt lat="44.72526" lon="3.83776">
        <ele>955</ele>
        <time>2013-09-26T09:49:11Z</time>
      </trkpt>
      <trkpt lat="44.72517" lon="3.83778">
        <ele>955</ele>
        <time>2013-09-26T09:49:13Z</time>
      </trkpt>
      <trkpt lat="44.72511" lon="3.83779">
        <ele>955</ele>
        <time>2013-09-26T09:49:15Z</time>
      </trkpt>
      <trkpt lat="44.72504" lon="3.83781">
        <ele>955</ele>
        <time>2013-09-26T09:49:17Z</time>
      </trkpt>
      <trkpt lat="44.725" lon="3.83779">
        <ele>954</ele>
        <time>2013-09-26T09:50:00Z</time>
      </trkpt>
      <trkpt lat="44.72495" lon="3.8378">
        <ele>952</ele>
        <time>2013-09-26T09:51:07Z</time>
      </trkpt>
      <trkpt lat="44.7249" lon="3.83782">
        <ele>952</ele>
        <time>2013-09-26T09:51:09Z</time>
      </trkpt>
      <trkpt lat="44.72485" lon="3.83785">
        <ele>952</ele>
        <time>2013-09-26T09:51:11Z</time>
      </trkpt>
      <trkpt lat="44.72481" lon="3.83788">
        <ele>952</ele>
        <time>2013-09-26T09:51:13Z</time>
      </trkpt>
      <trkpt lat="44.72475" lon="3.83791">
        <ele>952</ele>
        <time>2013-09-26T09:51:16Z</time>
      </trkpt>
      <trkpt lat="44.72471" lon="3.83793">
        <ele>953</ele>
        <time>2013-09-26T09:51:19Z</time>
      </trkpt>
      <trkpt lat="44.72466" lon="3.83795">
        <ele>953</ele>
        <time>2013-09-26T09:51:23Z</time>
      </trkpt>
      <trkpt lat="44.7246" lon="3.83798">
        <ele>953</ele>
        <time>2013-09-26T09:51:27Z</time>
      </trkpt>
      <trkpt lat="44.72455" lon="3.83798">
        <ele>952</ele>
        <time>2013-09-26T09:51:32Z</time>
      </trkpt>
      <trkpt lat="44.7245" lon="3.83797">
        <ele>952</ele>
        <time>2013-09-26T09:51:36Z</time>
      </trkpt>
      <trkpt lat="44.72445" lon="3.83794">
        <ele>952</ele>
        <time>2013-09-26T09:51:40Z</time>
      </trkpt>
      <trkpt lat="44.72439" lon="3.83792">
        <ele>952</ele>
        <time>2013-09-26T09:51:44Z</time>
      </trkpt>
      <trkpt lat="44.72434" lon="3.83791">
        <ele>952</ele>
        <time>2013-09-26T09:51:48Z</time>
      </trkpt>
      <trkpt lat="44.72429" lon="3.83792">
        <ele>952</ele>
        <time>2013-09-26T09:51:52Z</time>
      </trkpt>
      <trkpt lat="44.72425" lon="3.83794">
        <ele>952</ele>
        <time>2013-09-26T09:51:56Z</time>
      </trkpt>
      <trkpt lat="44.7242" lon="3.83798">
        <ele>952</ele>
        <time>2013-09-26T09:52:03Z</time>
      </trkpt>
      <trkpt lat="44.72416" lon="3.83802">
        <ele>952</ele>
        <time>2013-09-26T09:52:07Z</time>
      </trkpt>
      <trkpt lat="44.72411" lon="3.83806">
        <ele>952</ele>
        <time>2013-09-26T09:52:12Z</time>
      </trkpt>
      <trkpt lat="44.72406" lon="3.83807">
        <ele>953</ele>
        <time>2013-09-26T09:52:16Z</time>
      </trkpt>
      <trkpt lat="44.72401" lon="3.83806">
        <ele>953</ele>
        <time>2013-09-26T09:52:20Z</time>
      </trkpt>
      <trkpt lat="44.72395" lon="3.83805">
        <ele>952</ele>
        <time>2013-09-26T09:52:24Z</time>
      </trkpt>
      <trkpt lat="44.7239" lon="3.83804">
        <ele>952</ele>
        <time>2013-09-26T09:52:29Z</time>
      </trkpt>
      <trkpt lat="44.72386" lon="3.83806">
        <ele>953</ele>
        <time>2013-09-26T09:52:35Z</time>
      </trkpt>
      <trkpt lat="44.72381" lon="3.83808">
        <ele>953</ele>
        <time>2013-09-26T09:52:40Z</time>
      </trkpt>
      <trkpt lat="44.72377" lon="3.83812">
        <ele>953</ele>
        <time>2013-09-26T09:52:45Z</time>
      </trkpt>
      <trkpt lat="44.72373" lon="3.83816">
        <ele>953</ele>
        <time>2013-09-26T09:52:50Z</time>
      </trkpt>
      <trkpt lat="44.72369" lon="3.83819">
        <ele>953</ele>
        <time>2013-09-26T09:52:55Z</time>
      </trkpt>
      <trkpt lat="44.72364" lon="3.83822">
        <ele>953</ele>
        <time>2013-09-26T09:52:59Z</time>
      </trkpt>
      <trkpt lat="44.72362" lon="3.83828">
        <ele>954</ele>
        <time>2013-09-26T09:53:04Z</time>
      </trkpt>
      <trkpt lat="44.72365" lon="3.83833">
        <ele>957</ele>
        <time>2013-09-26T09:53:09Z</time>
      </trkpt>
      <trkpt lat="44.72368" lon="3.83839">
        <ele>957</ele>
        <time>2013-09-26T09:53:13Z</time>
      </trkpt>
      <trkpt lat="44.72371" lon="3.83845">
        <ele>957</ele>
        <time>2013-09-26T09:53:16Z</time>
      </trkpt>
      <trkpt lat="44.72375" lon="3.83852">
        <ele>957</ele>
        <time>2013-09-26T09:53:21Z</time>
      </trkpt>
      <trkpt lat="44.72377" lon="3.83857">
        <ele>957</ele>
        <time>2013-09-26T09:53:24Z</time>
      </trkpt>
      <trkpt lat="44.72379" lon="3.83865">
        <ele>957</ele>
        <time>2013-09-26T09:53:28Z</time>
      </trkpt>
      <trkpt lat="44.72382" lon="3.83871">
        <ele>958</ele>
        <time>2013-09-26T09:53:32Z</time>
      </trkpt>
      <trkpt lat="44.72386" lon="3.83877">
        <ele>958</ele>
        <time>2013-09-26T09:53:36Z</time>
      </trkpt>
      <trkpt lat="44.72389" lon="3.83884">
        <ele>958</ele>
        <time>2013-09-26T09:53:41Z</time>
      </trkpt>
      <trkpt lat="44.72391" lon="3.8389">
        <ele>958</ele>
        <time>2013-09-26T09:53:46Z</time>
      </trkpt>
      <trkpt lat="44.72394" lon="3.83896">
        <ele>959</ele>
        <time>2013-09-26T09:53:50Z</time>
      </trkpt>
      <trkpt lat="44.72396" lon="3.83902">
        <ele>959</ele>
        <time>2013-09-26T09:53:54Z</time>
      </trkpt>
      <trkpt lat="44.724" lon="3.83907">
        <ele>959</ele>
        <time>2013-09-26T09:53:58Z</time>
      </trkpt>
      <trkpt lat="44.72404" lon="3.83913">
        <ele>960</ele>
        <time>2013-09-26T09:54:02Z</time>
      </trkpt>
      <trkpt lat="44.72407" lon="3.83918">
        <ele>961</ele>
        <time>2013-09-26T09:54:08Z</time>
      </trkpt>
      <trkpt lat="44.72409" lon="3.83924">
        <ele>961</ele>
        <time>2013-09-26T09:54:13Z</time>
      </trkpt>
      <trkpt lat="44.72411" lon="3.8393">
        <ele>961</ele>
        <time>2013-09-26T09:54:19Z</time>
      </trkpt>
      <trkpt lat="44.7241" lon="3.83937">
        <ele>961</ele>
        <time>2013-09-26T09:54:28Z</time>
      </trkpt>
      <trkpt lat="44.72413" lon="3.83943">
        <ele>962</ele>
        <time>2013-09-26T09:54:33Z</time>
      </trkpt>
      <trkpt lat="44.72416" lon="3.83949">
        <ele>962</ele>
        <time>2013-09-26T09:54:38Z</time>
      </trkpt>
      <trkpt lat="44.72418" lon="3.83954">
        <ele>963</ele>
        <time>2013-09-26T09:54:42Z</time>
      </trkpt>
      <trkpt lat="44.72421" lon="3.8396">
        <ele>963</ele>
        <time>2013-09-26T09:54:45Z</time>
      </trkpt>
      <trkpt lat="44.72424" lon="3.83966">
        <ele>963</ele>
        <time>2013-09-26T09:54:49Z</time>
      </trkpt>
      <trkpt lat="44.72426" lon="3.83973">
        <ele>963</ele>
        <time>2013-09-26T09:54:54Z</time>
      </trkpt>
      <trkpt lat="44.72429" lon="3.83979">
        <ele>964</ele>
        <time>2013-09-26T09:54:58Z</time>
      </trkpt>
      <trkpt lat="44.72432" lon="3.83986">
        <ele>964</ele>
        <time>2013-09-26T09:55:02Z</time>
      </trkpt>
      <trkpt lat="44.72434" lon="3.83992">
        <ele>964</ele>
        <time>2013-09-26T09:55:06Z</time>
      </trkpt>
      <trkpt lat="44.72437" lon="3.83999">
        <ele>964</ele>
        <time>2013-09-26T09:55:10Z</time>
      </trkpt>
      <trkpt lat="44.7244" lon="3.84005">
        <ele>964</ele>
        <time>2013-09-26T09:55:14Z</time>
      </trkpt>
      <trkpt lat="44.72442" lon="3.84012">
        <ele>964</ele>
        <time>2013-09-26T09:55:18Z</time>
      </trkpt>
      <trkpt lat="44.72443" lon="3.84019">
        <ele>964</ele>
        <time>2013-09-26T09:55:22Z</time>
      </trkpt>
      <trkpt lat="44.72445" lon="3.84026">
        <ele>964</ele>
        <time>2013-09-26T09:55:26Z</time>
      </trkpt>
      <trkpt lat="44.72447" lon="3.84033">
        <ele>964</ele>
        <time>2013-09-26T09:55:31Z</time>
      </trkpt>
      <trkpt lat="44.72448" lon="3.84041">
        <ele>964</ele>
        <time>2013-09-26T09:55:35Z</time>
      </trkpt>
      <trkpt lat="44.72447" lon="3.84048">
        <ele>964</ele>
        <time>2013-09-26T09:55:39Z</time>
      </trkpt>
      <trkpt lat="44.72445" lon="3.84055">
        <ele>964</ele>
        <time>2013-09-26T09:55:43Z</time>
      </trkpt>
      <trkpt lat="44.72443" lon="3.84061">
        <ele>964</ele>
        <time>2013-09-26T09:55:47Z</time>
      </trkpt>
      <trkpt lat="44.72441" lon="3.84067">
        <ele>964</ele>
        <time>2013-09-26T09:55:51Z</time>
      </trkpt>
      <trkpt lat="44.72438" lon="3.84072">
        <ele>964</ele>
        <time>2013-09-26T09:55:55Z</time>
      </trkpt>
      <trkpt lat="44.72435" lon="3.84079">
        <ele>963</ele>
        <time>2013-09-26T09:56:00Z</time>
      </trkpt>
      <trkpt lat="44.72433" lon="3.84084">
        <ele>963</ele>
        <time>2013-09-26T09:56:04Z</time>
      </trkpt>
      <trkpt lat="44.7243" lon="3.8409">
        <ele>963</ele>
        <time>2013-09-26T09:56:08Z</time>
      </trkpt>
      <trkpt lat="44.72427" lon="3.84096">
        <ele>963</ele>
        <time>2013-09-26T09:56:12Z</time>
      </trkpt>
      <trkpt lat="44.72424" lon="3.84102">
        <ele>963</ele>
        <time>2013-09-26T09:56:16Z</time>
      </trkpt>
      <trkpt lat="44.72422" lon="3.84108">
        <ele>963</ele>
        <time>2013-09-26T09:56:20Z</time>
      </trkpt>
      <trkpt lat="44.72419" lon="3.84114">
        <ele>963</ele>
        <time>2013-09-26T09:56:25Z</time>
      </trkpt>
      <trkpt lat="44.72414" lon="3.84119">
        <ele>962</ele>
        <time>2013-09-26T09:56:30Z</time>
      </trkpt>
      <trkpt lat="44.7241" lon="3.84123">
        <ele>962</ele>
        <time>2013-09-26T09:56:34Z</time>
      </trkpt>
      <trkpt lat="44.72406" lon="3.84127">
        <ele>962</ele>
        <time>2013-09-26T09:56:39Z</time>
      </trkpt>
      <trkpt lat="44.72401" lon="3.84132">
        <ele>962</ele>
        <time>2013-09-26T09:56:43Z</time>
      </trkpt>
      <trkpt lat="44.72398" lon="3.84137">
        <ele>962</ele>
        <time>2013-09-26T09:56:47Z</time>
      </trkpt>
      <trkpt lat="44.72394" lon="3.84142">
        <ele>962</ele>
        <time>2013-09-26T09:56:51Z</time>
      </trkpt>
      <trkpt lat="44.7239" lon="3.84148">
        <ele>962</ele>
        <time>2013-09-26T09:56:55Z</time>
      </trkpt>
      <trkpt lat="44.72387" lon="3.84153">
        <ele>962</ele>
        <time>2013-09-26T09:56:58Z</time>
      </trkpt>
      <trkpt lat="44.72384" lon="3.84157">
        <ele>962</ele>
        <time>2013-09-26T09:57:01Z</time>
      </trkpt>
      <trkpt lat="44.7238" lon="3.84161">
        <ele>963</ele>
        <time>2013-09-26T09:57:04Z</time>
      </trkpt>
      <trkpt lat="44.72376" lon="3.84166">
        <ele>963</ele>
        <time>2013-09-26T09:57:08Z</time>
      </trkpt>
      <trkpt lat="44.72372" lon="3.84171">
        <ele>962</ele>
        <time>2013-09-26T09:57:12Z</time>
      </trkpt>
      <trkpt lat="44.72369" lon="3.84175">
        <ele>962</ele>
        <time>2013-09-26T09:57:16Z</time>
      </trkpt>
      <trkpt lat="44.72365" lon="3.84179">
        <ele>962</ele>
        <time>2013-09-26T09:57:20Z</time>
      </trkpt>
      <trkpt lat="44.72362" lon="3.84183">
        <ele>962</ele>
        <time>2013-09-26T09:57:23Z</time>
      </trkpt>
      <trkpt lat="44.72357" lon="3.84189">
        <ele>962</ele>
        <time>2013-09-26T09:57:27Z</time>
      </trkpt>
      <trkpt lat="44.72353" lon="3.84192">
        <ele>962</ele>
        <time>2013-09-26T09:57:30Z</time>
      </trkpt>
      <trkpt lat="44.7235" lon="3.84196">
        <ele>962</ele>
        <time>2013-09-26T09:57:33Z</time>
      </trkpt>
      <trkpt lat="44.72346" lon="3.842">
        <ele>962</ele>
        <time>2013-09-26T09:57:36Z</time>
      </trkpt>
      <trkpt lat="44.72342" lon="3.84205">
        <ele>962</ele>
        <time>2013-09-26T09:57:40Z</time>
      </trkpt>
      <trkpt lat="44.72339" lon="3.8421">
        <ele>961</ele>
        <time>2013-09-26T09:57:44Z</time>
      </trkpt>
      <trkpt lat="44.72335" lon="3.84215">
        <ele>961</ele>
        <time>2013-09-26T09:57:48Z</time>
      </trkpt>
      <trkpt lat="44.72332" lon="3.8422">
        <ele>963</ele>
        <time>2013-09-26T09:57:53Z</time>
      </trkpt>
      <trkpt lat="44.72328" lon="3.84225">
        <ele>963</ele>
        <time>2013-09-26T09:57:56Z</time>
      </trkpt>
      <trkpt lat="44.72324" lon="3.84229">
        <ele>963</ele>
        <time>2013-09-26T09:58:01Z</time>
      </trkpt>
      <trkpt lat="44.7232" lon="3.84233">
        <ele>963</ele>
        <time>2013-09-26T09:58:05Z</time>
      </trkpt>
      <trkpt lat="44.72316" lon="3.84237">
        <ele>963</ele>
        <time>2013-09-26T09:58:08Z</time>
      </trkpt>
      <trkpt lat="44.72312" lon="3.84242">
        <ele>963</ele>
        <time>2013-09-26T09:58:13Z</time>
      </trkpt>
      <trkpt lat="44.72308" lon="3.84246">
        <ele>963</ele>
        <time>2013-09-26T09:58:17Z</time>
      </trkpt>
      <trkpt lat="44.72303" lon="3.84251">
        <ele>961</ele>
        <time>2013-09-26T09:58:21Z</time>
      </trkpt>
      <trkpt lat="44.72301" lon="3.84256">
        <ele>961</ele>
        <time>2013-09-26T09:58:24Z</time>
      </trkpt>
      <trkpt lat="44.72297" lon="3.84261">
        <ele>961</ele>
        <time>2013-09-26T09:58:27Z</time>
      </trkpt>
      <trkpt lat="44.72294" lon="3.84267">
        <ele>961</ele>
        <time>2013-09-26T09:58:31Z</time>
      </trkpt>
      <trkpt lat="44.7229" lon="3.84271">
        <ele>961</ele>
        <time>2013-09-26T09:58:35Z</time>
      </trkpt>
      <trkpt lat="44.72285" lon="3.84276">
        <ele>961</ele>
        <time>2013-09-26T09:58:39Z</time>
      </trkpt>
      <trkpt lat="44.72281" lon="3.84281">
        <ele>961</ele>
        <time>2013-09-26T09:58:43Z</time>
      </trkpt>
      <trkpt lat="44.72277" lon="3.84284">
        <ele>961</ele>
        <time>2013-09-26T09:58:46Z</time>
      </trkpt>
      <trkpt lat="44.72274" lon="3.84289">
        <ele>961</ele>
        <time>2013-09-26T09:58:50Z</time>
      </trkpt>
      <trkpt lat="44.7227" lon="3.84294">
        <ele>961</ele>
        <time>2013-09-26T09:58:54Z</time>
      </trkpt>
      <trkpt lat="44.72266" lon="3.84299">
        <ele>961</ele>
        <time>2013-09-26T09:59:01Z</time>
      </trkpt>
      <trkpt lat="44.72262" lon="3.84304">
        <ele>961</ele>
        <time>2013-09-26T09:59:06Z</time>
      </trkpt>
      <trkpt lat="44.72259" lon="3.84309">
        <ele>960</ele>
        <time>2013-09-26T09:59:11Z</time>
      </trkpt>
      <trkpt lat="44.72255" lon="3.84313">
        <ele>960</ele>
        <time>2013-09-26T09:59:15Z</time>
      </trkpt>
      <trkpt lat="44.72251" lon="3.84317">
        <ele>960</ele>
        <time>2013-09-26T09:59:19Z</time>
      </trkpt>
      <trkpt lat="44.72247" lon="3.84321">
        <ele>959</ele>
        <time>2013-09-26T09:59:22Z</time>
      </trkpt>
      <trkpt lat="44.72243" lon="3.84326">
        <ele>959</ele>
        <time>2013-09-26T09:59:27Z</time>
      </trkpt>
      <trkpt lat="44.72239" lon="3.84331">
        <ele>959</ele>
        <time>2013-09-26T09:59:31Z</time>
      </trkpt>
      <trkpt lat="44.72236" lon="3.84335">
        <ele>956</ele>
        <time>2013-09-26T09:59:35Z</time>
      </trkpt>
      <trkpt lat="44.72232" lon="3.8434">
        <ele>955</ele>
        <time>2013-09-26T09:59:39Z</time>
      </trkpt>
      <trkpt lat="44.72228" lon="3.84343">
        <ele>955</ele>
        <time>2013-09-26T09:59:43Z</time>
      </trkpt>
      <trkpt lat="44.72223" lon="3.84347">
        <ele>954</ele>
        <time>2013-09-26T09:59:46Z</time>
      </trkpt>
      <trkpt lat="44.72219" lon="3.84351">
        <ele>953</ele>
        <time>2013-09-26T09:59:51Z</time>
      </trkpt>
      <trkpt lat="44.72213" lon="3.84355">
        <ele>952</ele>
        <time>2013-09-26T09:59:55Z</time>
      </trkpt>
      <trkpt lat="44.72208" lon="3.84359">
        <ele>952</ele>
        <time>2013-09-26T10:00:00Z</time>
      </trkpt>
      <trkpt lat="44.72204" lon="3.84361">
        <ele>951</ele>
        <time>2013-09-26T10:00:02Z</time>
      </trkpt>
      <trkpt lat="44.72199" lon="3.84362">
        <ele>951</ele>
        <time>2013-09-26T10:00:07Z</time>
      </trkpt>
      <trkpt lat="44.72194" lon="3.84361">
        <ele>951</ele>
        <time>2013-09-26T10:00:18Z</time>
      </trkpt>
      <trkpt lat="44.72189" lon="3.84357">
        <ele>950</ele>
        <time>2013-09-26T10:00:22Z</time>
      </trkpt>
      <trkpt lat="44.72184" lon="3.84352">
        <ele>950</ele>
        <time>2013-09-26T10:00:25Z</time>
      </trkpt>
      <trkpt lat="44.72179" lon="3.84349">
        <ele>950</ele>
        <time>2013-09-26T10:00:28Z</time>
      </trkpt>
      <trkpt lat="44.72173" lon="3.84347">
        <ele>950</ele>
        <time>2013-09-26T10:00:30Z</time>
      </trkpt>
      <trkpt lat="44.72168" lon="3.84343">
        <ele>950</ele>
        <time>2013-09-26T10:00:34Z</time>
      </trkpt>
      <trkpt lat="44.72164" lon="3.8434">
        <ele>946</ele>
        <time>2013-09-26T10:00:37Z</time>
      </trkpt>
      <trkpt lat="44.72159" lon="3.84337">
        <ele>946</ele>
        <time>2013-09-26T10:00:40Z</time>
      </trkpt>
      <trkpt lat="44.72154" lon="3.84335">
        <ele>945</ele>
        <time>2013-09-26T10:00:43Z</time>
      </trkpt>
      <trkpt lat="44.72149" lon="3.84332">
        <ele>948</ele>
        <time>2013-09-26T10:00:47Z</time>
      </trkpt>
      <trkpt lat="44.72143" lon="3.84328">
        <ele>948</ele>
        <time>2013-09-26T10:00:51Z</time>
      </trkpt>
      <trkpt lat="44.72139" lon="3.84325">
        <ele>948</ele>
        <time>2013-09-26T10:00:54Z</time>
      </trkpt>
      <trkpt lat="44.72134" lon="3.84321">
        <ele>948</ele>
        <time>2013-09-26T10:01:00Z</time>
      </trkpt>
      <trkpt lat="44.7213" lon="3.84316">
        <ele>948</ele>
        <time>2013-09-26T10:01:04Z</time>
      </trkpt>
      <trkpt lat="44.72126" lon="3.8431">
        <ele>948</ele>
        <time>2013-09-26T10:01:08Z</time>
      </trkpt>
      <trkpt lat="44.72123" lon="3.84304">
        <ele>948</ele>
        <time>2013-09-26T10:01:12Z</time>
      </trkpt>
      <trkpt lat="44.7212" lon="3.843">
        <ele>948</ele>
        <time>2013-09-26T10:01:17Z</time>
      </trkpt>
      <trkpt lat="44.72115" lon="3.84295">
        <ele>948</ele>
        <time>2013-09-26T10:01:21Z</time>
      </trkpt>
      <trkpt lat="44.72111" lon="3.84291">
        <ele>948</ele>
        <time>2013-09-26T10:01:25Z</time>
      </trkpt>
      <trkpt lat="44.72107" lon="3.84286">
        <ele>948</ele>
        <time>2013-09-26T10:01:29Z</time>
      </trkpt>
      <trkpt lat="44.72103" lon="3.84281">
        <ele>949</ele>
        <time>2013-09-26T10:01:33Z</time>
      </trkpt>
      <trkpt lat="44.72099" lon="3.84276">
        <ele>949</ele>
        <time>2013-09-26T10:01:38Z</time>
      </trkpt>
      <trkpt lat="44.72102" lon="3.84282">
        <ele>949</ele>
        <time>2013-09-26T10:01:54Z</time>
      </trkpt>
      <trkpt lat="44.72107" lon="3.84286">
        <ele>948</ele>
        <time>2013-09-26T10:01:58Z</time>
      </trkpt>
      <trkpt lat="44.72111" lon="3.8429">
        <ele>948</ele>
        <time>2013-09-26T10:02:01Z</time>
      </trkpt>
      <trkpt lat="44.72113" lon="3.84296">
        <ele>948</ele>
        <time>2013-09-26T10:02:04Z</time>
      </trkpt>
      <trkpt lat="44.72117" lon="3.84302">
        <ele>947</ele>
        <time>2013-09-26T10:02:08Z</time>
      </trkpt>
      <trkpt lat="44.72121" lon="3.84307">
        <ele>947</ele>
        <time>2013-09-26T10:02:12Z</time>
      </trkpt>
      <trkpt lat="44.72125" lon="3.84311">
        <ele>947</ele>
        <time>2013-09-26T10:02:15Z</time>
      </trkpt>
      <trkpt lat="44.72129" lon="3.84315">
        <ele>947</ele>
        <time>2013-09-26T10:02:18Z</time>
      </trkpt>
      <trkpt lat="44.72133" lon="3.8432">
        <ele>948</ele>
        <time>2013-09-26T10:02:22Z</time>
      </trkpt>
      <trkpt lat="44.72134" lon="3.84327">
        <ele>947</ele>
        <time>2013-09-26T10:02:28Z</time>
      </trkpt>
      <trkpt lat="44.72137" lon="3.84332">
        <ele>948</ele>
        <time>2013-09-26T10:02:33Z</time>
      </trkpt>
      <trkpt lat="44.72141" lon="3.84338">
        <ele>942</ele>
        <time>2013-09-26T10:02:37Z</time>
      </trkpt>
      <trkpt lat="44.72143" lon="3.84343">
        <ele>942</ele>
        <time>2013-09-26T10:02:41Z</time>
      </trkpt>
      <trkpt lat="44.72147" lon="3.84349">
        <ele>942</ele>
        <time>2013-09-26T10:02:44Z</time>
      </trkpt>
      <trkpt lat="44.7215" lon="3.84354">
        <ele>942</ele>
        <time>2013-09-26T10:02:49Z</time>
      </trkpt>
      <trkpt lat="44.72153" lon="3.84359">
        <ele>941</ele>
        <time>2013-09-26T10:02:51Z</time>
      </trkpt>
      <trkpt lat="44.72156" lon="3.84364">
        <ele>941</ele>
        <time>2013-09-26T10:02:55Z</time>
      </trkpt>
      <trkpt lat="44.72159" lon="3.84369">
        <ele>941</ele>
        <time>2013-09-26T10:02:57Z</time>
      </trkpt>
      <trkpt lat="44.72163" lon="3.84376">
        <ele>940</ele>
        <time>2013-09-26T10:03:00Z</time>
      </trkpt>
      <trkpt lat="44.72167" lon="3.8438">
        <ele>948</ele>
        <time>2013-09-26T10:03:05Z</time>
      </trkpt>
      <trkpt lat="44.72171" lon="3.84387">
        <ele>948</ele>
        <time>2013-09-26T10:03:09Z</time>
      </trkpt>
      <trkpt lat="44.72173" lon="3.84395">
        <ele>947</ele>
        <time>2013-09-26T10:03:12Z</time>
      </trkpt>
      <trkpt lat="44.72176" lon="3.84401">
        <ele>946</ele>
        <time>2013-09-26T10:03:15Z</time>
      </trkpt>
      <trkpt lat="44.72178" lon="3.84408">
        <ele>945</ele>
        <time>2013-09-26T10:03:19Z</time>
      </trkpt>
      <trkpt lat="44.7218" lon="3.84414">
        <ele>945</ele>
        <time>2013-09-26T10:03:23Z</time>
      </trkpt>
      <trkpt lat="44.72183" lon="3.8442">
        <ele>942</ele>
        <time>2013-09-26T10:03:27Z</time>
      </trkpt>
      <trkpt lat="44.72184" lon="3.84426">
        <ele>943</ele>
        <time>2013-09-26T10:03:29Z</time>
      </trkpt>
      <trkpt lat="44.72186" lon="3.84432">
        <ele>943</ele>
        <time>2013-09-26T10:03:33Z</time>
      </trkpt>
      <trkpt lat="44.72189" lon="3.84439">
        <ele>943</ele>
        <time>2013-09-26T10:03:38Z</time>
      </trkpt>
      <trkpt lat="44.7219" lon="3.84445">
        <ele>943</ele>
        <time>2013-09-26T10:03:42Z</time>
      </trkpt>
      <trkpt lat="44.72192" lon="3.84451">
        <ele>943</ele>
        <time>2013-09-26T10:03:47Z</time>
      </trkpt>
      <trkpt lat="44.72192" lon="3.84458">
        <ele>943</ele>
        <time>2013-09-26T10:03:55Z</time>
      </trkpt>
      <trkpt lat="44.72195" lon="3.84462">
        <ele>943</ele>
        <time>2013-09-26T10:04:00Z</time>
      </trkpt>
      <trkpt lat="44.72197" lon="3.84469">
        <ele>943</ele>
        <time>2013-09-26T10:04:05Z</time>
      </trkpt>
      <trkpt lat="44.722" lon="3.84475">
        <ele>943</ele>
        <time>2013-09-26T10:04:10Z</time>
      </trkpt>
      <trkpt lat="44.72203" lon="3.8448">
        <ele>943</ele>
        <time>2013-09-26T10:04:14Z</time>
      </trkpt>
      <trkpt lat="44.72205" lon="3.84487">
        <ele>943</ele>
        <time>2013-09-26T10:04:18Z</time>
      </trkpt>
      <trkpt lat="44.72207" lon="3.84494">
        <ele>943</ele>
        <time>2013-09-26T10:04:22Z</time>
      </trkpt>
      <trkpt lat="44.72205" lon="3.845">
        <ele>943</ele>
        <time>2013-09-26T10:04:42Z</time>
      </trkpt>
      <trkpt lat="44.72204" lon="3.84506">
        <ele>939</ele>
        <time>2013-09-26T10:05:16Z</time>
      </trkpt>
      <trkpt lat="44.72207" lon="3.84512">
        <ele>939</ele>
        <time>2013-09-26T10:05:20Z</time>
      </trkpt>
      <trkpt lat="44.72208" lon="3.84519">
        <ele>939</ele>
        <time>2013-09-26T10:05:26Z</time>
      </trkpt>
      <trkpt lat="44.72209" lon="3.84527">
        <ele>939</ele>
        <time>2013-09-26T10:05:33Z</time>
      </trkpt>
      <trkpt lat="44.72212" lon="3.84534">
        <ele>939</ele>
        <time>2013-09-26T10:05:37Z</time>
      </trkpt>
      <trkpt lat="44.72215" lon="3.8454">
        <ele>940</ele>
        <time>2013-09-26T10:05:42Z</time>
      </trkpt>
      <trkpt lat="44.72215" lon="3.84547">
        <ele>939</ele>
        <time>2013-09-26T10:05:47Z</time>
      </trkpt>
      <trkpt lat="44.72215" lon="3.84555">
        <ele>939</ele>
        <time>2013-09-26T10:05:52Z</time>
      </trkpt>
      <trkpt lat="44.72215" lon="3.84563">
        <ele>939</ele>
        <time>2013-09-26T10:05:56Z</time>
      </trkpt>
      <trkpt lat="44.72215" lon="3.84569">
        <ele>939</ele>
        <time>2013-09-26T10:05:59Z</time>
      </trkpt>
      <trkpt lat="44.72215" lon="3.84576">
        <ele>939</ele>
        <time>2013-09-26T10:06:05Z</time>
      </trkpt>
      <trkpt lat="44.72215" lon="3.84584">
        <ele>937</ele>
        <time>2013-09-26T10:06:09Z</time>
      </trkpt>
      <trkpt lat="44.72215" lon="3.84591">
        <ele>937</ele>
        <time>2013-09-26T10:06:15Z</time>
      </trkpt>
      <trkpt lat="44.72216" lon="3.84599">
        <ele>937</ele>
        <time>2013-09-26T10:06:21Z</time>
      </trkpt>
      <trkpt lat="44.72218" lon="3.84605">
        <ele>937</ele>
        <time>2013-09-26T10:06:24Z</time>
      </trkpt>
      <trkpt lat="44.72219" lon="3.84614">
        <ele>936</ele>
        <time>2013-09-26T10:06:28Z</time>
      </trkpt>
      <trkpt lat="44.72221" lon="3.84622">
        <ele>937</ele>
        <time>2013-09-26T10:06:32Z</time>
      </trkpt>
      <trkpt lat="44.72221" lon="3.8463">
        <ele>936</ele>
        <time>2013-09-26T10:06:36Z</time>
      </trkpt>
      <trkpt lat="44.72221" lon="3.84637">
        <ele>937</ele>
        <time>2013-09-26T10:06:39Z</time>
      </trkpt>
      <trkpt lat="44.72221" lon="3.84643">
        <ele>937</ele>
        <time>2013-09-26T10:06:42Z</time>
      </trkpt>
      <trkpt lat="44.7222" lon="3.8465">
        <ele>937</ele>
        <time>2013-09-26T10:06:46Z</time>
      </trkpt>
      <trkpt lat="44.7222" lon="3.84657">
        <ele>937</ele>
        <time>2013-09-26T10:06:53Z</time>
      </trkpt>
      <trkpt lat="44.72219" lon="3.84663">
        <ele>937</ele>
        <time>2013-09-26T10:06:59Z</time>
      </trkpt>
      <trkpt lat="44.72219" lon="3.8467">
        <ele>936</ele>
        <time>2013-09-26T10:07:04Z</time>
      </trkpt>
      <trkpt lat="44.72219" lon="3.84677">
        <ele>936</ele>
        <time>2013-09-26T10:07:07Z</time>
      </trkpt>
      <trkpt lat="44.7222" lon="3.84683">
        <ele>936</ele>
        <time>2013-09-26T10:07:10Z</time>
      </trkpt>
      <trkpt lat="44.7222" lon="3.8469">
        <ele>935</ele>
        <time>2013-09-26T10:07:14Z</time>
      </trkpt>
      <trkpt lat="44.72218" lon="3.84698">
        <ele>935</ele>
        <time>2013-09-26T10:07:20Z</time>
      </trkpt>
      <trkpt lat="44.72216" lon="3.84704">
        <ele>935</ele>
        <time>2013-09-26T10:07:23Z</time>
      </trkpt>
      <trkpt lat="44.72215" lon="3.84711">
        <ele>935</ele>
        <time>2013-09-26T10:07:28Z</time>
      </trkpt>
      <trkpt lat="44.72213" lon="3.84717">
        <ele>934</ele>
        <time>2013-09-26T10:07:30Z</time>
      </trkpt>
      <trkpt lat="44.72212" lon="3.84724">
        <ele>934</ele>
        <time>2013-09-26T10:07:34Z</time>
      </trkpt>
      <trkpt lat="44.72212" lon="3.84732">
        <ele>934</ele>
        <time>2013-09-26T10:07:38Z</time>
      </trkpt>
      <trkpt lat="44.72209" lon="3.84739">
        <ele>934</ele>
        <time>2013-09-26T10:07:43Z</time>
      </trkpt>
      <trkpt lat="44.72208" lon="3.84746">
        <ele>934</ele>
        <time>2013-09-26T10:07:48Z</time>
      </trkpt>
      <trkpt lat="44.72207" lon="3.84753">
        <ele>932</ele>
        <time>2013-09-26T10:07:51Z</time>
      </trkpt>
      <trkpt lat="44.72206" lon="3.8476">
        <ele>932</ele>
        <time>2013-09-26T10:07:55Z</time>
      </trkpt>
      <trkpt lat="44.72205" lon="3.84767">
        <ele>931</ele>
        <time>2013-09-26T10:08:00Z</time>
      </trkpt>
      <trkpt lat="44.72205" lon="3.84774">
        <ele>931</ele>
        <time>2013-09-26T10:08:07Z</time>
      </trkpt>
      <trkpt lat="44.72206" lon="3.84781">
        <ele>931</ele>
        <time>2013-09-26T10:08:11Z</time>
      </trkpt>
      <trkpt lat="44.72205" lon="3.84788">
        <ele>931</ele>
        <time>2013-09-26T10:08:17Z</time>
      </trkpt>
      <trkpt lat="44.72204" lon="3.84795">
        <ele>931</ele>
        <time>2013-09-26T10:08:24Z</time>
      </trkpt>
      <trkpt lat="44.72205" lon="3.84801">
        <ele>931</ele>
        <time>2013-09-26T10:08:28Z</time>
      </trkpt>
      <trkpt lat="44.72204" lon="3.84807">
        <ele>930</ele>
        <time>2013-09-26T10:08:35Z</time>
      </trkpt>
      <trkpt lat="44.72204" lon="3.84815">
        <ele>930</ele>
        <time>2013-09-26T10:08:39Z</time>
      </trkpt>
      <trkpt lat="44.72207" lon="3.84821">
        <ele>930</ele>
        <time>2013-09-26T10:08:43Z</time>
      </trkpt>
      <trkpt lat="44.72209" lon="3.84828">
        <ele>931</ele>
        <time>2013-09-26T10:08:47Z</time>
      </trkpt>
      <trkpt lat="44.72211" lon="3.84834">
        <ele>928</ele>
        <time>2013-09-26T10:08:50Z</time>
      </trkpt>
      <trkpt lat="44.72211" lon="3.84841">
        <ele>928</ele>
        <time>2013-09-26T10:08:55Z</time>
      </trkpt>
      <trkpt lat="44.72213" lon="3.84848">
        <ele>928</ele>
        <time>2013-09-26T10:09:00Z</time>
      </trkpt>
      <trkpt lat="44.72214" lon="3.84855">
        <ele>927</ele>
        <time>2013-09-26T10:09:04Z</time>
      </trkpt>
      <trkpt lat="44.72215" lon="3.84862">
        <ele>927</ele>
        <time>2013-09-26T10:09:08Z</time>
      </trkpt>
      <trkpt lat="44.72215" lon="3.84869">
        <ele>927</ele>
        <time>2013-09-26T10:09:12Z</time>
      </trkpt>
      <trkpt lat="44.72215" lon="3.84876">
        <ele>927</ele>
        <time>2013-09-26T10:09:19Z</time>
      </trkpt>
      <trkpt lat="44.72215" lon="3.84884">
        <ele>927</ele>
        <time>2013-09-26T10:09:24Z</time>
      </trkpt>
      <trkpt lat="44.72216" lon="3.84891">
        <ele>926</ele>
        <time>2013-09-26T10:09:27Z</time>
      </trkpt>
      <trkpt lat="44.72218" lon="3.84898">
        <ele>927</ele>
        <time>2013-09-26T10:09:31Z</time>
      </trkpt>
      <trkpt lat="44.72213" lon="3.84899">
        <ele>926</ele>
        <time>2013-09-26T10:09:39Z</time>
      </trkpt>
      <trkpt lat="44.72211" lon="3.84892">
        <ele>926</ele>
        <time>2013-09-26T10:09:43Z</time>
      </trkpt>
      <trkpt lat="44.72208" lon="3.84886">
        <ele>926</ele>
        <time>2013-09-26T10:09:47Z</time>
      </trkpt>
      <trkpt lat="44.72206" lon="3.8488">
        <ele>926</ele>
        <time>2013-09-26T10:09:51Z</time>
      </trkpt>
      <trkpt lat="44.72202" lon="3.84874">
        <ele>926</ele>
        <time>2013-09-26T10:09:54Z</time>
      </trkpt>
      <trkpt lat="44.72199" lon="3.84869">
        <ele>926</ele>
        <time>2013-09-26T10:09:57Z</time>
      </trkpt>
      <trkpt lat="44.72196" lon="3.84862">
        <ele>925</ele>
        <time>2013-09-26T10:10:01Z</time>
      </trkpt>
      <trkpt lat="44.72193" lon="3.84856">
        <ele>925</ele>
        <time>2013-09-26T10:10:04Z</time>
      </trkpt>
      <trkpt lat="44.7219" lon="3.84851">
        <ele>925</ele>
        <time>2013-09-26T10:10:06Z</time>
      </trkpt>
      <trkpt lat="44.72187" lon="3.84844">
        <ele>925</ele>
        <time>2013-09-26T10:10:11Z</time>
      </trkpt>
      <trkpt lat="44.72184" lon="3.84838">
        <ele>924</ele>
        <time>2013-09-26T10:10:14Z</time>
      </trkpt>
      <trkpt lat="44.72181" lon="3.84831">
        <ele>926</ele>
        <time>2013-09-26T10:10:19Z</time>
      </trkpt>
      <trkpt lat="44.72178" lon="3.84826">
        <ele>925</ele>
        <time>2013-09-26T10:10:23Z</time>
      </trkpt>
      <trkpt lat="44.72177" lon="3.84819">
        <ele>926</ele>
        <time>2013-09-26T10:10:29Z</time>
      </trkpt>
      <trkpt lat="44.72178" lon="3.84813">
        <ele>927</ele>
        <time>2013-09-26T10:10:35Z</time>
      </trkpt>
      <trkpt lat="44.72175" lon="3.84806">
        <ele>927</ele>
        <time>2013-09-26T10:10:40Z</time>
      </trkpt>
      <trkpt lat="44.72172" lon="3.84801">
        <ele>928</ele>
        <time>2013-09-26T10:10:44Z</time>
      </trkpt>
      <trkpt lat="44.72169" lon="3.84795">
        <ele>928</ele>
        <time>2013-09-26T10:10:47Z</time>
      </trkpt>
      <trkpt lat="44.72168" lon="3.84787">
        <ele>928</ele>
        <time>2013-09-26T10:10:51Z</time>
      </trkpt>
      <trkpt lat="44.72167" lon="3.8478">
        <ele>928</ele>
        <time>2013-09-26T10:10:55Z</time>
      </trkpt>
      <trkpt lat="44.72165" lon="3.84774">
        <ele>926</ele>
        <time>2013-09-26T10:10:59Z</time>
      </trkpt>
      <trkpt lat="44.72163" lon="3.84768">
        <ele>926</ele>
        <time>2013-09-26T10:11:03Z</time>
      </trkpt>
      <trkpt lat="44.7216" lon="3.8476">
        <ele>925</ele>
        <time>2013-09-26T10:11:07Z</time>
      </trkpt>
      <trkpt lat="44.72159" lon="3.84754">
        <ele>925</ele>
        <time>2013-09-26T10:11:11Z</time>
      </trkpt>
      <trkpt lat="44.72158" lon="3.84747">
        <ele>926</ele>
        <time>2013-09-26T10:11:15Z</time>
      </trkpt>
      <trkpt lat="44.72157" lon="3.84741">
        <ele>927</ele>
        <time>2013-09-26T10:11:19Z</time>
      </trkpt>
      <trkpt lat="44.72157" lon="3.84733">
        <ele>927</ele>
        <time>2013-09-26T10:11:23Z</time>
      </trkpt>
      <trkpt lat="44.72153" lon="3.84729">
        <ele>928</ele>
        <time>2013-09-26T10:11:27Z</time>
      </trkpt>
      <trkpt lat="44.72147" lon="3.84727">
        <ele>929</ele>
        <time>2013-09-26T10:11:32Z</time>
      </trkpt>
      <trkpt lat="44.72142" lon="3.84728">
        <ele>929</ele>
        <time>2013-09-26T10:11:35Z</time>
      </trkpt>
      <trkpt lat="44.72137" lon="3.84728">
        <ele>929</ele>
        <time>2013-09-26T10:11:40Z</time>
      </trkpt>
      <trkpt lat="44.72131" lon="3.84729">
        <ele>930</ele>
        <time>2013-09-26T10:11:44Z</time>
      </trkpt>
      <trkpt lat="44.72126" lon="3.84728">
        <ele>930</ele>
        <time>2013-09-26T10:11:50Z</time>
      </trkpt>
      <trkpt lat="44.72119" lon="3.84727">
        <ele>931</ele>
        <time>2013-09-26T10:11:54Z</time>
      </trkpt>
      <trkpt lat="44.72115" lon="3.84728">
        <ele>931</ele>
        <time>2013-09-26T10:11:58Z</time>
      </trkpt>
      <trkpt lat="44.7211" lon="3.8473">
        <ele>932</ele>
        <time>2013-09-26T10:12:02Z</time>
      </trkpt>
      <trkpt lat="44.72107" lon="3.84735">
        <ele>932</ele>
        <time>2013-09-26T10:12:13Z</time>
      </trkpt>
      <trkpt lat="44.72107" lon="3.84743">
        <ele>932</ele>
        <time>2013-09-26T10:12:16Z</time>
      </trkpt>
      <trkpt lat="44.72109" lon="3.8475">
        <ele>932</ele>
        <time>2013-09-26T10:12:20Z</time>
      </trkpt>
      <trkpt lat="44.72107" lon="3.84743">
        <ele>932</ele>
        <time>2013-09-26T10:12:44Z</time>
      </trkpt>
      <trkpt lat="44.72105" lon="3.84736">
        <ele>932</ele>
        <time>2013-09-26T10:12:49Z</time>
      </trkpt>
      <trkpt lat="44.72103" lon="3.84729">
        <ele>932</ele>
        <time>2013-09-26T10:12:54Z</time>
      </trkpt>
      <trkpt lat="44.72099" lon="3.84723">
        <ele>932</ele>
        <time>2013-09-26T10:13:00Z</time>
      </trkpt>
      <trkpt lat="44.72097" lon="3.84717">
        <ele>932</ele>
        <time>2013-09-26T10:13:04Z</time>
      </trkpt>
      <trkpt lat="44.72094" lon="3.84711">
        <ele>933</ele>
        <time>2013-09-26T10:13:09Z</time>
      </trkpt>
      <trkpt lat="44.72093" lon="3.84705">
        <ele>933</ele>
        <time>2013-09-26T10:13:15Z</time>
      </trkpt>
      <trkpt lat="44.7209" lon="3.84699">
        <ele>934</ele>
        <time>2013-09-26T10:13:20Z</time>
      </trkpt>
      <trkpt lat="44.72089" lon="3.84693">
        <ele>935</ele>
        <time>2013-09-26T10:13:30Z</time>
      </trkpt>
      <trkpt lat="44.72089" lon="3.84686">
        <ele>935</ele>
        <time>2013-09-26T10:13:37Z</time>
      </trkpt>
      <trkpt lat="44.72088" lon="3.8468">
        <ele>937</ele>
        <time>2013-09-26T10:13:46Z</time>
      </trkpt>
      <trkpt lat="44.72087" lon="3.84672">
        <ele>939</ele>
        <time>2013-09-26T10:13:51Z</time>
      </trkpt>
      <trkpt lat="44.72086" lon="3.84665">
        <ele>940</ele>
        <time>2013-09-26T10:13:56Z</time>
      </trkpt>
      <trkpt lat="44.72086" lon="3.84659">
        <ele>939</ele>
        <time>2013-09-26T10:14:03Z</time>
      </trkpt>
      <trkpt lat="44.72084" lon="3.84652">
        <ele>937</ele>
        <time>2013-09-26T10:14:09Z</time>
      </trkpt>
      <trkpt lat="44.72086" lon="3.84645">
        <ele>936</ele>
        <time>2013-09-26T10:14:14Z</time>
      </trkpt>
      <trkpt lat="44.72084" lon="3.84638">
        <ele>935</ele>
        <time>2013-09-26T10:14:20Z</time>
      </trkpt>
      <trkpt lat="44.72083" lon="3.84631">
        <ele>946</ele>
        <time>2013-09-26T10:14:26Z</time>
      </trkpt>
      <trkpt lat="44.7208" lon="3.84626">
        <ele>946</ele>
        <time>2013-09-26T10:14:33Z</time>
      </trkpt>
      <trkpt lat="44.72075" lon="3.84623">
        <ele>946</ele>
        <time>2013-09-26T10:14:41Z</time>
      </trkpt>
      <trkpt lat="44.72072" lon="3.84617">
        <ele>946</ele>
        <time>2013-09-26T10:14:50Z</time>
      </trkpt>
      <trkpt lat="44.7207" lon="3.84611">
        <ele>946</ele>
        <time>2013-09-26T10:15:00Z</time>
      </trkpt>
      <trkpt lat="44.72065" lon="3.84607">
        <ele>946</ele>
        <time>2013-09-26T10:15:04Z</time>
      </trkpt>
      <trkpt lat="44.72061" lon="3.84604">
        <ele>946</ele>
        <time>2013-09-26T10:15:10Z</time>
      </trkpt>
      <trkpt lat="44.72057" lon="3.846">
        <ele>946</ele>
        <time>2013-09-26T10:15:15Z</time>
      </trkpt>
      <trkpt lat="44.72054" lon="3.84595">
        <ele>947</ele>
        <time>2013-09-26T10:15:31Z</time>
      </trkpt>
      <trkpt lat="44.72051" lon="3.8459">
        <ele>947</ele>
        <time>2013-09-26T10:15:41Z</time>
      </trkpt>
      <trkpt lat="44.72047" lon="3.84586">
        <ele>948</ele>
        <time>2013-09-26T10:15:49Z</time>
      </trkpt>
      <trkpt lat="44.72043" lon="3.84582">
        <ele>943</ele>
        <time>2013-09-26T10:15:53Z</time>
      </trkpt>
      <trkpt lat="44.72039" lon="3.84578">
        <ele>943</ele>
        <time>2013-09-26T10:16:01Z</time>
      </trkpt>
      <trkpt lat="44.72035" lon="3.84573">
        <ele>944</ele>
        <time>2013-09-26T10:16:20Z</time>
      </trkpt>
      <trkpt lat="44.7203" lon="3.8457">
        <ele>945</ele>
        <time>2013-09-26T10:16:24Z</time>
      </trkpt>
      <trkpt lat="44.72026" lon="3.84564">
        <ele>945</ele>
        <time>2013-09-26T10:16:49Z</time>
      </trkpt>
      <trkpt lat="44.72021" lon="3.84561">
        <ele>945</ele>
        <time>2013-09-26T10:16:56Z</time>
      </trkpt>
      <trkpt lat="44.72017" lon="3.84558">
        <ele>945</ele>
        <time>2013-09-26T10:17:04Z</time>
      </trkpt>
      <trkpt lat="44.72012" lon="3.84556">
        <ele>945</ele>
        <time>2013-09-26T10:17:08Z</time>
      </trkpt>
      <trkpt lat="44.72007" lon="3.84554">
        <ele>945</ele>
        <time>2013-09-26T10:17:11Z</time>
      </trkpt>
      <trkpt lat="44.72003" lon="3.84552">
        <ele>945</ele>
        <time>2013-09-26T10:17:14Z</time>
      </trkpt>
      <trkpt lat="44.71997" lon="3.84552">
        <ele>952</ele>
        <time>2013-09-26T10:17:22Z</time>
      </trkpt>
      <trkpt lat="44.71991" lon="3.84552">
        <ele>952</ele>
        <time>2013-09-26T10:17:25Z</time>
      </trkpt>
      <trkpt lat="44.71986" lon="3.84551">
        <ele>951</ele>
        <time>2013-09-26T10:17:27Z</time>
      </trkpt>
      <trkpt lat="44.71982" lon="3.84551">
        <ele>951</ele>
        <time>2013-09-26T10:17:31Z</time>
      </trkpt>
      <trkpt lat="44.71977" lon="3.84551">
        <ele>951</ele>
        <time>2013-09-26T10:17:35Z</time>
      </trkpt>
      <trkpt lat="44.71971" lon="3.84553">
        <ele>952</ele>
        <time>2013-09-26T10:17:39Z</time>
      </trkpt>
      <trkpt lat="44.71966" lon="3.84554">
        <ele>952</ele>
        <time>2013-09-26T10:17:43Z</time>
      </trkpt>
      <trkpt lat="44.71961" lon="3.84555">
        <ele>952</ele>
        <time>2013-09-26T10:17:50Z</time>
      </trkpt>
      <trkpt lat="44.71956" lon="3.84556">
        <ele>952</ele>
        <time>2013-09-26T10:17:55Z</time>
      </trkpt>
      <trkpt lat="44.71951" lon="3.84557">
        <ele>952</ele>
        <time>2013-09-26T10:18:00Z</time>
      </trkpt>
      <trkpt lat="44.71947" lon="3.8456">
        <ele>953</ele>
        <time>2013-09-26T10:18:06Z</time>
      </trkpt>
      <trkpt lat="44.71943" lon="3.84563">
        <ele>953</ele>
        <time>2013-09-26T10:18:10Z</time>
      </trkpt>
      <trkpt lat="44.71939" lon="3.84568">
        <ele>954</ele>
        <time>2013-09-26T10:18:19Z</time>
      </trkpt>
      <trkpt lat="44.71936" lon="3.84575">
        <ele>955</ele>
        <time>2013-09-26T10:18:24Z</time>
      </trkpt>
      <trkpt lat="44.71932" lon="3.8458">
        <ele>955</ele>
        <time>2013-09-26T10:18:29Z</time>
      </trkpt>
      <trkpt lat="44.71928" lon="3.84583">
        <ele>956</ele>
        <time>2013-09-26T10:18:34Z</time>
      </trkpt>
      <trkpt lat="44.71924" lon="3.84588">
        <ele>959</ele>
        <time>2013-09-26T10:18:39Z</time>
      </trkpt>
      <trkpt lat="44.7192" lon="3.84593">
        <ele>959</ele>
        <time>2013-09-26T10:18:44Z</time>
      </trkpt>
      <trkpt lat="44.71917" lon="3.84598">
        <ele>961</ele>
        <time>2013-09-26T10:18:48Z</time>
      </trkpt>
      <trkpt lat="44.71913" lon="3.84603">
        <ele>961</ele>
        <time>2013-09-26T10:18:52Z</time>
      </trkpt>
      <trkpt lat="44.71909" lon="3.84607">
        <ele>961</ele>
        <time>2013-09-26T10:18:58Z</time>
      </trkpt>
      <trkpt lat="44.71906" lon="3.84612">
        <ele>962</ele>
        <time>2013-09-26T10:19:02Z</time>
      </trkpt>
      <trkpt lat="44.71903" lon="3.84617">
        <ele>962</ele>
        <time>2013-09-26T10:19:07Z</time>
      </trkpt>
      <trkpt lat="44.71899" lon="3.84621">
        <ele>962</ele>
        <time>2013-09-26T10:19:12Z</time>
      </trkpt>
      <trkpt lat="44.71896" lon="3.84627">
        <ele>962</ele>
        <time>2013-09-26T10:19:16Z</time>
      </trkpt>
      <trkpt lat="44.71893" lon="3.84632">
        <ele>962</ele>
        <time>2013-09-26T10:19:21Z</time>
      </trkpt>
      <trkpt lat="44.7189" lon="3.84637">
        <ele>963</ele>
        <time>2013-09-26T10:19:25Z</time>
      </trkpt>
      <trkpt lat="44.71888" lon="3.84644">
        <ele>963</ele>
        <time>2013-09-26T10:19:31Z</time>
      </trkpt>
      <trkpt lat="44.71888" lon="3.84651">
        <ele>963</ele>
        <time>2013-09-26T10:19:35Z</time>
      </trkpt>
      <trkpt lat="44.71885" lon="3.84657">
        <ele>963</ele>
        <time>2013-09-26T10:19:45Z</time>
      </trkpt>
      <trkpt lat="44.71882" lon="3.84662">
        <ele>963</ele>
        <time>2013-09-26T10:19:56Z</time>
      </trkpt>
      <trkpt lat="44.71878" lon="3.84666">
        <ele>963</ele>
        <time>2013-09-26T10:20:00Z</time>
      </trkpt>
      <trkpt lat="44.71873" lon="3.8467">
        <ele>961</ele>
        <time>2013-09-26T10:20:04Z</time>
      </trkpt>
      <trkpt lat="44.71868" lon="3.84674">
        <ele>961</ele>
        <time>2013-09-26T10:20:08Z</time>
      </trkpt>
      <trkpt lat="44.71863" lon="3.84677">
        <ele>961</ele>
        <time>2013-09-26T10:20:12Z</time>
      </trkpt>
      <trkpt lat="44.71859" lon="3.84681">
        <ele>961</ele>
        <time>2013-09-26T10:20:17Z</time>
      </trkpt>
      <trkpt lat="44.71855" lon="3.84685">
        <ele>961</ele>
        <time>2013-09-26T10:20:22Z</time>
      </trkpt>
      <trkpt lat="44.71851" lon="3.8469">
        <ele>961</ele>
        <time>2013-09-26T10:20:30Z</time>
      </trkpt>
      <trkpt lat="44.71847" lon="3.84691">
        <ele>961</ele>
        <time>2013-09-26T10:20:34Z</time>
      </trkpt>
      <trkpt lat="44.71841" lon="3.84692">
        <ele>962</ele>
        <time>2013-09-26T10:20:38Z</time>
      </trkpt>
      <trkpt lat="44.71837" lon="3.84692">
        <ele>962</ele>
        <time>2013-09-26T10:20:41Z</time>
      </trkpt>
      <trkpt lat="44.71831" lon="3.84693">
        <ele>966</ele>
        <time>2013-09-26T10:20:45Z</time>
      </trkpt>
      <trkpt lat="44.71827" lon="3.84695">
        <ele>966</ele>
        <time>2013-09-26T10:20:49Z</time>
      </trkpt>
      <trkpt lat="44.71822" lon="3.84694">
        <ele>966</ele>
        <time>2013-09-26T10:20:54Z</time>
      </trkpt>
      <trkpt lat="44.71817" lon="3.84695">
        <ele>966</ele>
        <time>2013-09-26T10:21:00Z</time>
      </trkpt>
      <trkpt lat="44.71813" lon="3.84694">
        <ele>967</ele>
        <time>2013-09-26T10:21:09Z</time>
      </trkpt>
      <trkpt lat="44.71808" lon="3.84693">
        <ele>967</ele>
        <time>2013-09-26T10:21:13Z</time>
      </trkpt>
      <trkpt lat="44.71803" lon="3.8469">
        <ele>967</ele>
        <time>2013-09-26T10:21:17Z</time>
      </trkpt>
      <trkpt lat="44.71798" lon="3.84688">
        <ele>968</ele>
        <time>2013-09-26T10:21:22Z</time>
      </trkpt>
      <trkpt lat="44.71793" lon="3.84687">
        <ele>968</ele>
        <time>2013-09-26T10:21:26Z</time>
      </trkpt>
      <trkpt lat="44.71787" lon="3.84686">
        <ele>968</ele>
        <time>2013-09-26T10:21:34Z</time>
      </trkpt>
      <trkpt lat="44.71782" lon="3.84685">
        <ele>969</ele>
        <time>2013-09-26T10:21:46Z</time>
      </trkpt>
      <trkpt lat="44.71778" lon="3.8468">
        <ele>969</ele>
        <time>2013-09-26T10:21:53Z</time>
      </trkpt>
      <trkpt lat="44.71774" lon="3.84676">
        <ele>970</ele>
        <time>2013-09-26T10:21:56Z</time>
      </trkpt>
      <trkpt lat="44.71771" lon="3.8467">
        <ele>970</ele>
        <time>2013-09-26T10:22:01Z</time>
      </trkpt>
      <trkpt lat="44.71767" lon="3.84665">
        <ele>971</ele>
        <time>2013-09-26T10:22:05Z</time>
      </trkpt>
      <trkpt lat="44.71762" lon="3.84664">
        <ele>971</ele>
        <time>2013-09-26T10:22:10Z</time>
      </trkpt>
      <trkpt lat="44.71757" lon="3.84663">
        <ele>972</ele>
        <time>2013-09-26T10:22:15Z</time>
      </trkpt>
      <trkpt lat="44.71752" lon="3.84664">
        <ele>972</ele>
        <time>2013-09-26T10:22:20Z</time>
      </trkpt>
      <trkpt lat="44.71748" lon="3.84661">
        <ele>974</ele>
        <time>2013-09-26T10:22:27Z</time>
      </trkpt>
      <trkpt lat="44.71743" lon="3.8466">
        <ele>974</ele>
        <time>2013-09-26T10:22:32Z</time>
      </trkpt>
      <trkpt lat="44.71737" lon="3.84661">
        <ele>975</ele>
        <time>2013-09-26T10:22:37Z</time>
      </trkpt>
      <trkpt lat="44.71733" lon="3.8466">
        <ele>975</ele>
        <time>2013-09-26T10:22:42Z</time>
      </trkpt>
      <trkpt lat="44.71728" lon="3.84658">
        <ele>976</ele>
        <time>2013-09-26T10:22:48Z</time>
      </trkpt>
      <trkpt lat="44.71724" lon="3.84656">
        <ele>976</ele>
        <time>2013-09-26T10:22:54Z</time>
      </trkpt>
      <trkpt lat="44.71719" lon="3.84654">
        <ele>976</ele>
        <time>2013-09-26T10:23:00Z</time>
      </trkpt>
      <trkpt lat="44.71714" lon="3.84652">
        <ele>977</ele>
        <time>2013-09-26T10:23:07Z</time>
      </trkpt>
      <trkpt lat="44.7171" lon="3.84651">
        <ele>977</ele>
        <time>2013-09-26T10:23:13Z</time>
      </trkpt>
      <trkpt lat="44.71705" lon="3.8465">
        <ele>978</ele>
        <time>2013-09-26T10:23:18Z</time>
      </trkpt>
      <trkpt lat="44.717" lon="3.84648">
        <ele>978</ele>
        <time>2013-09-26T10:23:25Z</time>
      </trkpt>
      <trkpt lat="44.71695" lon="3.84647">
        <ele>978</ele>
        <time>2013-09-26T10:23:31Z</time>
      </trkpt>
      <trkpt lat="44.7169" lon="3.84646">
        <ele>979</ele>
        <time>2013-09-26T10:23:40Z</time>
      </trkpt>
      <trkpt lat="44.71685" lon="3.84646">
        <ele>979</ele>
        <time>2013-09-26T10:23:44Z</time>
      </trkpt>
      <trkpt lat="44.7168" lon="3.84646">
        <ele>979</ele>
        <time>2013-09-26T10:23:49Z</time>
      </trkpt>
      <trkpt lat="44.71675" lon="3.84645">
        <ele>980</ele>
        <time>2013-09-26T10:23:59Z</time>
      </trkpt>
      <trkpt lat="44.7167" lon="3.84645">
        <ele>980</ele>
        <time>2013-09-26T10:24:04Z</time>
      </trkpt>
      <trkpt lat="44.71664" lon="3.84646">
        <ele>984</ele>
        <time>2013-09-26T10:24:09Z</time>
      </trkpt>
      <trkpt lat="44.7166" lon="3.84645">
        <ele>984</ele>
        <time>2013-09-26T10:24:15Z</time>
      </trkpt>
      <trkpt lat="44.71654" lon="3.84643">
        <ele>984</ele>
        <time>2013-09-26T10:24:20Z</time>
      </trkpt>
      <trkpt lat="44.7165" lon="3.84643">
        <ele>984</ele>
        <time>2013-09-26T10:24:24Z</time>
      </trkpt>
      <trkpt lat="44.71645" lon="3.84643">
        <ele>985</ele>
        <time>2013-09-26T10:24:29Z</time>
      </trkpt>
      <trkpt lat="44.7164" lon="3.84641">
        <ele>985</ele>
        <time>2013-09-26T10:24:35Z</time>
      </trkpt>
      <trkpt lat="44.71635" lon="3.84638">
        <ele>985</ele>
        <time>2013-09-26T10:24:41Z</time>
      </trkpt>
      <trkpt lat="44.7163" lon="3.84636">
        <ele>985</ele>
        <time>2013-09-26T10:24:47Z</time>
      </trkpt>
      <trkpt lat="44.71625" lon="3.84635">
        <ele>985</ele>
        <time>2013-09-26T10:24:51Z</time>
      </trkpt>
      <trkpt lat="44.71621" lon="3.84633">
        <ele>985</ele>
        <time>2013-09-26T10:25:00Z</time>
      </trkpt>
      <trkpt lat="44.71615" lon="3.84633">
        <ele>986</ele>
        <time>2013-09-26T10:25:04Z</time>
      </trkpt>
      <trkpt lat="44.71611" lon="3.8463">
        <ele>986</ele>
        <time>2013-09-26T10:25:10Z</time>
      </trkpt>
      <trkpt lat="44.71606" lon="3.84628">
        <ele>986</ele>
        <time>2013-09-26T10:25:13Z</time>
      </trkpt>
      <trkpt lat="44.71602" lon="3.84627">
        <ele>986</ele>
        <time>2013-09-26T10:25:18Z</time>
      </trkpt>
      <trkpt lat="44.71596" lon="3.84624">
        <ele>986</ele>
        <time>2013-09-26T10:25:22Z</time>
      </trkpt>
      <trkpt lat="44.7159" lon="3.84622">
        <ele>986</ele>
        <time>2013-09-26T10:25:26Z</time>
      </trkpt>
      <trkpt lat="44.71585" lon="3.84621">
        <ele>987</ele>
        <time>2013-09-26T10:25:30Z</time>
      </trkpt>
      <trkpt lat="44.7158" lon="3.8462">
        <ele>990</ele>
        <time>2013-09-26T10:25:35Z</time>
      </trkpt>
      <trkpt lat="44.71575" lon="3.84619">
        <ele>990</ele>
        <time>2013-09-26T10:25:39Z</time>
      </trkpt>
      <trkpt lat="44.7157" lon="3.84621">
        <ele>990</ele>
        <time>2013-09-26T10:25:44Z</time>
      </trkpt>
      <trkpt lat="44.71565" lon="3.8462">
        <ele>990</ele>
        <time>2013-09-26T10:25:50Z</time>
      </trkpt>
      <trkpt lat="44.7156" lon="3.84622">
        <ele>990</ele>
        <time>2013-09-26T10:25:55Z</time>
      </trkpt>
      <trkpt lat="44.71555" lon="3.84623">
        <ele>990</ele>
        <time>2013-09-26T10:26:00Z</time>
      </trkpt>
      <trkpt lat="44.7155" lon="3.84627">
        <ele>990</ele>
        <time>2013-09-26T10:26:05Z</time>
      </trkpt>
      <trkpt lat="44.71545" lon="3.84628">
        <ele>990</ele>
        <time>2013-09-26T10:26:10Z</time>
      </trkpt>
      <trkpt lat="44.71541" lon="3.84629">
        <ele>990</ele>
        <time>2013-09-26T10:26:14Z</time>
      </trkpt>
      <trkpt lat="44.71535" lon="3.8463">
        <ele>990</ele>
        <time>2013-09-26T10:26:20Z</time>
      </trkpt>
      <trkpt lat="44.7153" lon="3.84632">
        <ele>990</ele>
        <time>2013-09-26T10:26:25Z</time>
      </trkpt>
      <trkpt lat="44.71525" lon="3.84633">
        <ele>991</ele>
        <time>2013-09-26T10:26:29Z</time>
      </trkpt>
      <trkpt lat="44.7152" lon="3.84635">
        <ele>991</ele>
        <time>2013-09-26T10:26:33Z</time>
      </trkpt>
      <trkpt lat="44.71516" lon="3.84637">
        <ele>991</ele>
        <time>2013-09-26T10:26:37Z</time>
      </trkpt>
      <trkpt lat="44.71511" lon="3.84635">
        <ele>991</ele>
        <time>2013-09-26T10:26:42Z</time>
      </trkpt>
      <trkpt lat="44.71506" lon="3.84636">
        <ele>991</ele>
        <time>2013-09-26T10:26:46Z</time>
      </trkpt>
      <trkpt lat="44.71501" lon="3.84636">
        <ele>991</ele>
        <time>2013-09-26T10:26:50Z</time>
      </trkpt>
      <trkpt lat="44.71496" lon="3.84635">
        <ele>993</ele>
        <time>2013-09-26T10:26:55Z</time>
      </trkpt>
      <trkpt lat="44.7149" lon="3.84635">
        <ele>993</ele>
        <time>2013-09-26T10:27:00Z</time>
      </trkpt>
      <trkpt lat="44.71485" lon="3.84633">
        <ele>993</ele>
        <time>2013-09-26T10:27:05Z</time>
      </trkpt>
      <trkpt lat="44.7148" lon="3.84633">
        <ele>993</ele>
        <time>2013-09-26T10:27:10Z</time>
      </trkpt>
      <trkpt lat="44.71476" lon="3.84632">
        <ele>993</ele>
        <time>2013-09-26T10:27:15Z</time>
      </trkpt>
      <trkpt lat="44.71471" lon="3.84632">
        <ele>993</ele>
        <time>2013-09-26T10:27:19Z</time>
      </trkpt>
      <trkpt lat="44.71466" lon="3.84632">
        <ele>993</ele>
        <time>2013-09-26T10:27:23Z</time>
      </trkpt>
      <trkpt lat="44.71461" lon="3.84632">
        <ele>993</ele>
        <time>2013-09-26T10:27:31Z</time>
      </trkpt>
      <trkpt lat="44.71456" lon="3.84632">
        <ele>993</ele>
        <time>2013-09-26T10:27:35Z</time>
      </trkpt>
      <trkpt lat="44.71452" lon="3.8463">
        <ele>993</ele>
        <time>2013-09-26T10:27:42Z</time>
      </trkpt>
      <trkpt lat="44.71446" lon="3.84628">
        <ele>994</ele>
        <time>2013-09-26T10:27:47Z</time>
      </trkpt>
      <trkpt lat="44.71441" lon="3.84625">
        <ele>994</ele>
        <time>2013-09-26T10:27:52Z</time>
      </trkpt>
      <trkpt lat="44.71436" lon="3.84623">
        <ele>994</ele>
        <time>2013-09-26T10:27:57Z</time>
      </trkpt>
      <trkpt lat="44.71431" lon="3.84622">
        <ele>994</ele>
        <time>2013-09-26T10:28:02Z</time>
      </trkpt>
      <trkpt lat="44.71426" lon="3.84621">
        <ele>994</ele>
        <time>2013-09-26T10:28:08Z</time>
      </trkpt>
      <trkpt lat="44.71421" lon="3.84621">
        <ele>994</ele>
        <time>2013-09-26T10:28:14Z</time>
      </trkpt>
      <trkpt lat="44.71417" lon="3.84618">
        <ele>994</ele>
        <time>2013-09-26T10:28:20Z</time>
      </trkpt>
      <trkpt lat="44.71412" lon="3.84617">
        <ele>996</ele>
        <time>2013-09-26T10:28:25Z</time>
      </trkpt>
      <trkpt lat="44.71407" lon="3.84615">
        <ele>996</ele>
        <time>2013-09-26T10:28:37Z</time>
      </trkpt>
      <trkpt lat="44.71402" lon="3.84615">
        <ele>996</ele>
        <time>2013-09-26T10:28:42Z</time>
      </trkpt>
      <trkpt lat="44.71396" lon="3.84614">
        <ele>996</ele>
        <time>2013-09-26T10:28:47Z</time>
      </trkpt>
      <trkpt lat="44.71391" lon="3.84612">
        <ele>996</ele>
        <time>2013-09-26T10:28:51Z</time>
      </trkpt>
      <trkpt lat="44.71387" lon="3.8461">
        <ele>996</ele>
        <time>2013-09-26T10:28:57Z</time>
      </trkpt>
      <trkpt lat="44.71382" lon="3.84609">
        <ele>996</ele>
        <time>2013-09-26T10:29:01Z</time>
      </trkpt>
      <trkpt lat="44.71376" lon="3.84608">
        <ele>996</ele>
        <time>2013-09-26T10:29:08Z</time>
      </trkpt>
      <trkpt lat="44.7137" lon="3.84607">
        <ele>996</ele>
        <time>2013-09-26T10:29:13Z</time>
      </trkpt>
      <trkpt lat="44.71366" lon="3.84608">
        <ele>997</ele>
        <time>2013-09-26T10:29:16Z</time>
      </trkpt>
      <trkpt lat="44.71361" lon="3.84608">
        <ele>997</ele>
        <time>2013-09-26T10:29:20Z</time>
      </trkpt>
      <trkpt lat="44.71356" lon="3.84607">
        <ele>997</ele>
        <time>2013-09-26T10:29:23Z</time>
      </trkpt>
      <trkpt lat="44.71351" lon="3.84606">
        <ele>997</ele>
        <time>2013-09-26T10:29:26Z</time>
      </trkpt>
      <trkpt lat="44.71346" lon="3.84606">
        <ele>997</ele>
        <time>2013-09-26T10:29:31Z</time>
      </trkpt>
      <trkpt lat="44.7134" lon="3.84605">
        <ele>997</ele>
        <time>2013-09-26T10:29:35Z</time>
      </trkpt>
      <trkpt lat="44.71335" lon="3.84605">
        <ele>997</ele>
        <time>2013-09-26T10:29:39Z</time>
      </trkpt>
      <trkpt lat="44.7133" lon="3.84604">
        <ele>998</ele>
        <time>2013-09-26T10:29:43Z</time>
      </trkpt>
      <trkpt lat="44.71325" lon="3.84603">
        <ele>998</ele>
        <time>2013-09-26T10:29:47Z</time>
      </trkpt>
      <trkpt lat="44.7132" lon="3.846">
        <ele>998</ele>
        <time>2013-09-26T10:29:52Z</time>
      </trkpt>
      <trkpt lat="44.71315" lon="3.84598">
        <ele>998</ele>
        <time>2013-09-26T10:29:58Z</time>
      </trkpt>
      <trkpt lat="44.71309" lon="3.84596">
        <ele>998</ele>
        <time>2013-09-26T10:30:03Z</time>
      </trkpt>
      <trkpt lat="44.71305" lon="3.84595">
        <ele>997</ele>
        <time>2013-09-26T10:30:08Z</time>
      </trkpt>
      <trkpt lat="44.71299" lon="3.84594">
        <ele>997</ele>
        <time>2013-09-26T10:30:13Z</time>
      </trkpt>
      <trkpt lat="44.71294" lon="3.84593">
        <ele>997</ele>
        <time>2013-09-26T10:30:17Z</time>
      </trkpt>
      <trkpt lat="44.71289" lon="3.84591">
        <ele>997</ele>
        <time>2013-09-26T10:30:21Z</time>
      </trkpt>
      <trkpt lat="44.71284" lon="3.84589">
        <ele>997</ele>
        <time>2013-09-26T10:30:27Z</time>
      </trkpt>
      <trkpt lat="44.7128" lon="3.84591">
        <ele>997</ele>
        <time>2013-09-26T10:30:32Z</time>
      </trkpt>
      <trkpt lat="44.71276" lon="3.84595">
        <ele>997</ele>
        <time>2013-09-26T10:30:36Z</time>
      </trkpt>
      <trkpt lat="44.71272" lon="3.84598">
        <ele>997</ele>
        <time>2013-09-26T10:30:40Z</time>
      </trkpt>
      <trkpt lat="44.71267" lon="3.84602">
        <ele>997</ele>
        <time>2013-09-26T10:30:45Z</time>
      </trkpt>
      <trkpt lat="44.71263" lon="3.84607">
        <ele>997</ele>
        <time>2013-09-26T10:30:49Z</time>
      </trkpt>
      <trkpt lat="44.71258" lon="3.84609">
        <ele>997</ele>
        <time>2013-09-26T10:30:54Z</time>
      </trkpt>
      <trkpt lat="44.71254" lon="3.84612">
        <ele>997</ele>
        <time>2013-09-26T10:30:59Z</time>
      </trkpt>
      <trkpt lat="44.71249" lon="3.84615">
        <ele>998</ele>
        <time>2013-09-26T10:31:04Z</time>
      </trkpt>
      <trkpt lat="44.71245" lon="3.84617">
        <ele>998</ele>
        <time>2013-09-26T10:31:08Z</time>
      </trkpt>
      <trkpt lat="44.7124" lon="3.8462">
        <ele>998</ele>
        <time>2013-09-26T10:31:13Z</time>
      </trkpt>
      <trkpt lat="44.71235" lon="3.84622">
        <ele>998</ele>
        <time>2013-09-26T10:31:17Z</time>
      </trkpt>
      <trkpt lat="44.71231" lon="3.84623">
        <ele>999</ele>
        <time>2013-09-26T10:31:21Z</time>
      </trkpt>
      <trkpt lat="44.71226" lon="3.84623">
        <ele>999</ele>
        <time>2013-09-26T10:31:25Z</time>
      </trkpt>
      <trkpt lat="44.7122" lon="3.84624">
        <ele>999</ele>
        <time>2013-09-26T10:31:29Z</time>
      </trkpt>
      <trkpt lat="44.71215" lon="3.84624">
        <ele>999</ele>
        <time>2013-09-26T10:31:33Z</time>
      </trkpt>
      <trkpt lat="44.7121" lon="3.84626">
        <ele>999</ele>
        <time>2013-09-26T10:31:38Z</time>
      </trkpt>
      <trkpt lat="44.71206" lon="3.84628">
        <ele>999</ele>
        <time>2013-09-26T10:31:42Z</time>
      </trkpt>
      <trkpt lat="44.71201" lon="3.84628">
        <ele>1000</ele>
        <time>2013-09-26T10:31:46Z</time>
      </trkpt>
      <trkpt lat="44.71196" lon="3.84628">
        <ele>1000</ele>
        <time>2013-09-26T10:31:51Z</time>
      </trkpt>
      <trkpt lat="44.7119" lon="3.84628">
        <ele>1000</ele>
        <time>2013-09-26T10:31:56Z</time>
      </trkpt>
      <trkpt lat="44.71185" lon="3.84628">
        <ele>1000</ele>
        <time>2013-09-26T10:32:00Z</time>
      </trkpt>
      <trkpt lat="44.7118" lon="3.84629">
        <ele>1000</ele>
        <time>2013-09-26T10:32:04Z</time>
      </trkpt>
      <trkpt lat="44.71176" lon="3.84631">
        <ele>1000</ele>
        <time>2013-09-26T10:32:08Z</time>
      </trkpt>
      <trkpt lat="44.71171" lon="3.84631">
        <ele>1000</ele>
        <time>2013-09-26T10:32:11Z</time>
      </trkpt>
      <trkpt lat="44.71167" lon="3.84633">
        <ele>1003</ele>
        <time>2013-09-26T10:32:16Z</time>
      </trkpt>
      <trkpt lat="44.71162" lon="3.84636">
        <ele>1003</ele>
        <time>2013-09-26T10:32:20Z</time>
      </trkpt>
      <trkpt lat="44.71158" lon="3.84642">
        <ele>1003</ele>
        <time>2013-09-26T10:32:24Z</time>
      </trkpt>
      <trkpt lat="44.71155" lon="3.84646">
        <ele>1003</ele>
        <time>2013-09-26T10:32:28Z</time>
      </trkpt>
      <trkpt lat="44.7115" lon="3.84651">
        <ele>1003</ele>
        <time>2013-09-26T10:32:33Z</time>
      </trkpt>
      <trkpt lat="44.71147" lon="3.84655">
        <ele>1003</ele>
        <time>2013-09-26T10:32:37Z</time>
      </trkpt>
      <trkpt lat="44.71144" lon="3.84661">
        <ele>1003</ele>
        <time>2013-09-26T10:32:54Z</time>
      </trkpt>
      <trkpt lat="44.71141" lon="3.84667">
        <ele>1004</ele>
        <time>2013-09-26T10:32:59Z</time>
      </trkpt>
      <trkpt lat="44.71137" lon="3.84671">
        <ele>1004</ele>
        <time>2013-09-26T10:33:04Z</time>
      </trkpt>
      <trkpt lat="44.71132" lon="3.84673">
        <ele>1005</ele>
        <time>2013-09-26T10:33:08Z</time>
      </trkpt>
      <trkpt lat="44.71128" lon="3.84677">
        <ele>1005</ele>
        <time>2013-09-26T10:33:13Z</time>
      </trkpt>
      <trkpt lat="44.71124" lon="3.84679">
        <ele>1005</ele>
        <time>2013-09-26T10:33:18Z</time>
      </trkpt>
      <trkpt lat="44.71119" lon="3.84681">
        <ele>1005</ele>
        <time>2013-09-26T10:33:24Z</time>
      </trkpt>
      <trkpt lat="44.71114" lon="3.84681">
        <ele>1005</ele>
        <time>2013-09-26T10:33:28Z</time>
      </trkpt>
      <trkpt lat="44.71109" lon="3.84681">
        <ele>1005</ele>
        <time>2013-09-26T10:33:34Z</time>
      </trkpt>
      <trkpt lat="44.71104" lon="3.84682">
        <ele>1005</ele>
        <time>2013-09-26T10:33:38Z</time>
      </trkpt>
      <trkpt lat="44.71099" lon="3.84684">
        <ele>1005</ele>
        <time>2013-09-26T10:33:43Z</time>
      </trkpt>
      <trkpt lat="44.71094" lon="3.84686">
        <ele>1006</ele>
        <time>2013-09-26T10:33:47Z</time>
      </trkpt>
      <trkpt lat="44.71088" lon="3.84686">
        <ele>1006</ele>
        <time>2013-09-26T10:33:51Z</time>
      </trkpt>
      <trkpt lat="44.71083" lon="3.84686">
        <ele>1007</ele>
        <time>2013-09-26T10:33:54Z</time>
      </trkpt>
      <trkpt lat="44.71079" lon="3.84685">
        <ele>1007</ele>
        <time>2013-09-26T10:34:00Z</time>
      </trkpt>
      <trkpt lat="44.71073" lon="3.84685">
        <ele>1007</ele>
        <time>2013-09-26T10:34:04Z</time>
      </trkpt>
      <trkpt lat="44.71067" lon="3.84686">
        <ele>1007</ele>
        <time>2013-09-26T10:34:08Z</time>
      </trkpt>
      <trkpt lat="44.71062" lon="3.84686">
        <ele>1007</ele>
        <time>2013-09-26T10:34:12Z</time>
      </trkpt>
      <trkpt lat="44.71058" lon="3.84688">
        <ele>1007</ele>
        <time>2013-09-26T10:34:15Z</time>
      </trkpt>
      <trkpt lat="44.71052" lon="3.84689">
        <ele>1008</ele>
        <time>2013-09-26T10:34:19Z</time>
      </trkpt>
      <trkpt lat="44.71047" lon="3.8469">
        <ele>1008</ele>
        <time>2013-09-26T10:34:22Z</time>
      </trkpt>
      <trkpt lat="44.71042" lon="3.84691">
        <ele>1008</ele>
        <time>2013-09-26T10:34:25Z</time>
      </trkpt>
      <trkpt lat="44.71038" lon="3.84692">
        <ele>1008</ele>
        <time>2013-09-26T10:34:33Z</time>
      </trkpt>
      <trkpt lat="44.71033" lon="3.84691">
        <ele>1008</ele>
        <time>2013-09-26T10:34:36Z</time>
      </trkpt>
      <trkpt lat="44.71027" lon="3.84692">
        <ele>1008</ele>
        <time>2013-09-26T10:34:39Z</time>
      </trkpt>
      <trkpt lat="44.71021" lon="3.84692">
        <ele>1008</ele>
        <time>2013-09-26T10:34:43Z</time>
      </trkpt>
      <trkpt lat="44.71016" lon="3.84694">
        <ele>1008</ele>
        <time>2013-09-26T10:34:45Z</time>
      </trkpt>
      <trkpt lat="44.71011" lon="3.84694">
        <ele>1008</ele>
        <time>2013-09-26T10:34:49Z</time>
      </trkpt>
      <trkpt lat="44.71006" lon="3.84696">
        <ele>1008</ele>
        <time>2013-09-26T10:34:55Z</time>
      </trkpt>
      <trkpt lat="44.71001" lon="3.84698">
        <ele>1008</ele>
        <time>2013-09-26T10:34:59Z</time>
      </trkpt>
      <trkpt lat="44.70997" lon="3.84698">
        <ele>1009</ele>
        <time>2013-09-26T10:35:06Z</time>
      </trkpt>
      <trkpt lat="44.70991" lon="3.84698">
        <ele>1009</ele>
        <time>2013-09-26T10:35:10Z</time>
      </trkpt>
      <trkpt lat="44.70986" lon="3.84696">
        <ele>1009</ele>
        <time>2013-09-26T10:35:14Z</time>
      </trkpt>
      <trkpt lat="44.70981" lon="3.84694">
        <ele>1009</ele>
        <time>2013-09-26T10:35:17Z</time>
      </trkpt>
      <trkpt lat="44.70976" lon="3.84692">
        <ele>1009</ele>
        <time>2013-09-26T10:35:21Z</time>
      </trkpt>
      <trkpt lat="44.7097" lon="3.84691">
        <ele>1009</ele>
        <time>2013-09-26T10:35:25Z</time>
      </trkpt>
      <trkpt lat="44.70965" lon="3.84691">
        <ele>1009</ele>
        <time>2013-09-26T10:35:29Z</time>
      </trkpt>
      <trkpt lat="44.70959" lon="3.84689">
        <ele>1009</ele>
        <time>2013-09-26T10:35:34Z</time>
      </trkpt>
      <trkpt lat="44.70954" lon="3.84688">
        <ele>1009</ele>
        <time>2013-09-26T10:35:38Z</time>
      </trkpt>
      <trkpt lat="44.7095" lon="3.84686">
        <ele>1009</ele>
        <time>2013-09-26T10:35:41Z</time>
      </trkpt>
      <trkpt lat="44.70944" lon="3.84681">
        <ele>1009</ele>
        <time>2013-09-26T10:35:45Z</time>
      </trkpt>
      <trkpt lat="44.7094" lon="3.84677">
        <ele>1009</ele>
        <time>2013-09-26T10:35:47Z</time>
      </trkpt>
      <trkpt lat="44.70937" lon="3.84673">
        <ele>1009</ele>
        <time>2013-09-26T10:35:50Z</time>
      </trkpt>
      <trkpt lat="44.70934" lon="3.84669">
        <ele>1009</ele>
        <time>2013-09-26T10:35:53Z</time>
      </trkpt>
      <trkpt lat="44.70929" lon="3.84664">
        <ele>1008</ele>
        <time>2013-09-26T10:35:57Z</time>
      </trkpt>
      <trkpt lat="44.70925" lon="3.84658">
        <ele>1008</ele>
        <time>2013-09-26T10:36:01Z</time>
      </trkpt>
      <trkpt lat="44.7092" lon="3.84652">
        <ele>1008</ele>
        <time>2013-09-26T10:36:04Z</time>
      </trkpt>
      <trkpt lat="44.70917" lon="3.84647">
        <ele>1008</ele>
        <time>2013-09-26T10:36:07Z</time>
      </trkpt>
      <trkpt lat="44.70913" lon="3.84642">
        <ele>1012</ele>
        <time>2013-09-26T10:36:11Z</time>
      </trkpt>
      <trkpt lat="44.70908" lon="3.84638">
        <ele>1012</ele>
        <time>2013-09-26T10:36:17Z</time>
      </trkpt>
      <trkpt lat="44.70905" lon="3.84633">
        <ele>1012</ele>
        <time>2013-09-26T10:36:23Z</time>
      </trkpt>
      <trkpt lat="44.70903" lon="3.84626">
        <ele>1013</ele>
        <time>2013-09-26T10:36:28Z</time>
      </trkpt>
      <trkpt lat="44.70902" lon="3.8462">
        <ele>1013</ele>
        <time>2013-09-26T10:36:33Z</time>
      </trkpt>
      <trkpt lat="44.70901" lon="3.84612">
        <ele>1013</ele>
        <time>2013-09-26T10:36:49Z</time>
      </trkpt>
      <trkpt lat="44.70899" lon="3.84606">
        <ele>1013</ele>
        <time>2013-09-26T10:36:53Z</time>
      </trkpt>
      <trkpt lat="44.70898" lon="3.84599">
        <ele>1013</ele>
        <time>2013-09-26T10:37:00Z</time>
      </trkpt>
      <trkpt lat="44.70896" lon="3.84593">
        <ele>1013</ele>
        <time>2013-09-26T10:37:06Z</time>
      </trkpt>
      <trkpt lat="44.70894" lon="3.84586">
        <ele>1013</ele>
        <time>2013-09-26T10:37:15Z</time>
      </trkpt>
      <trkpt lat="44.70893" lon="3.8458">
        <ele>1013</ele>
        <time>2013-09-26T10:37:18Z</time>
      </trkpt>
      <trkpt lat="44.70892" lon="3.84572">
        <ele>1013</ele>
        <time>2013-09-26T10:37:21Z</time>
      </trkpt>
      <trkpt lat="44.70892" lon="3.84566">
        <ele>1013</ele>
        <time>2013-09-26T10:37:24Z</time>
      </trkpt>
      <trkpt lat="44.7089" lon="3.84559">
        <ele>1013</ele>
        <time>2013-09-26T10:37:28Z</time>
      </trkpt>
      <trkpt lat="44.70886" lon="3.84554">
        <ele>1014</ele>
        <time>2013-09-26T10:37:34Z</time>
      </trkpt>
      <trkpt lat="44.70884" lon="3.84548">
        <ele>1014</ele>
        <time>2013-09-26T10:37:38Z</time>
      </trkpt>
      <trkpt lat="44.70881" lon="3.84543">
        <ele>1014</ele>
        <time>2013-09-26T10:37:44Z</time>
      </trkpt>
      <trkpt lat="44.70878" lon="3.84537">
        <ele>1014</ele>
        <time>2013-09-26T10:37:48Z</time>
      </trkpt>
      <trkpt lat="44.70876" lon="3.84531">
        <ele>1014</ele>
        <time>2013-09-26T10:37:53Z</time>
      </trkpt>
      <trkpt lat="44.70874" lon="3.84525">
        <ele>1014</ele>
        <time>2013-09-26T10:37:59Z</time>
      </trkpt>
      <trkpt lat="44.70872" lon="3.84519">
        <ele>1014</ele>
        <time>2013-09-26T10:38:04Z</time>
      </trkpt>
      <trkpt lat="44.70869" lon="3.84514">
        <ele>1014</ele>
        <time>2013-09-26T10:38:10Z</time>
      </trkpt>
      <trkpt lat="44.70866" lon="3.84509">
        <ele>1014</ele>
        <time>2013-09-26T10:38:14Z</time>
      </trkpt>
      <trkpt lat="44.70861" lon="3.84505">
        <ele>1014</ele>
        <time>2013-09-26T10:38:18Z</time>
      </trkpt>
      <trkpt lat="44.70857" lon="3.845">
        <ele>1015</ele>
        <time>2013-09-26T10:38:23Z</time>
      </trkpt>
      <trkpt lat="44.70854" lon="3.84495">
        <ele>1013</ele>
        <time>2013-09-26T10:38:27Z</time>
      </trkpt>
      <trkpt lat="44.70851" lon="3.8449">
        <ele>1013</ele>
        <time>2013-09-26T10:38:38Z</time>
      </trkpt>
      <trkpt lat="44.70846" lon="3.84485">
        <ele>1013</ele>
        <time>2013-09-26T10:38:43Z</time>
      </trkpt>
      <trkpt lat="44.70843" lon="3.84481">
        <ele>1013</ele>
        <time>2013-09-26T10:38:47Z</time>
      </trkpt>
      <trkpt lat="44.70839" lon="3.84476">
        <ele>1013</ele>
        <time>2013-09-26T10:38:56Z</time>
      </trkpt>
      <trkpt lat="44.70836" lon="3.8447">
        <ele>1012</ele>
        <time>2013-09-26T10:39:06Z</time>
      </trkpt>
      <trkpt lat="44.70832" lon="3.84464">
        <ele>1013</ele>
        <time>2013-09-26T10:39:10Z</time>
      </trkpt>
      <trkpt lat="44.70829" lon="3.84457">
        <ele>1013</ele>
        <time>2013-09-26T10:39:15Z</time>
      </trkpt>
      <trkpt lat="44.70825" lon="3.84453">
        <ele>1012</ele>
        <time>2013-09-26T10:39:18Z</time>
      </trkpt>
      <trkpt lat="44.70822" lon="3.84447">
        <ele>1012</ele>
        <time>2013-09-26T10:39:21Z</time>
      </trkpt>
      <trkpt lat="44.70817" lon="3.84443">
        <ele>1012</ele>
        <time>2013-09-26T10:39:24Z</time>
      </trkpt>
      <trkpt lat="44.70813" lon="3.84438">
        <ele>1011</ele>
        <time>2013-09-26T10:39:28Z</time>
      </trkpt>
      <trkpt lat="44.70811" lon="3.8443">
        <ele>1011</ele>
        <time>2013-09-26T10:39:33Z</time>
      </trkpt>
      <trkpt lat="44.70808" lon="3.84425">
        <ele>1011</ele>
        <time>2013-09-26T10:39:37Z</time>
      </trkpt>
      <trkpt lat="44.70807" lon="3.84419">
        <ele>1011</ele>
        <time>2013-09-26T10:39:43Z</time>
      </trkpt>
      <trkpt lat="44.70808" lon="3.84413">
        <ele>1007</ele>
        <time>2013-09-26T10:39:48Z</time>
      </trkpt>
      <trkpt lat="44.7081" lon="3.84406">
        <ele>1006</ele>
        <time>2013-09-26T10:39:52Z</time>
      </trkpt>
      <trkpt lat="44.70814" lon="3.84402">
        <ele>1006</ele>
        <time>2013-09-26T10:39:58Z</time>
      </trkpt>
      <trkpt lat="44.70818" lon="3.84397">
        <ele>1006</ele>
        <time>2013-09-26T10:40:09Z</time>
      </trkpt>
      <trkpt lat="44.70822" lon="3.84393">
        <ele>1006</ele>
        <time>2013-09-26T10:40:13Z</time>
      </trkpt>
      <trkpt lat="44.70827" lon="3.84389">
        <ele>1006</ele>
        <time>2013-09-26T10:40:19Z</time>
      </trkpt>
      <trkpt lat="44.70833" lon="3.84387">
        <ele>1005</ele>
        <time>2013-09-26T10:40:23Z</time>
      </trkpt>
      <trkpt lat="44.70836" lon="3.84382">
        <ele>1005</ele>
        <time>2013-09-26T10:40:32Z</time>
      </trkpt>
      <trkpt lat="44.70838" lon="3.84376">
        <ele>1005</ele>
        <time>2013-09-26T10:40:37Z</time>
      </trkpt>
      <trkpt lat="44.70841" lon="3.8437">
        <ele>1005</ele>
        <time>2013-09-26T10:40:44Z</time>
      </trkpt>
      <trkpt lat="44.70841" lon="3.84364">
        <ele>1004</ele>
        <time>2013-09-26T10:40:52Z</time>
      </trkpt>
      <trkpt lat="44.70843" lon="3.84356">
        <ele>1003</ele>
        <time>2013-09-26T10:40:57Z</time>
      </trkpt>
      <trkpt lat="44.70845" lon="3.8435">
        <ele>1003</ele>
        <time>2013-09-26T10:41:02Z</time>
      </trkpt>
      <trkpt lat="44.70843" lon="3.84344">
        <ele>1002</ele>
        <time>2013-09-26T10:41:06Z</time>
      </trkpt>
      <trkpt lat="44.70841" lon="3.84337">
        <ele>1001</ele>
        <time>2013-09-26T10:41:11Z</time>
      </trkpt>
      <trkpt lat="44.70841" lon="3.84331">
        <ele>998</ele>
        <time>2013-09-26T10:41:23Z</time>
      </trkpt>
      <trkpt lat="44.70839" lon="3.84325">
        <ele>998</ele>
        <time>2013-09-26T10:42:46Z</time>
      </trkpt>
      <trkpt lat="44.70838" lon="3.84332">
        <ele>998</ele>
        <time>2013-09-26T10:44:23Z</time>
      </trkpt>
      <trkpt lat="44.70841" lon="3.84337">
        <ele>1001</ele>
        <time>2013-09-26T10:44:56Z</time>
      </trkpt>
      <trkpt lat="44.70845" lon="3.84344">
        <ele>1002</ele>
        <time>2013-09-26T10:45:15Z</time>
      </trkpt>
      <trkpt lat="44.70846" lon="3.84352">
        <ele>1003</ele>
        <time>2013-09-26T10:45:35Z</time>
      </trkpt>
      <trkpt lat="44.70847" lon="3.84359">
        <ele>1004</ele>
        <time>2013-09-26T10:45:38Z</time>
      </trkpt>
      <trkpt lat="44.70846" lon="3.84367">
        <ele>1004</ele>
        <time>2013-09-26T10:45:47Z</time>
      </trkpt>
      <trkpt lat="44.70843" lon="3.84374">
        <ele>1005</ele>
        <time>2013-09-26T10:45:52Z</time>
      </trkpt>
      <trkpt lat="44.70841" lon="3.84381">
        <ele>1005</ele>
        <time>2013-09-26T10:46:10Z</time>
      </trkpt>
      <trkpt lat="44.70836" lon="3.84386">
        <ele>1006</ele>
        <time>2013-09-26T10:46:19Z</time>
      </trkpt>
      <trkpt lat="44.70831" lon="3.84388">
        <ele>1006</ele>
        <time>2013-09-26T10:46:22Z</time>
      </trkpt>
      <trkpt lat="44.70826" lon="3.84391">
        <ele>1006</ele>
        <time>2013-09-26T10:46:26Z</time>
      </trkpt>
      <trkpt lat="44.70822" lon="3.84395">
        <ele>1006</ele>
        <time>2013-09-26T10:46:32Z</time>
      </trkpt>
      <trkpt lat="44.70818" lon="3.84396">
        <ele>1006</ele>
        <time>2013-09-26T10:47:30Z</time>
      </trkpt>
      <trkpt lat="44.70819" lon="3.84404">
        <ele>1006</ele>
        <time>2013-09-26T10:47:51Z</time>
      </trkpt>
      <trkpt lat="44.70822" lon="3.84409">
        <ele>1007</ele>
        <time>2013-09-26T10:48:00Z</time>
      </trkpt>
      <trkpt lat="44.70824" lon="3.84415">
        <ele>1007</ele>
        <time>2013-09-26T10:48:02Z</time>
      </trkpt>
      <trkpt lat="44.70826" lon="3.84421">
        <ele>1009</ele>
        <time>2013-09-26T10:48:06Z</time>
      </trkpt>
      <trkpt lat="44.70827" lon="3.84427">
        <ele>1010</ele>
        <time>2013-09-26T10:48:10Z</time>
      </trkpt>
      <trkpt lat="44.70823" lon="3.84421">
        <ele>1009</ele>
        <time>2013-09-26T10:48:17Z</time>
      </trkpt>
      <trkpt lat="44.70817" lon="3.84418">
        <ele>1010</ele>
        <time>2013-09-26T10:48:20Z</time>
      </trkpt>
      <trkpt lat="44.70817" lon="3.84425">
        <ele>1010</ele>
        <time>2013-09-26T10:48:39Z</time>
      </trkpt>
      <trkpt lat="44.70819" lon="3.84432">
        <ele>1011</ele>
        <time>2013-09-26T10:48:48Z</time>
      </trkpt>
      <trkpt lat="44.70821" lon="3.84439">
        <ele>1011</ele>
        <time>2013-09-26T10:48:51Z</time>
      </trkpt>
      <trkpt lat="44.7082" lon="3.84447">
        <ele>1012</ele>
        <time>2013-09-26T10:48:55Z</time>
      </trkpt>
      <trkpt lat="44.70817" lon="3.84452">
        <ele>1012</ele>
        <time>2013-09-26T10:48:59Z</time>
      </trkpt>
      <trkpt lat="44.70813" lon="3.84457">
        <ele>1013</ele>
        <time>2013-09-26T10:49:03Z</time>
      </trkpt>
      <trkpt lat="44.7081" lon="3.84463">
        <ele>1013</ele>
        <time>2013-09-26T10:49:07Z</time>
      </trkpt>
      <trkpt lat="44.70807" lon="3.84469">
        <ele>1013</ele>
        <time>2013-09-26T10:49:11Z</time>
      </trkpt>
      <trkpt lat="44.70803" lon="3.84474">
        <ele>1014</ele>
        <time>2013-09-26T10:49:15Z</time>
      </trkpt>
      <trkpt lat="44.708" lon="3.84479">
        <ele>1014</ele>
        <time>2013-09-26T10:49:19Z</time>
      </trkpt>
      <trkpt lat="44.70796" lon="3.84484">
        <ele>1014</ele>
        <time>2013-09-26T10:49:23Z</time>
      </trkpt>
      <trkpt lat="44.70793" lon="3.8449">
        <ele>1014</ele>
        <time>2013-09-26T10:49:27Z</time>
      </trkpt>
      <trkpt lat="44.70789" lon="3.84493">
        <ele>1015</ele>
        <time>2013-09-26T10:49:31Z</time>
      </trkpt>
      <trkpt lat="44.70784" lon="3.84497">
        <ele>1015</ele>
        <time>2013-09-26T10:49:35Z</time>
      </trkpt>
      <trkpt lat="44.70781" lon="3.84501">
        <ele>1018</ele>
        <time>2013-09-26T10:49:39Z</time>
      </trkpt>
      <trkpt lat="44.70777" lon="3.84506">
        <ele>1018</ele>
        <time>2013-09-26T10:49:44Z</time>
      </trkpt>
      <trkpt lat="44.70774" lon="3.84511">
        <ele>1019</ele>
        <time>2013-09-26T10:49:54Z</time>
      </trkpt>
      <trkpt lat="44.7077" lon="3.84516">
        <ele>1019</ele>
        <time>2013-09-26T10:50:02Z</time>
      </trkpt>
      <trkpt lat="44.70766" lon="3.84521">
        <ele>1019</ele>
        <time>2013-09-26T10:50:09Z</time>
      </trkpt>
      <trkpt lat="44.70762" lon="3.84525">
        <ele>1019</ele>
        <time>2013-09-26T10:50:13Z</time>
      </trkpt>
      <trkpt lat="44.70758" lon="3.84531">
        <ele>1019</ele>
        <time>2013-09-26T10:50:18Z</time>
      </trkpt>
      <trkpt lat="44.70755" lon="3.84535">
        <ele>1019</ele>
        <time>2013-09-26T10:50:23Z</time>
      </trkpt>
      <trkpt lat="44.70752" lon="3.8454">
        <ele>1020</ele>
        <time>2013-09-26T10:50:31Z</time>
      </trkpt>
      <trkpt lat="44.7075" lon="3.84546">
        <ele>1023</ele>
        <time>2013-09-26T10:50:35Z</time>
      </trkpt>
      <trkpt lat="44.70747" lon="3.84552">
        <ele>1023</ele>
        <time>2013-09-26T10:50:49Z</time>
      </trkpt>
      <trkpt lat="44.70743" lon="3.84556">
        <ele>1023</ele>
        <time>2013-09-26T10:50:55Z</time>
      </trkpt>
      <trkpt lat="44.70739" lon="3.8456">
        <ele>1023</ele>
        <time>2013-09-26T10:50:59Z</time>
      </trkpt>
      <trkpt lat="44.70734" lon="3.84564">
        <ele>1023</ele>
        <time>2013-09-26T10:51:04Z</time>
      </trkpt>
      <trkpt lat="44.7073" lon="3.84567">
        <ele>1023</ele>
        <time>2013-09-26T10:51:08Z</time>
      </trkpt>
      <trkpt lat="44.70725" lon="3.84569">
        <ele>1024</ele>
        <time>2013-09-26T10:51:12Z</time>
      </trkpt>
      <trkpt lat="44.7072" lon="3.84568">
        <ele>1024</ele>
        <time>2013-09-26T10:51:21Z</time>
      </trkpt>
      <trkpt lat="44.70715" lon="3.84569">
        <ele>1024</ele>
        <time>2013-09-26T10:51:25Z</time>
      </trkpt>
      <trkpt lat="44.7071" lon="3.84569">
        <ele>1024</ele>
        <time>2013-09-26T10:51:31Z</time>
      </trkpt>
      <trkpt lat="44.70706" lon="3.84573">
        <ele>1024</ele>
        <time>2013-09-26T10:51:35Z</time>
      </trkpt>
      <trkpt lat="44.70702" lon="3.84578">
        <ele>1025</ele>
        <time>2013-09-26T10:51:38Z</time>
      </trkpt>
      <trkpt lat="44.70698" lon="3.84582">
        <ele>1025</ele>
        <time>2013-09-26T10:51:43Z</time>
      </trkpt>
      <trkpt lat="44.70694" lon="3.84585">
        <ele>1027</ele>
        <time>2013-09-26T10:51:46Z</time>
      </trkpt>
      <trkpt lat="44.7069" lon="3.84588">
        <ele>1027</ele>
        <time>2013-09-26T10:51:49Z</time>
      </trkpt>
      <trkpt lat="44.70685" lon="3.84592">
        <ele>1027</ele>
        <time>2013-09-26T10:51:53Z</time>
      </trkpt>
      <trkpt lat="44.7068" lon="3.84596">
        <ele>1027</ele>
        <time>2013-09-26T10:51:57Z</time>
      </trkpt>
      <trkpt lat="44.70676" lon="3.84599">
        <ele>1027</ele>
        <time>2013-09-26T10:52:02Z</time>
      </trkpt>
      <trkpt lat="44.70672" lon="3.84599">
        <ele>1027</ele>
        <time>2013-09-26T10:52:05Z</time>
      </trkpt>
      <trkpt lat="44.70667" lon="3.84598">
        <ele>1027</ele>
        <time>2013-09-26T10:52:08Z</time>
      </trkpt>
      <trkpt lat="44.70662" lon="3.84597">
        <ele>1027</ele>
        <time>2013-09-26T10:52:11Z</time>
      </trkpt>
      <trkpt lat="44.70657" lon="3.84595">
        <ele>1027</ele>
        <time>2013-09-26T10:52:14Z</time>
      </trkpt>
      <trkpt lat="44.70652" lon="3.84593">
        <ele>1027</ele>
        <time>2013-09-26T10:52:17Z</time>
      </trkpt>
      <trkpt lat="44.70648" lon="3.84589">
        <ele>1026</ele>
        <time>2013-09-26T10:52:20Z</time>
      </trkpt>
      <trkpt lat="44.70644" lon="3.84585">
        <ele>1026</ele>
        <time>2013-09-26T10:52:24Z</time>
      </trkpt>
      <trkpt lat="44.70639" lon="3.84581">
        <ele>1025</ele>
        <time>2013-09-26T10:52:28Z</time>
      </trkpt>
      <trkpt lat="44.70636" lon="3.84577">
        <ele>1025</ele>
        <time>2013-09-26T10:52:32Z</time>
      </trkpt>
      <trkpt lat="44.70633" lon="3.84571">
        <ele>1024</ele>
        <time>2013-09-26T10:52:37Z</time>
      </trkpt>
      <trkpt lat="44.7063" lon="3.84566">
        <ele>1024</ele>
        <time>2013-09-26T10:52:41Z</time>
      </trkpt>
      <trkpt lat="44.70627" lon="3.8456">
        <ele>1024</ele>
        <time>2013-09-26T10:52:46Z</time>
      </trkpt>
      <trkpt lat="44.70625" lon="3.84555">
        <ele>1024</ele>
        <time>2013-09-26T10:52:51Z</time>
      </trkpt>
      <trkpt lat="44.70621" lon="3.84552">
        <ele>1024</ele>
        <time>2013-09-26T10:52:57Z</time>
      </trkpt>
      <trkpt lat="44.70616" lon="3.84554">
        <ele>1023</ele>
        <time>2013-09-26T10:53:01Z</time>
      </trkpt>
      <trkpt lat="44.70611" lon="3.84557">
        <ele>1023</ele>
        <time>2013-09-26T10:53:05Z</time>
      </trkpt>
      <trkpt lat="44.70606" lon="3.84559">
        <ele>1023</ele>
        <time>2013-09-26T10:53:09Z</time>
      </trkpt>
      <trkpt lat="44.70601" lon="3.84562">
        <ele>1023</ele>
        <time>2013-09-26T10:53:13Z</time>
      </trkpt>
      <trkpt lat="44.70597" lon="3.84565">
        <ele>1022</ele>
        <time>2013-09-26T10:53:17Z</time>
      </trkpt>
      <trkpt lat="44.70593" lon="3.84568">
        <ele>1022</ele>
        <time>2013-09-26T10:53:21Z</time>
      </trkpt>
      <trkpt lat="44.70588" lon="3.84571">
        <ele>1022</ele>
        <time>2013-09-26T10:53:26Z</time>
      </trkpt>
      <trkpt lat="44.70583" lon="3.84573">
        <ele>1019</ele>
        <time>2013-09-26T10:53:32Z</time>
      </trkpt>
      <trkpt lat="44.70579" lon="3.84575">
        <ele>1019</ele>
        <time>2013-09-26T10:53:39Z</time>
      </trkpt>
      <trkpt lat="44.70574" lon="3.84577">
        <ele>1019</ele>
        <time>2013-09-26T10:53:46Z</time>
      </trkpt>
      <trkpt lat="44.7057" lon="3.84581">
        <ele>1019</ele>
        <time>2013-09-26T10:53:51Z</time>
      </trkpt>
      <trkpt lat="44.70565" lon="3.84582">
        <ele>1019</ele>
        <time>2013-09-26T10:53:57Z</time>
      </trkpt>
      <trkpt lat="44.70561" lon="3.84585">
        <ele>1021</ele>
        <time>2013-09-26T10:54:04Z</time>
      </trkpt>
      <trkpt lat="44.70556" lon="3.84587">
        <ele>1021</ele>
        <time>2013-09-26T10:54:09Z</time>
      </trkpt>
      <trkpt lat="44.70551" lon="3.84591">
        <ele>1021</ele>
        <time>2013-09-26T10:54:14Z</time>
      </trkpt>
      <trkpt lat="44.70547" lon="3.84596">
        <ele>1021</ele>
        <time>2013-09-26T10:54:20Z</time>
      </trkpt>
      <trkpt lat="44.70544" lon="3.84601">
        <ele>1021</ele>
        <time>2013-09-26T10:54:30Z</time>
      </trkpt>
      <trkpt lat="44.70541" lon="3.84606">
        <ele>1021</ele>
        <time>2013-09-26T10:54:35Z</time>
      </trkpt>
      <trkpt lat="44.70538" lon="3.84612">
        <ele>1021</ele>
        <time>2013-09-26T10:54:40Z</time>
      </trkpt>
      <trkpt lat="44.70535" lon="3.84617">
        <ele>1022</ele>
        <time>2013-09-26T10:54:44Z</time>
      </trkpt>
      <trkpt lat="44.70532" lon="3.84622">
        <ele>1022</ele>
        <time>2013-09-26T10:54:48Z</time>
      </trkpt>
      <trkpt lat="44.70529" lon="3.84627">
        <ele>1022</ele>
        <time>2013-09-26T10:54:52Z</time>
      </trkpt>
      <trkpt lat="44.70526" lon="3.84632">
        <ele>1022</ele>
        <time>2013-09-26T10:54:56Z</time>
      </trkpt>
      <trkpt lat="44.70524" lon="3.84638">
        <ele>1022</ele>
        <time>2013-09-26T10:55:00Z</time>
      </trkpt>
      <trkpt lat="44.7052" lon="3.84643">
        <ele>1023</ele>
        <time>2013-09-26T10:55:04Z</time>
      </trkpt>
      <trkpt lat="44.70517" lon="3.84647">
        <ele>1023</ele>
        <time>2013-09-26T10:55:08Z</time>
      </trkpt>
      <trkpt lat="44.70514" lon="3.84653">
        <ele>1023</ele>
        <time>2013-09-26T10:55:12Z</time>
      </trkpt>
      <trkpt lat="44.70511" lon="3.84658">
        <ele>1024</ele>
        <time>2013-09-26T10:55:17Z</time>
      </trkpt>
      <trkpt lat="44.70507" lon="3.84664">
        <ele>1024</ele>
        <time>2013-09-26T10:55:22Z</time>
      </trkpt>
      <trkpt lat="44.70505" lon="3.8467">
        <ele>1025</ele>
        <time>2013-09-26T10:55:26Z</time>
      </trkpt>
      <trkpt lat="44.70501" lon="3.84674">
        <ele>1025</ele>
        <time>2013-09-26T10:55:30Z</time>
      </trkpt>
      <trkpt lat="44.70499" lon="3.84679">
        <ele>1023</ele>
        <time>2013-09-26T10:55:34Z</time>
      </trkpt>
      <trkpt lat="44.70496" lon="3.84685">
        <ele>1023</ele>
        <time>2013-09-26T10:55:38Z</time>
      </trkpt>
      <trkpt lat="44.70495" lon="3.84691">
        <ele>1022</ele>
        <time>2013-09-26T10:55:41Z</time>
      </trkpt>
      <trkpt lat="44.70493" lon="3.84699">
        <ele>1022</ele>
        <time>2013-09-26T10:55:45Z</time>
      </trkpt>
      <trkpt lat="44.7049" lon="3.84704">
        <ele>1022</ele>
        <time>2013-09-26T10:55:49Z</time>
      </trkpt>
      <trkpt lat="44.70487" lon="3.84711">
        <ele>1022</ele>
        <time>2013-09-26T10:55:53Z</time>
      </trkpt>
      <trkpt lat="44.70485" lon="3.84717">
        <ele>1022</ele>
        <time>2013-09-26T10:55:57Z</time>
      </trkpt>
      <trkpt lat="44.70483" lon="3.84723">
        <ele>1022</ele>
        <time>2013-09-26T10:56:01Z</time>
      </trkpt>
      <trkpt lat="44.70481" lon="3.8473">
        <ele>1022</ele>
        <time>2013-09-26T10:56:06Z</time>
      </trkpt>
      <trkpt lat="44.70478" lon="3.84736">
        <ele>1022</ele>
        <time>2013-09-26T10:56:10Z</time>
      </trkpt>
      <trkpt lat="44.70474" lon="3.84741">
        <ele>1021</ele>
        <time>2013-09-26T10:56:14Z</time>
      </trkpt>
      <trkpt lat="44.70472" lon="3.84748">
        <ele>1021</ele>
        <time>2013-09-26T10:56:19Z</time>
      </trkpt>
      <trkpt lat="44.70469" lon="3.84753">
        <ele>1021</ele>
        <time>2013-09-26T10:56:23Z</time>
      </trkpt>
      <trkpt lat="44.70466" lon="3.84758">
        <ele>1020</ele>
        <time>2013-09-26T10:56:28Z</time>
      </trkpt>
      <trkpt lat="44.70461" lon="3.84762">
        <ele>1020</ele>
        <time>2013-09-26T10:56:33Z</time>
      </trkpt>
      <trkpt lat="44.70458" lon="3.84767">
        <ele>1020</ele>
        <time>2013-09-26T10:56:38Z</time>
      </trkpt>
      <trkpt lat="44.70458" lon="3.84774">
        <ele>1020</ele>
        <time>2013-09-26T10:56:42Z</time>
      </trkpt>
      <trkpt lat="44.70458" lon="3.84781">
        <ele>1020</ele>
        <time>2013-09-26T10:56:47Z</time>
      </trkpt>
      <trkpt lat="44.70454" lon="3.84785">
        <ele>1020</ele>
        <time>2013-09-26T10:57:02Z</time>
      </trkpt>
      <trkpt lat="44.70449" lon="3.84786">
        <ele>1020</ele>
        <time>2013-09-26T10:57:06Z</time>
      </trkpt>
      <trkpt lat="44.70443" lon="3.84788">
        <ele>1020</ele>
        <time>2013-09-26T10:57:10Z</time>
      </trkpt>
      <trkpt lat="44.70438" lon="3.84788">
        <ele>1020</ele>
        <time>2013-09-26T10:57:13Z</time>
      </trkpt>
      <trkpt lat="44.70432" lon="3.8479">
        <ele>1020</ele>
        <time>2013-09-26T10:57:17Z</time>
      </trkpt>
      <trkpt lat="44.70427" lon="3.84791">
        <ele>1020</ele>
        <time>2013-09-26T10:57:20Z</time>
      </trkpt>
      <trkpt lat="44.70422" lon="3.84792">
        <ele>1020</ele>
        <time>2013-09-26T10:57:23Z</time>
      </trkpt>
      <trkpt lat="44.70418" lon="3.84794">
        <ele>1020</ele>
        <time>2013-09-26T10:57:26Z</time>
      </trkpt>
      <trkpt lat="44.70413" lon="3.84795">
        <ele>1019</ele>
        <time>2013-09-26T10:57:29Z</time>
      </trkpt>
      <trkpt lat="44.70408" lon="3.84797">
        <ele>1019</ele>
        <time>2013-09-26T10:57:33Z</time>
      </trkpt>
      <trkpt lat="44.70403" lon="3.84799">
        <ele>1019</ele>
        <time>2013-09-26T10:57:36Z</time>
      </trkpt>
      <trkpt lat="44.70398" lon="3.84801">
        <ele>1019</ele>
        <time>2013-09-26T10:57:39Z</time>
      </trkpt>
      <trkpt lat="44.70394" lon="3.84804">
        <ele>1019</ele>
        <time>2013-09-26T10:57:42Z</time>
      </trkpt>
      <trkpt lat="44.7039" lon="3.84808">
        <ele>1019</ele>
        <time>2013-09-26T10:57:45Z</time>
      </trkpt>
      <trkpt lat="44.70385" lon="3.84813">
        <ele>1019</ele>
        <time>2013-09-26T10:57:49Z</time>
      </trkpt>
      <trkpt lat="44.7038" lon="3.84816">
        <ele>1019</ele>
        <time>2013-09-26T10:57:52Z</time>
      </trkpt>
      <trkpt lat="44.70375" lon="3.84819">
        <ele>1019</ele>
        <time>2013-09-26T10:57:56Z</time>
      </trkpt>
      <trkpt lat="44.70371" lon="3.8482">
        <ele>1018</ele>
        <time>2013-09-26T10:57:59Z</time>
      </trkpt>
      <trkpt lat="44.70366" lon="3.84822">
        <ele>1018</ele>
        <time>2013-09-26T10:58:03Z</time>
      </trkpt>
      <trkpt lat="44.70361" lon="3.84825">
        <ele>1018</ele>
        <time>2013-09-26T10:58:07Z</time>
      </trkpt>
      <trkpt lat="44.70356" lon="3.84825">
        <ele>1018</ele>
        <time>2013-09-26T10:58:11Z</time>
      </trkpt>
      <trkpt lat="44.70351" lon="3.84827">
        <ele>1018</ele>
        <time>2013-09-26T10:58:17Z</time>
      </trkpt>
      <trkpt lat="44.70346" lon="3.84828">
        <ele>1018</ele>
        <time>2013-09-26T10:58:21Z</time>
      </trkpt>
      <trkpt lat="44.70341" lon="3.84828">
        <ele>1018</ele>
        <time>2013-09-26T10:58:25Z</time>
      </trkpt>
      <trkpt lat="44.70336" lon="3.84828">
        <ele>1017</ele>
        <time>2013-09-26T10:58:29Z</time>
      </trkpt>
      <trkpt lat="44.70331" lon="3.84825">
        <ele>1017</ele>
        <time>2013-09-26T10:58:33Z</time>
      </trkpt>
      <trkpt lat="44.70326" lon="3.84825">
        <ele>1017</ele>
        <time>2013-09-26T10:58:38Z</time>
      </trkpt>
      <trkpt lat="44.70321" lon="3.84823">
        <ele>1018</ele>
        <time>2013-09-26T10:58:42Z</time>
      </trkpt>
      <trkpt lat="44.70316" lon="3.84822">
        <ele>1018</ele>
        <time>2013-09-26T10:58:46Z</time>
      </trkpt>
      <trkpt lat="44.7031" lon="3.84823">
        <ele>1018</ele>
        <time>2013-09-26T10:58:50Z</time>
      </trkpt>
      <trkpt lat="44.70304" lon="3.84823">
        <ele>1018</ele>
        <time>2013-09-26T10:58:54Z</time>
      </trkpt>
      <trkpt lat="44.70299" lon="3.84825">
        <ele>1018</ele>
        <time>2013-09-26T10:58:58Z</time>
      </trkpt>
      <trkpt lat="44.70294" lon="3.84828">
        <ele>1018</ele>
        <time>2013-09-26T10:59:02Z</time>
      </trkpt>
      <trkpt lat="44.70289" lon="3.84827">
        <ele>1018</ele>
        <time>2013-09-26T10:59:07Z</time>
      </trkpt>
      <trkpt lat="44.70284" lon="3.84826">
        <ele>1018</ele>
        <time>2013-09-26T10:59:11Z</time>
      </trkpt>
      <trkpt lat="44.70279" lon="3.84826">
        <ele>1018</ele>
        <time>2013-09-26T10:59:15Z</time>
      </trkpt>
      <trkpt lat="44.70274" lon="3.84826">
        <ele>1018</ele>
        <time>2013-09-26T10:59:19Z</time>
      </trkpt>
      <trkpt lat="44.70268" lon="3.84827">
        <ele>1018</ele>
        <time>2013-09-26T10:59:23Z</time>
      </trkpt>
      <trkpt lat="44.70263" lon="3.84827">
        <ele>1019</ele>
        <time>2013-09-26T10:59:27Z</time>
      </trkpt>
      <trkpt lat="44.70259" lon="3.84827">
        <ele>1019</ele>
        <time>2013-09-26T10:59:31Z</time>
      </trkpt>
      <trkpt lat="44.70254" lon="3.84826">
        <ele>1019</ele>
        <time>2013-09-26T10:59:35Z</time>
      </trkpt>
      <trkpt lat="44.70249" lon="3.84826">
        <ele>1020</ele>
        <time>2013-09-26T10:59:39Z</time>
      </trkpt>
      <trkpt lat="44.70245" lon="3.84826">
        <ele>1020</ele>
        <time>2013-09-26T10:59:44Z</time>
      </trkpt>
      <trkpt lat="44.7024" lon="3.84826">
        <ele>1020</ele>
        <time>2013-09-26T10:59:49Z</time>
      </trkpt>
      <trkpt lat="44.70235" lon="3.84826">
        <ele>1020</ele>
        <time>2013-09-26T10:59:53Z</time>
      </trkpt>
      <trkpt lat="44.7023" lon="3.84825">
        <ele>1020</ele>
        <time>2013-09-26T10:59:58Z</time>
      </trkpt>
      <trkpt lat="44.70225" lon="3.84826">
        <ele>1020</ele>
        <time>2013-09-26T11:00:02Z</time>
      </trkpt>
      <trkpt lat="44.7022" lon="3.84826">
        <ele>1021</ele>
        <time>2013-09-26T11:00:07Z</time>
      </trkpt>
      <trkpt lat="44.70215" lon="3.84827">
        <ele>1021</ele>
        <time>2013-09-26T11:00:11Z</time>
      </trkpt>
      <trkpt lat="44.7021" lon="3.84827">
        <ele>1021</ele>
        <time>2013-09-26T11:00:16Z</time>
      </trkpt>
      <trkpt lat="44.70205" lon="3.84826">
        <ele>1021</ele>
        <time>2013-09-26T11:00:20Z</time>
      </trkpt>
      <trkpt lat="44.70199" lon="3.84827">
        <ele>1022</ele>
        <time>2013-09-26T11:00:24Z</time>
      </trkpt>
      <trkpt lat="44.70194" lon="3.84829">
        <ele>1022</ele>
        <time>2013-09-26T11:00:28Z</time>
      </trkpt>
      <trkpt lat="44.70189" lon="3.84831">
        <ele>1022</ele>
        <time>2013-09-26T11:00:32Z</time>
      </trkpt>
      <trkpt lat="44.70183" lon="3.84832">
        <ele>1023</ele>
        <time>2013-09-26T11:00:36Z</time>
      </trkpt>
      <trkpt lat="44.70178" lon="3.84836">
        <ele>1023</ele>
        <time>2013-09-26T11:00:41Z</time>
      </trkpt>
      <trkpt lat="44.70173" lon="3.84837">
        <ele>1023</ele>
        <time>2013-09-26T11:00:46Z</time>
      </trkpt>
      <trkpt lat="44.70168" lon="3.84838">
        <ele>1023</ele>
        <time>2013-09-26T11:00:50Z</time>
      </trkpt>
      <trkpt lat="44.70163" lon="3.84838">
        <ele>1024</ele>
        <time>2013-09-26T11:00:54Z</time>
      </trkpt>
      <trkpt lat="44.70159" lon="3.84836">
        <ele>1024</ele>
        <time>2013-09-26T11:00:59Z</time>
      </trkpt>
      <trkpt lat="44.70154" lon="3.84837">
        <ele>1024</ele>
        <time>2013-09-26T11:01:04Z</time>
      </trkpt>
      <trkpt lat="44.70149" lon="3.84836">
        <ele>1023</ele>
        <time>2013-09-26T11:01:08Z</time>
      </trkpt>
      <trkpt lat="44.70144" lon="3.84837">
        <ele>1023</ele>
        <time>2013-09-26T11:01:13Z</time>
      </trkpt>
      <trkpt lat="44.70139" lon="3.84837">
        <ele>1023</ele>
        <time>2013-09-26T11:01:18Z</time>
      </trkpt>
      <trkpt lat="44.70134" lon="3.84836">
        <ele>1023</ele>
        <time>2013-09-26T11:01:22Z</time>
      </trkpt>
      <trkpt lat="44.70129" lon="3.84836">
        <ele>1023</ele>
        <time>2013-09-26T11:01:26Z</time>
      </trkpt>
      <trkpt lat="44.70124" lon="3.84837">
        <ele>1023</ele>
        <time>2013-09-26T11:01:30Z</time>
      </trkpt>
      <trkpt lat="44.70119" lon="3.84836">
        <ele>1023</ele>
        <time>2013-09-26T11:01:34Z</time>
      </trkpt>
      <trkpt lat="44.70114" lon="3.84836">
        <ele>1023</ele>
        <time>2013-09-26T11:01:40Z</time>
      </trkpt>
      <trkpt lat="44.70109" lon="3.84834">
        <ele>1023</ele>
        <time>2013-09-26T11:01:45Z</time>
      </trkpt>
      <trkpt lat="44.70104" lon="3.84834">
        <ele>1023</ele>
        <time>2013-09-26T11:01:50Z</time>
      </trkpt>
      <trkpt lat="44.70099" lon="3.84833">
        <ele>1022</ele>
        <time>2013-09-26T11:01:53Z</time>
      </trkpt>
      <trkpt lat="44.70092" lon="3.84831">
        <ele>1022</ele>
        <time>2013-09-26T11:01:57Z</time>
      </trkpt>
      <trkpt lat="44.70088" lon="3.84831">
        <ele>1022</ele>
        <time>2013-09-26T11:02:00Z</time>
      </trkpt>
      <trkpt lat="44.70083" lon="3.84828">
        <ele>1022</ele>
        <time>2013-09-26T11:02:03Z</time>
      </trkpt>
      <trkpt lat="44.70078" lon="3.84827">
        <ele>1022</ele>
        <time>2013-09-26T11:02:07Z</time>
      </trkpt>
      <trkpt lat="44.70073" lon="3.84825">
        <ele>1022</ele>
        <time>2013-09-26T11:02:10Z</time>
      </trkpt>
      <trkpt lat="44.70068" lon="3.84824">
        <ele>1022</ele>
        <time>2013-09-26T11:02:13Z</time>
      </trkpt>
      <trkpt lat="44.70062" lon="3.84824">
        <ele>1022</ele>
        <time>2013-09-26T11:02:17Z</time>
      </trkpt>
      <trkpt lat="44.70057" lon="3.84824">
        <ele>1022</ele>
        <time>2013-09-26T11:02:21Z</time>
      </trkpt>
      <trkpt lat="44.70051" lon="3.84825">
        <ele>1022</ele>
        <time>2013-09-26T11:02:25Z</time>
      </trkpt>
      <trkpt lat="44.70046" lon="3.84825">
        <ele>1022</ele>
        <time>2013-09-26T11:02:29Z</time>
      </trkpt>
      <trkpt lat="44.70041" lon="3.84824">
        <ele>1022</ele>
        <time>2013-09-26T11:02:33Z</time>
      </trkpt>
      <trkpt lat="44.70036" lon="3.84824">
        <ele>1022</ele>
        <time>2013-09-26T11:02:36Z</time>
      </trkpt>
      <trkpt lat="44.70031" lon="3.84824">
        <ele>1022</ele>
        <time>2013-09-26T11:02:39Z</time>
      </trkpt>
      <trkpt lat="44.70026" lon="3.84823">
        <ele>1022</ele>
        <time>2013-09-26T11:02:43Z</time>
      </trkpt>
      <trkpt lat="44.7002" lon="3.84824">
        <ele>1022</ele>
        <time>2013-09-26T11:02:47Z</time>
      </trkpt>
      <trkpt lat="44.70015" lon="3.84825">
        <ele>1022</ele>
        <time>2013-09-26T11:02:50Z</time>
      </trkpt>
      <trkpt lat="44.7001" lon="3.84827">
        <ele>1022</ele>
        <time>2013-09-26T11:02:53Z</time>
      </trkpt>
      <trkpt lat="44.70004" lon="3.84828">
        <ele>1022</ele>
        <time>2013-09-26T11:02:56Z</time>
      </trkpt>
      <trkpt lat="44.69999" lon="3.84829">
        <ele>1022</ele>
        <time>2013-09-26T11:02:59Z</time>
      </trkpt>
      <trkpt lat="44.69993" lon="3.84829">
        <ele>1022</ele>
        <time>2013-09-26T11:03:02Z</time>
      </trkpt>
      <trkpt lat="44.69988" lon="3.84828">
        <ele>1022</ele>
        <time>2013-09-26T11:03:06Z</time>
      </trkpt>
      <trkpt lat="44.69982" lon="3.84829">
        <ele>1022</ele>
        <time>2013-09-26T11:03:09Z</time>
      </trkpt>
      <trkpt lat="44.69976" lon="3.84831">
        <ele>1021</ele>
        <time>2013-09-26T11:03:12Z</time>
      </trkpt>
      <trkpt lat="44.6997" lon="3.84831">
        <ele>1021</ele>
        <time>2013-09-26T11:03:15Z</time>
      </trkpt>
      <trkpt lat="44.69965" lon="3.84832">
        <ele>1021</ele>
        <time>2013-09-26T11:03:18Z</time>
      </trkpt>
      <trkpt lat="44.6996" lon="3.84833">
        <ele>1021</ele>
        <time>2013-09-26T11:03:21Z</time>
      </trkpt>
      <trkpt lat="44.69955" lon="3.84834">
        <ele>1022</ele>
        <time>2013-09-26T11:03:24Z</time>
      </trkpt>
      <trkpt lat="44.6995" lon="3.84833">
        <ele>1021</ele>
        <time>2013-09-26T11:03:28Z</time>
      </trkpt>
      <trkpt lat="44.69944" lon="3.84832">
        <ele>1021</ele>
        <time>2013-09-26T11:03:32Z</time>
      </trkpt>
      <trkpt lat="44.69938" lon="3.8483">
        <ele>1021</ele>
        <time>2013-09-26T11:03:36Z</time>
      </trkpt>
      <trkpt lat="44.69934" lon="3.84828">
        <ele>1022</ele>
        <time>2013-09-26T11:03:40Z</time>
      </trkpt>
      <trkpt lat="44.69929" lon="3.84827">
        <ele>1022</ele>
        <time>2013-09-26T11:03:44Z</time>
      </trkpt>
      <trkpt lat="44.69925" lon="3.84827">
        <ele>1022</ele>
        <time>2013-09-26T11:03:49Z</time>
      </trkpt>
      <trkpt lat="44.69919" lon="3.84827">
        <ele>1022</ele>
        <time>2013-09-26T11:03:54Z</time>
      </trkpt>
      <trkpt lat="44.69915" lon="3.84827">
        <ele>1022</ele>
        <time>2013-09-26T11:03:58Z</time>
      </trkpt>
      <trkpt lat="44.69909" lon="3.84827">
        <ele>1022</ele>
        <time>2013-09-26T11:04:02Z</time>
      </trkpt>
      <trkpt lat="44.69905" lon="3.84827">
        <ele>1023</ele>
        <time>2013-09-26T11:04:06Z</time>
      </trkpt>
      <trkpt lat="44.69899" lon="3.84828">
        <ele>1023</ele>
        <time>2013-09-26T11:04:10Z</time>
      </trkpt>
      <trkpt lat="44.69895" lon="3.84828">
        <ele>1023</ele>
        <time>2013-09-26T11:04:13Z</time>
      </trkpt>
      <trkpt lat="44.6989" lon="3.84829">
        <ele>1023</ele>
        <time>2013-09-26T11:04:17Z</time>
      </trkpt>
      <trkpt lat="44.69885" lon="3.84828">
        <ele>1023</ele>
        <time>2013-09-26T11:04:21Z</time>
      </trkpt>
      <trkpt lat="44.69881" lon="3.84827">
        <ele>1024</ele>
        <time>2013-09-26T11:04:25Z</time>
      </trkpt>
      <trkpt lat="44.69875" lon="3.84825">
        <ele>1024</ele>
        <time>2013-09-26T11:04:30Z</time>
      </trkpt>
      <trkpt lat="44.6987" lon="3.84825">
        <ele>1024</ele>
        <time>2013-09-26T11:04:34Z</time>
      </trkpt>
      <trkpt lat="44.69865" lon="3.84826">
        <ele>1024</ele>
        <time>2013-09-26T11:04:38Z</time>
      </trkpt>
      <trkpt lat="44.6986" lon="3.84826">
        <ele>1025</ele>
        <time>2013-09-26T11:04:42Z</time>
      </trkpt>
      <trkpt lat="44.69855" lon="3.84826">
        <ele>1025</ele>
        <time>2013-09-26T11:04:46Z</time>
      </trkpt>
      <trkpt lat="44.6985" lon="3.84825">
        <ele>1025</ele>
        <time>2013-09-26T11:04:51Z</time>
      </trkpt>
      <trkpt lat="44.69845" lon="3.84824">
        <ele>1025</ele>
        <time>2013-09-26T11:04:55Z</time>
      </trkpt>
      <trkpt lat="44.6984" lon="3.84822">
        <ele>1026</ele>
        <time>2013-09-26T11:04:59Z</time>
      </trkpt>
      <trkpt lat="44.69835" lon="3.8482">
        <ele>1026</ele>
        <time>2013-09-26T11:05:03Z</time>
      </trkpt>
      <trkpt lat="44.6983" lon="3.84822">
        <ele>1030</ele>
        <time>2013-09-26T11:05:07Z</time>
      </trkpt>
      <trkpt lat="44.69825" lon="3.84823">
        <ele>1030</ele>
        <time>2013-09-26T11:05:11Z</time>
      </trkpt>
      <trkpt lat="44.6982" lon="3.8482">
        <ele>1031</ele>
        <time>2013-09-26T11:05:15Z</time>
      </trkpt>
      <trkpt lat="44.69815" lon="3.84815">
        <ele>1032</ele>
        <time>2013-09-26T11:05:19Z</time>
      </trkpt>
      <trkpt lat="44.69813" lon="3.8481">
        <ele>1032</ele>
        <time>2013-09-26T11:05:23Z</time>
      </trkpt>
      <trkpt lat="44.69811" lon="3.84804">
        <ele>1033</ele>
        <time>2013-09-26T11:05:27Z</time>
      </trkpt>
      <trkpt lat="44.69809" lon="3.84797">
        <ele>1033</ele>
        <time>2013-09-26T11:05:31Z</time>
      </trkpt>
      <trkpt lat="44.69809" lon="3.8479">
        <ele>1033</ele>
        <time>2013-09-26T11:05:36Z</time>
      </trkpt>
      <trkpt lat="44.69809" lon="3.84783">
        <ele>1033</ele>
        <time>2013-09-26T11:05:40Z</time>
      </trkpt>
      <trkpt lat="44.69809" lon="3.84774">
        <ele>1032</ele>
        <time>2013-09-26T11:05:44Z</time>
      </trkpt>
      <trkpt lat="44.6981" lon="3.84767">
        <ele>1032</ele>
        <time>2013-09-26T11:05:48Z</time>
      </trkpt>
      <trkpt lat="44.6981" lon="3.84758">
        <ele>1032</ele>
        <time>2013-09-26T11:05:52Z</time>
      </trkpt>
      <trkpt lat="44.69811" lon="3.84752">
        <ele>1031</ele>
        <time>2013-09-26T11:05:55Z</time>
      </trkpt>
      <trkpt lat="44.69812" lon="3.84745">
        <ele>1029</ele>
        <time>2013-09-26T11:05:59Z</time>
      </trkpt>
      <trkpt lat="44.69811" lon="3.84739">
        <ele>1030</ele>
        <time>2013-09-26T11:06:03Z</time>
      </trkpt>
      <trkpt lat="44.6981" lon="3.84731">
        <ele>1030</ele>
        <time>2013-09-26T11:06:07Z</time>
      </trkpt>
      <trkpt lat="44.69808" lon="3.84725">
        <ele>1030</ele>
        <time>2013-09-26T11:06:11Z</time>
      </trkpt>
      <trkpt lat="44.69806" lon="3.8472">
        <ele>1031</ele>
        <time>2013-09-26T11:06:15Z</time>
      </trkpt>
      <trkpt lat="44.69803" lon="3.84714">
        <ele>1031</ele>
        <time>2013-09-26T11:06:20Z</time>
      </trkpt>
      <trkpt lat="44.69801" lon="3.84707">
        <ele>1031</ele>
        <time>2013-09-26T11:06:24Z</time>
      </trkpt>
      <trkpt lat="44.698" lon="3.84701">
        <ele>1031</ele>
        <time>2013-09-26T11:06:28Z</time>
      </trkpt>
      <trkpt lat="44.69801" lon="3.84694">
        <ele>1030</ele>
        <time>2013-09-26T11:06:32Z</time>
      </trkpt>
      <trkpt lat="44.69799" lon="3.84688">
        <ele>1030</ele>
        <time>2013-09-26T11:06:37Z</time>
      </trkpt>
      <trkpt lat="44.69798" lon="3.84681">
        <ele>1030</ele>
        <time>2013-09-26T11:06:41Z</time>
      </trkpt>
      <trkpt lat="44.69796" lon="3.84674">
        <ele>1030</ele>
        <time>2013-09-26T11:06:45Z</time>
      </trkpt>
      <trkpt lat="44.69795" lon="3.84666">
        <ele>1028</ele>
        <time>2013-09-26T11:06:49Z</time>
      </trkpt>
      <trkpt lat="44.69795" lon="3.84658">
        <ele>1028</ele>
        <time>2013-09-26T11:06:53Z</time>
      </trkpt>
      <trkpt lat="44.69796" lon="3.84651">
        <ele>1028</ele>
        <time>2013-09-26T11:06:57Z</time>
      </trkpt>
      <trkpt lat="44.69798" lon="3.84643">
        <ele>1027</ele>
        <time>2013-09-26T11:07:01Z</time>
      </trkpt>
      <trkpt lat="44.69799" lon="3.84636">
        <ele>1027</ele>
        <time>2013-09-26T11:07:04Z</time>
      </trkpt>
      <trkpt lat="44.69802" lon="3.84628">
        <ele>1027</ele>
        <time>2013-09-26T11:07:08Z</time>
      </trkpt>
      <trkpt lat="44.69804" lon="3.84622">
        <ele>1026</ele>
        <time>2013-09-26T11:07:11Z</time>
      </trkpt>
      <trkpt lat="44.69806" lon="3.84616">
        <ele>1026</ele>
        <time>2013-09-26T11:07:14Z</time>
      </trkpt>
      <trkpt lat="44.6981" lon="3.84611">
        <ele>1025</ele>
        <time>2013-09-26T11:07:17Z</time>
      </trkpt>
      <trkpt lat="44.69812" lon="3.84605">
        <ele>1025</ele>
        <time>2013-09-26T11:07:20Z</time>
      </trkpt>
      <trkpt lat="44.69815" lon="3.846">
        <ele>1024</ele>
        <time>2013-09-26T11:07:23Z</time>
      </trkpt>
      <trkpt lat="44.69817" lon="3.84594">
        <ele>1023</ele>
        <time>2013-09-26T11:07:26Z</time>
      </trkpt>
      <trkpt lat="44.6982" lon="3.84587">
        <ele>1022</ele>
        <time>2013-09-26T11:07:30Z</time>
      </trkpt>
      <trkpt lat="44.69823" lon="3.84582">
        <ele>1020</ele>
        <time>2013-09-26T11:07:33Z</time>
      </trkpt>
      <trkpt lat="44.69826" lon="3.84574">
        <ele>1021</ele>
        <time>2013-09-26T11:07:37Z</time>
      </trkpt>
      <trkpt lat="44.69828" lon="3.84569">
        <ele>1021</ele>
        <time>2013-09-26T11:07:40Z</time>
      </trkpt>
      <trkpt lat="44.69831" lon="3.84561">
        <ele>1022</ele>
        <time>2013-09-26T11:07:44Z</time>
      </trkpt>
      <trkpt lat="44.69833" lon="3.84556">
        <ele>1022</ele>
        <time>2013-09-26T11:07:47Z</time>
      </trkpt>
      <trkpt lat="44.69835" lon="3.84548">
        <ele>1014</ele>
        <time>2013-09-26T11:07:51Z</time>
      </trkpt>
      <trkpt lat="44.69838" lon="3.84541">
        <ele>1014</ele>
        <time>2013-09-26T11:07:54Z</time>
      </trkpt>
      <trkpt lat="44.6984" lon="3.84534">
        <ele>1014</ele>
        <time>2013-09-26T11:07:57Z</time>
      </trkpt>
      <trkpt lat="44.69842" lon="3.84528">
        <ele>1014</ele>
        <time>2013-09-26T11:08:00Z</time>
      </trkpt>
      <trkpt lat="44.69843" lon="3.84521">
        <ele>1015</ele>
        <time>2013-09-26T11:08:03Z</time>
      </trkpt>
      <trkpt lat="44.69844" lon="3.84513">
        <ele>1015</ele>
        <time>2013-09-26T11:08:05Z</time>
      </trkpt>
      <trkpt lat="44.69845" lon="3.84506">
        <ele>1016</ele>
        <time>2013-09-26T11:08:09Z</time>
      </trkpt>
      <trkpt lat="44.69846" lon="3.84499">
        <ele>1017</ele>
        <time>2013-09-26T11:08:12Z</time>
      </trkpt>
      <trkpt lat="44.69848" lon="3.84492">
        <ele>1016</ele>
        <time>2013-09-26T11:08:16Z</time>
      </trkpt>
      <trkpt lat="44.6985" lon="3.84485">
        <ele>1016</ele>
        <time>2013-09-26T11:08:20Z</time>
      </trkpt>
      <trkpt lat="44.69852" lon="3.84478">
        <ele>1016</ele>
        <time>2013-09-26T11:08:24Z</time>
      </trkpt>
      <trkpt lat="44.69853" lon="3.84471">
        <ele>1016</ele>
        <time>2013-09-26T11:08:27Z</time>
      </trkpt>
      <trkpt lat="44.69856" lon="3.84464">
        <ele>1016</ele>
        <time>2013-09-26T11:08:32Z</time>
      </trkpt>
      <trkpt lat="44.69859" lon="3.84458">
        <ele>1016</ele>
        <time>2013-09-26T11:08:36Z</time>
      </trkpt>
      <trkpt lat="44.69861" lon="3.84452">
        <ele>1016</ele>
        <time>2013-09-26T11:08:40Z</time>
      </trkpt>
      <trkpt lat="44.69864" lon="3.84446">
        <ele>1016</ele>
        <time>2013-09-26T11:08:44Z</time>
      </trkpt>
      <trkpt lat="44.69866" lon="3.84438">
        <ele>1016</ele>
        <time>2013-09-26T11:08:48Z</time>
      </trkpt>
      <trkpt lat="44.69869" lon="3.84431">
        <ele>1016</ele>
        <time>2013-09-26T11:08:52Z</time>
      </trkpt>
      <trkpt lat="44.69871" lon="3.84424">
        <ele>1016</ele>
        <time>2013-09-26T11:08:57Z</time>
      </trkpt>
      <trkpt lat="44.69873" lon="3.84418">
        <ele>1016</ele>
        <time>2013-09-26T11:09:01Z</time>
      </trkpt>
      <trkpt lat="44.69875" lon="3.84411">
        <ele>1019</ele>
        <time>2013-09-26T11:09:05Z</time>
      </trkpt>
      <trkpt lat="44.6988" lon="3.84405">
        <ele>1019</ele>
        <time>2013-09-26T11:09:09Z</time>
      </trkpt>
      <trkpt lat="44.69884" lon="3.84401">
        <ele>1019</ele>
        <time>2013-09-26T11:09:12Z</time>
      </trkpt>
      <trkpt lat="44.69887" lon="3.84395">
        <ele>1019</ele>
        <time>2013-09-26T11:09:15Z</time>
      </trkpt>
      <trkpt lat="44.6989" lon="3.8439">
        <ele>1019</ele>
        <time>2013-09-26T11:09:18Z</time>
      </trkpt>
      <trkpt lat="44.69892" lon="3.84382">
        <ele>1019</ele>
        <time>2013-09-26T11:09:27Z</time>
      </trkpt>
      <trkpt lat="44.69892" lon="3.84375">
        <ele>1019</ele>
        <time>2013-09-26T11:09:31Z</time>
      </trkpt>
      <trkpt lat="44.69891" lon="3.84368">
        <ele>1019</ele>
        <time>2013-09-26T11:09:35Z</time>
      </trkpt>
      <trkpt lat="44.6989" lon="3.84361">
        <ele>1020</ele>
        <time>2013-09-26T11:09:45Z</time>
      </trkpt>
      <trkpt lat="44.6989" lon="3.84355">
        <ele>1020</ele>
        <time>2013-09-26T11:09:49Z</time>
      </trkpt>
      <trkpt lat="44.6989" lon="3.84348">
        <ele>1020</ele>
        <time>2013-09-26T11:09:53Z</time>
      </trkpt>
      <trkpt lat="44.69891" lon="3.84342">
        <ele>1020</ele>
        <time>2013-09-26T11:09:57Z</time>
      </trkpt>
      <trkpt lat="44.6989" lon="3.84335">
        <ele>1020</ele>
        <time>2013-09-26T11:10:01Z</time>
      </trkpt>
      <trkpt lat="44.6989" lon="3.84328">
        <ele>1021</ele>
        <time>2013-09-26T11:10:05Z</time>
      </trkpt>
      <trkpt lat="44.69889" lon="3.84321">
        <ele>1021</ele>
        <time>2013-09-26T11:10:09Z</time>
      </trkpt>
      <trkpt lat="44.69886" lon="3.84314">
        <ele>1022</ele>
        <time>2013-09-26T11:10:13Z</time>
      </trkpt>
      <trkpt lat="44.69885" lon="3.84308">
        <ele>1022</ele>
        <time>2013-09-26T11:10:16Z</time>
      </trkpt>
      <trkpt lat="44.69883" lon="3.843">
        <ele>1022</ele>
        <time>2013-09-26T11:10:20Z</time>
      </trkpt>
      <trkpt lat="44.6988" lon="3.84294">
        <ele>1022</ele>
        <time>2013-09-26T11:10:24Z</time>
      </trkpt>
      <trkpt lat="44.69879" lon="3.84288">
        <ele>1023</ele>
        <time>2013-09-26T11:10:29Z</time>
      </trkpt>
      <trkpt lat="44.69877" lon="3.84281">
        <ele>1023</ele>
        <time>2013-09-26T11:10:35Z</time>
      </trkpt>
      <trkpt lat="44.69875" lon="3.84275">
        <ele>1023</ele>
        <time>2013-09-26T11:10:39Z</time>
      </trkpt>
      <trkpt lat="44.69876" lon="3.84268">
        <ele>1023</ele>
        <time>2013-09-26T11:10:43Z</time>
      </trkpt>
      <trkpt lat="44.69877" lon="3.84261">
        <ele>1023</ele>
        <time>2013-09-26T11:10:48Z</time>
      </trkpt>
      <trkpt lat="44.69878" lon="3.84255">
        <ele>1023</ele>
        <time>2013-09-26T11:10:52Z</time>
      </trkpt>
      <trkpt lat="44.6988" lon="3.84248">
        <ele>1022</ele>
        <time>2013-09-26T11:10:56Z</time>
      </trkpt>
      <trkpt lat="44.69882" lon="3.84242">
        <ele>1022</ele>
        <time>2013-09-26T11:11:00Z</time>
      </trkpt>
      <trkpt lat="44.69886" lon="3.84237">
        <ele>1021</ele>
        <time>2013-09-26T11:11:04Z</time>
      </trkpt>
      <trkpt lat="44.69888" lon="3.84231">
        <ele>1021</ele>
        <time>2013-09-26T11:11:08Z</time>
      </trkpt>
      <trkpt lat="44.6989" lon="3.84225">
        <ele>1021</ele>
        <time>2013-09-26T11:11:12Z</time>
      </trkpt>
      <trkpt lat="44.69892" lon="3.84218">
        <ele>1021</ele>
        <time>2013-09-26T11:11:17Z</time>
      </trkpt>
      <trkpt lat="44.69895" lon="3.84212">
        <ele>1021</ele>
        <time>2013-09-26T11:11:21Z</time>
      </trkpt>
      <trkpt lat="44.69899" lon="3.84207">
        <ele>1021</ele>
        <time>2013-09-26T11:11:25Z</time>
      </trkpt>
      <trkpt lat="44.69901" lon="3.84201">
        <ele>1020</ele>
        <time>2013-09-26T11:11:35Z</time>
      </trkpt>
      <trkpt lat="44.69902" lon="3.84194">
        <ele>1020</ele>
        <time>2013-09-26T11:11:40Z</time>
      </trkpt>
      <trkpt lat="44.69902" lon="3.84186">
        <ele>1020</ele>
        <time>2013-09-26T11:11:45Z</time>
      </trkpt>
      <trkpt lat="44.69899" lon="3.84181">
        <ele>1020</ele>
        <time>2013-09-26T11:11:50Z</time>
      </trkpt>
      <trkpt lat="44.69894" lon="3.84178">
        <ele>1020</ele>
        <time>2013-09-26T11:11:54Z</time>
      </trkpt>
      <trkpt lat="44.69891" lon="3.84173">
        <ele>1020</ele>
        <time>2013-09-26T11:11:58Z</time>
      </trkpt>
      <trkpt lat="44.69887" lon="3.84169">
        <ele>1020</ele>
        <time>2013-09-26T11:12:03Z</time>
      </trkpt>
      <trkpt lat="44.69884" lon="3.84164">
        <ele>1017</ele>
        <time>2013-09-26T11:12:11Z</time>
      </trkpt>
      <trkpt lat="44.6988" lon="3.84159">
        <ele>1017</ele>
        <time>2013-09-26T11:12:15Z</time>
      </trkpt>
      <trkpt lat="44.69877" lon="3.84155">
        <ele>1017</ele>
        <time>2013-09-26T11:12:17Z</time>
      </trkpt>
      <trkpt lat="44.69873" lon="3.84151">
        <ele>1017</ele>
        <time>2013-09-26T11:12:23Z</time>
      </trkpt>
      <trkpt lat="44.69867" lon="3.84149">
        <ele>1017</ele>
        <time>2013-09-26T11:12:27Z</time>
      </trkpt>
      <trkpt lat="44.69862" lon="3.84149">
        <ele>1017</ele>
        <time>2013-09-26T11:12:30Z</time>
      </trkpt>
      <trkpt lat="44.69856" lon="3.84148">
        <ele>1017</ele>
        <time>2013-09-26T11:12:36Z</time>
      </trkpt>
      <trkpt lat="44.69851" lon="3.84148">
        <ele>1017</ele>
        <time>2013-09-26T11:12:40Z</time>
      </trkpt>
      <trkpt lat="44.69846" lon="3.84148">
        <ele>1018</ele>
        <time>2013-09-26T11:12:43Z</time>
      </trkpt>
      <trkpt lat="44.69841" lon="3.84148">
        <ele>1018</ele>
        <time>2013-09-26T11:12:47Z</time>
      </trkpt>
      <trkpt lat="44.69836" lon="3.84148">
        <ele>1018</ele>
        <time>2013-09-26T11:12:50Z</time>
      </trkpt>
      <trkpt lat="44.6983" lon="3.84151">
        <ele>1019</ele>
        <time>2013-09-26T11:12:53Z</time>
      </trkpt>
      <trkpt lat="44.69827" lon="3.84155">
        <ele>1019</ele>
        <time>2013-09-26T11:12:55Z</time>
      </trkpt>
      <trkpt lat="44.69822" lon="3.84159">
        <ele>1019</ele>
        <time>2013-09-26T11:12:58Z</time>
      </trkpt>
      <trkpt lat="44.69817" lon="3.84163">
        <ele>1019</ele>
        <time>2013-09-26T11:13:01Z</time>
      </trkpt>
      <trkpt lat="44.69812" lon="3.84165">
        <ele>1019</ele>
        <time>2013-09-26T11:13:04Z</time>
      </trkpt>
      <trkpt lat="44.69807" lon="3.84167">
        <ele>1019</ele>
        <time>2013-09-26T11:13:10Z</time>
      </trkpt>
      <trkpt lat="44.69803" lon="3.84167">
        <ele>1024</ele>
        <time>2013-09-26T11:13:13Z</time>
      </trkpt>
      <trkpt lat="44.69798" lon="3.84167">
        <ele>1024</ele>
        <time>2013-09-26T11:13:17Z</time>
      </trkpt>
      <trkpt lat="44.69792" lon="3.84167">
        <ele>1024</ele>
        <time>2013-09-26T11:13:21Z</time>
      </trkpt>
      <trkpt lat="44.69787" lon="3.84166">
        <ele>1019</ele>
        <time>2013-09-26T11:13:27Z</time>
      </trkpt>
      <trkpt lat="44.69781" lon="3.84164">
        <ele>1020</ele>
        <time>2013-09-26T11:13:31Z</time>
      </trkpt>
      <trkpt lat="44.69775" lon="3.84163">
        <ele>1020</ele>
        <time>2013-09-26T11:13:35Z</time>
      </trkpt>
      <trkpt lat="44.69771" lon="3.84162">
        <ele>1020</ele>
        <time>2013-09-26T11:13:38Z</time>
      </trkpt>
      <trkpt lat="44.69766" lon="3.84161">
        <ele>1021</ele>
        <time>2013-09-26T11:13:41Z</time>
      </trkpt>
      <trkpt lat="44.69762" lon="3.8416">
        <ele>1021</ele>
        <time>2013-09-26T11:13:44Z</time>
      </trkpt>
      <trkpt lat="44.69757" lon="3.84155">
        <ele>1021</ele>
        <time>2013-09-26T11:13:48Z</time>
      </trkpt>
      <trkpt lat="44.69753" lon="3.84149">
        <ele>1020</ele>
        <time>2013-09-26T11:13:51Z</time>
      </trkpt>
      <trkpt lat="44.6975" lon="3.84143">
        <ele>1019</ele>
        <time>2013-09-26T11:13:54Z</time>
      </trkpt>
      <trkpt lat="44.69745" lon="3.84137">
        <ele>1018</ele>
        <time>2013-09-26T11:13:57Z</time>
      </trkpt>
      <trkpt lat="44.69741" lon="3.84132">
        <ele>1018</ele>
        <time>2013-09-26T11:14:00Z</time>
      </trkpt>
      <trkpt lat="44.69739" lon="3.84126">
        <ele>1017</ele>
        <time>2013-09-26T11:14:05Z</time>
      </trkpt>
      <trkpt lat="44.69735" lon="3.84122">
        <ele>1017</ele>
        <time>2013-09-26T11:14:10Z</time>
      </trkpt>
      <trkpt lat="44.69731" lon="3.84116">
        <ele>1016</ele>
        <time>2013-09-26T11:14:14Z</time>
      </trkpt>
      <trkpt lat="44.69727" lon="3.84111">
        <ele>1016</ele>
        <time>2013-09-26T11:14:16Z</time>
      </trkpt>
      <trkpt lat="44.69725" lon="3.84105">
        <ele>1015</ele>
        <time>2013-09-26T11:14:21Z</time>
      </trkpt>
      <trkpt lat="44.69722" lon="3.84099">
        <ele>1015</ele>
        <time>2013-09-26T11:14:23Z</time>
      </trkpt>
      <trkpt lat="44.6972" lon="3.84092">
        <ele>1015</ele>
        <time>2013-09-26T11:14:27Z</time>
      </trkpt>
      <trkpt lat="44.69717" lon="3.84086">
        <ele>1014</ele>
        <time>2013-09-26T11:14:31Z</time>
      </trkpt>
      <trkpt lat="44.69715" lon="3.84079">
        <ele>1008</ele>
        <time>2013-09-26T11:14:35Z</time>
      </trkpt>
      <trkpt lat="44.69712" lon="3.84073">
        <ele>1007</ele>
        <time>2013-09-26T11:14:42Z</time>
      </trkpt>
      <trkpt lat="44.69708" lon="3.8407">
        <ele>1007</ele>
        <time>2013-09-26T11:14:49Z</time>
      </trkpt>
      <trkpt lat="44.69703" lon="3.84065">
        <ele>1007</ele>
        <time>2013-09-26T11:14:53Z</time>
      </trkpt>
      <trkpt lat="44.697" lon="3.84062">
        <ele>1006</ele>
        <time>2013-09-26T11:14:59Z</time>
      </trkpt>
      <trkpt lat="44.69696" lon="3.84057">
        <ele>1006</ele>
        <time>2013-09-26T11:15:02Z</time>
      </trkpt>
      <trkpt lat="44.6969" lon="3.84058">
        <ele>1006</ele>
        <time>2013-09-26T11:15:05Z</time>
      </trkpt>
      <trkpt lat="44.69684" lon="3.84061">
        <ele>1006</ele>
        <time>2013-09-26T11:15:08Z</time>
      </trkpt>
      <trkpt lat="44.69678" lon="3.84061">
        <ele>1006</ele>
        <time>2013-09-26T11:15:15Z</time>
      </trkpt>
      <trkpt lat="44.69673" lon="3.8406">
        <ele>1006</ele>
        <time>2013-09-26T11:15:17Z</time>
      </trkpt>
      <trkpt lat="44.69665" lon="3.84063">
        <ele>1001</ele>
        <time>2013-09-26T11:15:19Z</time>
      </trkpt>
      <trkpt lat="44.69659" lon="3.84068">
        <ele>1002</ele>
        <time>2013-09-26T11:15:20Z</time>
      </trkpt>
      <trkpt lat="44.69653" lon="3.84073">
        <ele>1002</ele>
        <time>2013-09-26T11:15:21Z</time>
      </trkpt>
      <trkpt lat="44.69647" lon="3.84077">
        <ele>1001</ele>
        <time>2013-09-26T11:15:24Z</time>
      </trkpt>
      <trkpt lat="44.69642" lon="3.8408">
        <ele>1000</ele>
        <time>2013-09-26T11:15:25Z</time>
      </trkpt>
      <trkpt lat="44.69637" lon="3.84084">
        <ele>1006</ele>
        <time>2013-09-26T11:15:26Z</time>
      </trkpt>
      <trkpt lat="44.69632" lon="3.84089">
        <ele>1006</ele>
        <time>2013-09-26T11:15:33Z</time>
      </trkpt>
      <trkpt lat="44.69627" lon="3.84092">
        <ele>1006</ele>
        <time>2013-09-26T11:15:35Z</time>
      </trkpt>
      <trkpt lat="44.69621" lon="3.84097">
        <ele>1005</ele>
        <time>2013-09-26T11:15:37Z</time>
      </trkpt>
      <trkpt lat="44.69614" lon="3.84102">
        <ele>1005</ele>
        <time>2013-09-26T11:15:39Z</time>
      </trkpt>
      <trkpt lat="44.69609" lon="3.84103">
        <ele>1005</ele>
        <time>2013-09-26T11:15:41Z</time>
      </trkpt>
      <trkpt lat="44.69604" lon="3.84103">
        <ele>1004</ele>
        <time>2013-09-26T11:15:46Z</time>
      </trkpt>
      <trkpt lat="44.69599" lon="3.841">
        <ele>1003</ele>
        <time>2013-09-26T11:15:54Z</time>
      </trkpt>
      <trkpt lat="44.69594" lon="3.841">
        <ele>1002</ele>
        <time>2013-09-26T11:16:02Z</time>
      </trkpt>
      <trkpt lat="44.69591" lon="3.84106">
        <ele>1003</ele>
        <time>2013-09-26T11:16:06Z</time>
      </trkpt>
      <trkpt lat="44.69586" lon="3.84101">
        <ele>1002</ele>
        <time>2013-09-26T11:16:14Z</time>
      </trkpt>
      <trkpt lat="44.69581" lon="3.84099">
        <ele>997</ele>
        <time>2013-09-26T11:16:18Z</time>
      </trkpt>
      <trkpt lat="44.69578" lon="3.84094">
        <ele>997</ele>
        <time>2013-09-26T11:16:25Z</time>
      </trkpt>
      <trkpt lat="44.69574" lon="3.84088">
        <ele>997</ele>
        <time>2013-09-26T11:16:34Z</time>
      </trkpt>
      <trkpt lat="44.69571" lon="3.8408">
        <ele>994</ele>
        <time>2013-09-26T11:16:38Z</time>
      </trkpt>
      <trkpt lat="44.69574" lon="3.84074">
        <ele>994</ele>
        <time>2013-09-26T11:16:42Z</time>
      </trkpt>
      <trkpt lat="44.69576" lon="3.84068">
        <ele>993</ele>
        <time>2013-09-26T11:16:45Z</time>
      </trkpt>
      <trkpt lat="44.69581" lon="3.84062">
        <ele>993</ele>
        <time>2013-09-26T11:16:48Z</time>
      </trkpt>
      <trkpt lat="44.69585" lon="3.84058">
        <ele>995</ele>
        <time>2013-09-26T11:16:50Z</time>
      </trkpt>
      <trkpt lat="44.69589" lon="3.84052">
        <ele>995</ele>
        <time>2013-09-26T11:16:54Z</time>
      </trkpt>
      <trkpt lat="44.69585" lon="3.84048">
        <ele>995</ele>
        <time>2013-09-26T11:17:03Z</time>
      </trkpt>
      <trkpt lat="44.69579" lon="3.84047">
        <ele>992</ele>
        <time>2013-09-26T11:17:09Z</time>
      </trkpt>
      <trkpt lat="44.69574" lon="3.84044">
        <ele>992</ele>
        <time>2013-09-26T11:17:13Z</time>
      </trkpt>
      <trkpt lat="44.69568" lon="3.84042">
        <ele>991</ele>
        <time>2013-09-26T11:17:17Z</time>
      </trkpt>
      <trkpt lat="44.69563" lon="3.8404">
        <ele>991</ele>
        <time>2013-09-26T11:17:23Z</time>
      </trkpt>
      <trkpt lat="44.69559" lon="3.84036">
        <ele>991</ele>
        <time>2013-09-26T11:17:30Z</time>
      </trkpt>
      <trkpt lat="44.69554" lon="3.84034">
        <ele>991</ele>
        <time>2013-09-26T11:17:33Z</time>
      </trkpt>
      <trkpt lat="44.69549" lon="3.84031">
        <ele>991</ele>
        <time>2013-09-26T11:17:36Z</time>
      </trkpt>
      <trkpt lat="44.69545" lon="3.84024">
        <ele>991</ele>
        <time>2013-09-26T11:17:51Z</time>
      </trkpt>
      <trkpt lat="44.69543" lon="3.84019">
        <ele>991</ele>
        <time>2013-09-26T11:17:59Z</time>
      </trkpt>
      <trkpt lat="44.69541" lon="3.84012">
        <ele>991</ele>
        <time>2013-09-26T11:18:12Z</time>
      </trkpt>
      <trkpt lat="44.69539" lon="3.84005">
        <ele>991</ele>
        <time>2013-09-26T11:18:14Z</time>
      </trkpt>
      <trkpt lat="44.69537" lon="3.83997">
        <ele>987</ele>
        <time>2013-09-26T11:18:16Z</time>
      </trkpt>
      <trkpt lat="44.69537" lon="3.83988">
        <ele>987</ele>
        <time>2013-09-26T11:18:23Z</time>
      </trkpt>
      <trkpt lat="44.69534" lon="3.83984">
        <ele>987</ele>
        <time>2013-09-26T11:18:34Z</time>
      </trkpt>
      <trkpt lat="44.69529" lon="3.83982">
        <ele>987</ele>
        <time>2013-09-26T11:18:38Z</time>
      </trkpt>
      <trkpt lat="44.69526" lon="3.83987">
        <ele>988</ele>
        <time>2013-09-26T11:18:54Z</time>
      </trkpt>
      <trkpt lat="44.69524" lon="3.83979">
        <ele>988</ele>
        <time>2013-09-26T11:19:08Z</time>
      </trkpt>
      <trkpt lat="44.69526" lon="3.83972">
        <ele>987</ele>
        <time>2013-09-26T11:19:12Z</time>
      </trkpt>
      <trkpt lat="44.69527" lon="3.83965">
        <ele>987</ele>
        <time>2013-09-26T11:19:17Z</time>
      </trkpt>
      <trkpt lat="44.6953" lon="3.8396">
        <ele>986</ele>
        <time>2013-09-26T11:19:21Z</time>
      </trkpt>
      <trkpt lat="44.69534" lon="3.83956">
        <ele>986</ele>
        <time>2013-09-26T11:19:25Z</time>
      </trkpt>
      <trkpt lat="44.69538" lon="3.83952">
        <ele>986</ele>
        <time>2013-09-26T11:19:29Z</time>
      </trkpt>
      <trkpt lat="44.69542" lon="3.83946">
        <ele>985</ele>
        <time>2013-09-26T11:19:33Z</time>
      </trkpt>
      <trkpt lat="44.69546" lon="3.83939">
        <ele>985</ele>
        <time>2013-09-26T11:19:37Z</time>
      </trkpt>
      <trkpt lat="44.69549" lon="3.83933">
        <ele>984</ele>
        <time>2013-09-26T11:19:41Z</time>
      </trkpt>
      <trkpt lat="44.69552" lon="3.83928">
        <ele>984</ele>
        <time>2013-09-26T11:19:45Z</time>
      </trkpt>
      <trkpt lat="44.69556" lon="3.83923">
        <ele>983</ele>
        <time>2013-09-26T11:19:49Z</time>
      </trkpt>
      <trkpt lat="44.69559" lon="3.83918">
        <ele>983</ele>
        <time>2013-09-26T11:19:57Z</time>
      </trkpt>
      <trkpt lat="44.69563" lon="3.83913">
        <ele>977</ele>
        <time>2013-09-26T11:20:05Z</time>
      </trkpt>
      <trkpt lat="44.69564" lon="3.83905">
        <ele>977</ele>
        <time>2013-09-26T11:20:13Z</time>
      </trkpt>
      <trkpt lat="44.69563" lon="3.83899">
        <ele>977</ele>
        <time>2013-09-26T11:20:21Z</time>
      </trkpt>
      <trkpt lat="44.69559" lon="3.83898">
        <ele>977</ele>
        <time>2013-09-26T11:20:32Z</time>
      </trkpt>
      <trkpt lat="44.69552" lon="3.83897">
        <ele>977</ele>
        <time>2013-09-26T11:20:35Z</time>
      </trkpt>
      <trkpt lat="44.69546" lon="3.83896">
        <ele>978</ele>
        <time>2013-09-26T11:20:38Z</time>
      </trkpt>
      <trkpt lat="44.69541" lon="3.83895">
        <ele>978</ele>
        <time>2013-09-26T11:20:41Z</time>
      </trkpt>
      <trkpt lat="44.69535" lon="3.83892">
        <ele>978</ele>
        <time>2013-09-26T11:20:45Z</time>
      </trkpt>
      <trkpt lat="44.69531" lon="3.8389">
        <ele>979</ele>
        <time>2013-09-26T11:20:53Z</time>
      </trkpt>
      <trkpt lat="44.69526" lon="3.83886">
        <ele>978</ele>
        <time>2013-09-26T11:20:57Z</time>
      </trkpt>
      <trkpt lat="44.69522" lon="3.83882">
        <ele>978</ele>
        <time>2013-09-26T11:21:01Z</time>
      </trkpt>
      <trkpt lat="44.69516" lon="3.83879">
        <ele>978</ele>
        <time>2013-09-26T11:21:08Z</time>
      </trkpt>
      <trkpt lat="44.69512" lon="3.83876">
        <ele>978</ele>
        <time>2013-09-26T11:21:15Z</time>
      </trkpt>
      <trkpt lat="44.69507" lon="3.83873">
        <ele>978</ele>
        <time>2013-09-26T11:21:18Z</time>
      </trkpt>
      <trkpt lat="44.69503" lon="3.83868">
        <ele>977</ele>
        <time>2013-09-26T11:21:23Z</time>
      </trkpt>
      <trkpt lat="44.69501" lon="3.83861">
        <ele>976</ele>
        <time>2013-09-26T11:21:28Z</time>
      </trkpt>
      <trkpt lat="44.695" lon="3.83854">
        <ele>976</ele>
        <time>2013-09-26T11:21:32Z</time>
      </trkpt>
      <trkpt lat="44.695" lon="3.83847">
        <ele>975</ele>
        <time>2013-09-26T11:21:36Z</time>
      </trkpt>
      <trkpt lat="44.69498" lon="3.83841">
        <ele>975</ele>
        <time>2013-09-26T11:21:41Z</time>
      </trkpt>
      <trkpt lat="44.69495" lon="3.83835">
        <ele>974</ele>
        <time>2013-09-26T11:21:44Z</time>
      </trkpt>
      <trkpt lat="44.69491" lon="3.8383">
        <ele>974</ele>
        <time>2013-09-26T11:21:51Z</time>
      </trkpt>
      <trkpt lat="44.69489" lon="3.83823">
        <ele>974</ele>
        <time>2013-09-26T11:21:55Z</time>
      </trkpt>
      <trkpt lat="44.69485" lon="3.83817">
        <ele>974</ele>
        <time>2013-09-26T11:21:59Z</time>
      </trkpt>
      <trkpt lat="44.69482" lon="3.83812">
        <ele>975</ele>
        <time>2013-09-26T11:22:03Z</time>
      </trkpt>
      <trkpt lat="44.69481" lon="3.83805">
        <ele>975</ele>
        <time>2013-09-26T11:22:10Z</time>
      </trkpt>
      <trkpt lat="44.6948" lon="3.83798">
        <ele>975</ele>
        <time>2013-09-26T11:22:15Z</time>
      </trkpt>
      <trkpt lat="44.69479" lon="3.83792">
        <ele>975</ele>
        <time>2013-09-26T11:22:18Z</time>
      </trkpt>
      <trkpt lat="44.69479" lon="3.83785">
        <ele>975</ele>
        <time>2013-09-26T11:22:21Z</time>
      </trkpt>
      <trkpt lat="44.69479" lon="3.83777">
        <ele>975</ele>
        <time>2013-09-26T11:22:25Z</time>
      </trkpt>
      <trkpt lat="44.6948" lon="3.83769">
        <ele>975</ele>
        <time>2013-09-26T11:22:34Z</time>
      </trkpt>
      <trkpt lat="44.69482" lon="3.83763">
        <ele>975</ele>
        <time>2013-09-26T11:22:36Z</time>
      </trkpt>
      <trkpt lat="44.69486" lon="3.83758">
        <ele>974</ele>
        <time>2013-09-26T11:22:39Z</time>
      </trkpt>
      <trkpt lat="44.69491" lon="3.83755">
        <ele>974</ele>
        <time>2013-09-26T11:22:51Z</time>
      </trkpt>
      <trkpt lat="44.69493" lon="3.83747">
        <ele>976</ele>
        <time>2013-09-26T11:23:03Z</time>
      </trkpt>
      <trkpt lat="44.69493" lon="3.8374">
        <ele>977</ele>
        <time>2013-09-26T11:23:31Z</time>
      </trkpt>
      <trkpt lat="44.69489" lon="3.83745">
        <ele>977</ele>
        <time>2013-09-26T11:27:40Z</time>
      </trkpt>
      <trkpt lat="44.69494" lon="3.83746">
        <ele>976</ele>
        <time>2013-09-26T11:27:55Z</time>
      </trkpt>
      <trkpt lat="44.69489" lon="3.83745">
        <ele>977</ele>
        <time>2013-09-26T11:28:25Z</time>
      </trkpt>
      <trkpt lat="44.69484" lon="3.83744">
        <ele>978</ele>
        <time>2013-09-26T11:28:53Z</time>
      </trkpt>
      <trkpt lat="44.69481" lon="3.83749">
        <ele>978</ele>
        <time>2013-09-26T11:29:32Z</time>
      </trkpt>
      <trkpt lat="44.69477" lon="3.83747">
        <ele>979</ele>
        <time>2013-09-26T11:30:13Z</time>
      </trkpt>
      <trkpt lat="44.69482" lon="3.8374">
        <ele>978</ele>
        <time>2013-09-26T11:30:54Z</time>
      </trkpt>
      <trkpt lat="44.6949" lon="3.83736">
        <ele>978</ele>
        <time>2013-09-26T11:30:54Z</time>
      </trkpt>
      <trkpt lat="44.69497" lon="3.83734">
        <ele>978</ele>
        <time>2013-09-26T11:30:55Z</time>
      </trkpt>
      <trkpt lat="44.69501" lon="3.83739">
        <ele>974</ele>
        <time>2013-09-26T11:31:17Z</time>
      </trkpt>
      <trkpt lat="44.69505" lon="3.83735">
        <ele>974</ele>
        <time>2013-09-26T11:31:39Z</time>
      </trkpt>
      <trkpt lat="44.69507" lon="3.83729">
        <ele>975</ele>
        <time>2013-09-26T11:31:41Z</time>
      </trkpt>
      <trkpt lat="44.69513" lon="3.83735">
        <ele>974</ele>
        <time>2013-09-26T11:34:58Z</time>
      </trkpt>
      <trkpt lat="44.69519" lon="3.83736">
        <ele>974</ele>
        <time>2013-09-26T11:35:15Z</time>
      </trkpt>
      <trkpt lat="44.69523" lon="3.83742">
        <ele>974</ele>
        <time>2013-09-26T11:35:17Z</time>
      </trkpt>
      <trkpt lat="44.69521" lon="3.83748">
        <ele>974</ele>
        <time>2013-09-26T11:35:33Z</time>
      </trkpt>
      <trkpt lat="44.69525" lon="3.83753">
        <ele>971</ele>
        <time>2013-09-26T11:39:41Z</time>
      </trkpt>
      <trkpt lat="44.6953" lon="3.83759">
        <ele>971</ele>
        <time>2013-09-26T11:39:44Z</time>
      </trkpt>
      <trkpt lat="44.69536" lon="3.8377">
        <ele>971</ele>
        <time>2013-09-26T11:39:46Z</time>
      </trkpt>
      <trkpt lat="44.69539" lon="3.83762">
        <ele>970</ele>
        <time>2013-09-26T11:49:03Z</time>
      </trkpt>
      <trkpt lat="44.69571" lon="3.83722">
        <ele>973</ele>
        <time>2013-09-26T11:49:04Z</time>
      </trkpt>
      <trkpt lat="44.69586" lon="3.83708">
        <ele>969</ele>
        <time>2013-09-26T11:56:54Z</time>
      </trkpt>
      <trkpt lat="44.696" lon="3.83701">
        <ele>969</ele>
        <time>2013-09-26T11:56:57Z</time>
      </trkpt>
      <trkpt lat="44.69615" lon="3.83697">
        <ele>969</ele>
        <time>2013-09-26T11:57:00Z</time>
      </trkpt>
      <trkpt lat="44.69621" lon="3.83695">
        <ele>968</ele>
        <time>2013-09-26T11:57:03Z</time>
      </trkpt>
      <trkpt lat="44.69629" lon="3.83689">
        <ele>968</ele>
        <time>2013-09-26T11:57:08Z</time>
      </trkpt>
      <trkpt lat="44.69628" lon="3.8368">
        <ele>968</ele>
        <time>2013-09-26T12:10:19Z</time>
      </trkpt>
      <trkpt lat="44.69629" lon="3.83672">
        <ele>968</ele>
        <time>2013-09-26T12:10:20Z</time>
      </trkpt>
      <trkpt lat="44.69631" lon="3.83663">
        <ele>966</ele>
        <time>2013-09-26T12:10:21Z</time>
      </trkpt>
      <trkpt lat="44.6963" lon="3.83656">
        <ele>966</ele>
        <time>2013-09-26T12:11:33Z</time>
      </trkpt>
      <trkpt lat="44.69634" lon="3.83649">
        <ele>966</ele>
        <time>2013-09-26T12:11:35Z</time>
      </trkpt>
      <trkpt lat="44.69644" lon="3.83644">
        <ele>965</ele>
        <time>2013-09-26T12:11:36Z</time>
      </trkpt>
      <trkpt lat="44.69653" lon="3.83639">
        <ele>964</ele>
        <time>2013-09-26T12:11:37Z</time>
      </trkpt>
      <trkpt lat="44.69661" lon="3.83634">
        <ele>964</ele>
        <time>2013-09-26T12:11:38Z</time>
      </trkpt>
      <trkpt lat="44.69666" lon="3.83634">
        <ele>964</ele>
        <time>2013-09-26T12:11:50Z</time>
      </trkpt>
      <trkpt lat="44.69671" lon="3.83637">
        <ele>958</ele>
        <time>2013-09-26T12:11:51Z</time>
      </trkpt>
      <trkpt lat="44.69677" lon="3.8364">
        <ele>958</ele>
        <time>2013-09-26T12:11:54Z</time>
      </trkpt>
      <trkpt lat="44.69687" lon="3.8365">
        <ele>958</ele>
        <time>2013-09-26T12:11:56Z</time>
      </trkpt>
      <trkpt lat="44.69692" lon="3.83652">
        <ele>958</ele>
        <time>2013-09-26T12:12:00Z</time>
      </trkpt>
      <trkpt lat="44.69696" lon="3.83652">
        <ele>958</ele>
        <time>2013-09-26T12:12:09Z</time>
      </trkpt>
      <trkpt lat="44.69706" lon="3.83654">
        <ele>957</ele>
        <time>2013-09-26T12:12:11Z</time>
      </trkpt>
      <trkpt lat="44.69714" lon="3.83656">
        <ele>956</ele>
        <time>2013-09-26T12:12:12Z</time>
      </trkpt>
      <trkpt lat="44.69715" lon="3.83648">
        <ele>956</ele>
        <time>2013-09-26T12:12:19Z</time>
      </trkpt>
      <trkpt lat="44.69713" lon="3.83641">
        <ele>956</ele>
        <time>2013-09-26T12:12:21Z</time>
      </trkpt>
      <trkpt lat="44.69708" lon="3.83642">
        <ele>957</ele>
        <time>2013-09-26T12:12:37Z</time>
      </trkpt>
      <trkpt lat="44.697" lon="3.83647">
        <ele>957</ele>
        <time>2013-09-26T12:12:47Z</time>
      </trkpt>
      <trkpt lat="44.69693" lon="3.83651">
        <ele>958</ele>
        <time>2013-09-26T12:12:47Z</time>
      </trkpt>
      <trkpt lat="44.69685" lon="3.83653">
        <ele>959</ele>
        <time>2013-09-26T12:12:48Z</time>
      </trkpt>
      <trkpt lat="44.69678" lon="3.83655">
        <ele>960</ele>
        <time>2013-09-26T12:12:50Z</time>
      </trkpt>
      <trkpt lat="44.69677" lon="3.83661">
        <ele>960</ele>
        <time>2013-09-26T12:13:13Z</time>
      </trkpt>
      <trkpt lat="44.69672" lon="3.83661">
        <ele>961</ele>
        <time>2013-09-26T12:14:03Z</time>
      </trkpt>
      <trkpt lat="44.69668" lon="3.83666">
        <ele>963</ele>
        <time>2013-09-26T12:14:19Z</time>
      </trkpt>
      <trkpt lat="44.69659" lon="3.83669">
        <ele>964</ele>
        <time>2013-09-26T12:14:20Z</time>
      </trkpt>
      <trkpt lat="44.69651" lon="3.83672">
        <ele>966</ele>
        <time>2013-09-26T12:14:21Z</time>
      </trkpt>
      <trkpt lat="44.69642" lon="3.83674">
        <ele>967</ele>
        <time>2013-09-26T12:14:22Z</time>
      </trkpt>
      <trkpt lat="44.69637" lon="3.83671">
        <ele>967</ele>
        <time>2013-09-26T12:14:41Z</time>
      </trkpt>
      <trkpt lat="44.69632" lon="3.83667">
        <ele>968</ele>
        <time>2013-09-26T12:14:51Z</time>
      </trkpt>
      <trkpt lat="44.69627" lon="3.83662">
        <ele>967</ele>
        <time>2013-09-26T12:15:17Z</time>
      </trkpt>
      <trkpt lat="44.69624" lon="3.8367">
        <ele>968</ele>
        <time>2013-09-26T12:15:49Z</time>
      </trkpt>
      <trkpt lat="44.69619" lon="3.83673">
        <ele>969</ele>
        <time>2013-09-26T12:16:07Z</time>
      </trkpt>
      <trkpt lat="44.69614" lon="3.83673">
        <ele>969</ele>
        <time>2013-09-26T12:16:16Z</time>
      </trkpt>
      <trkpt lat="44.69608" lon="3.83674">
        <ele>970</ele>
        <time>2013-09-26T12:16:22Z</time>
      </trkpt>
      <trkpt lat="44.69603" lon="3.83673">
        <ele>971</ele>
        <time>2013-09-26T12:16:23Z</time>
      </trkpt>
      <trkpt lat="44.69596" lon="3.83673">
        <ele>972</ele>
        <time>2013-09-26T12:16:24Z</time>
      </trkpt>
      <trkpt lat="44.69591" lon="3.83674">
        <ele>972</ele>
        <time>2013-09-26T12:16:26Z</time>
      </trkpt>
      <trkpt lat="44.69585" lon="3.83675">
        <ele>973</ele>
        <time>2013-09-26T12:16:29Z</time>
      </trkpt>
      <trkpt lat="44.69578" lon="3.83666">
        <ele>976</ele>
        <time>2013-09-26T12:16:38Z</time>
      </trkpt>
      <trkpt lat="44.69573" lon="3.83662">
        <ele>976</ele>
        <time>2013-09-26T12:16:41Z</time>
      </trkpt>
      <trkpt lat="44.69568" lon="3.83658">
        <ele>977</ele>
        <time>2013-09-26T12:16:43Z</time>
      </trkpt>
      <trkpt lat="44.69562" lon="3.83655">
        <ele>977</ele>
        <time>2013-09-26T12:16:45Z</time>
      </trkpt>
      <trkpt lat="44.69557" lon="3.83653">
        <ele>978</ele>
        <time>2013-09-26T12:16:47Z</time>
      </trkpt>
      <trkpt lat="44.69552" lon="3.83649">
        <ele>978</ele>
        <time>2013-09-26T12:16:49Z</time>
      </trkpt>
      <trkpt lat="44.69546" lon="3.83644">
        <ele>979</ele>
        <time>2013-09-26T12:16:50Z</time>
      </trkpt>
      <trkpt lat="44.69542" lon="3.83639">
        <ele>979</ele>
        <time>2013-09-26T12:16:59Z</time>
      </trkpt>
      <trkpt lat="44.69539" lon="3.83633">
        <ele>979</ele>
        <time>2013-09-26T12:17:01Z</time>
      </trkpt>
      <trkpt lat="44.69537" lon="3.83625">
        <ele>979</ele>
        <time>2013-09-26T12:17:08Z</time>
      </trkpt>
      <trkpt lat="44.69534" lon="3.83619">
        <ele>979</ele>
        <time>2013-09-26T12:17:11Z</time>
      </trkpt>
      <trkpt lat="44.69531" lon="3.83613">
        <ele>979</ele>
        <time>2013-09-26T12:17:13Z</time>
      </trkpt>
      <trkpt lat="44.69529" lon="3.83603">
        <ele>979</ele>
        <time>2013-09-26T12:17:15Z</time>
      </trkpt>
      <trkpt lat="44.69529" lon="3.83595">
        <ele>979</ele>
        <time>2013-09-26T12:17:18Z</time>
      </trkpt>
      <trkpt lat="44.69528" lon="3.83589">
        <ele>979</ele>
        <time>2013-09-26T12:17:22Z</time>
      </trkpt>
      <trkpt lat="44.6953" lon="3.83595">
        <ele>979</ele>
        <time>2013-09-26T12:17:38Z</time>
      </trkpt>
      <trkpt lat="44.69534" lon="3.83596">
        <ele>979</ele>
        <time>2013-09-26T12:17:47Z</time>
      </trkpt>
      <trkpt lat="44.69539" lon="3.83595">
        <ele>978</ele>
        <time>2013-09-26T12:17:52Z</time>
      </trkpt>
      <trkpt lat="44.69544" lon="3.83595">
        <ele>978</ele>
        <time>2013-09-26T12:17:59Z</time>
      </trkpt>
      <trkpt lat="44.69548" lon="3.83593">
        <ele>977</ele>
        <time>2013-09-26T12:18:07Z</time>
      </trkpt>
      <trkpt lat="44.69553" lon="3.83591">
        <ele>976</ele>
        <time>2013-09-26T12:18:12Z</time>
      </trkpt>
      <trkpt lat="44.69555" lon="3.83582">
        <ele>973</ele>
        <time>2013-09-26T12:18:17Z</time>
      </trkpt>
      <trkpt lat="44.69553" lon="3.83575">
        <ele>973</ele>
        <time>2013-09-26T12:18:22Z</time>
      </trkpt>
      <trkpt lat="44.69551" lon="3.83569">
        <ele>973</ele>
        <time>2013-09-26T12:18:28Z</time>
      </trkpt>
      <trkpt lat="44.69552" lon="3.83561">
        <ele>973</ele>
        <time>2013-09-26T12:18:30Z</time>
      </trkpt>
      <trkpt lat="44.69552" lon="3.83554">
        <ele>973</ele>
        <time>2013-09-26T12:18:32Z</time>
      </trkpt>
      <trkpt lat="44.69553" lon="3.83546">
        <ele>972</ele>
        <time>2013-09-26T12:18:35Z</time>
      </trkpt>
      <trkpt lat="44.69553" lon="3.8354">
        <ele>972</ele>
        <time>2013-09-26T12:18:40Z</time>
      </trkpt>
      <trkpt lat="44.69556" lon="3.83533">
        <ele>971</ele>
        <time>2013-09-26T12:19:02Z</time>
      </trkpt>
      <trkpt lat="44.6956" lon="3.83529">
        <ele>971</ele>
        <time>2013-09-26T12:19:08Z</time>
      </trkpt>
      <trkpt lat="44.69564" lon="3.83526">
        <ele>970</ele>
        <time>2013-09-26T12:19:14Z</time>
      </trkpt>
      <trkpt lat="44.69569" lon="3.83525">
        <ele>969</ele>
        <time>2013-09-26T12:19:19Z</time>
      </trkpt>
      <trkpt lat="44.69574" lon="3.83523">
        <ele>969</ele>
        <time>2013-09-26T12:19:26Z</time>
      </trkpt>
      <trkpt lat="44.69579" lon="3.83521">
        <ele>968</ele>
        <time>2013-09-26T12:19:30Z</time>
      </trkpt>
      <trkpt lat="44.69583" lon="3.83519">
        <ele>968</ele>
        <time>2013-09-26T12:19:34Z</time>
      </trkpt>
      <trkpt lat="44.69588" lon="3.83519">
        <ele>961</ele>
        <time>2013-09-26T12:19:41Z</time>
      </trkpt>
      <trkpt lat="44.69593" lon="3.8352">
        <ele>961</ele>
        <time>2013-09-26T12:19:52Z</time>
      </trkpt>
      <trkpt lat="44.69595" lon="3.83527">
        <ele>961</ele>
        <time>2013-09-26T12:20:00Z</time>
      </trkpt>
      <trkpt lat="44.69598" lon="3.83536">
        <ele>962</ele>
        <time>2013-09-26T12:20:02Z</time>
      </trkpt>
      <trkpt lat="44.69597" lon="3.83546">
        <ele>962</ele>
        <time>2013-09-26T12:20:03Z</time>
      </trkpt>
      <trkpt lat="44.69596" lon="3.83553">
        <ele>963</ele>
        <time>2013-09-26T12:20:04Z</time>
      </trkpt>
      <trkpt lat="44.69596" lon="3.83565">
        <ele>964</ele>
        <time>2013-09-26T12:20:06Z</time>
      </trkpt>
      <trkpt lat="44.69598" lon="3.83574">
        <ele>964</ele>
        <time>2013-09-26T12:20:08Z</time>
      </trkpt>
      <trkpt lat="44.696" lon="3.83581">
        <ele>965</ele>
        <time>2013-09-26T12:20:10Z</time>
      </trkpt>
      <trkpt lat="44.69602" lon="3.83587">
        <ele>967</ele>
        <time>2013-09-26T12:20:12Z</time>
      </trkpt>
      <trkpt lat="44.69606" lon="3.83592">
        <ele>966</ele>
        <time>2013-09-26T12:20:14Z</time>
      </trkpt>
      <trkpt lat="44.69612" lon="3.83595">
        <ele>966</ele>
        <time>2013-09-26T12:20:17Z</time>
      </trkpt>
      <trkpt lat="44.69617" lon="3.83596">
        <ele>965</ele>
        <time>2013-09-26T12:20:21Z</time>
      </trkpt>
      <trkpt lat="44.69622" lon="3.83599">
        <ele>965</ele>
        <time>2013-09-26T12:20:25Z</time>
      </trkpt>
      <trkpt lat="44.69626" lon="3.83603">
        <ele>965</ele>
        <time>2013-09-26T12:20:31Z</time>
      </trkpt>
      <trkpt lat="44.69628" lon="3.83608">
        <ele>965</ele>
        <time>2013-09-26T12:20:33Z</time>
      </trkpt>
      <trkpt lat="44.69633" lon="3.83615">
        <ele>964</ele>
        <time>2013-09-26T12:20:35Z</time>
      </trkpt>
      <trkpt lat="44.69638" lon="3.83619">
        <ele>964</ele>
        <time>2013-09-26T12:20:39Z</time>
      </trkpt>
      <trkpt lat="44.69643" lon="3.83621">
        <ele>964</ele>
        <time>2013-09-26T12:20:41Z</time>
      </trkpt>
      <trkpt lat="44.69648" lon="3.83622">
        <ele>964</ele>
        <time>2013-09-26T12:20:56Z</time>
      </trkpt>
      <trkpt lat="44.69653" lon="3.83623">
        <ele>963</ele>
        <time>2013-09-26T12:20:58Z</time>
      </trkpt>
      <trkpt lat="44.69658" lon="3.83624">
        <ele>963</ele>
        <time>2013-09-26T12:21:02Z</time>
      </trkpt>
      <trkpt lat="44.69664" lon="3.83625">
        <ele>963</ele>
        <time>2013-09-26T12:21:05Z</time>
      </trkpt>
      <trkpt lat="44.69669" lon="3.83627">
        <ele>957</ele>
        <time>2013-09-26T12:21:09Z</time>
      </trkpt>
      <trkpt lat="44.69677" lon="3.83628">
        <ele>957</ele>
        <time>2013-09-26T12:21:11Z</time>
      </trkpt>
      <trkpt lat="44.69682" lon="3.83628">
        <ele>957</ele>
        <time>2013-09-26T12:21:24Z</time>
      </trkpt>
      <trkpt lat="44.69687" lon="3.83627">
        <ele>957</ele>
        <time>2013-09-26T12:21:32Z</time>
      </trkpt>
      <trkpt lat="44.69693" lon="3.83627">
        <ele>957</ele>
        <time>2013-09-26T12:21:38Z</time>
      </trkpt>
      <trkpt lat="44.69696" lon="3.83622">
        <ele>957</ele>
        <time>2013-09-26T12:21:49Z</time>
      </trkpt>
      <trkpt lat="44.69694" lon="3.83615">
        <ele>956</ele>
        <time>2013-09-26T12:21:53Z</time>
      </trkpt>
      <trkpt lat="44.69693" lon="3.83609">
        <ele>956</ele>
        <time>2013-09-26T12:22:02Z</time>
      </trkpt>
      <trkpt lat="44.69691" lon="3.83602">
        <ele>956</ele>
        <time>2013-09-26T12:22:11Z</time>
      </trkpt>
      <trkpt lat="44.69688" lon="3.83596">
        <ele>956</ele>
        <time>2013-09-26T12:22:17Z</time>
      </trkpt>
      <trkpt lat="44.69686" lon="3.8359">
        <ele>956</ele>
        <time>2013-09-26T12:22:21Z</time>
      </trkpt>
      <trkpt lat="44.69684" lon="3.83583">
        <ele>956</ele>
        <time>2013-09-26T12:22:28Z</time>
      </trkpt>
      <trkpt lat="44.69681" lon="3.83578">
        <ele>956</ele>
        <time>2013-09-26T12:22:33Z</time>
      </trkpt>
      <trkpt lat="44.69677" lon="3.83571">
        <ele>956</ele>
        <time>2013-09-26T12:22:38Z</time>
      </trkpt>
      <trkpt lat="44.69677" lon="3.83565">
        <ele>956</ele>
        <time>2013-09-26T12:22:42Z</time>
      </trkpt>
      <trkpt lat="44.69674" lon="3.83559">
        <ele>956</ele>
        <time>2013-09-26T12:22:46Z</time>
      </trkpt>
      <trkpt lat="44.69672" lon="3.83552">
        <ele>957</ele>
        <time>2013-09-26T12:22:56Z</time>
      </trkpt>
      <trkpt lat="44.69671" lon="3.83546">
        <ele>957</ele>
        <time>2013-09-26T12:23:01Z</time>
      </trkpt>
      <trkpt lat="44.69669" lon="3.83539">
        <ele>957</ele>
        <time>2013-09-26T12:23:06Z</time>
      </trkpt>
      <trkpt lat="44.69667" lon="3.83532">
        <ele>957</ele>
        <time>2013-09-26T12:23:12Z</time>
      </trkpt>
      <trkpt lat="44.69665" lon="3.83527">
        <ele>958</ele>
        <time>2013-09-26T12:23:23Z</time>
      </trkpt>
      <trkpt lat="44.69663" lon="3.83521">
        <ele>958</ele>
        <time>2013-09-26T12:23:29Z</time>
      </trkpt>
      <trkpt lat="44.6966" lon="3.83516">
        <ele>957</ele>
        <time>2013-09-26T12:23:42Z</time>
      </trkpt>
      <trkpt lat="44.69658" lon="3.83509">
        <ele>957</ele>
        <time>2013-09-26T12:23:47Z</time>
      </trkpt>
      <trkpt lat="44.69658" lon="3.83502">
        <ele>957</ele>
        <time>2013-09-26T12:23:53Z</time>
      </trkpt>
      <trkpt lat="44.69658" lon="3.83496">
        <ele>957</ele>
        <time>2013-09-26T12:24:02Z</time>
      </trkpt>
      <trkpt lat="44.69658" lon="3.83489">
        <ele>957</ele>
        <time>2013-09-26T12:24:15Z</time>
      </trkpt>
      <trkpt lat="44.69656" lon="3.83483">
        <ele>958</ele>
        <time>2013-09-26T12:24:22Z</time>
      </trkpt>
      <trkpt lat="44.69655" lon="3.83477">
        <ele>958</ele>
        <time>2013-09-26T12:24:27Z</time>
      </trkpt>
      <trkpt lat="44.69652" lon="3.83472">
        <ele>959</ele>
        <time>2013-09-26T12:24:37Z</time>
      </trkpt>
      <trkpt lat="44.69652" lon="3.83465">
        <ele>959</ele>
        <time>2013-09-26T12:24:47Z</time>
      </trkpt>
      <trkpt lat="44.69652" lon="3.83458">
        <ele>959</ele>
        <time>2013-09-26T12:24:55Z</time>
      </trkpt>
      <trkpt lat="44.69651" lon="3.83452">
        <ele>960</ele>
        <time>2013-09-26T12:25:04Z</time>
      </trkpt>
      <trkpt lat="44.69649" lon="3.83445">
        <ele>960</ele>
        <time>2013-09-26T12:25:09Z</time>
      </trkpt>
      <trkpt lat="44.69648" lon="3.83437">
        <ele>960</ele>
        <time>2013-09-26T12:25:15Z</time>
      </trkpt>
      <trkpt lat="44.69647" lon="3.8343">
        <ele>960</ele>
        <time>2013-09-26T12:25:22Z</time>
      </trkpt>
      <trkpt lat="44.69646" lon="3.83424">
        <ele>961</ele>
        <time>2013-09-26T12:25:30Z</time>
      </trkpt>
      <trkpt lat="44.69645" lon="3.83417">
        <ele>961</ele>
        <time>2013-09-26T12:25:34Z</time>
      </trkpt>
      <trkpt lat="44.69644" lon="3.8341">
        <ele>964</ele>
        <time>2013-09-26T12:25:41Z</time>
      </trkpt>
      <trkpt lat="44.69642" lon="3.83403">
        <ele>964</ele>
        <time>2013-09-26T12:25:47Z</time>
      </trkpt>
      <trkpt lat="44.69639" lon="3.83397">
        <ele>964</ele>
        <time>2013-09-26T12:25:51Z</time>
      </trkpt>
      <trkpt lat="44.69635" lon="3.83392">
        <ele>964</ele>
        <time>2013-09-26T12:25:57Z</time>
      </trkpt>
      <trkpt lat="44.69631" lon="3.83388">
        <ele>964</ele>
        <time>2013-09-26T12:26:03Z</time>
      </trkpt>
      <trkpt lat="44.69629" lon="3.83382">
        <ele>965</ele>
        <time>2013-09-26T12:26:11Z</time>
      </trkpt>
      <trkpt lat="44.69627" lon="3.83376">
        <ele>965</ele>
        <time>2013-09-26T12:26:17Z</time>
      </trkpt>
      <trkpt lat="44.69625" lon="3.8337">
        <ele>965</ele>
        <time>2013-09-26T12:26:25Z</time>
      </trkpt>
      <trkpt lat="44.69622" lon="3.83364">
        <ele>965</ele>
        <time>2013-09-26T12:26:30Z</time>
      </trkpt>
      <trkpt lat="44.69619" lon="3.83358">
        <ele>965</ele>
        <time>2013-09-26T12:26:37Z</time>
      </trkpt>
      <trkpt lat="44.69618" lon="3.83351">
        <ele>965</ele>
        <time>2013-09-26T12:26:41Z</time>
      </trkpt>
      <trkpt lat="44.69614" lon="3.83346">
        <ele>965</ele>
        <time>2013-09-26T12:26:45Z</time>
      </trkpt>
      <trkpt lat="44.6961" lon="3.83344">
        <ele>964</ele>
        <time>2013-09-26T12:26:49Z</time>
      </trkpt>
      <trkpt lat="44.69606" lon="3.83339">
        <ele>964</ele>
        <time>2013-09-26T12:26:54Z</time>
      </trkpt>
      <trkpt lat="44.69603" lon="3.83333">
        <ele>964</ele>
        <time>2013-09-26T12:26:59Z</time>
      </trkpt>
      <trkpt lat="44.696" lon="3.83329">
        <ele>967</ele>
        <time>2013-09-26T12:27:05Z</time>
      </trkpt>
      <trkpt lat="44.69597" lon="3.83324">
        <ele>967</ele>
        <time>2013-09-26T12:27:13Z</time>
      </trkpt>
      <trkpt lat="44.69595" lon="3.83318">
        <ele>967</ele>
        <time>2013-09-26T12:27:19Z</time>
      </trkpt>
      <trkpt lat="44.69592" lon="3.83312">
        <ele>968</ele>
        <time>2013-09-26T12:27:27Z</time>
      </trkpt>
      <trkpt lat="44.69591" lon="3.83306">
        <ele>969</ele>
        <time>2013-09-26T12:27:32Z</time>
      </trkpt>
      <trkpt lat="44.69589" lon="3.833">
        <ele>969</ele>
        <time>2013-09-26T12:27:38Z</time>
      </trkpt>
      <trkpt lat="44.69585" lon="3.83295">
        <ele>970</ele>
        <time>2013-09-26T12:27:42Z</time>
      </trkpt>
      <trkpt lat="44.69582" lon="3.83291">
        <ele>965</ele>
        <time>2013-09-26T12:27:48Z</time>
      </trkpt>
      <trkpt lat="44.6958" lon="3.83285">
        <ele>966</ele>
        <time>2013-09-26T12:27:57Z</time>
      </trkpt>
      <trkpt lat="44.69577" lon="3.83278">
        <ele>966</ele>
        <time>2013-09-26T12:28:05Z</time>
      </trkpt>
      <trkpt lat="44.69576" lon="3.83272">
        <ele>966</ele>
        <time>2013-09-26T12:28:10Z</time>
      </trkpt>
      <trkpt lat="44.69574" lon="3.83266">
        <ele>966</ele>
        <time>2013-09-26T12:28:17Z</time>
      </trkpt>
      <trkpt lat="44.69572" lon="3.83259">
        <ele>966</ele>
        <time>2013-09-26T12:28:25Z</time>
      </trkpt>
      <trkpt lat="44.69571" lon="3.83253">
        <ele>966</ele>
        <time>2013-09-26T12:28:34Z</time>
      </trkpt>
      <trkpt lat="44.69569" lon="3.83246">
        <ele>970</ele>
        <time>2013-09-26T12:28:40Z</time>
      </trkpt>
      <trkpt lat="44.69567" lon="3.8324">
        <ele>971</ele>
        <time>2013-09-26T12:28:46Z</time>
      </trkpt>
      <trkpt lat="44.69565" lon="3.83233">
        <ele>972</ele>
        <time>2013-09-26T12:28:52Z</time>
      </trkpt>
      <trkpt lat="44.69563" lon="3.83226">
        <ele>973</ele>
        <time>2013-09-26T12:29:01Z</time>
      </trkpt>
      <trkpt lat="44.6956" lon="3.83221">
        <ele>973</ele>
        <time>2013-09-26T12:29:11Z</time>
      </trkpt>
      <trkpt lat="44.69558" lon="3.83214">
        <ele>974</ele>
        <time>2013-09-26T12:29:19Z</time>
      </trkpt>
      <trkpt lat="44.69558" lon="3.83207">
        <ele>975</ele>
        <time>2013-09-26T12:29:32Z</time>
      </trkpt>
      <trkpt lat="44.69556" lon="3.83201">
        <ele>976</ele>
        <time>2013-09-26T12:29:36Z</time>
      </trkpt>
      <trkpt lat="44.69555" lon="3.83195">
        <ele>977</ele>
        <time>2013-09-26T12:29:39Z</time>
      </trkpt>
      <trkpt lat="44.69553" lon="3.83188">
        <ele>977</ele>
        <time>2013-09-26T12:29:44Z</time>
      </trkpt>
      <trkpt lat="44.69553" lon="3.83182">
        <ele>978</ele>
        <time>2013-09-26T12:29:49Z</time>
      </trkpt>
      <trkpt lat="44.69552" lon="3.83174">
        <ele>979</ele>
        <time>2013-09-26T12:29:54Z</time>
      </trkpt>
      <trkpt lat="44.69552" lon="3.83167">
        <ele>979</ele>
        <time>2013-09-26T12:30:01Z</time>
      </trkpt>
      <trkpt lat="44.6955" lon="3.8316">
        <ele>991</ele>
        <time>2013-09-26T12:30:05Z</time>
      </trkpt>
      <trkpt lat="44.69547" lon="3.83156">
        <ele>991</ele>
        <time>2013-09-26T12:30:09Z</time>
      </trkpt>
      <trkpt lat="44.69543" lon="3.8315">
        <ele>992</ele>
        <time>2013-09-26T12:30:14Z</time>
      </trkpt>
      <trkpt lat="44.6954" lon="3.83145">
        <ele>992</ele>
        <time>2013-09-26T12:30:19Z</time>
      </trkpt>
      <trkpt lat="44.6954" lon="3.83138">
        <ele>993</ele>
        <time>2013-09-26T12:30:28Z</time>
      </trkpt>
      <trkpt lat="44.69535" lon="3.83131">
        <ele>993</ele>
        <time>2013-09-26T12:30:31Z</time>
      </trkpt>
      <trkpt lat="44.69532" lon="3.83126">
        <ele>994</ele>
        <time>2013-09-26T12:30:35Z</time>
      </trkpt>
      <trkpt lat="44.69529" lon="3.8312">
        <ele>995</ele>
        <time>2013-09-26T12:30:41Z</time>
      </trkpt>
      <trkpt lat="44.69529" lon="3.83112">
        <ele>995</ele>
        <time>2013-09-26T12:30:47Z</time>
      </trkpt>
      <trkpt lat="44.69526" lon="3.83105">
        <ele>996</ele>
        <time>2013-09-26T12:30:51Z</time>
      </trkpt>
      <trkpt lat="44.69524" lon="3.83099">
        <ele>997</ele>
        <time>2013-09-26T12:30:55Z</time>
      </trkpt>
      <trkpt lat="44.69522" lon="3.83093">
        <ele>997</ele>
        <time>2013-09-26T12:31:00Z</time>
      </trkpt>
      <trkpt lat="44.69521" lon="3.83086">
        <ele>998</ele>
        <time>2013-09-26T12:31:05Z</time>
      </trkpt>
      <trkpt lat="44.69521" lon="3.83079">
        <ele>1005</ele>
        <time>2013-09-26T12:31:11Z</time>
      </trkpt>
      <trkpt lat="44.69519" lon="3.83073">
        <ele>1005</ele>
        <time>2013-09-26T12:31:16Z</time>
      </trkpt>
      <trkpt lat="44.69517" lon="3.83066">
        <ele>1006</ele>
        <time>2013-09-26T12:31:26Z</time>
      </trkpt>
      <trkpt lat="44.69518" lon="3.8306">
        <ele>1006</ele>
        <time>2013-09-26T12:31:30Z</time>
      </trkpt>
      <trkpt lat="44.69521" lon="3.83056">
        <ele>1007</ele>
        <time>2013-09-26T12:31:35Z</time>
      </trkpt>
      <trkpt lat="44.69525" lon="3.83052">
        <ele>1008</ele>
        <time>2013-09-26T12:31:41Z</time>
      </trkpt>
      <trkpt lat="44.69526" lon="3.83045">
        <ele>1008</ele>
        <time>2013-09-26T12:31:47Z</time>
      </trkpt>
      <trkpt lat="44.69528" lon="3.83039">
        <ele>1009</ele>
        <time>2013-09-26T12:31:53Z</time>
      </trkpt>
      <trkpt lat="44.69528" lon="3.83032">
        <ele>1009</ele>
        <time>2013-09-26T12:31:58Z</time>
      </trkpt>
      <trkpt lat="44.69524" lon="3.83026">
        <ele>1009</ele>
        <time>2013-09-26T12:32:02Z</time>
      </trkpt>
      <trkpt lat="44.69523" lon="3.8302">
        <ele>1009</ele>
        <time>2013-09-26T12:32:09Z</time>
      </trkpt>
      <trkpt lat="44.6952" lon="3.83014">
        <ele>1009</ele>
        <time>2013-09-26T12:32:16Z</time>
      </trkpt>
      <trkpt lat="44.69521" lon="3.83007">
        <ele>1009</ele>
        <time>2013-09-26T12:32:26Z</time>
      </trkpt>
      <trkpt lat="44.69521" lon="3.83">
        <ele>1013</ele>
        <time>2013-09-26T12:32:38Z</time>
      </trkpt>
      <trkpt lat="44.69518" lon="3.82993">
        <ele>1013</ele>
        <time>2013-09-26T12:32:43Z</time>
      </trkpt>
      <trkpt lat="44.69516" lon="3.82984">
        <ele>1014</ele>
        <time>2013-09-26T12:32:48Z</time>
      </trkpt>
      <trkpt lat="44.69517" lon="3.82977">
        <ele>1015</ele>
        <time>2013-09-26T12:32:53Z</time>
      </trkpt>
      <trkpt lat="44.69516" lon="3.82969">
        <ele>1016</ele>
        <time>2013-09-26T12:32:59Z</time>
      </trkpt>
      <trkpt lat="44.69514" lon="3.82963">
        <ele>1016</ele>
        <time>2013-09-26T12:33:02Z</time>
      </trkpt>
      <trkpt lat="44.69513" lon="3.82956">
        <ele>1017</ele>
        <time>2013-09-26T12:33:06Z</time>
      </trkpt>
      <trkpt lat="44.6951" lon="3.8295">
        <ele>1017</ele>
        <time>2013-09-26T12:33:16Z</time>
      </trkpt>
      <trkpt lat="44.69509" lon="3.82942">
        <ele>1017</ele>
        <time>2013-09-26T12:33:22Z</time>
      </trkpt>
      <trkpt lat="44.69507" lon="3.82936">
        <ele>1017</ele>
        <time>2013-09-26T12:33:32Z</time>
      </trkpt>
      <trkpt lat="44.6951" lon="3.82931">
        <ele>1017</ele>
        <time>2013-09-26T12:33:38Z</time>
      </trkpt>
      <trkpt lat="44.6951" lon="3.82924">
        <ele>1017</ele>
        <time>2013-09-26T12:33:44Z</time>
      </trkpt>
      <trkpt lat="44.69508" lon="3.82917">
        <ele>1017</ele>
        <time>2013-09-26T12:33:50Z</time>
      </trkpt>
      <trkpt lat="44.69507" lon="3.82909">
        <ele>1020</ele>
        <time>2013-09-26T12:33:54Z</time>
      </trkpt>
      <trkpt lat="44.69505" lon="3.82903">
        <ele>1021</ele>
        <time>2013-09-26T12:33:57Z</time>
      </trkpt>
      <trkpt lat="44.69507" lon="3.82896">
        <ele>1023</ele>
        <time>2013-09-26T12:34:01Z</time>
      </trkpt>
      <trkpt lat="44.69512" lon="3.82893">
        <ele>1024</ele>
        <time>2013-09-26T12:34:04Z</time>
      </trkpt>
      <trkpt lat="44.69517" lon="3.82889">
        <ele>1025</ele>
        <time>2013-09-26T12:34:08Z</time>
      </trkpt>
      <trkpt lat="44.6952" lon="3.82884">
        <ele>1025</ele>
        <time>2013-09-26T12:34:13Z</time>
      </trkpt>
      <trkpt lat="44.69518" lon="3.82877">
        <ele>1026</ele>
        <time>2013-09-26T12:34:19Z</time>
      </trkpt>
      <trkpt lat="44.69515" lon="3.82872">
        <ele>1026</ele>
        <time>2013-09-26T12:34:23Z</time>
      </trkpt>
      <trkpt lat="44.69513" lon="3.82865">
        <ele>1026</ele>
        <time>2013-09-26T12:34:27Z</time>
      </trkpt>
      <trkpt lat="44.69516" lon="3.82861">
        <ele>1027</ele>
        <time>2013-09-26T12:34:32Z</time>
      </trkpt>
      <trkpt lat="44.69515" lon="3.82853">
        <ele>1027</ele>
        <time>2013-09-26T12:34:37Z</time>
      </trkpt>
      <trkpt lat="44.69517" lon="3.82847">
        <ele>1027</ele>
        <time>2013-09-26T12:34:43Z</time>
      </trkpt>
      <trkpt lat="44.69516" lon="3.82841">
        <ele>1027</ele>
        <time>2013-09-26T12:34:48Z</time>
      </trkpt>
      <trkpt lat="44.69515" lon="3.82834">
        <ele>1027</ele>
        <time>2013-09-26T12:34:52Z</time>
      </trkpt>
      <trkpt lat="44.69514" lon="3.82827">
        <ele>1031</ele>
        <time>2013-09-26T12:34:56Z</time>
      </trkpt>
      <trkpt lat="44.69513" lon="3.82818">
        <ele>1032</ele>
        <time>2013-09-26T12:35:00Z</time>
      </trkpt>
      <trkpt lat="44.69513" lon="3.82812">
        <ele>1032</ele>
        <time>2013-09-26T12:35:03Z</time>
      </trkpt>
      <trkpt lat="44.69512" lon="3.82804">
        <ele>1033</ele>
        <time>2013-09-26T12:35:07Z</time>
      </trkpt>
      <trkpt lat="44.69511" lon="3.82798">
        <ele>1033</ele>
        <time>2013-09-26T12:35:10Z</time>
      </trkpt>
      <trkpt lat="44.6951" lon="3.82791">
        <ele>1034</ele>
        <time>2013-09-26T12:35:14Z</time>
      </trkpt>
      <trkpt lat="44.69508" lon="3.82784">
        <ele>1034</ele>
        <time>2013-09-26T12:35:18Z</time>
      </trkpt>
      <trkpt lat="44.69504" lon="3.8278">
        <ele>1034</ele>
        <time>2013-09-26T12:35:22Z</time>
      </trkpt>
      <trkpt lat="44.69499" lon="3.82777">
        <ele>1029</ele>
        <time>2013-09-26T12:35:27Z</time>
      </trkpt>
      <trkpt lat="44.69496" lon="3.82773">
        <ele>1029</ele>
        <time>2013-09-26T12:35:43Z</time>
      </trkpt>
      <trkpt lat="44.69491" lon="3.82773">
        <ele>1029</ele>
        <time>2013-09-26T12:35:50Z</time>
      </trkpt>
      <trkpt lat="44.69486" lon="3.82772">
        <ele>1029</ele>
        <time>2013-09-26T12:35:56Z</time>
      </trkpt>
      <trkpt lat="44.69481" lon="3.82768">
        <ele>1029</ele>
        <time>2013-09-26T12:36:02Z</time>
      </trkpt>
      <trkpt lat="44.69476" lon="3.82768">
        <ele>1028</ele>
        <time>2013-09-26T12:36:06Z</time>
      </trkpt>
      <trkpt lat="44.69471" lon="3.82765">
        <ele>1028</ele>
        <time>2013-09-26T12:36:11Z</time>
      </trkpt>
      <trkpt lat="44.69466" lon="3.82764">
        <ele>1027</ele>
        <time>2013-09-26T12:36:16Z</time>
      </trkpt>
      <trkpt lat="44.69463" lon="3.82759">
        <ele>1027</ele>
        <time>2013-09-26T12:36:20Z</time>
      </trkpt>
      <trkpt lat="44.69458" lon="3.82756">
        <ele>1027</ele>
        <time>2013-09-26T12:36:24Z</time>
      </trkpt>
      <trkpt lat="44.69454" lon="3.82753">
        <ele>1027</ele>
        <time>2013-09-26T12:36:28Z</time>
      </trkpt>
      <trkpt lat="44.69449" lon="3.82748">
        <ele>1030</ele>
        <time>2013-09-26T12:36:32Z</time>
      </trkpt>
      <trkpt lat="44.69445" lon="3.82744">
        <ele>1030</ele>
        <time>2013-09-26T12:36:35Z</time>
      </trkpt>
      <trkpt lat="44.69441" lon="3.82742">
        <ele>1029</ele>
        <time>2013-09-26T12:36:38Z</time>
      </trkpt>
      <trkpt lat="44.69436" lon="3.82739">
        <ele>1029</ele>
        <time>2013-09-26T12:36:41Z</time>
      </trkpt>
      <trkpt lat="44.69431" lon="3.82735">
        <ele>1029</ele>
        <time>2013-09-26T12:36:45Z</time>
      </trkpt>
      <trkpt lat="44.69427" lon="3.82732">
        <ele>1029</ele>
        <time>2013-09-26T12:36:55Z</time>
      </trkpt>
      <trkpt lat="44.69422" lon="3.82732">
        <ele>1029</ele>
        <time>2013-09-26T12:37:00Z</time>
      </trkpt>
      <trkpt lat="44.69418" lon="3.82734">
        <ele>1028</ele>
        <time>2013-09-26T12:37:03Z</time>
      </trkpt>
      <trkpt lat="44.69413" lon="3.82734">
        <ele>1026</ele>
        <time>2013-09-26T12:37:06Z</time>
      </trkpt>
      <trkpt lat="44.69407" lon="3.82734">
        <ele>1026</ele>
        <time>2013-09-26T12:37:10Z</time>
      </trkpt>
      <trkpt lat="44.69402" lon="3.82731">
        <ele>1027</ele>
        <time>2013-09-26T12:37:19Z</time>
      </trkpt>
      <trkpt lat="44.69397" lon="3.82727">
        <ele>1027</ele>
        <time>2013-09-26T12:37:23Z</time>
      </trkpt>
      <trkpt lat="44.69393" lon="3.82722">
        <ele>1027</ele>
        <time>2013-09-26T12:37:26Z</time>
      </trkpt>
      <trkpt lat="44.69389" lon="3.82717">
        <ele>1028</ele>
        <time>2013-09-26T12:37:29Z</time>
      </trkpt>
      <trkpt lat="44.69385" lon="3.82712">
        <ele>1028</ele>
        <time>2013-09-26T12:37:33Z</time>
      </trkpt>
      <trkpt lat="44.69381" lon="3.82708">
        <ele>1028</ele>
        <time>2013-09-26T12:37:36Z</time>
      </trkpt>
      <trkpt lat="44.69376" lon="3.82706">
        <ele>1028</ele>
        <time>2013-09-26T12:37:40Z</time>
      </trkpt>
      <trkpt lat="44.69371" lon="3.82701">
        <ele>1028</ele>
        <time>2013-09-26T12:37:44Z</time>
      </trkpt>
      <trkpt lat="44.69366" lon="3.82698">
        <ele>1028</ele>
        <time>2013-09-26T12:37:48Z</time>
      </trkpt>
      <trkpt lat="44.69362" lon="3.82696">
        <ele>1029</ele>
        <time>2013-09-26T12:37:51Z</time>
      </trkpt>
      <trkpt lat="44.69357" lon="3.82694">
        <ele>1029</ele>
        <time>2013-09-26T12:37:55Z</time>
      </trkpt>
      <trkpt lat="44.69352" lon="3.82691">
        <ele>1029</ele>
        <time>2013-09-26T12:38:00Z</time>
      </trkpt>
      <trkpt lat="44.69348" lon="3.82688">
        <ele>1029</ele>
        <time>2013-09-26T12:38:04Z</time>
      </trkpt>
      <trkpt lat="44.69343" lon="3.82685">
        <ele>1029</ele>
        <time>2013-09-26T12:38:07Z</time>
      </trkpt>
      <trkpt lat="44.69338" lon="3.82684">
        <ele>1029</ele>
        <time>2013-09-26T12:38:11Z</time>
      </trkpt>
      <trkpt lat="44.69332" lon="3.82684">
        <ele>1026</ele>
        <time>2013-09-26T12:38:15Z</time>
      </trkpt>
      <trkpt lat="44.69328" lon="3.82682">
        <ele>1026</ele>
        <time>2013-09-26T12:38:18Z</time>
      </trkpt>
      <trkpt lat="44.69323" lon="3.82681">
        <ele>1026</ele>
        <time>2013-09-26T12:38:22Z</time>
      </trkpt>
      <trkpt lat="44.69317" lon="3.82677">
        <ele>1025</ele>
        <time>2013-09-26T12:38:26Z</time>
      </trkpt>
      <trkpt lat="44.69312" lon="3.82677">
        <ele>1024</ele>
        <time>2013-09-26T12:38:31Z</time>
      </trkpt>
      <trkpt lat="44.69306" lon="3.82675">
        <ele>1024</ele>
        <time>2013-09-26T12:38:36Z</time>
      </trkpt>
      <trkpt lat="44.69302" lon="3.82674">
        <ele>1023</ele>
        <time>2013-09-26T12:38:40Z</time>
      </trkpt>
      <trkpt lat="44.69298" lon="3.82668">
        <ele>1023</ele>
        <time>2013-09-26T12:38:45Z</time>
      </trkpt>
      <trkpt lat="44.69294" lon="3.82664">
        <ele>1026</ele>
        <time>2013-09-26T12:38:49Z</time>
      </trkpt>
      <trkpt lat="44.69291" lon="3.82658">
        <ele>1026</ele>
        <time>2013-09-26T12:38:53Z</time>
      </trkpt>
      <trkpt lat="44.69289" lon="3.82651">
        <ele>1026</ele>
        <time>2013-09-26T12:38:57Z</time>
      </trkpt>
      <trkpt lat="44.69286" lon="3.82645">
        <ele>1026</ele>
        <time>2013-09-26T12:39:01Z</time>
      </trkpt>
      <trkpt lat="44.69284" lon="3.82639">
        <ele>1026</ele>
        <time>2013-09-26T12:39:05Z</time>
      </trkpt>
      <trkpt lat="44.69282" lon="3.82633">
        <ele>1026</ele>
        <time>2013-09-26T12:39:09Z</time>
      </trkpt>
      <trkpt lat="44.6928" lon="3.82626">
        <ele>1026</ele>
        <time>2013-09-26T12:39:14Z</time>
      </trkpt>
      <trkpt lat="44.69277" lon="3.8262">
        <ele>1026</ele>
        <time>2013-09-26T12:39:20Z</time>
      </trkpt>
      <trkpt lat="44.69273" lon="3.82615">
        <ele>1026</ele>
        <time>2013-09-26T12:39:23Z</time>
      </trkpt>
      <trkpt lat="44.6927" lon="3.82611">
        <ele>1026</ele>
        <time>2013-09-26T12:39:26Z</time>
      </trkpt>
      <trkpt lat="44.69267" lon="3.82604">
        <ele>1026</ele>
        <time>2013-09-26T12:39:30Z</time>
      </trkpt>
      <trkpt lat="44.69265" lon="3.82595">
        <ele>1025</ele>
        <time>2013-09-26T12:39:34Z</time>
      </trkpt>
      <trkpt lat="44.69264" lon="3.82588">
        <ele>1025</ele>
        <time>2013-09-26T12:39:37Z</time>
      </trkpt>
      <trkpt lat="44.69262" lon="3.82581">
        <ele>1027</ele>
        <time>2013-09-26T12:39:40Z</time>
      </trkpt>
      <trkpt lat="44.69258" lon="3.82575">
        <ele>1027</ele>
        <time>2013-09-26T12:39:44Z</time>
      </trkpt>
      <trkpt lat="44.69254" lon="3.82569">
        <ele>1028</ele>
        <time>2013-09-26T12:39:48Z</time>
      </trkpt>
      <trkpt lat="44.69249" lon="3.82563">
        <ele>1025</ele>
        <time>2013-09-26T12:39:51Z</time>
      </trkpt>
      <trkpt lat="44.69246" lon="3.82557">
        <ele>1026</ele>
        <time>2013-09-26T12:39:54Z</time>
      </trkpt>
      <trkpt lat="44.69241" lon="3.82552">
        <ele>1026</ele>
        <time>2013-09-26T12:39:58Z</time>
      </trkpt>
      <trkpt lat="44.69237" lon="3.82547">
        <ele>1026</ele>
        <time>2013-09-26T12:40:02Z</time>
      </trkpt>
      <trkpt lat="44.69235" lon="3.8254">
        <ele>1027</ele>
        <time>2013-09-26T12:40:08Z</time>
      </trkpt>
      <trkpt lat="44.69235" lon="3.82532">
        <ele>1027</ele>
        <time>2013-09-26T12:40:31Z</time>
      </trkpt>
      <trkpt lat="44.69232" lon="3.82525">
        <ele>1028</ele>
        <time>2013-09-26T12:40:34Z</time>
      </trkpt>
      <trkpt lat="44.6923" lon="3.82518">
        <ele>1028</ele>
        <time>2013-09-26T12:40:37Z</time>
      </trkpt>
      <trkpt lat="44.69227" lon="3.82512">
        <ele>1028</ele>
        <time>2013-09-26T12:40:40Z</time>
      </trkpt>
      <trkpt lat="44.69226" lon="3.82505">
        <ele>1028</ele>
        <time>2013-09-26T12:40:44Z</time>
      </trkpt>
      <trkpt lat="44.69222" lon="3.825">
        <ele>1028</ele>
        <time>2013-09-26T12:40:51Z</time>
      </trkpt>
      <trkpt lat="44.69219" lon="3.82496">
        <ele>1033</ele>
        <time>2013-09-26T12:40:55Z</time>
      </trkpt>
      <trkpt lat="44.69214" lon="3.82493">
        <ele>1033</ele>
        <time>2013-09-26T12:41:00Z</time>
      </trkpt>
      <trkpt lat="44.6921" lon="3.8249">
        <ele>1034</ele>
        <time>2013-09-26T12:41:05Z</time>
      </trkpt>
      <trkpt lat="44.69206" lon="3.82487">
        <ele>1034</ele>
        <time>2013-09-26T12:41:10Z</time>
      </trkpt>
      <trkpt lat="44.69201" lon="3.82484">
        <ele>1034</ele>
        <time>2013-09-26T12:41:14Z</time>
      </trkpt>
      <trkpt lat="44.69198" lon="3.8248">
        <ele>1034</ele>
        <time>2013-09-26T12:41:17Z</time>
      </trkpt>
      <trkpt lat="44.69193" lon="3.82475">
        <ele>1034</ele>
        <time>2013-09-26T12:41:20Z</time>
      </trkpt>
      <trkpt lat="44.6919" lon="3.8247">
        <ele>1034</ele>
        <time>2013-09-26T12:41:23Z</time>
      </trkpt>
      <trkpt lat="44.69185" lon="3.82468">
        <ele>1034</ele>
        <time>2013-09-26T12:41:26Z</time>
      </trkpt>
      <trkpt lat="44.69181" lon="3.82464">
        <ele>1035</ele>
        <time>2013-09-26T12:41:29Z</time>
      </trkpt>
      <trkpt lat="44.69177" lon="3.8246">
        <ele>1035</ele>
        <time>2013-09-26T12:41:33Z</time>
      </trkpt>
      <trkpt lat="44.69172" lon="3.82459">
        <ele>1035</ele>
        <time>2013-09-26T12:41:37Z</time>
      </trkpt>
      <trkpt lat="44.69166" lon="3.82458">
        <ele>1038</ele>
        <time>2013-09-26T12:41:42Z</time>
      </trkpt>
      <trkpt lat="44.69161" lon="3.82456">
        <ele>1038</ele>
        <time>2013-09-26T12:41:47Z</time>
      </trkpt>
      <trkpt lat="44.69157" lon="3.82454">
        <ele>1038</ele>
        <time>2013-09-26T12:41:52Z</time>
      </trkpt>
      <trkpt lat="44.69152" lon="3.8245">
        <ele>1038</ele>
        <time>2013-09-26T12:41:57Z</time>
      </trkpt>
      <trkpt lat="44.69147" lon="3.82448">
        <ele>1039</ele>
        <time>2013-09-26T12:42:02Z</time>
      </trkpt>
      <trkpt lat="44.69143" lon="3.82444">
        <ele>1039</ele>
        <time>2013-09-26T12:42:06Z</time>
      </trkpt>
      <trkpt lat="44.69138" lon="3.82443">
        <ele>1039</ele>
        <time>2013-09-26T12:42:10Z</time>
      </trkpt>
      <trkpt lat="44.69132" lon="3.82441">
        <ele>1039</ele>
        <time>2013-09-26T12:42:14Z</time>
      </trkpt>
      <trkpt lat="44.69127" lon="3.82441">
        <ele>1039</ele>
        <time>2013-09-26T12:42:18Z</time>
      </trkpt>
      <trkpt lat="44.69122" lon="3.82441">
        <ele>1039</ele>
        <time>2013-09-26T12:42:22Z</time>
      </trkpt>
      <trkpt lat="44.69116" lon="3.82441">
        <ele>1039</ele>
        <time>2013-09-26T12:42:26Z</time>
      </trkpt>
      <trkpt lat="44.69111" lon="3.82443">
        <ele>1039</ele>
        <time>2013-09-26T12:42:30Z</time>
      </trkpt>
      <trkpt lat="44.69106" lon="3.82443">
        <ele>1039</ele>
        <time>2013-09-26T12:42:34Z</time>
      </trkpt>
      <trkpt lat="44.69101" lon="3.82443">
        <ele>1040</ele>
        <time>2013-09-26T12:42:38Z</time>
      </trkpt>
      <trkpt lat="44.69095" lon="3.82442">
        <ele>1040</ele>
        <time>2013-09-26T12:42:43Z</time>
      </trkpt>
      <trkpt lat="44.6909" lon="3.82441">
        <ele>1040</ele>
        <time>2013-09-26T12:42:48Z</time>
      </trkpt>
      <trkpt lat="44.69085" lon="3.82439">
        <ele>1040</ele>
        <time>2013-09-26T12:42:52Z</time>
      </trkpt>
      <trkpt lat="44.6908" lon="3.82438">
        <ele>1044</ele>
        <time>2013-09-26T12:42:56Z</time>
      </trkpt>
      <trkpt lat="44.69075" lon="3.82438">
        <ele>1044</ele>
        <time>2013-09-26T12:42:59Z</time>
      </trkpt>
      <trkpt lat="44.6907" lon="3.82438">
        <ele>1044</ele>
        <time>2013-09-26T12:43:02Z</time>
      </trkpt>
      <trkpt lat="44.69066" lon="3.82441">
        <ele>1045</ele>
        <time>2013-09-26T12:43:06Z</time>
      </trkpt>
      <trkpt lat="44.69062" lon="3.82444">
        <ele>1045</ele>
        <time>2013-09-26T12:43:09Z</time>
      </trkpt>
      <trkpt lat="44.69057" lon="3.82447">
        <ele>1046</ele>
        <time>2013-09-26T12:43:13Z</time>
      </trkpt>
      <trkpt lat="44.69052" lon="3.82444">
        <ele>1046</ele>
        <time>2013-09-26T12:43:17Z</time>
      </trkpt>
      <trkpt lat="44.69048" lon="3.8244">
        <ele>1046</ele>
        <time>2013-09-26T12:43:20Z</time>
      </trkpt>
      <trkpt lat="44.69043" lon="3.82438">
        <ele>1047</ele>
        <time>2013-09-26T12:43:23Z</time>
      </trkpt>
      <trkpt lat="44.69039" lon="3.82436">
        <ele>1047</ele>
        <time>2013-09-26T12:43:26Z</time>
      </trkpt>
      <trkpt lat="44.69034" lon="3.82434">
        <ele>1047</ele>
        <time>2013-09-26T12:43:29Z</time>
      </trkpt>
      <trkpt lat="44.69029" lon="3.82431">
        <ele>1048</ele>
        <time>2013-09-26T12:43:33Z</time>
      </trkpt>
      <trkpt lat="44.69024" lon="3.82429">
        <ele>1048</ele>
        <time>2013-09-26T12:43:36Z</time>
      </trkpt>
      <trkpt lat="44.69019" lon="3.82429">
        <ele>1048</ele>
        <time>2013-09-26T12:43:40Z</time>
      </trkpt>
      <trkpt lat="44.69014" lon="3.82432">
        <ele>1048</ele>
        <time>2013-09-26T12:43:44Z</time>
      </trkpt>
      <trkpt lat="44.69011" lon="3.82438">
        <ele>1049</ele>
        <time>2013-09-26T12:43:48Z</time>
      </trkpt>
      <trkpt lat="44.69008" lon="3.82444">
        <ele>1049</ele>
        <time>2013-09-26T12:43:54Z</time>
      </trkpt>
      <trkpt lat="44.69005" lon="3.8245">
        <ele>1049</ele>
        <time>2013-09-26T12:43:58Z</time>
      </trkpt>
      <trkpt lat="44.69002" lon="3.82455">
        <ele>1049</ele>
        <time>2013-09-26T12:44:02Z</time>
      </trkpt>
      <trkpt lat="44.69" lon="3.82461">
        <ele>1058</ele>
        <time>2013-09-26T12:44:05Z</time>
      </trkpt>
      <trkpt lat="44.68998" lon="3.82466">
        <ele>1058</ele>
        <time>2013-09-26T12:44:09Z</time>
      </trkpt>
      <trkpt lat="44.68994" lon="3.82472">
        <ele>1058</ele>
        <time>2013-09-26T12:44:14Z</time>
      </trkpt>
      <trkpt lat="44.68991" lon="3.82478">
        <ele>1058</ele>
        <time>2013-09-26T12:44:19Z</time>
      </trkpt>
      <trkpt lat="44.6899" lon="3.82485">
        <ele>1058</ele>
        <time>2013-09-26T12:44:22Z</time>
      </trkpt>
      <trkpt lat="44.68989" lon="3.82491">
        <ele>1057</ele>
        <time>2013-09-26T12:44:25Z</time>
      </trkpt>
      <trkpt lat="44.68988" lon="3.82497">
        <ele>1057</ele>
        <time>2013-09-26T12:44:28Z</time>
      </trkpt>
      <trkpt lat="44.68986" lon="3.82504">
        <ele>1058</ele>
        <time>2013-09-26T12:44:31Z</time>
      </trkpt>
      <trkpt lat="44.68983" lon="3.8251">
        <ele>1058</ele>
        <time>2013-09-26T12:44:35Z</time>
      </trkpt>
      <trkpt lat="44.68979" lon="3.82515">
        <ele>1059</ele>
        <time>2013-09-26T12:44:39Z</time>
      </trkpt>
      <trkpt lat="44.68975" lon="3.8252">
        <ele>1059</ele>
        <time>2013-09-26T12:44:43Z</time>
      </trkpt>
      <trkpt lat="44.68973" lon="3.82526">
        <ele>1060</ele>
        <time>2013-09-26T12:44:47Z</time>
      </trkpt>
      <trkpt lat="44.68969" lon="3.8253">
        <ele>1060</ele>
        <time>2013-09-26T12:44:51Z</time>
      </trkpt>
      <trkpt lat="44.68965" lon="3.82532">
        <ele>1060</ele>
        <time>2013-09-26T12:44:55Z</time>
      </trkpt>
      <trkpt lat="44.68962" lon="3.82538">
        <ele>1060</ele>
        <time>2013-09-26T12:45:00Z</time>
      </trkpt>
      <trkpt lat="44.68958" lon="3.82542">
        <ele>1061</ele>
        <time>2013-09-26T12:45:06Z</time>
      </trkpt>
      <trkpt lat="44.68953" lon="3.82543">
        <ele>1061</ele>
        <time>2013-09-26T12:45:11Z</time>
      </trkpt>
      <trkpt lat="44.68949" lon="3.82546">
        <ele>1061</ele>
        <time>2013-09-26T12:45:17Z</time>
      </trkpt>
      <trkpt lat="44.68948" lon="3.82553">
        <ele>1061</ele>
        <time>2013-09-26T12:45:23Z</time>
      </trkpt>
      <trkpt lat="44.68951" lon="3.82558">
        <ele>1061</ele>
        <time>2013-09-26T12:45:40Z</time>
      </trkpt>
      <trkpt lat="44.68956" lon="3.82558">
        <ele>1060</ele>
        <time>2013-09-26T12:45:42Z</time>
      </trkpt>
      <trkpt lat="44.68961" lon="3.82558">
        <ele>1060</ele>
        <time>2013-09-26T12:45:44Z</time>
      </trkpt>
      <trkpt lat="44.68967" lon="3.82559">
        <ele>1060</ele>
        <time>2013-09-26T12:45:46Z</time>
      </trkpt>
      <trkpt lat="44.68971" lon="3.8256">
        <ele>1060</ele>
        <time>2013-09-26T12:45:48Z</time>
      </trkpt>
      <trkpt lat="44.68976" lon="3.82557">
        <ele>1059</ele>
        <time>2013-09-26T12:45:53Z</time>
      </trkpt>
      <trkpt lat="44.68981" lon="3.82555">
        <ele>1059</ele>
        <time>2013-09-26T12:45:56Z</time>
      </trkpt>
      <trkpt lat="44.68985" lon="3.82551">
        <ele>1059</ele>
        <time>2013-09-26T12:46:00Z</time>
      </trkpt>
      <trkpt lat="44.68988" lon="3.82545">
        <ele>1059</ele>
        <time>2013-09-26T12:46:05Z</time>
      </trkpt>
      <trkpt lat="44.68993" lon="3.82542">
        <ele>1059</ele>
        <time>2013-09-26T12:46:10Z</time>
      </trkpt>
      <trkpt lat="44.68998" lon="3.82542">
        <ele>1059</ele>
        <time>2013-09-26T12:46:13Z</time>
      </trkpt>
      <trkpt lat="44.69003" lon="3.82543">
        <ele>1053</ele>
        <time>2013-09-26T12:46:16Z</time>
      </trkpt>
      <trkpt lat="44.69009" lon="3.82545">
        <ele>1052</ele>
        <time>2013-09-26T12:46:19Z</time>
      </trkpt>
      <trkpt lat="44.69014" lon="3.82548">
        <ele>1052</ele>
        <time>2013-09-26T12:46:22Z</time>
      </trkpt>
      <trkpt lat="44.69017" lon="3.82553">
        <ele>1052</ele>
        <time>2013-09-26T12:46:27Z</time>
      </trkpt>
      <trkpt lat="44.69021" lon="3.82557">
        <ele>1052</ele>
        <time>2013-09-26T12:46:34Z</time>
      </trkpt>
      <trkpt lat="44.69022" lon="3.82563">
        <ele>1052</ele>
        <time>2013-09-26T12:46:43Z</time>
      </trkpt>
      <trkpt lat="44.69027" lon="3.82565">
        <ele>1052</ele>
        <time>2013-09-26T12:46:53Z</time>
      </trkpt>
      <trkpt lat="44.69027" lon="3.82558">
        <ele>1052</ele>
        <time>2013-09-26T12:47:02Z</time>
      </trkpt>
      <trkpt lat="44.69031" lon="3.82556">
        <ele>1052</ele>
        <time>2013-09-26T12:47:09Z</time>
      </trkpt>
      <trkpt lat="44.69036" lon="3.82555">
        <ele>1051</ele>
        <time>2013-09-26T12:47:14Z</time>
      </trkpt>
      <trkpt lat="44.6904" lon="3.82552">
        <ele>1051</ele>
        <time>2013-09-26T12:47:20Z</time>
      </trkpt>
      <trkpt lat="44.69045" lon="3.8255">
        <ele>1051</ele>
        <time>2013-09-26T12:47:27Z</time>
      </trkpt>
      <trkpt lat="44.6905" lon="3.8255">
        <ele>1050</ele>
        <time>2013-09-26T12:47:37Z</time>
      </trkpt>
      <trkpt lat="44.69055" lon="3.82549">
        <ele>1050</ele>
        <time>2013-09-26T12:47:43Z</time>
      </trkpt>
      <trkpt lat="44.6906" lon="3.8255">
        <ele>1050</ele>
        <time>2013-09-26T12:47:49Z</time>
      </trkpt>
      <trkpt lat="44.69066" lon="3.82551">
        <ele>1050</ele>
        <time>2013-09-26T12:47:54Z</time>
      </trkpt>
      <trkpt lat="44.69071" lon="3.8255">
        <ele>1049</ele>
        <time>2013-09-26T12:47:58Z</time>
      </trkpt>
      <trkpt lat="44.69076" lon="3.8255">
        <ele>1049</ele>
        <time>2013-09-26T12:48:04Z</time>
      </trkpt>
      <trkpt lat="44.6908" lon="3.82553">
        <ele>1049</ele>
        <time>2013-09-26T12:48:13Z</time>
      </trkpt>
      <trkpt lat="44.69085" lon="3.82556">
        <ele>1041</ele>
        <time>2013-09-26T12:48:21Z</time>
      </trkpt>
      <trkpt lat="44.69089" lon="3.82558">
        <ele>1041</ele>
        <time>2013-09-26T12:48:27Z</time>
      </trkpt>
      <trkpt lat="44.69094" lon="3.8256">
        <ele>1040</ele>
        <time>2013-09-26T12:48:31Z</time>
      </trkpt>
      <trkpt lat="44.69099" lon="3.82562">
        <ele>1040</ele>
        <time>2013-09-26T12:48:35Z</time>
      </trkpt>
      <trkpt lat="44.69104" lon="3.82564">
        <ele>1039</ele>
        <time>2013-09-26T12:48:38Z</time>
      </trkpt>
      <trkpt lat="44.69109" lon="3.82565">
        <ele>1039</ele>
        <time>2013-09-26T12:48:42Z</time>
      </trkpt>
      <trkpt lat="44.69113" lon="3.82567">
        <ele>1038</ele>
        <time>2013-09-26T12:48:45Z</time>
      </trkpt>
      <trkpt lat="44.69118" lon="3.82569">
        <ele>1037</ele>
        <time>2013-09-26T12:48:49Z</time>
      </trkpt>
      <trkpt lat="44.69123" lon="3.8257">
        <ele>1036</ele>
        <time>2013-09-26T12:48:53Z</time>
      </trkpt>
      <trkpt lat="44.69127" lon="3.82569">
        <ele>1035</ele>
        <time>2013-09-26T12:48:58Z</time>
      </trkpt>
      <trkpt lat="44.69127" lon="3.82563">
        <ele>1035</ele>
        <time>2013-09-26T12:49:05Z</time>
      </trkpt>
      <trkpt lat="44.69122" lon="3.82559">
        <ele>1036</ele>
        <time>2013-09-26T12:49:11Z</time>
      </trkpt>
      <trkpt lat="44.69117" lon="3.82556">
        <ele>1037</ele>
        <time>2013-09-26T12:49:15Z</time>
      </trkpt>
      <trkpt lat="44.69112" lon="3.82555">
        <ele>1038</ele>
        <time>2013-09-26T12:49:19Z</time>
      </trkpt>
      <trkpt lat="44.69107" lon="3.82552">
        <ele>1038</ele>
        <time>2013-09-26T12:49:27Z</time>
      </trkpt>
      <trkpt lat="44.69103" lon="3.82549">
        <ele>1039</ele>
        <time>2013-09-26T12:49:31Z</time>
      </trkpt>
      <trkpt lat="44.69098" lon="3.82546">
        <ele>1039</ele>
        <time>2013-09-26T12:49:34Z</time>
      </trkpt>
      <trkpt lat="44.69093" lon="3.82542">
        <ele>1039</ele>
        <time>2013-09-26T12:49:38Z</time>
      </trkpt>
      <trkpt lat="44.69089" lon="3.82537">
        <ele>1039</ele>
        <time>2013-09-26T12:49:42Z</time>
      </trkpt>
      <trkpt lat="44.69085" lon="3.82533">
        <ele>1040</ele>
        <time>2013-09-26T12:49:46Z</time>
      </trkpt>
      <trkpt lat="44.6908" lon="3.82531">
        <ele>1048</ele>
        <time>2013-09-26T12:49:50Z</time>
      </trkpt>
      <trkpt lat="44.69075" lon="3.82527">
        <ele>1048</ele>
        <time>2013-09-26T12:49:54Z</time>
      </trkpt>
      <trkpt lat="44.69071" lon="3.82523">
        <ele>1048</ele>
        <time>2013-09-26T12:49:58Z</time>
      </trkpt>
      <trkpt lat="44.69068" lon="3.82519">
        <ele>1048</ele>
        <time>2013-09-26T12:50:02Z</time>
      </trkpt>
      <trkpt lat="44.69065" lon="3.82513">
        <ele>1048</ele>
        <time>2013-09-26T12:50:07Z</time>
      </trkpt>
      <trkpt lat="44.69062" lon="3.82507">
        <ele>1048</ele>
        <time>2013-09-26T12:50:12Z</time>
      </trkpt>
      <trkpt lat="44.69059" lon="3.82502">
        <ele>1048</ele>
        <time>2013-09-26T12:50:17Z</time>
      </trkpt>
      <trkpt lat="44.69055" lon="3.82496">
        <ele>1047</ele>
        <time>2013-09-26T12:50:23Z</time>
      </trkpt>
      <trkpt lat="44.6905" lon="3.82491">
        <ele>1047</ele>
        <time>2013-09-26T12:50:27Z</time>
      </trkpt>
      <trkpt lat="44.69048" lon="3.82485">
        <ele>1047</ele>
        <time>2013-09-26T12:50:33Z</time>
      </trkpt>
      <trkpt lat="44.69045" lon="3.8248">
        <ele>1048</ele>
        <time>2013-09-26T12:50:39Z</time>
      </trkpt>
      <trkpt lat="44.69042" lon="3.82474">
        <ele>1048</ele>
        <time>2013-09-26T12:50:44Z</time>
      </trkpt>
      <trkpt lat="44.69038" lon="3.8247">
        <ele>1048</ele>
        <time>2013-09-26T12:50:48Z</time>
      </trkpt>
      <trkpt lat="44.69035" lon="3.82465">
        <ele>1048</ele>
        <time>2013-09-26T12:50:53Z</time>
      </trkpt>
      <trkpt lat="44.69032" lon="3.82458">
        <ele>1048</ele>
        <time>2013-09-26T12:50:58Z</time>
      </trkpt>
      <trkpt lat="44.69029" lon="3.82452">
        <ele>1048</ele>
        <time>2013-09-26T12:51:02Z</time>
      </trkpt>
      <trkpt lat="44.69027" lon="3.82446">
        <ele>1048</ele>
        <time>2013-09-26T12:51:06Z</time>
      </trkpt>
      <trkpt lat="44.69024" lon="3.82442">
        <ele>1048</ele>
        <time>2013-09-26T12:51:10Z</time>
      </trkpt>
      <trkpt lat="44.69019" lon="3.82437">
        <ele>1048</ele>
        <time>2013-09-26T12:51:16Z</time>
      </trkpt>
      <trkpt lat="44.69016" lon="3.82432">
        <ele>1048</ele>
        <time>2013-09-26T12:51:20Z</time>
      </trkpt>
      <trkpt lat="44.69014" lon="3.82425">
        <ele>1049</ele>
        <time>2013-09-26T12:51:26Z</time>
      </trkpt>
      <trkpt lat="44.69011" lon="3.82418">
        <ele>1049</ele>
        <time>2013-09-26T12:51:31Z</time>
      </trkpt>
      <trkpt lat="44.6901" lon="3.82412">
        <ele>1049</ele>
        <time>2013-09-26T12:51:36Z</time>
      </trkpt>
      <trkpt lat="44.69006" lon="3.82406">
        <ele>1049</ele>
        <time>2013-09-26T12:51:41Z</time>
      </trkpt>
      <trkpt lat="44.69004" lon="3.824">
        <ele>1049</ele>
        <time>2013-09-26T12:51:47Z</time>
      </trkpt>
      <trkpt lat="44.69002" lon="3.82392">
        <ele>1048</ele>
        <time>2013-09-26T12:51:52Z</time>
      </trkpt>
      <trkpt lat="44.68999" lon="3.82386">
        <ele>1057</ele>
        <time>2013-09-26T12:51:55Z</time>
      </trkpt>
      <trkpt lat="44.68998" lon="3.8238">
        <ele>1058</ele>
        <time>2013-09-26T12:51:59Z</time>
      </trkpt>
      <trkpt lat="44.69" lon="3.82373">
        <ele>1058</ele>
        <time>2013-09-26T12:52:03Z</time>
      </trkpt>
      <trkpt lat="44.68999" lon="3.82366">
        <ele>1058</ele>
        <time>2013-09-26T12:52:07Z</time>
      </trkpt>
      <trkpt lat="44.68997" lon="3.82359">
        <ele>1058</ele>
        <time>2013-09-26T12:52:11Z</time>
      </trkpt>
      <trkpt lat="44.68994" lon="3.82352">
        <ele>1057</ele>
        <time>2013-09-26T12:52:16Z</time>
      </trkpt>
      <trkpt lat="44.6899" lon="3.82348">
        <ele>1057</ele>
        <time>2013-09-26T12:52:20Z</time>
      </trkpt>
      <trkpt lat="44.68987" lon="3.82343">
        <ele>1057</ele>
        <time>2013-09-26T12:52:25Z</time>
      </trkpt>
      <trkpt lat="44.6898" lon="3.82339">
        <ele>1058</ele>
        <time>2013-09-26T12:52:30Z</time>
      </trkpt>
      <trkpt lat="44.68975" lon="3.82337">
        <ele>1059</ele>
        <time>2013-09-26T12:52:32Z</time>
      </trkpt>
      <trkpt lat="44.68972" lon="3.82331">
        <ele>1060</ele>
        <time>2013-09-26T12:52:36Z</time>
      </trkpt>
      <trkpt lat="44.68968" lon="3.82327">
        <ele>1060</ele>
        <time>2013-09-26T12:52:42Z</time>
      </trkpt>
      <trkpt lat="44.68964" lon="3.82325">
        <ele>1061</ele>
        <time>2013-09-26T12:52:49Z</time>
      </trkpt>
      <trkpt lat="44.6896" lon="3.82321">
        <ele>1062</ele>
        <time>2013-09-26T12:52:56Z</time>
      </trkpt>
      <trkpt lat="44.68955" lon="3.82318">
        <ele>1062</ele>
        <time>2013-09-26T12:53:00Z</time>
      </trkpt>
      <trkpt lat="44.68951" lon="3.82315">
        <ele>1063</ele>
        <time>2013-09-26T12:53:04Z</time>
      </trkpt>
      <trkpt lat="44.68946" lon="3.82313">
        <ele>1063</ele>
        <time>2013-09-26T12:53:07Z</time>
      </trkpt>
      <trkpt lat="44.68942" lon="3.8231">
        <ele>1064</ele>
        <time>2013-09-26T12:53:11Z</time>
      </trkpt>
      <trkpt lat="44.68936" lon="3.82307">
        <ele>1064</ele>
        <time>2013-09-26T12:53:15Z</time>
      </trkpt>
      <trkpt lat="44.68932" lon="3.82306">
        <ele>1065</ele>
        <time>2013-09-26T12:53:19Z</time>
      </trkpt>
      <trkpt lat="44.68926" lon="3.82303">
        <ele>1065</ele>
        <time>2013-09-26T12:53:23Z</time>
      </trkpt>
      <trkpt lat="44.68921" lon="3.823">
        <ele>1065</ele>
        <time>2013-09-26T12:53:28Z</time>
      </trkpt>
      <trkpt lat="44.68917" lon="3.82298">
        <ele>1065</ele>
        <time>2013-09-26T12:53:33Z</time>
      </trkpt>
      <trkpt lat="44.68913" lon="3.82295">
        <ele>1075</ele>
        <time>2013-09-26T12:53:40Z</time>
      </trkpt>
      <trkpt lat="44.68907" lon="3.82292">
        <ele>1075</ele>
        <time>2013-09-26T12:53:45Z</time>
      </trkpt>
      <trkpt lat="44.68903" lon="3.82289">
        <ele>1075</ele>
        <time>2013-09-26T12:53:49Z</time>
      </trkpt>
      <trkpt lat="44.68898" lon="3.82286">
        <ele>1075</ele>
        <time>2013-09-26T12:53:54Z</time>
      </trkpt>
      <trkpt lat="44.68893" lon="3.82284">
        <ele>1075</ele>
        <time>2013-09-26T12:53:59Z</time>
      </trkpt>
      <trkpt lat="44.68889" lon="3.82284">
        <ele>1076</ele>
        <time>2013-09-26T12:54:07Z</time>
      </trkpt>
      <trkpt lat="44.68884" lon="3.82283">
        <ele>1076</ele>
        <time>2013-09-26T12:54:12Z</time>
      </trkpt>
      <trkpt lat="44.68878" lon="3.82281">
        <ele>1076</ele>
        <time>2013-09-26T12:54:17Z</time>
      </trkpt>
      <trkpt lat="44.68874" lon="3.82279">
        <ele>1077</ele>
        <time>2013-09-26T12:54:21Z</time>
      </trkpt>
      <trkpt lat="44.68869" lon="3.82278">
        <ele>1077</ele>
        <time>2013-09-26T12:54:25Z</time>
      </trkpt>
      <trkpt lat="44.68864" lon="3.82277">
        <ele>1078</ele>
        <time>2013-09-26T12:54:29Z</time>
      </trkpt>
      <trkpt lat="44.6886" lon="3.82275">
        <ele>1078</ele>
        <time>2013-09-26T12:54:33Z</time>
      </trkpt>
      <trkpt lat="44.68854" lon="3.82273">
        <ele>1079</ele>
        <time>2013-09-26T12:54:37Z</time>
      </trkpt>
      <trkpt lat="44.68849" lon="3.82271">
        <ele>1079</ele>
        <time>2013-09-26T12:54:42Z</time>
      </trkpt>
      <trkpt lat="44.68843" lon="3.8227">
        <ele>1080</ele>
        <time>2013-09-26T12:54:49Z</time>
      </trkpt>
      <trkpt lat="44.68838" lon="3.8227">
        <ele>1080</ele>
        <time>2013-09-26T12:54:53Z</time>
      </trkpt>
      <trkpt lat="44.68833" lon="3.82268">
        <ele>1085</ele>
        <time>2013-09-26T12:54:58Z</time>
      </trkpt>
      <trkpt lat="44.68827" lon="3.82267">
        <ele>1085</ele>
        <time>2013-09-26T12:55:03Z</time>
      </trkpt>
      <trkpt lat="44.68823" lon="3.82267">
        <ele>1085</ele>
        <time>2013-09-26T12:55:07Z</time>
      </trkpt>
      <trkpt lat="44.68818" lon="3.82266">
        <ele>1085</ele>
        <time>2013-09-26T12:55:11Z</time>
      </trkpt>
      <trkpt lat="44.68813" lon="3.82267">
        <ele>1085</ele>
        <time>2013-09-26T12:55:16Z</time>
      </trkpt>
      <trkpt lat="44.68809" lon="3.82267">
        <ele>1086</ele>
        <time>2013-09-26T12:55:20Z</time>
      </trkpt>
      <trkpt lat="44.68804" lon="3.82268">
        <ele>1086</ele>
        <time>2013-09-26T12:55:25Z</time>
      </trkpt>
      <trkpt lat="44.68799" lon="3.82269">
        <ele>1086</ele>
        <time>2013-09-26T12:55:30Z</time>
      </trkpt>
      <trkpt lat="44.68795" lon="3.82267">
        <ele>1086</ele>
        <time>2013-09-26T12:55:35Z</time>
      </trkpt>
      <trkpt lat="44.6879" lon="3.82265">
        <ele>1087</ele>
        <time>2013-09-26T12:55:41Z</time>
      </trkpt>
      <trkpt lat="44.68785" lon="3.82266">
        <ele>1087</ele>
        <time>2013-09-26T12:55:46Z</time>
      </trkpt>
      <trkpt lat="44.6878" lon="3.82265">
        <ele>1087</ele>
        <time>2013-09-26T12:55:49Z</time>
      </trkpt>
      <trkpt lat="44.68775" lon="3.82263">
        <ele>1088</ele>
        <time>2013-09-26T12:55:52Z</time>
      </trkpt>
      <trkpt lat="44.68771" lon="3.82257">
        <ele>1088</ele>
        <time>2013-09-26T12:55:55Z</time>
      </trkpt>
      <trkpt lat="44.68767" lon="3.82252">
        <ele>1089</ele>
        <time>2013-09-26T12:55:57Z</time>
      </trkpt>
      <trkpt lat="44.68765" lon="3.82245">
        <ele>1090</ele>
        <time>2013-09-26T12:55:59Z</time>
      </trkpt>
      <trkpt lat="44.68763" lon="3.8224">
        <ele>1090</ele>
        <time>2013-09-26T12:56:01Z</time>
      </trkpt>
      <trkpt lat="44.68758" lon="3.82233">
        <ele>1090</ele>
        <time>2013-09-26T12:56:04Z</time>
      </trkpt>
      <trkpt lat="44.68754" lon="3.82228">
        <ele>1090</ele>
        <time>2013-09-26T12:56:07Z</time>
      </trkpt>
      <trkpt lat="44.6875" lon="3.82222">
        <ele>1096</ele>
        <time>2013-09-26T12:56:10Z</time>
      </trkpt>
      <trkpt lat="44.68745" lon="3.82217">
        <ele>1096</ele>
        <time>2013-09-26T12:56:13Z</time>
      </trkpt>
      <trkpt lat="44.68742" lon="3.82212">
        <ele>1096</ele>
        <time>2013-09-26T12:56:15Z</time>
      </trkpt>
      <trkpt lat="44.68738" lon="3.82205">
        <ele>1096</ele>
        <time>2013-09-26T12:56:17Z</time>
      </trkpt>
      <trkpt lat="44.68735" lon="3.82197">
        <ele>1097</ele>
        <time>2013-09-26T12:56:19Z</time>
      </trkpt>
      <trkpt lat="44.68732" lon="3.8219">
        <ele>1097</ele>
        <time>2013-09-26T12:56:21Z</time>
      </trkpt>
      <trkpt lat="44.68729" lon="3.82183">
        <ele>1097</ele>
        <time>2013-09-26T12:56:24Z</time>
      </trkpt>
      <trkpt lat="44.68726" lon="3.82178">
        <ele>1097</ele>
        <time>2013-09-26T12:56:28Z</time>
      </trkpt>
      <trkpt lat="44.68724" lon="3.82172">
        <ele>1097</ele>
        <time>2013-09-26T12:56:31Z</time>
      </trkpt>
      <trkpt lat="44.68721" lon="3.82165">
        <ele>1096</ele>
        <time>2013-09-26T12:56:35Z</time>
      </trkpt>
      <trkpt lat="44.68719" lon="3.82158">
        <ele>1096</ele>
        <time>2013-09-26T12:56:38Z</time>
      </trkpt>
      <trkpt lat="44.68717" lon="3.82152">
        <ele>1096</ele>
        <time>2013-09-26T12:56:41Z</time>
      </trkpt>
      <trkpt lat="44.68713" lon="3.82147">
        <ele>1096</ele>
        <time>2013-09-26T12:56:45Z</time>
      </trkpt>
      <trkpt lat="44.68709" lon="3.82142">
        <ele>1096</ele>
        <time>2013-09-26T12:56:48Z</time>
      </trkpt>
      <trkpt lat="44.68704" lon="3.82138">
        <ele>1096</ele>
        <time>2013-09-26T12:56:51Z</time>
      </trkpt>
      <trkpt lat="44.68698" lon="3.82133">
        <ele>1096</ele>
        <time>2013-09-26T12:56:54Z</time>
      </trkpt>
      <trkpt lat="44.68694" lon="3.82128">
        <ele>1096</ele>
        <time>2013-09-26T12:56:56Z</time>
      </trkpt>
      <trkpt lat="44.68688" lon="3.82123">
        <ele>1096</ele>
        <time>2013-09-26T12:56:59Z</time>
      </trkpt>
      <trkpt lat="44.68683" lon="3.82121">
        <ele>1097</ele>
        <time>2013-09-26T12:57:02Z</time>
      </trkpt>
      <trkpt lat="44.68679" lon="3.82116">
        <ele>1097</ele>
        <time>2013-09-26T12:57:06Z</time>
      </trkpt>
      <trkpt lat="44.68675" lon="3.82112">
        <ele>1097</ele>
        <time>2013-09-26T12:57:09Z</time>
      </trkpt>
      <trkpt lat="44.68671" lon="3.82108">
        <ele>1097</ele>
        <time>2013-09-26T12:57:12Z</time>
      </trkpt>
      <trkpt lat="44.68666" lon="3.82104">
        <ele>1102</ele>
        <time>2013-09-26T12:57:16Z</time>
      </trkpt>
      <trkpt lat="44.68661" lon="3.82099">
        <ele>1101</ele>
        <time>2013-09-26T12:57:20Z</time>
      </trkpt>
      <trkpt lat="44.68657" lon="3.82095">
        <ele>1101</ele>
        <time>2013-09-26T12:57:23Z</time>
      </trkpt>
      <trkpt lat="44.68654" lon="3.82091">
        <ele>1101</ele>
        <time>2013-09-26T12:57:27Z</time>
      </trkpt>
      <trkpt lat="44.68649" lon="3.82086">
        <ele>1102</ele>
        <time>2013-09-26T12:57:31Z</time>
      </trkpt>
      <trkpt lat="44.68644" lon="3.82083">
        <ele>1100</ele>
        <time>2013-09-26T12:57:35Z</time>
      </trkpt>
      <trkpt lat="44.6864" lon="3.82081">
        <ele>1101</ele>
        <time>2013-09-26T12:57:39Z</time>
      </trkpt>
      <trkpt lat="44.68636" lon="3.82079">
        <ele>1101</ele>
        <time>2013-09-26T12:57:43Z</time>
      </trkpt>
      <trkpt lat="44.6863" lon="3.82078">
        <ele>1102</ele>
        <time>2013-09-26T12:57:47Z</time>
      </trkpt>
      <trkpt lat="44.68625" lon="3.82078">
        <ele>1102</ele>
        <time>2013-09-26T12:57:52Z</time>
      </trkpt>
      <trkpt lat="44.6862" lon="3.82078">
        <ele>1103</ele>
        <time>2013-09-26T12:58:00Z</time>
      </trkpt>
      <trkpt lat="44.68615" lon="3.82074">
        <ele>1103</ele>
        <time>2013-09-26T12:58:05Z</time>
      </trkpt>
      <trkpt lat="44.68611" lon="3.82071">
        <ele>1103</ele>
        <time>2013-09-26T12:58:10Z</time>
      </trkpt>
      <trkpt lat="44.68606" lon="3.82068">
        <ele>1104</ele>
        <time>2013-09-26T12:58:14Z</time>
      </trkpt>
      <trkpt lat="44.68601" lon="3.82066">
        <ele>1104</ele>
        <time>2013-09-26T12:58:18Z</time>
      </trkpt>
      <trkpt lat="44.68596" lon="3.82066">
        <ele>1105</ele>
        <time>2013-09-26T12:58:22Z</time>
      </trkpt>
      <trkpt lat="44.68592" lon="3.82066">
        <ele>1105</ele>
        <time>2013-09-26T12:58:26Z</time>
      </trkpt>
      <trkpt lat="44.68586" lon="3.82067">
        <ele>1105</ele>
        <time>2013-09-26T12:58:31Z</time>
      </trkpt>
      <trkpt lat="44.68581" lon="3.82067">
        <ele>1110</ele>
        <time>2013-09-26T12:58:35Z</time>
      </trkpt>
      <trkpt lat="44.68576" lon="3.82066">
        <ele>1110</ele>
        <time>2013-09-26T12:58:39Z</time>
      </trkpt>
      <trkpt lat="44.68572" lon="3.82064">
        <ele>1110</ele>
        <time>2013-09-26T12:58:45Z</time>
      </trkpt>
      <trkpt lat="44.68567" lon="3.82063">
        <ele>1111</ele>
        <time>2013-09-26T12:58:49Z</time>
      </trkpt>
      <trkpt lat="44.68562" lon="3.82059">
        <ele>1111</ele>
        <time>2013-09-26T12:58:53Z</time>
      </trkpt>
      <trkpt lat="44.68559" lon="3.82054">
        <ele>1111</ele>
        <time>2013-09-26T12:58:58Z</time>
      </trkpt>
      <trkpt lat="44.68555" lon="3.8205">
        <ele>1111</ele>
        <time>2013-09-26T12:59:03Z</time>
      </trkpt>
      <trkpt lat="44.68551" lon="3.82047">
        <ele>1111</ele>
        <time>2013-09-26T12:59:08Z</time>
      </trkpt>
      <trkpt lat="44.68547" lon="3.82045">
        <ele>1111</ele>
        <time>2013-09-26T12:59:13Z</time>
      </trkpt>
      <trkpt lat="44.68541" lon="3.82044">
        <ele>1112</ele>
        <time>2013-09-26T12:59:18Z</time>
      </trkpt>
      <trkpt lat="44.68537" lon="3.82043">
        <ele>1112</ele>
        <time>2013-09-26T12:59:22Z</time>
      </trkpt>
      <trkpt lat="44.68532" lon="3.82041">
        <ele>1112</ele>
        <time>2013-09-26T12:59:26Z</time>
      </trkpt>
      <trkpt lat="44.68527" lon="3.8204">
        <ele>1112</ele>
        <time>2013-09-26T12:59:31Z</time>
      </trkpt>
      <trkpt lat="44.68522" lon="3.82039">
        <ele>1112</ele>
        <time>2013-09-26T12:59:36Z</time>
      </trkpt>
      <trkpt lat="44.68518" lon="3.82036">
        <ele>1113</ele>
        <time>2013-09-26T12:59:43Z</time>
      </trkpt>
      <trkpt lat="44.68514" lon="3.82033">
        <ele>1113</ele>
        <time>2013-09-26T12:59:48Z</time>
      </trkpt>
      <trkpt lat="44.68509" lon="3.8203">
        <ele>1113</ele>
        <time>2013-09-26T12:59:53Z</time>
      </trkpt>
      <trkpt lat="44.68504" lon="3.82026">
        <ele>1113</ele>
        <time>2013-09-26T12:59:58Z</time>
      </trkpt>
      <trkpt lat="44.685" lon="3.82023">
        <ele>1115</ele>
        <time>2013-09-26T13:00:13Z</time>
      </trkpt>
      <trkpt lat="44.68494" lon="3.82019">
        <ele>1115</ele>
        <time>2013-09-26T13:00:17Z</time>
      </trkpt>
      <trkpt lat="44.6849" lon="3.82014">
        <ele>1115</ele>
        <time>2013-09-26T13:00:21Z</time>
      </trkpt>
      <trkpt lat="44.68485" lon="3.82009">
        <ele>1115</ele>
        <time>2013-09-26T13:00:29Z</time>
      </trkpt>
      <trkpt lat="44.68482" lon="3.82002">
        <ele>1115</ele>
        <time>2013-09-26T13:00:33Z</time>
      </trkpt>
      <trkpt lat="44.68479" lon="3.81997">
        <ele>1115</ele>
        <time>2013-09-26T13:00:35Z</time>
      </trkpt>
      <trkpt lat="44.68475" lon="3.81991">
        <ele>1115</ele>
        <time>2013-09-26T13:00:38Z</time>
      </trkpt>
      <trkpt lat="44.68473" lon="3.81983">
        <ele>1115</ele>
        <time>2013-09-26T13:00:41Z</time>
      </trkpt>
      <trkpt lat="44.68472" lon="3.81977">
        <ele>1115</ele>
        <time>2013-09-26T13:00:44Z</time>
      </trkpt>
      <trkpt lat="44.6847" lon="3.8197">
        <ele>1115</ele>
        <time>2013-09-26T13:00:48Z</time>
      </trkpt>
      <trkpt lat="44.68469" lon="3.81963">
        <ele>1115</ele>
        <time>2013-09-26T13:00:52Z</time>
      </trkpt>
      <trkpt lat="44.68467" lon="3.81956">
        <ele>1115</ele>
        <time>2013-09-26T13:00:57Z</time>
      </trkpt>
      <trkpt lat="44.68466" lon="3.81948">
        <ele>1115</ele>
        <time>2013-09-26T13:01:02Z</time>
      </trkpt>
      <trkpt lat="44.68464" lon="3.81942">
        <ele>1115</ele>
        <time>2013-09-26T13:01:07Z</time>
      </trkpt>
      <trkpt lat="44.68462" lon="3.81936">
        <ele>1115</ele>
        <time>2013-09-26T13:01:20Z</time>
      </trkpt>
      <trkpt lat="44.68458" lon="3.8193">
        <ele>1115</ele>
        <time>2013-09-26T13:01:24Z</time>
      </trkpt>
      <trkpt lat="44.68453" lon="3.81925">
        <ele>1115</ele>
        <time>2013-09-26T13:01:27Z</time>
      </trkpt>
      <trkpt lat="44.6845" lon="3.81922">
        <ele>1116</ele>
        <time>2013-09-26T13:01:30Z</time>
      </trkpt>
      <trkpt lat="44.68447" lon="3.81915">
        <ele>1116</ele>
        <time>2013-09-26T13:01:35Z</time>
      </trkpt>
      <trkpt lat="44.68444" lon="3.8191">
        <ele>1116</ele>
        <time>2013-09-26T13:01:42Z</time>
      </trkpt>
      <trkpt lat="44.68441" lon="3.81904">
        <ele>1117</ele>
        <time>2013-09-26T13:01:46Z</time>
      </trkpt>
      <trkpt lat="44.68439" lon="3.81898">
        <ele>1117</ele>
        <time>2013-09-26T13:01:50Z</time>
      </trkpt>
      <trkpt lat="44.68436" lon="3.81892">
        <ele>1117</ele>
        <time>2013-09-26T13:01:56Z</time>
      </trkpt>
      <trkpt lat="44.68432" lon="3.81888">
        <ele>1117</ele>
        <time>2013-09-26T13:02:03Z</time>
      </trkpt>
      <trkpt lat="44.68428" lon="3.81883">
        <ele>1117</ele>
        <time>2013-09-26T13:02:08Z</time>
      </trkpt>
      <trkpt lat="44.68424" lon="3.81878">
        <ele>1117</ele>
        <time>2013-09-26T13:02:13Z</time>
      </trkpt>
      <trkpt lat="44.6842" lon="3.81874">
        <ele>1117</ele>
        <time>2013-09-26T13:02:17Z</time>
      </trkpt>
      <trkpt lat="44.68416" lon="3.81871">
        <ele>1121</ele>
        <time>2013-09-26T13:02:21Z</time>
      </trkpt>
      <trkpt lat="44.68412" lon="3.81866">
        <ele>1121</ele>
        <time>2013-09-26T13:02:27Z</time>
      </trkpt>
      <trkpt lat="44.68407" lon="3.81862">
        <ele>1121</ele>
        <time>2013-09-26T13:02:32Z</time>
      </trkpt>
      <trkpt lat="44.68403" lon="3.81856">
        <ele>1121</ele>
        <time>2013-09-26T13:02:36Z</time>
      </trkpt>
      <trkpt lat="44.68399" lon="3.81852">
        <ele>1121</ele>
        <time>2013-09-26T13:02:40Z</time>
      </trkpt>
      <trkpt lat="44.68394" lon="3.8185">
        <ele>1122</ele>
        <time>2013-09-26T13:02:44Z</time>
      </trkpt>
      <trkpt lat="44.68388" lon="3.81849">
        <ele>1122</ele>
        <time>2013-09-26T13:02:48Z</time>
      </trkpt>
      <trkpt lat="44.68383" lon="3.8185">
        <ele>1122</ele>
        <time>2013-09-26T13:02:53Z</time>
      </trkpt>
      <trkpt lat="44.68378" lon="3.81851">
        <ele>1123</ele>
        <time>2013-09-26T13:02:59Z</time>
      </trkpt>
      <trkpt lat="44.68374" lon="3.81854">
        <ele>1123</ele>
        <time>2013-09-26T13:03:05Z</time>
      </trkpt>
      <trkpt lat="44.68368" lon="3.81856">
        <ele>1124</ele>
        <time>2013-09-26T13:03:13Z</time>
      </trkpt>
      <trkpt lat="44.68363" lon="3.81853">
        <ele>1124</ele>
        <time>2013-09-26T13:03:19Z</time>
      </trkpt>
      <trkpt lat="44.68358" lon="3.81852">
        <ele>1124</ele>
        <time>2013-09-26T13:03:24Z</time>
      </trkpt>
      <trkpt lat="44.68353" lon="3.81852">
        <ele>1125</ele>
        <time>2013-09-26T13:03:30Z</time>
      </trkpt>
      <trkpt lat="44.68348" lon="3.81853">
        <ele>1125</ele>
        <time>2013-09-26T13:03:35Z</time>
      </trkpt>
      <trkpt lat="44.68343" lon="3.81854">
        <ele>1125</ele>
        <time>2013-09-26T13:03:40Z</time>
      </trkpt>
      <trkpt lat="44.68338" lon="3.81856">
        <ele>1125</ele>
        <time>2013-09-26T13:03:44Z</time>
      </trkpt>
      <trkpt lat="44.68333" lon="3.81858">
        <ele>1125</ele>
        <time>2013-09-26T13:03:49Z</time>
      </trkpt>
      <trkpt lat="44.68328" lon="3.81855">
        <ele>1130</ele>
        <time>2013-09-26T13:03:54Z</time>
      </trkpt>
      <trkpt lat="44.68324" lon="3.81858">
        <ele>1130</ele>
        <time>2013-09-26T13:03:58Z</time>
      </trkpt>
      <trkpt lat="44.68319" lon="3.81861">
        <ele>1130</ele>
        <time>2013-09-26T13:04:01Z</time>
      </trkpt>
      <trkpt lat="44.68313" lon="3.81863">
        <ele>1131</ele>
        <time>2013-09-26T13:04:04Z</time>
      </trkpt>
      <trkpt lat="44.68309" lon="3.81864">
        <ele>1131</ele>
        <time>2013-09-26T13:04:08Z</time>
      </trkpt>
      <trkpt lat="44.68304" lon="3.81862">
        <ele>1131</ele>
        <time>2013-09-26T13:04:12Z</time>
      </trkpt>
      <trkpt lat="44.68298" lon="3.8186">
        <ele>1131</ele>
        <time>2013-09-26T13:04:16Z</time>
      </trkpt>
      <trkpt lat="44.68293" lon="3.81861">
        <ele>1132</ele>
        <time>2013-09-26T13:04:21Z</time>
      </trkpt>
      <trkpt lat="44.68288" lon="3.81861">
        <ele>1132</ele>
        <time>2013-09-26T13:04:25Z</time>
      </trkpt>
      <trkpt lat="44.68283" lon="3.81861">
        <ele>1132</ele>
        <time>2013-09-26T13:04:29Z</time>
      </trkpt>
      <trkpt lat="44.68278" lon="3.81861">
        <ele>1133</ele>
        <time>2013-09-26T13:04:34Z</time>
      </trkpt>
      <trkpt lat="44.68272" lon="3.8186">
        <ele>1133</ele>
        <time>2013-09-26T13:04:39Z</time>
      </trkpt>
      <trkpt lat="44.68268" lon="3.81859">
        <ele>1134</ele>
        <time>2013-09-26T13:04:43Z</time>
      </trkpt>
      <trkpt lat="44.68263" lon="3.8186">
        <ele>1134</ele>
        <time>2013-09-26T13:04:48Z</time>
      </trkpt>
      <trkpt lat="44.68258" lon="3.8186">
        <ele>1134</ele>
        <time>2013-09-26T13:04:53Z</time>
      </trkpt>
      <trkpt lat="44.68252" lon="3.81858">
        <ele>1135</ele>
        <time>2013-09-26T13:04:57Z</time>
      </trkpt>
      <trkpt lat="44.68247" lon="3.81859">
        <ele>1137</ele>
        <time>2013-09-26T13:05:01Z</time>
      </trkpt>
      <trkpt lat="44.68243" lon="3.81861">
        <ele>1136</ele>
        <time>2013-09-26T13:05:06Z</time>
      </trkpt>
      <trkpt lat="44.68237" lon="3.81861">
        <ele>1136</ele>
        <time>2013-09-26T13:05:13Z</time>
      </trkpt>
      <trkpt lat="44.68232" lon="3.81862">
        <ele>1136</ele>
        <time>2013-09-26T13:05:22Z</time>
      </trkpt>
      <trkpt lat="44.68227" lon="3.81861">
        <ele>1136</ele>
        <time>2013-09-26T13:05:27Z</time>
      </trkpt>
      <trkpt lat="44.68223" lon="3.81866">
        <ele>1136</ele>
        <time>2013-09-26T13:05:32Z</time>
      </trkpt>
      <trkpt lat="44.6822" lon="3.8187">
        <ele>1136</ele>
        <time>2013-09-26T13:05:36Z</time>
      </trkpt>
      <trkpt lat="44.68215" lon="3.81869">
        <ele>1136</ele>
        <time>2013-09-26T13:05:41Z</time>
      </trkpt>
      <trkpt lat="44.6821" lon="3.81869">
        <ele>1136</ele>
        <time>2013-09-26T13:05:45Z</time>
      </trkpt>
      <trkpt lat="44.68206" lon="3.81873">
        <ele>1135</ele>
        <time>2013-09-26T13:05:48Z</time>
      </trkpt>
      <trkpt lat="44.68203" lon="3.81877">
        <ele>1135</ele>
        <time>2013-09-26T13:05:51Z</time>
      </trkpt>
      <trkpt lat="44.68198" lon="3.81882">
        <ele>1135</ele>
        <time>2013-09-26T13:05:55Z</time>
      </trkpt>
      <trkpt lat="44.68193" lon="3.81885">
        <ele>1135</ele>
        <time>2013-09-26T13:05:59Z</time>
      </trkpt>
      <trkpt lat="44.68189" lon="3.81887">
        <ele>1134</ele>
        <time>2013-09-26T13:06:03Z</time>
      </trkpt>
      <trkpt lat="44.68184" lon="3.8189">
        <ele>1134</ele>
        <time>2013-09-26T13:06:06Z</time>
      </trkpt>
      <trkpt lat="44.68179" lon="3.81892">
        <ele>1134</ele>
        <time>2013-09-26T13:06:10Z</time>
      </trkpt>
      <trkpt lat="44.68174" lon="3.81892">
        <ele>1134</ele>
        <time>2013-09-26T13:06:13Z</time>
      </trkpt>
      <trkpt lat="44.68169" lon="3.81895">
        <ele>1133</ele>
        <time>2013-09-26T13:06:17Z</time>
      </trkpt>
      <trkpt lat="44.68163" lon="3.81897">
        <ele>1132</ele>
        <time>2013-09-26T13:06:21Z</time>
      </trkpt>
      <trkpt lat="44.68158" lon="3.819">
        <ele>1132</ele>
        <time>2013-09-26T13:06:24Z</time>
      </trkpt>
      <trkpt lat="44.68154" lon="3.81904">
        <ele>1132</ele>
        <time>2013-09-26T13:06:27Z</time>
      </trkpt>
      <trkpt lat="44.6815" lon="3.81906">
        <ele>1132</ele>
        <time>2013-09-26T13:06:30Z</time>
      </trkpt>
      <trkpt lat="44.68146" lon="3.8191">
        <ele>1132</ele>
        <time>2013-09-26T13:06:34Z</time>
      </trkpt>
      <trkpt lat="44.68141" lon="3.81913">
        <ele>1132</ele>
        <time>2013-09-26T13:06:38Z</time>
      </trkpt>
      <trkpt lat="44.68137" lon="3.81918">
        <ele>1127</ele>
        <time>2013-09-26T13:06:43Z</time>
      </trkpt>
      <trkpt lat="44.68132" lon="3.81918">
        <ele>1127</ele>
        <time>2013-09-26T13:06:47Z</time>
      </trkpt>
      <trkpt lat="44.68127" lon="3.81917">
        <ele>1127</ele>
        <time>2013-09-26T13:06:51Z</time>
      </trkpt>
      <trkpt lat="44.68122" lon="3.81918">
        <ele>1126</ele>
        <time>2013-09-26T13:06:55Z</time>
      </trkpt>
      <trkpt lat="44.68118" lon="3.8192">
        <ele>1126</ele>
        <time>2013-09-26T13:07:01Z</time>
      </trkpt>
      <trkpt lat="44.68113" lon="3.81923">
        <ele>1126</ele>
        <time>2013-09-26T13:07:06Z</time>
      </trkpt>
      <trkpt lat="44.68108" lon="3.81927">
        <ele>1126</ele>
        <time>2013-09-26T13:07:10Z</time>
      </trkpt>
      <trkpt lat="44.68102" lon="3.81929">
        <ele>1126</ele>
        <time>2013-09-26T13:07:14Z</time>
      </trkpt>
      <trkpt lat="44.68097" lon="3.81929">
        <ele>1126</ele>
        <time>2013-09-26T13:07:29Z</time>
      </trkpt>
      <trkpt lat="44.68092" lon="3.81931">
        <ele>1126</ele>
        <time>2013-09-26T13:07:32Z</time>
      </trkpt>
      <trkpt lat="44.68086" lon="3.81933">
        <ele>1125</ele>
        <time>2013-09-26T13:07:35Z</time>
      </trkpt>
      <trkpt lat="44.68081" lon="3.81935">
        <ele>1122</ele>
        <time>2013-09-26T13:07:38Z</time>
      </trkpt>
      <trkpt lat="44.68079" lon="3.81929">
        <ele>1123</ele>
        <time>2013-09-26T13:07:48Z</time>
      </trkpt>
      <trkpt lat="44.68074" lon="3.81925">
        <ele>1123</ele>
        <time>2013-09-26T13:08:05Z</time>
      </trkpt>
      <trkpt lat="44.68068" lon="3.81924">
        <ele>1122</ele>
        <time>2013-09-26T13:08:09Z</time>
      </trkpt>
      <trkpt lat="44.68064" lon="3.81922">
        <ele>1122</ele>
        <time>2013-09-26T13:08:14Z</time>
      </trkpt>
      <trkpt lat="44.6806" lon="3.8192">
        <ele>1121</ele>
        <time>2013-09-26T13:08:16Z</time>
      </trkpt>
      <trkpt lat="44.68054" lon="3.81919">
        <ele>1121</ele>
        <time>2013-09-26T13:08:18Z</time>
      </trkpt>
      <trkpt lat="44.68049" lon="3.81917">
        <ele>1120</ele>
        <time>2013-09-26T13:08:29Z</time>
      </trkpt>
      <trkpt lat="44.68041" lon="3.81916">
        <ele>1126</ele>
        <time>2013-09-26T13:08:31Z</time>
      </trkpt>
      <trkpt lat="44.68035" lon="3.81916">
        <ele>1125</ele>
        <time>2013-09-26T13:08:34Z</time>
      </trkpt>
      <trkpt lat="44.6803" lon="3.81915">
        <ele>1125</ele>
        <time>2013-09-26T13:08:37Z</time>
      </trkpt>
      <trkpt lat="44.68021" lon="3.81913">
        <ele>1124</ele>
        <time>2013-09-26T13:08:39Z</time>
      </trkpt>
      <trkpt lat="44.68016" lon="3.81912">
        <ele>1123</ele>
        <time>2013-09-26T13:08:40Z</time>
      </trkpt>
      <trkpt lat="44.6801" lon="3.81913">
        <ele>1121</ele>
        <time>2013-09-26T13:08:42Z</time>
      </trkpt>
      <trkpt lat="44.68005" lon="3.81913">
        <ele>1120</ele>
        <time>2013-09-26T13:08:47Z</time>
      </trkpt>
      <trkpt lat="44.68" lon="3.81913">
        <ele>1119</ele>
        <time>2013-09-26T13:08:52Z</time>
      </trkpt>
      <trkpt lat="44.67994" lon="3.81914">
        <ele>1120</ele>
        <time>2013-09-26T13:08:55Z</time>
      </trkpt>
      <trkpt lat="44.67987" lon="3.81913">
        <ele>1121</ele>
        <time>2013-09-26T13:09:00Z</time>
      </trkpt>
      <trkpt lat="44.67981" lon="3.81912">
        <ele>1122</ele>
        <time>2013-09-26T13:09:03Z</time>
      </trkpt>
      <trkpt lat="44.67976" lon="3.81909">
        <ele>1122</ele>
        <time>2013-09-26T13:09:10Z</time>
      </trkpt>
      <trkpt lat="44.67972" lon="3.81906">
        <ele>1123</ele>
        <time>2013-09-26T13:09:18Z</time>
      </trkpt>
      <trkpt lat="44.67968" lon="3.81904">
        <ele>1123</ele>
        <time>2013-09-26T13:09:20Z</time>
      </trkpt>
      <trkpt lat="44.67962" lon="3.81902">
        <ele>1123</ele>
        <time>2013-09-26T13:09:23Z</time>
      </trkpt>
      <trkpt lat="44.67957" lon="3.819">
        <ele>1124</ele>
        <time>2013-09-26T13:09:25Z</time>
      </trkpt>
      <trkpt lat="44.67954" lon="3.81894">
        <ele>1124</ele>
        <time>2013-09-26T13:09:30Z</time>
      </trkpt>
      <trkpt lat="44.6795" lon="3.81889">
        <ele>1124</ele>
        <time>2013-09-26T13:09:33Z</time>
      </trkpt>
      <trkpt lat="44.67946" lon="3.81885">
        <ele>1124</ele>
        <time>2013-09-26T13:09:36Z</time>
      </trkpt>
      <trkpt lat="44.67942" lon="3.81881">
        <ele>1125</ele>
        <time>2013-09-26T13:09:44Z</time>
      </trkpt>
      <trkpt lat="44.67938" lon="3.81875">
        <ele>1125</ele>
        <time>2013-09-26T13:09:49Z</time>
      </trkpt>
      <trkpt lat="44.67934" lon="3.8187">
        <ele>1126</ele>
        <time>2013-09-26T13:09:53Z</time>
      </trkpt>
      <trkpt lat="44.67931" lon="3.81865">
        <ele>1126</ele>
        <time>2013-09-26T13:09:58Z</time>
      </trkpt>
      <trkpt lat="44.67929" lon="3.81859">
        <ele>1126</ele>
        <time>2013-09-26T13:10:03Z</time>
      </trkpt>
      <trkpt lat="44.67928" lon="3.81853">
        <ele>1127</ele>
        <time>2013-09-26T13:10:12Z</time>
      </trkpt>
      <trkpt lat="44.67925" lon="3.81847">
        <ele>1128</ele>
        <time>2013-09-26T13:10:18Z</time>
      </trkpt>
      <trkpt lat="44.67924" lon="3.8184">
        <ele>1128</ele>
        <time>2013-09-26T13:10:22Z</time>
      </trkpt>
      <trkpt lat="44.67922" lon="3.81834">
        <ele>1129</ele>
        <time>2013-09-26T13:10:27Z</time>
      </trkpt>
      <trkpt lat="44.67919" lon="3.81827">
        <ele>1131</ele>
        <time>2013-09-26T13:10:31Z</time>
      </trkpt>
      <trkpt lat="44.67918" lon="3.81821">
        <ele>1132</ele>
        <time>2013-09-26T13:10:46Z</time>
      </trkpt>
      <trkpt lat="44.67919" lon="3.81814">
        <ele>1132</ele>
        <time>2013-09-26T13:11:02Z</time>
      </trkpt>
      <trkpt lat="44.67917" lon="3.81809">
        <ele>1133</ele>
        <time>2013-09-26T13:11:10Z</time>
      </trkpt>
      <trkpt lat="44.67916" lon="3.81802">
        <ele>1131</ele>
        <time>2013-09-26T13:11:20Z</time>
      </trkpt>
      <trkpt lat="44.67912" lon="3.81796">
        <ele>1131</ele>
        <time>2013-09-26T13:11:26Z</time>
      </trkpt>
      <trkpt lat="44.67911" lon="3.8179">
        <ele>1132</ele>
        <time>2013-09-26T13:11:31Z</time>
      </trkpt>
      <trkpt lat="44.67912" lon="3.81783">
        <ele>1132</ele>
        <time>2013-09-26T13:11:37Z</time>
      </trkpt>
      <trkpt lat="44.6791" lon="3.81776">
        <ele>1133</ele>
        <time>2013-09-26T13:11:42Z</time>
      </trkpt>
      <trkpt lat="44.67909" lon="3.8177">
        <ele>1133</ele>
        <time>2013-09-26T13:11:49Z</time>
      </trkpt>
      <trkpt lat="44.67907" lon="3.81764">
        <ele>1134</ele>
        <time>2013-09-26T13:12:00Z</time>
      </trkpt>
      <trkpt lat="44.6791" lon="3.81758">
        <ele>1135</ele>
        <time>2013-09-26T13:12:10Z</time>
      </trkpt>
      <trkpt lat="44.67916" lon="3.81757">
        <ele>1135</ele>
        <time>2013-09-26T13:12:15Z</time>
      </trkpt>
      <trkpt lat="44.6792" lon="3.81752">
        <ele>1137</ele>
        <time>2013-09-26T13:12:21Z</time>
      </trkpt>
      <trkpt lat="44.67922" lon="3.81747">
        <ele>1137</ele>
        <time>2013-09-26T13:12:26Z</time>
      </trkpt>
      <trkpt lat="44.6792" lon="3.8174">
        <ele>1138</ele>
        <time>2013-09-26T13:12:31Z</time>
      </trkpt>
      <trkpt lat="44.67922" lon="3.81734">
        <ele>1138</ele>
        <time>2013-09-26T13:12:37Z</time>
      </trkpt>
      <trkpt lat="44.6792" lon="3.81727">
        <ele>1138</ele>
        <time>2013-09-26T13:12:44Z</time>
      </trkpt>
      <trkpt lat="44.67921" lon="3.81721">
        <ele>1139</ele>
        <time>2013-09-26T13:12:49Z</time>
      </trkpt>
      <trkpt lat="44.67923" lon="3.81713">
        <ele>1139</ele>
        <time>2013-09-26T13:12:54Z</time>
      </trkpt>
      <trkpt lat="44.67925" lon="3.81707">
        <ele>1139</ele>
        <time>2013-09-26T13:12:59Z</time>
      </trkpt>
      <trkpt lat="44.67925" lon="3.81701">
        <ele>1139</ele>
        <time>2013-09-26T13:13:05Z</time>
      </trkpt>
      <trkpt lat="44.67923" lon="3.81694">
        <ele>1140</ele>
        <time>2013-09-26T13:13:10Z</time>
      </trkpt>
      <trkpt lat="44.67921" lon="3.81687">
        <ele>1140</ele>
        <time>2013-09-26T13:13:15Z</time>
      </trkpt>
      <trkpt lat="44.67921" lon="3.81681">
        <ele>1140</ele>
        <time>2013-09-26T13:13:20Z</time>
      </trkpt>
      <trkpt lat="44.67921" lon="3.81674">
        <ele>1141</ele>
        <time>2013-09-26T13:13:25Z</time>
      </trkpt>
      <trkpt lat="44.67921" lon="3.81667">
        <ele>1141</ele>
        <time>2013-09-26T13:13:32Z</time>
      </trkpt>
      <trkpt lat="44.67922" lon="3.8166">
        <ele>1141</ele>
        <time>2013-09-26T13:13:39Z</time>
      </trkpt>
      <trkpt lat="44.67921" lon="3.81653">
        <ele>1141</ele>
        <time>2013-09-26T13:13:45Z</time>
      </trkpt>
      <trkpt lat="44.6792" lon="3.81647">
        <ele>1142</ele>
        <time>2013-09-26T13:13:51Z</time>
      </trkpt>
      <trkpt lat="44.67916" lon="3.81642">
        <ele>1141</ele>
        <time>2013-09-26T13:13:58Z</time>
      </trkpt>
      <trkpt lat="44.67915" lon="3.81636">
        <ele>1141</ele>
        <time>2013-09-26T13:14:06Z</time>
      </trkpt>
      <trkpt lat="44.67913" lon="3.81629">
        <ele>1141</ele>
        <time>2013-09-26T13:14:13Z</time>
      </trkpt>
      <trkpt lat="44.67909" lon="3.81623">
        <ele>1141</ele>
        <time>2013-09-26T13:14:20Z</time>
      </trkpt>
      <trkpt lat="44.67914" lon="3.8162">
        <ele>1141</ele>
        <time>2013-09-26T13:14:27Z</time>
      </trkpt>
      <trkpt lat="44.67914" lon="3.81613">
        <ele>1141</ele>
        <time>2013-09-26T13:14:33Z</time>
      </trkpt>
      <trkpt lat="44.67912" lon="3.81606">
        <ele>1141</ele>
        <time>2013-09-26T13:14:38Z</time>
      </trkpt>
      <trkpt lat="44.67912" lon="3.81599">
        <ele>1142</ele>
        <time>2013-09-26T13:14:43Z</time>
      </trkpt>
      <trkpt lat="44.67913" lon="3.81593">
        <ele>1142</ele>
        <time>2013-09-26T13:14:48Z</time>
      </trkpt>
      <trkpt lat="44.6791" lon="3.81587">
        <ele>1142</ele>
        <time>2013-09-26T13:14:53Z</time>
      </trkpt>
      <trkpt lat="44.67908" lon="3.81581">
        <ele>1143</ele>
        <time>2013-09-26T13:15:00Z</time>
      </trkpt>
      <trkpt lat="44.67904" lon="3.81576">
        <ele>1143</ele>
        <time>2013-09-26T13:15:07Z</time>
      </trkpt>
      <trkpt lat="44.67903" lon="3.8157">
        <ele>1143</ele>
        <time>2013-09-26T13:15:13Z</time>
      </trkpt>
      <trkpt lat="44.67902" lon="3.81563">
        <ele>1143</ele>
        <time>2013-09-26T13:15:21Z</time>
      </trkpt>
      <trkpt lat="44.679" lon="3.81556">
        <ele>1144</ele>
        <time>2013-09-26T13:15:27Z</time>
      </trkpt>
      <trkpt lat="44.67898" lon="3.8155">
        <ele>1144</ele>
        <time>2013-09-26T13:15:32Z</time>
      </trkpt>
      <trkpt lat="44.67895" lon="3.81544">
        <ele>1144</ele>
        <time>2013-09-26T13:15:40Z</time>
      </trkpt>
      <trkpt lat="44.67892" lon="3.81539">
        <ele>1144</ele>
        <time>2013-09-26T13:15:44Z</time>
      </trkpt>
      <trkpt lat="44.6789" lon="3.81534">
        <ele>1144</ele>
        <time>2013-09-26T13:15:48Z</time>
      </trkpt>
      <trkpt lat="44.67888" lon="3.81527">
        <ele>1144</ele>
        <time>2013-09-26T13:15:53Z</time>
      </trkpt>
      <trkpt lat="44.67884" lon="3.81521">
        <ele>1144</ele>
        <time>2013-09-26T13:15:58Z</time>
      </trkpt>
      <trkpt lat="44.67881" lon="3.81515">
        <ele>1144</ele>
        <time>2013-09-26T13:16:04Z</time>
      </trkpt>
      <trkpt lat="44.67881" lon="3.81509">
        <ele>1144</ele>
        <time>2013-09-26T13:16:10Z</time>
      </trkpt>
      <trkpt lat="44.67881" lon="3.81501">
        <ele>1144</ele>
        <time>2013-09-26T13:16:16Z</time>
      </trkpt>
      <trkpt lat="44.67879" lon="3.81495">
        <ele>1147</ele>
        <time>2013-09-26T13:16:20Z</time>
      </trkpt>
      <trkpt lat="44.67877" lon="3.81489">
        <ele>1147</ele>
        <time>2013-09-26T13:16:24Z</time>
      </trkpt>
      <trkpt lat="44.67875" lon="3.81483">
        <ele>1147</ele>
        <time>2013-09-26T13:16:28Z</time>
      </trkpt>
      <trkpt lat="44.67872" lon="3.81477">
        <ele>1147</ele>
        <time>2013-09-26T13:16:32Z</time>
      </trkpt>
      <trkpt lat="44.67871" lon="3.8147">
        <ele>1147</ele>
        <time>2013-09-26T13:16:37Z</time>
      </trkpt>
      <trkpt lat="44.6787" lon="3.81463">
        <ele>1147</ele>
        <time>2013-09-26T13:16:41Z</time>
      </trkpt>
      <trkpt lat="44.67871" lon="3.81455">
        <ele>1148</ele>
        <time>2013-09-26T13:16:45Z</time>
      </trkpt>
      <trkpt lat="44.67873" lon="3.81449">
        <ele>1148</ele>
        <time>2013-09-26T13:16:48Z</time>
      </trkpt>
      <trkpt lat="44.67876" lon="3.81442">
        <ele>1148</ele>
        <time>2013-09-26T13:16:52Z</time>
      </trkpt>
      <trkpt lat="44.6788" lon="3.81436">
        <ele>1148</ele>
        <time>2013-09-26T13:16:56Z</time>
      </trkpt>
      <trkpt lat="44.67883" lon="3.81431">
        <ele>1148</ele>
        <time>2013-09-26T13:16:59Z</time>
      </trkpt>
      <trkpt lat="44.67887" lon="3.81425">
        <ele>1148</ele>
        <time>2013-09-26T13:17:03Z</time>
      </trkpt>
      <trkpt lat="44.67891" lon="3.8142">
        <ele>1148</ele>
        <time>2013-09-26T13:17:09Z</time>
      </trkpt>
      <trkpt lat="44.67896" lon="3.81416">
        <ele>1149</ele>
        <time>2013-09-26T13:17:13Z</time>
      </trkpt>
      <trkpt lat="44.67901" lon="3.81412">
        <ele>1149</ele>
        <time>2013-09-26T13:17:17Z</time>
      </trkpt>
      <trkpt lat="44.67905" lon="3.81407">
        <ele>1149</ele>
        <time>2013-09-26T13:17:21Z</time>
      </trkpt>
      <trkpt lat="44.67908" lon="3.81402">
        <ele>1149</ele>
        <time>2013-09-26T13:17:25Z</time>
      </trkpt>
      <trkpt lat="44.67911" lon="3.81396">
        <ele>1149</ele>
        <time>2013-09-26T13:17:31Z</time>
      </trkpt>
      <trkpt lat="44.67915" lon="3.81389">
        <ele>1149</ele>
        <time>2013-09-26T13:17:35Z</time>
      </trkpt>
      <trkpt lat="44.67919" lon="3.81384">
        <ele>1145</ele>
        <time>2013-09-26T13:17:38Z</time>
      </trkpt>
      <trkpt lat="44.67922" lon="3.81378">
        <ele>1145</ele>
        <time>2013-09-26T13:17:41Z</time>
      </trkpt>
      <trkpt lat="44.67925" lon="3.81372">
        <ele>1145</ele>
        <time>2013-09-26T13:17:45Z</time>
      </trkpt>
      <trkpt lat="44.67927" lon="3.81365">
        <ele>1145</ele>
        <time>2013-09-26T13:17:55Z</time>
      </trkpt>
      <trkpt lat="44.67924" lon="3.81359">
        <ele>1146</ele>
        <time>2013-09-26T13:18:00Z</time>
      </trkpt>
      <trkpt lat="44.67921" lon="3.81355">
        <ele>1146</ele>
        <time>2013-09-26T13:18:07Z</time>
      </trkpt>
      <trkpt lat="44.67917" lon="3.81351">
        <ele>1146</ele>
        <time>2013-09-26T13:18:10Z</time>
      </trkpt>
      <trkpt lat="44.67913" lon="3.81347">
        <ele>1149</ele>
        <time>2013-09-26T13:18:13Z</time>
      </trkpt>
      <trkpt lat="44.67909" lon="3.81343">
        <ele>1149</ele>
        <time>2013-09-26T13:18:16Z</time>
      </trkpt>
      <trkpt lat="44.67904" lon="3.81343">
        <ele>1150</ele>
        <time>2013-09-26T13:18:18Z</time>
      </trkpt>
      <trkpt lat="44.67896" lon="3.81345">
        <ele>1150</ele>
        <time>2013-09-26T13:18:20Z</time>
      </trkpt>
      <trkpt lat="44.67891" lon="3.81347">
        <ele>1150</ele>
        <time>2013-09-26T13:18:21Z</time>
      </trkpt>
      <trkpt lat="44.67886" lon="3.81348">
        <ele>1150</ele>
        <time>2013-09-26T13:18:22Z</time>
      </trkpt>
      <trkpt lat="44.67877" lon="3.81347">
        <ele>1150</ele>
        <time>2013-09-26T13:18:24Z</time>
      </trkpt>
      <trkpt lat="44.67872" lon="3.81344">
        <ele>1150</ele>
        <time>2013-09-26T13:18:25Z</time>
      </trkpt>
      <trkpt lat="44.67868" lon="3.8134">
        <ele>1151</ele>
        <time>2013-09-26T13:18:26Z</time>
      </trkpt>
      <trkpt lat="44.67865" lon="3.81335">
        <ele>1151</ele>
        <time>2013-09-26T13:18:27Z</time>
      </trkpt>
      <trkpt lat="44.67862" lon="3.8133">
        <ele>1151</ele>
        <time>2013-09-26T13:18:28Z</time>
      </trkpt>
      <trkpt lat="44.67858" lon="3.81324">
        <ele>1151</ele>
        <time>2013-09-26T13:18:29Z</time>
      </trkpt>
      <trkpt lat="44.67856" lon="3.81319">
        <ele>1151</ele>
        <time>2013-09-26T13:18:30Z</time>
      </trkpt>
      <trkpt lat="44.67852" lon="3.81313">
        <ele>1151</ele>
        <time>2013-09-26T13:18:31Z</time>
      </trkpt>
      <trkpt lat="44.6785" lon="3.81306">
        <ele>1151</ele>
        <time>2013-09-26T13:18:32Z</time>
      </trkpt>
      <trkpt lat="44.67848" lon="3.813">
        <ele>1151</ele>
        <time>2013-09-26T13:18:33Z</time>
      </trkpt>
      <trkpt lat="44.67846" lon="3.81294">
        <ele>1150</ele>
        <time>2013-09-26T13:18:34Z</time>
      </trkpt>
      <trkpt lat="44.67843" lon="3.81287">
        <ele>1150</ele>
        <time>2013-09-26T13:18:35Z</time>
      </trkpt>
      <trkpt lat="44.67841" lon="3.81281">
        <ele>1150</ele>
        <time>2013-09-26T13:18:36Z</time>
      </trkpt>
      <trkpt lat="44.67839" lon="3.81275">
        <ele>1150</ele>
        <time>2013-09-26T13:18:37Z</time>
      </trkpt>
      <trkpt lat="44.67837" lon="3.81268">
        <ele>1151</ele>
        <time>2013-09-26T13:18:38Z</time>
      </trkpt>
      <trkpt lat="44.67834" lon="3.81257">
        <ele>1151</ele>
        <time>2013-09-26T13:18:40Z</time>
      </trkpt>
      <trkpt lat="44.67831" lon="3.81247">
        <ele>1151</ele>
        <time>2013-09-26T13:18:42Z</time>
      </trkpt>
      <trkpt lat="44.67828" lon="3.81237">
        <ele>1151</ele>
        <time>2013-09-26T13:18:44Z</time>
      </trkpt>
      <trkpt lat="44.67825" lon="3.81227">
        <ele>1151</ele>
        <time>2013-09-26T13:18:46Z</time>
      </trkpt>
      <trkpt lat="44.67822" lon="3.81218">
        <ele>1151</ele>
        <time>2013-09-26T13:18:48Z</time>
      </trkpt>
      <trkpt lat="44.67819" lon="3.81209">
        <ele>1151</ele>
        <time>2013-09-26T13:18:50Z</time>
      </trkpt>
      <trkpt lat="44.67816" lon="3.81202">
        <ele>1151</ele>
        <time>2013-09-26T13:18:52Z</time>
      </trkpt>
      <trkpt lat="44.67813" lon="3.81194">
        <ele>1150</ele>
        <time>2013-09-26T13:18:54Z</time>
      </trkpt>
      <trkpt lat="44.67811" lon="3.81188">
        <ele>1150</ele>
        <time>2013-09-26T13:18:56Z</time>
      </trkpt>
      <trkpt lat="44.67809" lon="3.81181">
        <ele>1150</ele>
        <time>2013-09-26T13:18:58Z</time>
      </trkpt>
      <trkpt lat="44.67806" lon="3.81175">
        <ele>1150</ele>
        <time>2013-09-26T13:19:00Z</time>
      </trkpt>
      <trkpt lat="44.67803" lon="3.8117">
        <ele>1150</ele>
        <time>2013-09-26T13:19:02Z</time>
      </trkpt>
      <trkpt lat="44.67801" lon="3.81164">
        <ele>1148</ele>
        <time>2013-09-26T13:19:04Z</time>
      </trkpt>
      <trkpt lat="44.67798" lon="3.81159">
        <ele>1148</ele>
        <time>2013-09-26T13:19:06Z</time>
      </trkpt>
      <trkpt lat="44.67794" lon="3.81152">
        <ele>1148</ele>
        <time>2013-09-26T13:19:09Z</time>
      </trkpt>
      <trkpt lat="44.6779" lon="3.81145">
        <ele>1147</ele>
        <time>2013-09-26T13:19:12Z</time>
      </trkpt>
      <trkpt lat="44.67786" lon="3.81141">
        <ele>1147</ele>
        <time>2013-09-26T13:19:14Z</time>
      </trkpt>
      <trkpt lat="44.67782" lon="3.81135">
        <ele>1147</ele>
        <time>2013-09-26T13:19:16Z</time>
      </trkpt>
      <trkpt lat="44.67778" lon="3.81129">
        <ele>1147</ele>
        <time>2013-09-26T13:19:18Z</time>
      </trkpt>
      <trkpt lat="44.67775" lon="3.81123">
        <ele>1147</ele>
        <time>2013-09-26T13:19:20Z</time>
      </trkpt>
      <trkpt lat="44.6777" lon="3.81115">
        <ele>1147</ele>
        <time>2013-09-26T13:19:23Z</time>
      </trkpt>
      <trkpt lat="44.67767" lon="3.81108">
        <ele>1146</ele>
        <time>2013-09-26T13:19:26Z</time>
      </trkpt>
      <trkpt lat="44.67764" lon="3.81103">
        <ele>1146</ele>
        <time>2013-09-26T13:19:29Z</time>
      </trkpt>
      <trkpt lat="44.6776" lon="3.81098">
        <ele>1146</ele>
        <time>2013-09-26T13:19:32Z</time>
      </trkpt>
      <trkpt lat="44.67756" lon="3.81091">
        <ele>1146</ele>
        <time>2013-09-26T13:19:35Z</time>
      </trkpt>
      <trkpt lat="44.67753" lon="3.81086">
        <ele>1145</ele>
        <time>2013-09-26T13:19:39Z</time>
      </trkpt>
      <trkpt lat="44.6775" lon="3.8108">
        <ele>1145</ele>
        <time>2013-09-26T13:19:44Z</time>
      </trkpt>
      <trkpt lat="44.67746" lon="3.81076">
        <ele>1144</ele>
        <time>2013-09-26T13:19:49Z</time>
      </trkpt>
      <trkpt lat="44.67743" lon="3.81072">
        <ele>1144</ele>
        <time>2013-09-26T13:19:56Z</time>
      </trkpt>
      <trkpt lat="44.67738" lon="3.81069">
        <ele>1144</ele>
        <time>2013-09-26T13:20:05Z</time>
      </trkpt>
      <trkpt lat="44.67733" lon="3.81069">
        <ele>1143</ele>
        <time>2013-09-26T13:20:39Z</time>
      </trkpt>
      <trkpt lat="44.6773" lon="3.81065">
        <ele>1143</ele>
        <time>2013-09-26T13:20:52Z</time>
      </trkpt>
      <trkpt lat="44.67729" lon="3.81059">
        <ele>1143</ele>
        <time>2013-09-26T13:21:07Z</time>
      </trkpt>
      <trkpt lat="44.67728" lon="3.81052">
        <ele>1143</ele>
        <time>2013-09-26T13:21:17Z</time>
      </trkpt>
      <trkpt lat="44.67727" lon="3.81045">
        <ele>1142</ele>
        <time>2013-09-26T13:21:24Z</time>
      </trkpt>
      <trkpt lat="44.67726" lon="3.81038">
        <ele>1142</ele>
        <time>2013-09-26T13:21:31Z</time>
      </trkpt>
      <trkpt lat="44.67725" lon="3.81031">
        <ele>1142</ele>
        <time>2013-09-26T13:21:37Z</time>
      </trkpt>
      <trkpt lat="44.67725" lon="3.81024">
        <ele>1142</ele>
        <time>2013-09-26T13:21:43Z</time>
      </trkpt>
      <trkpt lat="44.67726" lon="3.81017">
        <ele>1141</ele>
        <time>2013-09-26T13:21:48Z</time>
      </trkpt>
      <trkpt lat="44.67725" lon="3.81009">
        <ele>1141</ele>
        <time>2013-09-26T13:21:53Z</time>
      </trkpt>
      <trkpt lat="44.67726" lon="3.81002">
        <ele>1141</ele>
        <time>2013-09-26T13:21:58Z</time>
      </trkpt>
      <trkpt lat="44.67726" lon="3.80995">
        <ele>1140</ele>
        <time>2013-09-26T13:22:03Z</time>
      </trkpt>
      <trkpt lat="44.67725" lon="3.80988">
        <ele>1140</ele>
        <time>2013-09-26T13:22:08Z</time>
      </trkpt>
      <trkpt lat="44.67722" lon="3.80982">
        <ele>1140</ele>
        <time>2013-09-26T13:22:13Z</time>
      </trkpt>
      <trkpt lat="44.67721" lon="3.80975">
        <ele>1140</ele>
        <time>2013-09-26T13:22:17Z</time>
      </trkpt>
      <trkpt lat="44.67719" lon="3.80969">
        <ele>1140</ele>
        <time>2013-09-26T13:22:21Z</time>
      </trkpt>
      <trkpt lat="44.67717" lon="3.80962">
        <ele>1140</ele>
        <time>2013-09-26T13:22:26Z</time>
      </trkpt>
      <trkpt lat="44.67716" lon="3.80955">
        <ele>1140</ele>
        <time>2013-09-26T13:22:31Z</time>
      </trkpt>
      <trkpt lat="44.67714" lon="3.80949">
        <ele>1140</ele>
        <time>2013-09-26T13:22:35Z</time>
      </trkpt>
      <trkpt lat="44.67713" lon="3.80942">
        <ele>1140</ele>
        <time>2013-09-26T13:22:39Z</time>
      </trkpt>
      <trkpt lat="44.67712" lon="3.80936">
        <ele>1140</ele>
        <time>2013-09-26T13:22:43Z</time>
      </trkpt>
      <trkpt lat="44.6771" lon="3.8093">
        <ele>1140</ele>
        <time>2013-09-26T13:22:47Z</time>
      </trkpt>
      <trkpt lat="44.67707" lon="3.80923">
        <ele>1140</ele>
        <time>2013-09-26T13:22:52Z</time>
      </trkpt>
      <trkpt lat="44.67706" lon="3.80916">
        <ele>1142</ele>
        <time>2013-09-26T13:22:56Z</time>
      </trkpt>
      <trkpt lat="44.67703" lon="3.80909">
        <ele>1142</ele>
        <time>2013-09-26T13:23:00Z</time>
      </trkpt>
      <trkpt lat="44.677" lon="3.80904">
        <ele>1142</ele>
        <time>2013-09-26T13:23:04Z</time>
      </trkpt>
      <trkpt lat="44.67697" lon="3.80897">
        <ele>1143</ele>
        <time>2013-09-26T13:23:08Z</time>
      </trkpt>
      <trkpt lat="44.67695" lon="3.8089">
        <ele>1143</ele>
        <time>2013-09-26T13:23:12Z</time>
      </trkpt>
      <trkpt lat="44.67692" lon="3.80883">
        <ele>1143</ele>
        <time>2013-09-26T13:23:16Z</time>
      </trkpt>
      <trkpt lat="44.6769" lon="3.80877">
        <ele>1143</ele>
        <time>2013-09-26T13:23:19Z</time>
      </trkpt>
      <trkpt lat="44.67687" lon="3.80872">
        <ele>1143</ele>
        <time>2013-09-26T13:23:22Z</time>
      </trkpt>
      <trkpt lat="44.67685" lon="3.80866">
        <ele>1144</ele>
        <time>2013-09-26T13:23:25Z</time>
      </trkpt>
      <trkpt lat="44.67682" lon="3.80861">
        <ele>1144</ele>
        <time>2013-09-26T13:23:28Z</time>
      </trkpt>
      <trkpt lat="44.67679" lon="3.80855">
        <ele>1144</ele>
        <time>2013-09-26T13:23:32Z</time>
      </trkpt>
      <trkpt lat="44.67676" lon="3.80849">
        <ele>1144</ele>
        <time>2013-09-26T13:23:35Z</time>
      </trkpt>
      <trkpt lat="44.67674" lon="3.80843">
        <ele>1144</ele>
        <time>2013-09-26T13:23:38Z</time>
      </trkpt>
      <trkpt lat="44.6767" lon="3.80837">
        <ele>1145</ele>
        <time>2013-09-26T13:23:41Z</time>
      </trkpt>
      <trkpt lat="44.67667" lon="3.80831">
        <ele>1145</ele>
        <time>2013-09-26T13:23:44Z</time>
      </trkpt>
      <trkpt lat="44.67664" lon="3.80826">
        <ele>1144</ele>
        <time>2013-09-26T13:23:47Z</time>
      </trkpt>
      <trkpt lat="44.6766" lon="3.8082">
        <ele>1144</ele>
        <time>2013-09-26T13:23:50Z</time>
      </trkpt>
      <trkpt lat="44.67657" lon="3.80814">
        <ele>1144</ele>
        <time>2013-09-26T13:23:53Z</time>
      </trkpt>
      <trkpt lat="44.67653" lon="3.80808">
        <ele>1144</ele>
        <time>2013-09-26T13:23:56Z</time>
      </trkpt>
      <trkpt lat="44.67649" lon="3.80802">
        <ele>1144</ele>
        <time>2013-09-26T13:23:59Z</time>
      </trkpt>
      <trkpt lat="44.67644" lon="3.80795">
        <ele>1143</ele>
        <time>2013-09-26T13:24:02Z</time>
      </trkpt>
      <trkpt lat="44.67641" lon="3.80791">
        <ele>1143</ele>
        <time>2013-09-26T13:24:04Z</time>
      </trkpt>
      <trkpt lat="44.67638" lon="3.80786">
        <ele>1143</ele>
        <time>2013-09-26T13:24:06Z</time>
      </trkpt>
      <trkpt lat="44.67635" lon="3.80781">
        <ele>1143</ele>
        <time>2013-09-26T13:24:08Z</time>
      </trkpt>
      <trkpt lat="44.6763" lon="3.80776">
        <ele>1143</ele>
        <time>2013-09-26T13:24:10Z</time>
      </trkpt>
      <trkpt lat="44.67626" lon="3.8077">
        <ele>1143</ele>
        <time>2013-09-26T13:24:12Z</time>
      </trkpt>
      <trkpt lat="44.67621" lon="3.80763">
        <ele>1143</ele>
        <time>2013-09-26T13:24:14Z</time>
      </trkpt>
      <trkpt lat="44.67616" lon="3.80754">
        <ele>1143</ele>
        <time>2013-09-26T13:24:16Z</time>
      </trkpt>
      <trkpt lat="44.67611" lon="3.80746">
        <ele>1143</ele>
        <time>2013-09-26T13:24:18Z</time>
      </trkpt>
      <trkpt lat="44.67606" lon="3.80737">
        <ele>1143</ele>
        <time>2013-09-26T13:24:20Z</time>
      </trkpt>
      <trkpt lat="44.67601" lon="3.80731">
        <ele>1143</ele>
        <time>2013-09-26T13:24:22Z</time>
      </trkpt>
      <trkpt lat="44.67597" lon="3.80725">
        <ele>1143</ele>
        <time>2013-09-26T13:24:24Z</time>
      </trkpt>
      <trkpt lat="44.67593" lon="3.80719">
        <ele>1143</ele>
        <time>2013-09-26T13:24:26Z</time>
      </trkpt>
      <trkpt lat="44.6759" lon="3.80713">
        <ele>1143</ele>
        <time>2013-09-26T13:24:28Z</time>
      </trkpt>
      <trkpt lat="44.67586" lon="3.80708">
        <ele>1143</ele>
        <time>2013-09-26T13:24:30Z</time>
      </trkpt>
      <trkpt lat="44.67583" lon="3.80701">
        <ele>1144</ele>
        <time>2013-09-26T13:24:33Z</time>
      </trkpt>
      <trkpt lat="44.67579" lon="3.80694">
        <ele>1144</ele>
        <time>2013-09-26T13:24:36Z</time>
      </trkpt>
      <trkpt lat="44.67576" lon="3.80688">
        <ele>1144</ele>
        <time>2013-09-26T13:24:39Z</time>
      </trkpt>
      <trkpt lat="44.67572" lon="3.80683">
        <ele>1144</ele>
        <time>2013-09-26T13:24:42Z</time>
      </trkpt>
      <trkpt lat="44.67567" lon="3.80678">
        <ele>1144</ele>
        <time>2013-09-26T13:24:46Z</time>
      </trkpt>
      <trkpt lat="44.67563" lon="3.80673">
        <ele>1144</ele>
        <time>2013-09-26T13:24:50Z</time>
      </trkpt>
      <trkpt lat="44.67559" lon="3.80667">
        <ele>1144</ele>
        <time>2013-09-26T13:24:53Z</time>
      </trkpt>
      <trkpt lat="44.67559" lon="3.8066">
        <ele>1145</ele>
        <time>2013-09-26T13:24:56Z</time>
      </trkpt>
      <trkpt lat="44.67561" lon="3.80654">
        <ele>1145</ele>
        <time>2013-09-26T13:25:05Z</time>
      </trkpt>
      <trkpt lat="44.67564" lon="3.80646">
        <ele>1145</ele>
        <time>2013-09-26T13:25:08Z</time>
      </trkpt>
      <trkpt lat="44.67567" lon="3.8064">
        <ele>1145</ele>
        <time>2013-09-26T13:25:10Z</time>
      </trkpt>
      <trkpt lat="44.67571" lon="3.80635">
        <ele>1145</ele>
        <time>2013-09-26T13:25:12Z</time>
      </trkpt>
      <trkpt lat="44.67575" lon="3.80628">
        <ele>1145</ele>
        <time>2013-09-26T13:25:15Z</time>
      </trkpt>
      <trkpt lat="44.67576" lon="3.80622">
        <ele>1146</ele>
        <time>2013-09-26T13:25:18Z</time>
      </trkpt>
      <trkpt lat="44.67577" lon="3.80614">
        <ele>1146</ele>
        <time>2013-09-26T13:25:22Z</time>
      </trkpt>
      <trkpt lat="44.67576" lon="3.80606">
        <ele>1146</ele>
        <time>2013-09-26T13:25:26Z</time>
      </trkpt>
      <trkpt lat="44.67573" lon="3.80599">
        <ele>1147</ele>
        <time>2013-09-26T13:25:30Z</time>
      </trkpt>
      <trkpt lat="44.67571" lon="3.80593">
        <ele>1147</ele>
        <time>2013-09-26T13:25:34Z</time>
      </trkpt>
      <trkpt lat="44.67567" lon="3.80588">
        <ele>1147</ele>
        <time>2013-09-26T13:25:39Z</time>
      </trkpt>
      <trkpt lat="44.67563" lon="3.80582">
        <ele>1148</ele>
        <time>2013-09-26T13:25:45Z</time>
      </trkpt>
      <trkpt lat="44.67559" lon="3.80577">
        <ele>1149</ele>
        <time>2013-09-26T13:25:50Z</time>
      </trkpt>
      <trkpt lat="44.67556" lon="3.80572">
        <ele>1149</ele>
        <time>2013-09-26T13:25:54Z</time>
      </trkpt>
      <trkpt lat="44.67553" lon="3.80566">
        <ele>1149</ele>
        <time>2013-09-26T13:25:58Z</time>
      </trkpt>
      <trkpt lat="44.67551" lon="3.8056">
        <ele>1149</ele>
        <time>2013-09-26T13:26:02Z</time>
      </trkpt>
      <trkpt lat="44.67548" lon="3.80554">
        <ele>1149</ele>
        <time>2013-09-26T13:26:06Z</time>
      </trkpt>
      <trkpt lat="44.67546" lon="3.80549">
        <ele>1149</ele>
        <time>2013-09-26T13:26:12Z</time>
      </trkpt>
      <trkpt lat="44.67543" lon="3.80544">
        <ele>1149</ele>
        <time>2013-09-26T13:26:18Z</time>
      </trkpt>
      <trkpt lat="44.6754" lon="3.80538">
        <ele>1149</ele>
        <time>2013-09-26T13:26:26Z</time>
      </trkpt>
      <trkpt lat="44.67535" lon="3.80534">
        <ele>1149</ele>
        <time>2013-09-26T13:26:33Z</time>
      </trkpt>
      <trkpt lat="44.67531" lon="3.80531">
        <ele>1149</ele>
        <time>2013-09-26T13:26:39Z</time>
      </trkpt>
      <trkpt lat="44.67528" lon="3.80525">
        <ele>1149</ele>
        <time>2013-09-26T13:26:45Z</time>
      </trkpt>
      <trkpt lat="44.67525" lon="3.80519">
        <ele>1150</ele>
        <time>2013-09-26T13:26:59Z</time>
      </trkpt>
      <trkpt lat="44.67521" lon="3.80515">
        <ele>1150</ele>
        <time>2013-09-26T13:27:05Z</time>
      </trkpt>
      <trkpt lat="44.67518" lon="3.80509">
        <ele>1150</ele>
        <time>2013-09-26T13:27:11Z</time>
      </trkpt>
      <trkpt lat="44.67516" lon="3.80502">
        <ele>1150</ele>
        <time>2013-09-26T13:27:16Z</time>
      </trkpt>
      <trkpt lat="44.67514" lon="3.80496">
        <ele>1153</ele>
        <time>2013-09-26T13:27:20Z</time>
      </trkpt>
      <trkpt lat="44.67511" lon="3.80491">
        <ele>1153</ele>
        <time>2013-09-26T13:27:24Z</time>
      </trkpt>
      <trkpt lat="44.67509" lon="3.80485">
        <ele>1153</ele>
        <time>2013-09-26T13:27:28Z</time>
      </trkpt>
      <trkpt lat="44.67506" lon="3.8048">
        <ele>1154</ele>
        <time>2013-09-26T13:27:32Z</time>
      </trkpt>
      <trkpt lat="44.67504" lon="3.80473">
        <ele>1154</ele>
        <time>2013-09-26T13:27:37Z</time>
      </trkpt>
      <trkpt lat="44.67504" lon="3.80465">
        <ele>1155</ele>
        <time>2013-09-26T13:27:42Z</time>
      </trkpt>
      <trkpt lat="44.67502" lon="3.80459">
        <ele>1155</ele>
        <time>2013-09-26T13:27:47Z</time>
      </trkpt>
      <trkpt lat="44.675" lon="3.80453">
        <ele>1156</ele>
        <time>2013-09-26T13:27:51Z</time>
      </trkpt>
      <trkpt lat="44.67498" lon="3.80447">
        <ele>1156</ele>
        <time>2013-09-26T13:27:55Z</time>
      </trkpt>
      <trkpt lat="44.67497" lon="3.80441">
        <ele>1156</ele>
        <time>2013-09-26T13:28:07Z</time>
      </trkpt>
      <trkpt lat="44.67493" lon="3.80437">
        <ele>1157</ele>
        <time>2013-09-26T13:28:17Z</time>
      </trkpt>
      <trkpt lat="44.67489" lon="3.80432">
        <ele>1157</ele>
        <time>2013-09-26T13:28:26Z</time>
      </trkpt>
      <trkpt lat="44.67484" lon="3.8043">
        <ele>1157</ele>
        <time>2013-09-26T13:28:31Z</time>
      </trkpt>
      <trkpt lat="44.67479" lon="3.80426">
        <ele>1157</ele>
        <time>2013-09-26T13:28:35Z</time>
      </trkpt>
      <trkpt lat="44.67476" lon="3.8042">
        <ele>1157</ele>
        <time>2013-09-26T13:28:45Z</time>
      </trkpt>
      <trkpt lat="44.67473" lon="3.80416">
        <ele>1163</ele>
        <time>2013-09-26T13:28:49Z</time>
      </trkpt>
      <trkpt lat="44.67469" lon="3.80411">
        <ele>1163</ele>
        <time>2013-09-26T13:28:53Z</time>
      </trkpt>
      <trkpt lat="44.67465" lon="3.80407">
        <ele>1163</ele>
        <time>2013-09-26T13:28:56Z</time>
      </trkpt>
      <trkpt lat="44.67462" lon="3.80401">
        <ele>1164</ele>
        <time>2013-09-26T13:29:00Z</time>
      </trkpt>
      <trkpt lat="44.67458" lon="3.80395">
        <ele>1164</ele>
        <time>2013-09-26T13:29:05Z</time>
      </trkpt>
      <trkpt lat="44.67454" lon="3.80388">
        <ele>1164</ele>
        <time>2013-09-26T13:29:09Z</time>
      </trkpt>
      <trkpt lat="44.67451" lon="3.80383">
        <ele>1165</ele>
        <time>2013-09-26T13:29:13Z</time>
      </trkpt>
      <trkpt lat="44.67447" lon="3.80379">
        <ele>1165</ele>
        <time>2013-09-26T13:29:17Z</time>
      </trkpt>
      <trkpt lat="44.67443" lon="3.80374">
        <ele>1165</ele>
        <time>2013-09-26T13:29:21Z</time>
      </trkpt>
      <trkpt lat="44.67439" lon="3.80369">
        <ele>1166</ele>
        <time>2013-09-26T13:29:27Z</time>
      </trkpt>
      <trkpt lat="44.67435" lon="3.80365">
        <ele>1166</ele>
        <time>2013-09-26T13:29:31Z</time>
      </trkpt>
      <trkpt lat="44.67431" lon="3.80361">
        <ele>1167</ele>
        <time>2013-09-26T13:29:35Z</time>
      </trkpt>
      <trkpt lat="44.67427" lon="3.80356">
        <ele>1167</ele>
        <time>2013-09-26T13:29:39Z</time>
      </trkpt>
      <trkpt lat="44.67423" lon="3.80351">
        <ele>1168</ele>
        <time>2013-09-26T13:29:44Z</time>
      </trkpt>
      <trkpt lat="44.6742" lon="3.80345">
        <ele>1169</ele>
        <time>2013-09-26T13:29:49Z</time>
      </trkpt>
      <trkpt lat="44.67418" lon="3.80339">
        <ele>1170</ele>
        <time>2013-09-26T13:29:54Z</time>
      </trkpt>
      <trkpt lat="44.67415" lon="3.80333">
        <ele>1171</ele>
        <time>2013-09-26T13:29:57Z</time>
      </trkpt>
      <trkpt lat="44.67414" lon="3.80327">
        <ele>1172</ele>
        <time>2013-09-26T13:30:01Z</time>
      </trkpt>
      <trkpt lat="44.67415" lon="3.8032">
        <ele>1172</ele>
        <time>2013-09-26T13:30:08Z</time>
      </trkpt>
      <trkpt lat="44.67413" lon="3.80313">
        <ele>1173</ele>
        <time>2013-09-26T13:30:13Z</time>
      </trkpt>
      <trkpt lat="44.67411" lon="3.80306">
        <ele>1173</ele>
        <time>2013-09-26T13:30:17Z</time>
      </trkpt>
      <trkpt lat="44.67409" lon="3.803">
        <ele>1174</ele>
        <time>2013-09-26T13:30:22Z</time>
      </trkpt>
      <trkpt lat="44.67407" lon="3.80293">
        <ele>1174</ele>
        <time>2013-09-26T13:30:26Z</time>
      </trkpt>
      <trkpt lat="44.67405" lon="3.80286">
        <ele>1175</ele>
        <time>2013-09-26T13:30:30Z</time>
      </trkpt>
      <trkpt lat="44.67403" lon="3.80279">
        <ele>1175</ele>
        <time>2013-09-26T13:30:34Z</time>
      </trkpt>
      <trkpt lat="44.67401" lon="3.80273">
        <ele>1175</ele>
        <time>2013-09-26T13:30:38Z</time>
      </trkpt>
      <trkpt lat="44.67398" lon="3.80266">
        <ele>1176</ele>
        <time>2013-09-26T13:30:42Z</time>
      </trkpt>
      <trkpt lat="44.67395" lon="3.80261">
        <ele>1176</ele>
        <time>2013-09-26T13:30:45Z</time>
      </trkpt>
      <trkpt lat="44.67391" lon="3.80255">
        <ele>1176</ele>
        <time>2013-09-26T13:30:49Z</time>
      </trkpt>
      <trkpt lat="44.67388" lon="3.8025">
        <ele>1176</ele>
        <time>2013-09-26T13:30:53Z</time>
      </trkpt>
      <trkpt lat="44.67384" lon="3.80245">
        <ele>1180</ele>
        <time>2013-09-26T13:30:57Z</time>
      </trkpt>
      <trkpt lat="44.67381" lon="3.80241">
        <ele>1180</ele>
        <time>2013-09-26T13:31:00Z</time>
      </trkpt>
      <trkpt lat="44.67377" lon="3.80236">
        <ele>1180</ele>
        <time>2013-09-26T13:31:04Z</time>
      </trkpt>
      <trkpt lat="44.67373" lon="3.80231">
        <ele>1180</ele>
        <time>2013-09-26T13:31:09Z</time>
      </trkpt>
      <trkpt lat="44.6737" lon="3.80225">
        <ele>1180</ele>
        <time>2013-09-26T13:31:13Z</time>
      </trkpt>
      <trkpt lat="44.67366" lon="3.80219">
        <ele>1180</ele>
        <time>2013-09-26T13:31:17Z</time>
      </trkpt>
      <trkpt lat="44.67363" lon="3.80214">
        <ele>1181</ele>
        <time>2013-09-26T13:31:21Z</time>
      </trkpt>
      <trkpt lat="44.6736" lon="3.80209">
        <ele>1181</ele>
        <time>2013-09-26T13:31:26Z</time>
      </trkpt>
      <trkpt lat="44.67357" lon="3.80203">
        <ele>1181</ele>
        <time>2013-09-26T13:31:31Z</time>
      </trkpt>
      <trkpt lat="44.67354" lon="3.80198">
        <ele>1181</ele>
        <time>2013-09-26T13:31:36Z</time>
      </trkpt>
      <trkpt lat="44.67351" lon="3.80194">
        <ele>1182</ele>
        <time>2013-09-26T13:31:46Z</time>
      </trkpt>
      <trkpt lat="44.67345" lon="3.80191">
        <ele>1182</ele>
        <time>2013-09-26T13:31:57Z</time>
      </trkpt>
      <trkpt lat="44.6734" lon="3.80188">
        <ele>1182</ele>
        <time>2013-09-26T13:32:11Z</time>
      </trkpt>
      <trkpt lat="44.67335" lon="3.80186">
        <ele>1183</ele>
        <time>2013-09-26T13:32:16Z</time>
      </trkpt>
      <trkpt lat="44.67331" lon="3.80183">
        <ele>1184</ele>
        <time>2013-09-26T13:32:19Z</time>
      </trkpt>
      <trkpt lat="44.67327" lon="3.80178">
        <ele>1184</ele>
        <time>2013-09-26T13:32:25Z</time>
      </trkpt>
      <trkpt lat="44.67323" lon="3.80174">
        <ele>1184</ele>
        <time>2013-09-26T13:32:40Z</time>
      </trkpt>
      <trkpt lat="44.67317" lon="3.80172">
        <ele>1184</ele>
        <time>2013-09-26T13:32:47Z</time>
      </trkpt>
      <trkpt lat="44.67312" lon="3.80171">
        <ele>1184</ele>
        <time>2013-09-26T13:32:52Z</time>
      </trkpt>
      <trkpt lat="44.67307" lon="3.80169">
        <ele>1184</ele>
        <time>2013-09-26T13:32:55Z</time>
      </trkpt>
      <trkpt lat="44.67301" lon="3.80166">
        <ele>1187</ele>
        <time>2013-09-26T13:32:58Z</time>
      </trkpt>
      <trkpt lat="44.67297" lon="3.80163">
        <ele>1187</ele>
        <time>2013-09-26T13:33:01Z</time>
      </trkpt>
      <trkpt lat="44.67292" lon="3.80161">
        <ele>1187</ele>
        <time>2013-09-26T13:33:04Z</time>
      </trkpt>
      <trkpt lat="44.67287" lon="3.80159">
        <ele>1187</ele>
        <time>2013-09-26T13:33:07Z</time>
      </trkpt>
      <trkpt lat="44.67282" lon="3.80157">
        <ele>1187</ele>
        <time>2013-09-26T13:33:11Z</time>
      </trkpt>
      <trkpt lat="44.67277" lon="3.80156">
        <ele>1187</ele>
        <time>2013-09-26T13:33:14Z</time>
      </trkpt>
      <trkpt lat="44.67272" lon="3.80154">
        <ele>1187</ele>
        <time>2013-09-26T13:33:17Z</time>
      </trkpt>
      <trkpt lat="44.67267" lon="3.80152">
        <ele>1187</ele>
        <time>2013-09-26T13:33:20Z</time>
      </trkpt>
      <trkpt lat="44.67262" lon="3.80149">
        <ele>1188</ele>
        <time>2013-09-26T13:33:23Z</time>
      </trkpt>
      <trkpt lat="44.67257" lon="3.80146">
        <ele>1188</ele>
        <time>2013-09-26T13:33:26Z</time>
      </trkpt>
      <trkpt lat="44.67252" lon="3.80143">
        <ele>1188</ele>
        <time>2013-09-26T13:33:29Z</time>
      </trkpt>
      <trkpt lat="44.67247" lon="3.80139">
        <ele>1190</ele>
        <time>2013-09-26T13:33:32Z</time>
      </trkpt>
      <trkpt lat="44.67243" lon="3.80136">
        <ele>1190</ele>
        <time>2013-09-26T13:33:35Z</time>
      </trkpt>
      <trkpt lat="44.67239" lon="3.80133">
        <ele>1190</ele>
        <time>2013-09-26T13:33:39Z</time>
      </trkpt>
      <trkpt lat="44.67234" lon="3.80129">
        <ele>1190</ele>
        <time>2013-09-26T13:33:44Z</time>
      </trkpt>
      <trkpt lat="44.67231" lon="3.80124">
        <ele>1190</ele>
        <time>2013-09-26T13:33:49Z</time>
      </trkpt>
      <trkpt lat="44.67226" lon="3.80121">
        <ele>1191</ele>
        <time>2013-09-26T13:33:54Z</time>
      </trkpt>
      <trkpt lat="44.67222" lon="3.80121">
        <ele>1191</ele>
        <time>2013-09-26T13:33:59Z</time>
      </trkpt>
      <trkpt lat="44.67217" lon="3.80121">
        <ele>1191</ele>
        <time>2013-09-26T13:34:09Z</time>
      </trkpt>
      <trkpt lat="44.67211" lon="3.80121">
        <ele>1191</ele>
        <time>2013-09-26T13:34:16Z</time>
      </trkpt>
      <trkpt lat="44.67206" lon="3.80119">
        <ele>1191</ele>
        <time>2013-09-26T13:34:20Z</time>
      </trkpt>
      <trkpt lat="44.67202" lon="3.80116">
        <ele>1191</ele>
        <time>2013-09-26T13:34:25Z</time>
      </trkpt>
      <trkpt lat="44.67198" lon="3.80115">
        <ele>1192</ele>
        <time>2013-09-26T13:34:28Z</time>
      </trkpt>
      <trkpt lat="44.67192" lon="3.80112">
        <ele>1192</ele>
        <time>2013-09-26T13:34:31Z</time>
      </trkpt>
      <trkpt lat="44.67187" lon="3.80109">
        <ele>1192</ele>
        <time>2013-09-26T13:34:33Z</time>
      </trkpt>
      <trkpt lat="44.67182" lon="3.80106">
        <ele>1192</ele>
        <time>2013-09-26T13:34:37Z</time>
      </trkpt>
      <trkpt lat="44.67178" lon="3.80104">
        <ele>1192</ele>
        <time>2013-09-26T13:34:40Z</time>
      </trkpt>
      <trkpt lat="44.67173" lon="3.801">
        <ele>1193</ele>
        <time>2013-09-26T13:34:44Z</time>
      </trkpt>
      <trkpt lat="44.67168" lon="3.80096">
        <ele>1193</ele>
        <time>2013-09-26T13:34:48Z</time>
      </trkpt>
      <trkpt lat="44.67164" lon="3.80094">
        <ele>1195</ele>
        <time>2013-09-26T13:34:51Z</time>
      </trkpt>
      <trkpt lat="44.67159" lon="3.8009">
        <ele>1195</ele>
        <time>2013-09-26T13:34:55Z</time>
      </trkpt>
      <trkpt lat="44.67155" lon="3.80086">
        <ele>1195</ele>
        <time>2013-09-26T13:35:01Z</time>
      </trkpt>
      <trkpt lat="44.6715" lon="3.80083">
        <ele>1193</ele>
        <time>2013-09-26T13:35:06Z</time>
      </trkpt>
      <trkpt lat="44.67145" lon="3.80079">
        <ele>1192</ele>
        <time>2013-09-26T13:35:10Z</time>
      </trkpt>
      <trkpt lat="44.6714" lon="3.80075">
        <ele>1192</ele>
        <time>2013-09-26T13:35:15Z</time>
      </trkpt>
      <trkpt lat="44.67135" lon="3.80072">
        <ele>1192</ele>
        <time>2013-09-26T13:35:20Z</time>
      </trkpt>
      <trkpt lat="44.6713" lon="3.80067">
        <ele>1192</ele>
        <time>2013-09-26T13:35:25Z</time>
      </trkpt>
      <trkpt lat="44.67127" lon="3.80064">
        <ele>1192</ele>
        <time>2013-09-26T13:35:28Z</time>
      </trkpt>
      <trkpt lat="44.67122" lon="3.80061">
        <ele>1192</ele>
        <time>2013-09-26T13:35:31Z</time>
      </trkpt>
      <trkpt lat="44.67118" lon="3.80058">
        <ele>1192</ele>
        <time>2013-09-26T13:35:35Z</time>
      </trkpt>
      <trkpt lat="44.67113" lon="3.80055">
        <ele>1191</ele>
        <time>2013-09-26T13:35:39Z</time>
      </trkpt>
      <trkpt lat="44.67109" lon="3.8005">
        <ele>1191</ele>
        <time>2013-09-26T13:35:43Z</time>
      </trkpt>
      <trkpt lat="44.67104" lon="3.80047">
        <ele>1191</ele>
        <time>2013-09-26T13:35:46Z</time>
      </trkpt>
      <trkpt lat="44.671" lon="3.80042">
        <ele>1191</ele>
        <time>2013-09-26T13:35:55Z</time>
      </trkpt>
      <trkpt lat="44.67096" lon="3.80038">
        <ele>1191</ele>
        <time>2013-09-26T13:36:03Z</time>
      </trkpt>
      <trkpt lat="44.67091" lon="3.80033">
        <ele>1190</ele>
        <time>2013-09-26T13:36:07Z</time>
      </trkpt>
      <trkpt lat="44.67086" lon="3.80028">
        <ele>1190</ele>
        <time>2013-09-26T13:36:11Z</time>
      </trkpt>
      <trkpt lat="44.67083" lon="3.80023">
        <ele>1189</ele>
        <time>2013-09-26T13:36:14Z</time>
      </trkpt>
      <trkpt lat="44.67079" lon="3.80019">
        <ele>1188</ele>
        <time>2013-09-26T13:36:18Z</time>
      </trkpt>
      <trkpt lat="44.67076" lon="3.80013">
        <ele>1188</ele>
        <time>2013-09-26T13:36:26Z</time>
      </trkpt>
      <trkpt lat="44.67072" lon="3.8001">
        <ele>1188</ele>
        <time>2013-09-26T13:36:30Z</time>
      </trkpt>
      <trkpt lat="44.67066" lon="3.80006">
        <ele>1188</ele>
        <time>2013-09-26T13:36:36Z</time>
      </trkpt>
      <trkpt lat="44.67062" lon="3.80005">
        <ele>1188</ele>
        <time>2013-09-26T13:36:39Z</time>
      </trkpt>
      <trkpt lat="44.67056" lon="3.80003">
        <ele>1188</ele>
        <time>2013-09-26T13:36:43Z</time>
      </trkpt>
      <trkpt lat="44.6705" lon="3.80001">
        <ele>1188</ele>
        <time>2013-09-26T13:36:49Z</time>
      </trkpt>
      <trkpt lat="44.67046" lon="3.79998">
        <ele>1184</ele>
        <time>2013-09-26T13:36:54Z</time>
      </trkpt>
      <trkpt lat="44.67041" lon="3.79995">
        <ele>1183</ele>
        <time>2013-09-26T13:36:58Z</time>
      </trkpt>
      <trkpt lat="44.67036" lon="3.79992">
        <ele>1183</ele>
        <time>2013-09-26T13:37:01Z</time>
      </trkpt>
      <trkpt lat="44.67032" lon="3.79988">
        <ele>1183</ele>
        <time>2013-09-26T13:37:05Z</time>
      </trkpt>
      <trkpt lat="44.67028" lon="3.79983">
        <ele>1183</ele>
        <time>2013-09-26T13:37:09Z</time>
      </trkpt>
      <trkpt lat="44.67024" lon="3.79978">
        <ele>1183</ele>
        <time>2013-09-26T13:37:12Z</time>
      </trkpt>
      <trkpt lat="44.67021" lon="3.79973">
        <ele>1183</ele>
        <time>2013-09-26T13:37:16Z</time>
      </trkpt>
      <trkpt lat="44.67017" lon="3.79968">
        <ele>1182</ele>
        <time>2013-09-26T13:37:22Z</time>
      </trkpt>
      <trkpt lat="44.67012" lon="3.79963">
        <ele>1182</ele>
        <time>2013-09-26T13:37:26Z</time>
      </trkpt>
      <trkpt lat="44.67008" lon="3.79959">
        <ele>1182</ele>
        <time>2013-09-26T13:37:30Z</time>
      </trkpt>
      <trkpt lat="44.67004" lon="3.79954">
        <ele>1182</ele>
        <time>2013-09-26T13:37:34Z</time>
      </trkpt>
      <trkpt lat="44.66999" lon="3.79949">
        <ele>1180</ele>
        <time>2013-09-26T13:37:38Z</time>
      </trkpt>
      <trkpt lat="44.66995" lon="3.79945">
        <ele>1179</ele>
        <time>2013-09-26T13:37:41Z</time>
      </trkpt>
      <trkpt lat="44.6699" lon="3.7994">
        <ele>1179</ele>
        <time>2013-09-26T13:37:44Z</time>
      </trkpt>
      <trkpt lat="44.66986" lon="3.79936">
        <ele>1179</ele>
        <time>2013-09-26T13:37:47Z</time>
      </trkpt>
      <trkpt lat="44.66982" lon="3.79933">
        <ele>1179</ele>
        <time>2013-09-26T13:37:50Z</time>
      </trkpt>
      <trkpt lat="44.66977" lon="3.7993">
        <ele>1179</ele>
        <time>2013-09-26T13:37:53Z</time>
      </trkpt>
      <trkpt lat="44.66973" lon="3.79927">
        <ele>1179</ele>
        <time>2013-09-26T13:37:58Z</time>
      </trkpt>
      <trkpt lat="44.66969" lon="3.79922">
        <ele>1179</ele>
        <time>2013-09-26T13:38:02Z</time>
      </trkpt>
      <trkpt lat="44.66966" lon="3.79916">
        <ele>1176</ele>
        <time>2013-09-26T13:38:07Z</time>
      </trkpt>
      <trkpt lat="44.66964" lon="3.7991">
        <ele>1176</ele>
        <time>2013-09-26T13:38:11Z</time>
      </trkpt>
      <trkpt lat="44.66959" lon="3.79906">
        <ele>1175</ele>
        <time>2013-09-26T13:38:15Z</time>
      </trkpt>
      <trkpt lat="44.66956" lon="3.79902">
        <ele>1175</ele>
        <time>2013-09-26T13:38:19Z</time>
      </trkpt>
      <trkpt lat="44.66952" lon="3.79896">
        <ele>1175</ele>
        <time>2013-09-26T13:38:24Z</time>
      </trkpt>
      <trkpt lat="44.66948" lon="3.7989">
        <ele>1175</ele>
        <time>2013-09-26T13:38:29Z</time>
      </trkpt>
      <trkpt lat="44.66945" lon="3.79885">
        <ele>1175</ele>
        <time>2013-09-26T13:38:33Z</time>
      </trkpt>
      <trkpt lat="44.66942" lon="3.79878">
        <ele>1175</ele>
        <time>2013-09-26T13:38:37Z</time>
      </trkpt>
      <trkpt lat="44.66939" lon="3.79873">
        <ele>1174</ele>
        <time>2013-09-26T13:38:41Z</time>
      </trkpt>
      <trkpt lat="44.66935" lon="3.79869">
        <ele>1174</ele>
        <time>2013-09-26T13:38:45Z</time>
      </trkpt>
      <trkpt lat="44.66932" lon="3.79863">
        <ele>1174</ele>
        <time>2013-09-26T13:38:49Z</time>
      </trkpt>
      <trkpt lat="44.66928" lon="3.79858">
        <ele>1174</ele>
        <time>2013-09-26T13:38:52Z</time>
      </trkpt>
      <trkpt lat="44.66924" lon="3.79852">
        <ele>1174</ele>
        <time>2013-09-26T13:38:56Z</time>
      </trkpt>
      <trkpt lat="44.6692" lon="3.79847">
        <ele>1173</ele>
        <time>2013-09-26T13:39:00Z</time>
      </trkpt>
      <trkpt lat="44.66916" lon="3.79843">
        <ele>1173</ele>
        <time>2013-09-26T13:39:03Z</time>
      </trkpt>
      <trkpt lat="44.66912" lon="3.79838">
        <ele>1173</ele>
        <time>2013-09-26T13:39:07Z</time>
      </trkpt>
      <trkpt lat="44.66908" lon="3.79833">
        <ele>1172</ele>
        <time>2013-09-26T13:39:11Z</time>
      </trkpt>
      <trkpt lat="44.66904" lon="3.79827">
        <ele>1172</ele>
        <time>2013-09-26T13:39:15Z</time>
      </trkpt>
      <trkpt lat="44.669" lon="3.79821">
        <ele>1172</ele>
        <time>2013-09-26T13:39:19Z</time>
      </trkpt>
      <trkpt lat="44.66896" lon="3.79815">
        <ele>1172</ele>
        <time>2013-09-26T13:39:23Z</time>
      </trkpt>
      <trkpt lat="44.66892" lon="3.7981">
        <ele>1172</ele>
        <time>2013-09-26T13:39:27Z</time>
      </trkpt>
      <trkpt lat="44.66889" lon="3.79805">
        <ele>1172</ele>
        <time>2013-09-26T13:39:31Z</time>
      </trkpt>
      <trkpt lat="44.66884" lon="3.798">
        <ele>1172</ele>
        <time>2013-09-26T13:39:35Z</time>
      </trkpt>
      <trkpt lat="44.66881" lon="3.79795">
        <ele>1172</ele>
        <time>2013-09-26T13:39:39Z</time>
      </trkpt>
      <trkpt lat="44.66877" lon="3.79789">
        <ele>1172</ele>
        <time>2013-09-26T13:39:43Z</time>
      </trkpt>
      <trkpt lat="44.66873" lon="3.79785">
        <ele>1172</ele>
        <time>2013-09-26T13:39:47Z</time>
      </trkpt>
      <trkpt lat="44.66869" lon="3.7978">
        <ele>1172</ele>
        <time>2013-09-26T13:39:51Z</time>
      </trkpt>
      <trkpt lat="44.66866" lon="3.79775">
        <ele>1172</ele>
        <time>2013-09-26T13:39:55Z</time>
      </trkpt>
      <trkpt lat="44.66863" lon="3.79768">
        <ele>1172</ele>
        <time>2013-09-26T13:39:59Z</time>
      </trkpt>
      <trkpt lat="44.66859" lon="3.79763">
        <ele>1172</ele>
        <time>2013-09-26T13:40:03Z</time>
      </trkpt>
      <trkpt lat="44.66855" lon="3.79755">
        <ele>1172</ele>
        <time>2013-09-26T13:40:08Z</time>
      </trkpt>
      <trkpt lat="44.6685" lon="3.79751">
        <ele>1172</ele>
        <time>2013-09-26T13:40:13Z</time>
      </trkpt>
      <trkpt lat="44.66848" lon="3.79744">
        <ele>1171</ele>
        <time>2013-09-26T13:40:28Z</time>
      </trkpt>
      <trkpt lat="44.66845" lon="3.79737">
        <ele>1171</ele>
        <time>2013-09-26T13:40:32Z</time>
      </trkpt>
      <trkpt lat="44.66842" lon="3.79731">
        <ele>1171</ele>
        <time>2013-09-26T13:40:36Z</time>
      </trkpt>
      <trkpt lat="44.66839" lon="3.79725">
        <ele>1171</ele>
        <time>2013-09-26T13:40:43Z</time>
      </trkpt>
      <trkpt lat="44.66836" lon="3.79719">
        <ele>1171</ele>
        <time>2013-09-26T13:40:47Z</time>
      </trkpt>
      <trkpt lat="44.66833" lon="3.79715">
        <ele>1172</ele>
        <time>2013-09-26T13:40:51Z</time>
      </trkpt>
      <trkpt lat="44.66829" lon="3.7971">
        <ele>1172</ele>
        <time>2013-09-26T13:40:55Z</time>
      </trkpt>
      <trkpt lat="44.66825" lon="3.79704">
        <ele>1172</ele>
        <time>2013-09-26T13:41:01Z</time>
      </trkpt>
      <trkpt lat="44.66821" lon="3.79698">
        <ele>1172</ele>
        <time>2013-09-26T13:41:05Z</time>
      </trkpt>
      <trkpt lat="44.66818" lon="3.79693">
        <ele>1172</ele>
        <time>2013-09-26T13:41:09Z</time>
      </trkpt>
      <trkpt lat="44.66815" lon="3.79688">
        <ele>1172</ele>
        <time>2013-09-26T13:41:13Z</time>
      </trkpt>
      <trkpt lat="44.66811" lon="3.79682">
        <ele>1172</ele>
        <time>2013-09-26T13:41:17Z</time>
      </trkpt>
      <trkpt lat="44.66809" lon="3.79677">
        <ele>1172</ele>
        <time>2013-09-26T13:41:21Z</time>
      </trkpt>
      <trkpt lat="44.66806" lon="3.79671">
        <ele>1172</ele>
        <time>2013-09-26T13:41:28Z</time>
      </trkpt>
      <trkpt lat="44.66803" lon="3.79666">
        <ele>1173</ele>
        <time>2013-09-26T13:41:32Z</time>
      </trkpt>
      <trkpt lat="44.66799" lon="3.79662">
        <ele>1173</ele>
        <time>2013-09-26T13:41:36Z</time>
      </trkpt>
      <trkpt lat="44.66796" lon="3.79655">
        <ele>1173</ele>
        <time>2013-09-26T13:41:41Z</time>
      </trkpt>
      <trkpt lat="44.66794" lon="3.79649">
        <ele>1173</ele>
        <time>2013-09-26T13:41:46Z</time>
      </trkpt>
      <trkpt lat="44.66791" lon="3.79643">
        <ele>1173</ele>
        <time>2013-09-26T13:41:51Z</time>
      </trkpt>
      <trkpt lat="44.66787" lon="3.79637">
        <ele>1173</ele>
        <time>2013-09-26T13:41:57Z</time>
      </trkpt>
      <trkpt lat="44.66784" lon="3.79632">
        <ele>1173</ele>
        <time>2013-09-26T13:42:03Z</time>
      </trkpt>
      <trkpt lat="44.66781" lon="3.79626">
        <ele>1173</ele>
        <time>2013-09-26T13:42:10Z</time>
      </trkpt>
      <trkpt lat="44.66777" lon="3.7962">
        <ele>1174</ele>
        <time>2013-09-26T13:42:15Z</time>
      </trkpt>
      <trkpt lat="44.66775" lon="3.79614">
        <ele>1174</ele>
        <time>2013-09-26T13:42:20Z</time>
      </trkpt>
      <trkpt lat="44.66774" lon="3.79607">
        <ele>1174</ele>
        <time>2013-09-26T13:42:25Z</time>
      </trkpt>
      <trkpt lat="44.66771" lon="3.79601">
        <ele>1174</ele>
        <time>2013-09-26T13:42:30Z</time>
      </trkpt>
      <trkpt lat="44.66769" lon="3.79595">
        <ele>1174</ele>
        <time>2013-09-26T13:42:35Z</time>
      </trkpt>
      <trkpt lat="44.66765" lon="3.7959">
        <ele>1174</ele>
        <time>2013-09-26T13:42:39Z</time>
      </trkpt>
      <trkpt lat="44.66762" lon="3.79586">
        <ele>1174</ele>
        <time>2013-09-26T13:42:43Z</time>
      </trkpt>
      <trkpt lat="44.66758" lon="3.7958">
        <ele>1175</ele>
        <time>2013-09-26T13:42:48Z</time>
      </trkpt>
      <trkpt lat="44.66755" lon="3.79574">
        <ele>1175</ele>
        <time>2013-09-26T13:42:53Z</time>
      </trkpt>
      <trkpt lat="44.66752" lon="3.79568">
        <ele>1175</ele>
        <time>2013-09-26T13:43:00Z</time>
      </trkpt>
      <trkpt lat="44.66748" lon="3.79564">
        <ele>1176</ele>
        <time>2013-09-26T13:43:04Z</time>
      </trkpt>
      <trkpt lat="44.66744" lon="3.79559">
        <ele>1177</ele>
        <time>2013-09-26T13:43:09Z</time>
      </trkpt>
      <trkpt lat="44.66741" lon="3.79554">
        <ele>1177</ele>
        <time>2013-09-26T13:43:14Z</time>
      </trkpt>
      <trkpt lat="44.66737" lon="3.79549">
        <ele>1177</ele>
        <time>2013-09-26T13:43:21Z</time>
      </trkpt>
      <trkpt lat="44.66734" lon="3.79544">
        <ele>1177</ele>
        <time>2013-09-26T13:43:26Z</time>
      </trkpt>
      <trkpt lat="44.66731" lon="3.79539">
        <ele>1178</ele>
        <time>2013-09-26T13:43:31Z</time>
      </trkpt>
      <trkpt lat="44.66726" lon="3.79535">
        <ele>1178</ele>
        <time>2013-09-26T13:43:36Z</time>
      </trkpt>
      <trkpt lat="44.66719" lon="3.79531">
        <ele>1178</ele>
        <time>2013-09-26T13:43:39Z</time>
      </trkpt>
      <trkpt lat="44.66714" lon="3.79525">
        <ele>1178</ele>
        <time>2013-09-26T13:43:41Z</time>
      </trkpt>
      <trkpt lat="44.66708" lon="3.79519">
        <ele>1178</ele>
        <time>2013-09-26T13:43:43Z</time>
      </trkpt>
      <trkpt lat="44.66702" lon="3.79514">
        <ele>1178</ele>
        <time>2013-09-26T13:43:45Z</time>
      </trkpt>
      <trkpt lat="44.66693" lon="3.79512">
        <ele>1179</ele>
        <time>2013-09-26T13:43:47Z</time>
      </trkpt>
      <trkpt lat="44.66685" lon="3.79509">
        <ele>1179</ele>
        <time>2013-09-26T13:43:55Z</time>
      </trkpt>
      <trkpt lat="44.66678" lon="3.79507">
        <ele>1180</ele>
        <time>2013-09-26T13:43:57Z</time>
      </trkpt>
      <trkpt lat="44.66671" lon="3.79505">
        <ele>1180</ele>
        <time>2013-09-26T13:43:59Z</time>
      </trkpt>
      <trkpt lat="44.66666" lon="3.79502">
        <ele>1181</ele>
        <time>2013-09-26T13:44:05Z</time>
      </trkpt>
      <trkpt lat="44.66661" lon="3.79499">
        <ele>1182</ele>
        <time>2013-09-26T13:44:07Z</time>
      </trkpt>
      <trkpt lat="44.66656" lon="3.79496">
        <ele>1182</ele>
        <time>2013-09-26T13:44:10Z</time>
      </trkpt>
      <trkpt lat="44.66652" lon="3.79492">
        <ele>1182</ele>
        <time>2013-09-26T13:44:17Z</time>
      </trkpt>
      <trkpt lat="44.66648" lon="3.79489">
        <ele>1183</ele>
        <time>2013-09-26T13:44:40Z</time>
      </trkpt>
      <trkpt lat="44.66643" lon="3.79486">
        <ele>1183</ele>
        <time>2013-09-26T13:44:43Z</time>
      </trkpt>
      <trkpt lat="44.66639" lon="3.79482">
        <ele>1183</ele>
        <time>2013-09-26T13:44:46Z</time>
      </trkpt>
      <trkpt lat="44.66635" lon="3.79477">
        <ele>1183</ele>
        <time>2013-09-26T13:44:50Z</time>
      </trkpt>
      <trkpt lat="44.66631" lon="3.79475">
        <ele>1183</ele>
        <time>2013-09-26T13:44:58Z</time>
      </trkpt>
      <trkpt lat="44.66626" lon="3.79474">
        <ele>1183</ele>
        <time>2013-09-26T13:45:06Z</time>
      </trkpt>
      <trkpt lat="44.66621" lon="3.79473">
        <ele>1183</ele>
        <time>2013-09-26T13:45:20Z</time>
      </trkpt>
      <trkpt lat="44.66616" lon="3.79472">
        <ele>1183</ele>
        <time>2013-09-26T13:45:30Z</time>
      </trkpt>
      <trkpt lat="44.66612" lon="3.79468">
        <ele>1183</ele>
        <time>2013-09-26T13:45:46Z</time>
      </trkpt>
      <trkpt lat="44.66607" lon="3.79465">
        <ele>1183</ele>
        <time>2013-09-26T13:45:55Z</time>
      </trkpt>
      <trkpt lat="44.66602" lon="3.79462">
        <ele>1183</ele>
        <time>2013-09-26T13:45:59Z</time>
      </trkpt>
      <trkpt lat="44.66597" lon="3.79459">
        <ele>1183</ele>
        <time>2013-09-26T13:46:08Z</time>
      </trkpt>
      <trkpt lat="44.66593" lon="3.79457">
        <ele>1183</ele>
        <time>2013-09-26T13:46:11Z</time>
      </trkpt>
      <trkpt lat="44.66588" lon="3.79454">
        <ele>1183</ele>
        <time>2013-09-26T13:46:16Z</time>
      </trkpt>
      <trkpt lat="44.66584" lon="3.79451">
        <ele>1183</ele>
        <time>2013-09-26T13:46:21Z</time>
      </trkpt>
      <trkpt lat="44.6658" lon="3.79447">
        <ele>1182</ele>
        <time>2013-09-26T13:46:26Z</time>
      </trkpt>
      <trkpt lat="44.66578" lon="3.7944">
        <ele>1182</ele>
        <time>2013-09-26T13:46:30Z</time>
      </trkpt>
      <trkpt lat="44.66576" lon="3.79434">
        <ele>1182</ele>
        <time>2013-09-26T13:46:40Z</time>
      </trkpt>
      <trkpt lat="44.66573" lon="3.79426">
        <ele>1183</ele>
        <time>2013-09-26T13:46:43Z</time>
      </trkpt>
      <trkpt lat="44.6657" lon="3.7942">
        <ele>1183</ele>
        <time>2013-09-26T13:46:50Z</time>
      </trkpt>
      <trkpt lat="44.66566" lon="3.79416">
        <ele>1185</ele>
        <time>2013-09-26T13:46:53Z</time>
      </trkpt>
      <trkpt lat="44.66562" lon="3.79412">
        <ele>1185</ele>
        <time>2013-09-26T13:46:57Z</time>
      </trkpt>
      <trkpt lat="44.66557" lon="3.7941">
        <ele>1185</ele>
        <time>2013-09-26T13:47:08Z</time>
      </trkpt>
      <trkpt lat="44.66553" lon="3.79405">
        <ele>1185</ele>
        <time>2013-09-26T13:47:18Z</time>
      </trkpt>
      <trkpt lat="44.6655" lon="3.794">
        <ele>1185</ele>
        <time>2013-09-26T13:47:25Z</time>
      </trkpt>
      <trkpt lat="44.66546" lon="3.79396">
        <ele>1185</ele>
        <time>2013-09-26T13:47:31Z</time>
      </trkpt>
      <trkpt lat="44.66542" lon="3.7939">
        <ele>1185</ele>
        <time>2013-09-26T13:47:56Z</time>
      </trkpt>
      <trkpt lat="44.66539" lon="3.79386">
        <ele>1185</ele>
        <time>2013-09-26T13:47:58Z</time>
      </trkpt>
      <trkpt lat="44.66536" lon="3.79382">
        <ele>1185</ele>
        <time>2013-09-26T13:48:02Z</time>
      </trkpt>
      <trkpt lat="44.66532" lon="3.79377">
        <ele>1185</ele>
        <time>2013-09-26T13:48:05Z</time>
      </trkpt>
      <trkpt lat="44.66528" lon="3.79371">
        <ele>1186</ele>
        <time>2013-09-26T13:48:09Z</time>
      </trkpt>
      <trkpt lat="44.66525" lon="3.79366">
        <ele>1186</ele>
        <time>2013-09-26T13:48:14Z</time>
      </trkpt>
      <trkpt lat="44.66523" lon="3.79359">
        <ele>1186</ele>
        <time>2013-09-26T13:48:20Z</time>
      </trkpt>
      <trkpt lat="44.6652" lon="3.79354">
        <ele>1186</ele>
        <time>2013-09-26T13:48:26Z</time>
      </trkpt>
      <trkpt lat="44.66516" lon="3.79349">
        <ele>1186</ele>
        <time>2013-09-26T13:48:33Z</time>
      </trkpt>
      <trkpt lat="44.66512" lon="3.79344">
        <ele>1186</ele>
        <time>2013-09-26T13:48:37Z</time>
      </trkpt>
      <trkpt lat="44.66509" lon="3.7934">
        <ele>1186</ele>
        <time>2013-09-26T13:48:43Z</time>
      </trkpt>
      <trkpt lat="44.66504" lon="3.79335">
        <ele>1186</ele>
        <time>2013-09-26T13:48:49Z</time>
      </trkpt>
      <trkpt lat="44.66502" lon="3.79326">
        <ele>1188</ele>
        <time>2013-09-26T13:48:52Z</time>
      </trkpt>
      <trkpt lat="44.66501" lon="3.79316">
        <ele>1189</ele>
        <time>2013-09-26T13:48:54Z</time>
      </trkpt>
      <trkpt lat="44.66498" lon="3.7931">
        <ele>1188</ele>
        <time>2013-09-26T13:49:02Z</time>
      </trkpt>
      <trkpt lat="44.66496" lon="3.79304">
        <ele>1188</ele>
        <time>2013-09-26T13:49:05Z</time>
      </trkpt>
      <trkpt lat="44.66495" lon="3.79298">
        <ele>1188</ele>
        <time>2013-09-26T13:49:10Z</time>
      </trkpt>
      <trkpt lat="44.66493" lon="3.79291">
        <ele>1188</ele>
        <time>2013-09-26T13:49:14Z</time>
      </trkpt>
      <trkpt lat="44.66493" lon="3.79285">
        <ele>1189</ele>
        <time>2013-09-26T13:49:19Z</time>
      </trkpt>
      <trkpt lat="44.66493" lon="3.79277">
        <ele>1189</ele>
        <time>2013-09-26T13:49:24Z</time>
      </trkpt>
      <trkpt lat="44.66493" lon="3.79271">
        <ele>1189</ele>
        <time>2013-09-26T13:49:27Z</time>
      </trkpt>
      <trkpt lat="44.66495" lon="3.79263">
        <ele>1189</ele>
        <time>2013-09-26T13:49:30Z</time>
      </trkpt>
      <trkpt lat="44.66497" lon="3.79254">
        <ele>1190</ele>
        <time>2013-09-26T13:49:33Z</time>
      </trkpt>
      <trkpt lat="44.66498" lon="3.79246">
        <ele>1191</ele>
        <time>2013-09-26T13:49:36Z</time>
      </trkpt>
      <trkpt lat="44.66499" lon="3.79239">
        <ele>1192</ele>
        <time>2013-09-26T13:49:39Z</time>
      </trkpt>
      <trkpt lat="44.66498" lon="3.79232">
        <ele>1193</ele>
        <time>2013-09-26T13:49:42Z</time>
      </trkpt>
      <trkpt lat="44.66498" lon="3.79225">
        <ele>1193</ele>
        <time>2013-09-26T13:49:46Z</time>
      </trkpt>
      <trkpt lat="44.66497" lon="3.79218">
        <ele>1194</ele>
        <time>2013-09-26T13:49:50Z</time>
      </trkpt>
      <trkpt lat="44.66494" lon="3.79212">
        <ele>1194</ele>
        <time>2013-09-26T13:49:54Z</time>
      </trkpt>
      <trkpt lat="44.66494" lon="3.79204">
        <ele>1195</ele>
        <time>2013-09-26T13:49:59Z</time>
      </trkpt>
      <trkpt lat="44.66493" lon="3.79198">
        <ele>1195</ele>
        <time>2013-09-26T13:50:03Z</time>
      </trkpt>
      <trkpt lat="44.66491" lon="3.79191">
        <ele>1196</ele>
        <time>2013-09-26T13:50:07Z</time>
      </trkpt>
      <trkpt lat="44.6649" lon="3.79184">
        <ele>1196</ele>
        <time>2013-09-26T13:50:12Z</time>
      </trkpt>
      <trkpt lat="44.66488" lon="3.79177">
        <ele>1197</ele>
        <time>2013-09-26T13:50:17Z</time>
      </trkpt>
      <trkpt lat="44.66485" lon="3.79171">
        <ele>1197</ele>
        <time>2013-09-26T13:50:21Z</time>
      </trkpt>
      <trkpt lat="44.66481" lon="3.79167">
        <ele>1200</ele>
        <time>2013-09-26T13:50:25Z</time>
      </trkpt>
      <trkpt lat="44.66478" lon="3.79161">
        <ele>1200</ele>
        <time>2013-09-26T13:50:30Z</time>
      </trkpt>
      <trkpt lat="44.66475" lon="3.79156">
        <ele>1200</ele>
        <time>2013-09-26T13:50:34Z</time>
      </trkpt>
      <trkpt lat="44.66472" lon="3.7915">
        <ele>1201</ele>
        <time>2013-09-26T13:50:39Z</time>
      </trkpt>
      <trkpt lat="44.6647" lon="3.79144">
        <ele>1201</ele>
        <time>2013-09-26T13:50:43Z</time>
      </trkpt>
      <trkpt lat="44.66467" lon="3.79138">
        <ele>1201</ele>
        <time>2013-09-26T13:50:47Z</time>
      </trkpt>
      <trkpt lat="44.66465" lon="3.79132">
        <ele>1201</ele>
        <time>2013-09-26T13:50:51Z</time>
      </trkpt>
      <trkpt lat="44.66461" lon="3.79125">
        <ele>1201</ele>
        <time>2013-09-26T13:50:55Z</time>
      </trkpt>
      <trkpt lat="44.66458" lon="3.79119">
        <ele>1202</ele>
        <time>2013-09-26T13:50:59Z</time>
      </trkpt>
      <trkpt lat="44.66454" lon="3.79113">
        <ele>1202</ele>
        <time>2013-09-26T13:51:03Z</time>
      </trkpt>
      <trkpt lat="44.6645" lon="3.79109">
        <ele>1202</ele>
        <time>2013-09-26T13:51:07Z</time>
      </trkpt>
      <trkpt lat="44.66446" lon="3.79104">
        <ele>1202</ele>
        <time>2013-09-26T13:51:11Z</time>
      </trkpt>
      <trkpt lat="44.66442" lon="3.791">
        <ele>1202</ele>
        <time>2013-09-26T13:51:15Z</time>
      </trkpt>
      <trkpt lat="44.66439" lon="3.79094">
        <ele>1203</ele>
        <time>2013-09-26T13:51:19Z</time>
      </trkpt>
      <trkpt lat="44.66437" lon="3.79089">
        <ele>1203</ele>
        <time>2013-09-26T13:51:24Z</time>
      </trkpt>
      <trkpt lat="44.66433" lon="3.79083">
        <ele>1206</ele>
        <time>2013-09-26T13:51:29Z</time>
      </trkpt>
      <trkpt lat="44.6643" lon="3.79077">
        <ele>1206</ele>
        <time>2013-09-26T13:51:33Z</time>
      </trkpt>
      <trkpt lat="44.66427" lon="3.79071">
        <ele>1206</ele>
        <time>2013-09-26T13:51:37Z</time>
      </trkpt>
      <trkpt lat="44.66424" lon="3.79065">
        <ele>1206</ele>
        <time>2013-09-26T13:51:42Z</time>
      </trkpt>
      <trkpt lat="44.66422" lon="3.79059">
        <ele>1206</ele>
        <time>2013-09-26T13:51:46Z</time>
      </trkpt>
      <trkpt lat="44.6642" lon="3.79053">
        <ele>1207</ele>
        <time>2013-09-26T13:51:51Z</time>
      </trkpt>
      <trkpt lat="44.66417" lon="3.79047">
        <ele>1207</ele>
        <time>2013-09-26T13:51:56Z</time>
      </trkpt>
      <trkpt lat="44.66414" lon="3.79041">
        <ele>1207</ele>
        <time>2013-09-26T13:52:01Z</time>
      </trkpt>
      <trkpt lat="44.6641" lon="3.79035">
        <ele>1208</ele>
        <time>2013-09-26T13:52:05Z</time>
      </trkpt>
      <trkpt lat="44.66406" lon="3.7903">
        <ele>1208</ele>
        <time>2013-09-26T13:52:10Z</time>
      </trkpt>
      <trkpt lat="44.66402" lon="3.79025">
        <ele>1208</ele>
        <time>2013-09-26T13:52:15Z</time>
      </trkpt>
      <trkpt lat="44.66398" lon="3.7902">
        <ele>1208</ele>
        <time>2013-09-26T13:52:19Z</time>
      </trkpt>
      <trkpt lat="44.66395" lon="3.79015">
        <ele>1208</ele>
        <time>2013-09-26T13:52:24Z</time>
      </trkpt>
      <trkpt lat="44.66392" lon="3.79009">
        <ele>1208</ele>
        <time>2013-09-26T13:52:29Z</time>
      </trkpt>
      <trkpt lat="44.66388" lon="3.79005">
        <ele>1208</ele>
        <time>2013-09-26T13:52:34Z</time>
      </trkpt>
      <trkpt lat="44.66385" lon="3.78999">
        <ele>1211</ele>
        <time>2013-09-26T13:52:38Z</time>
      </trkpt>
      <trkpt lat="44.66382" lon="3.78995">
        <ele>1211</ele>
        <time>2013-09-26T13:52:42Z</time>
      </trkpt>
      <trkpt lat="44.66378" lon="3.7899">
        <ele>1211</ele>
        <time>2013-09-26T13:52:47Z</time>
      </trkpt>
      <trkpt lat="44.66374" lon="3.78986">
        <ele>1211</ele>
        <time>2013-09-26T13:52:52Z</time>
      </trkpt>
      <trkpt lat="44.66369" lon="3.78984">
        <ele>1211</ele>
        <time>2013-09-26T13:52:57Z</time>
      </trkpt>
      <trkpt lat="44.66363" lon="3.78983">
        <ele>1211</ele>
        <time>2013-09-26T13:53:01Z</time>
      </trkpt>
      <trkpt lat="44.66358" lon="3.78982">
        <ele>1211</ele>
        <time>2013-09-26T13:53:06Z</time>
      </trkpt>
      <trkpt lat="44.66353" lon="3.7898">
        <ele>1211</ele>
        <time>2013-09-26T13:53:11Z</time>
      </trkpt>
      <trkpt lat="44.66349" lon="3.78978">
        <ele>1211</ele>
        <time>2013-09-26T13:53:15Z</time>
      </trkpt>
      <trkpt lat="44.66345" lon="3.78973">
        <ele>1212</ele>
        <time>2013-09-26T13:53:19Z</time>
      </trkpt>
      <trkpt lat="44.66341" lon="3.78967">
        <ele>1212</ele>
        <time>2013-09-26T13:53:25Z</time>
      </trkpt>
      <trkpt lat="44.66338" lon="3.78963">
        <ele>1212</ele>
        <time>2013-09-26T13:53:29Z</time>
      </trkpt>
      <trkpt lat="44.66333" lon="3.78958">
        <ele>1209</ele>
        <time>2013-09-26T13:53:33Z</time>
      </trkpt>
      <trkpt lat="44.66329" lon="3.78952">
        <ele>1209</ele>
        <time>2013-09-26T13:53:37Z</time>
      </trkpt>
      <trkpt lat="44.66327" lon="3.78946">
        <ele>1210</ele>
        <time>2013-09-26T13:53:40Z</time>
      </trkpt>
      <trkpt lat="44.66324" lon="3.78941">
        <ele>1210</ele>
        <time>2013-09-26T13:53:43Z</time>
      </trkpt>
      <trkpt lat="44.66322" lon="3.78935">
        <ele>1210</ele>
        <time>2013-09-26T13:53:47Z</time>
      </trkpt>
      <trkpt lat="44.66317" lon="3.78932">
        <ele>1210</ele>
        <time>2013-09-26T13:53:52Z</time>
      </trkpt>
      <trkpt lat="44.66312" lon="3.78931">
        <ele>1210</ele>
        <time>2013-09-26T13:53:56Z</time>
      </trkpt>
      <trkpt lat="44.66307" lon="3.78932">
        <ele>1209</ele>
        <time>2013-09-26T13:54:00Z</time>
      </trkpt>
      <trkpt lat="44.66303" lon="3.78928">
        <ele>1209</ele>
        <time>2013-09-26T13:54:05Z</time>
      </trkpt>
      <trkpt lat="44.66299" lon="3.78923">
        <ele>1209</ele>
        <time>2013-09-26T13:54:09Z</time>
      </trkpt>
      <trkpt lat="44.66298" lon="3.78917">
        <ele>1209</ele>
        <time>2013-09-26T13:54:13Z</time>
      </trkpt>
      <trkpt lat="44.66296" lon="3.78911">
        <ele>1210</ele>
        <time>2013-09-26T13:54:18Z</time>
      </trkpt>
      <trkpt lat="44.66291" lon="3.78908">
        <ele>1210</ele>
        <time>2013-09-26T13:54:24Z</time>
      </trkpt>
      <trkpt lat="44.66286" lon="3.78907">
        <ele>1209</ele>
        <time>2013-09-26T13:54:28Z</time>
      </trkpt>
      <trkpt lat="44.66281" lon="3.78904">
        <ele>1209</ele>
        <time>2013-09-26T13:54:32Z</time>
      </trkpt>
      <trkpt lat="44.66277" lon="3.78901">
        <ele>1209</ele>
        <time>2013-09-26T13:54:35Z</time>
      </trkpt>
      <trkpt lat="44.66273" lon="3.78895">
        <ele>1209</ele>
        <time>2013-09-26T13:54:39Z</time>
      </trkpt>
      <trkpt lat="44.6627" lon="3.78889">
        <ele>1209</ele>
        <time>2013-09-26T13:54:43Z</time>
      </trkpt>
      <trkpt lat="44.66269" lon="3.78882">
        <ele>1209</ele>
        <time>2013-09-26T13:54:47Z</time>
      </trkpt>
      <trkpt lat="44.66266" lon="3.78875">
        <ele>1209</ele>
        <time>2013-09-26T13:54:53Z</time>
      </trkpt>
      <trkpt lat="44.66265" lon="3.78868">
        <ele>1209</ele>
        <time>2013-09-26T13:54:58Z</time>
      </trkpt>
      <trkpt lat="44.66261" lon="3.78864">
        <ele>1209</ele>
        <time>2013-09-26T13:55:03Z</time>
      </trkpt>
      <trkpt lat="44.66257" lon="3.78859">
        <ele>1209</ele>
        <time>2013-09-26T13:55:08Z</time>
      </trkpt>
      <trkpt lat="44.66253" lon="3.78854">
        <ele>1209</ele>
        <time>2013-09-26T13:55:13Z</time>
      </trkpt>
      <trkpt lat="44.6625" lon="3.78849">
        <ele>1206</ele>
        <time>2013-09-26T13:55:17Z</time>
      </trkpt>
      <trkpt lat="44.66246" lon="3.78841">
        <ele>1206</ele>
        <time>2013-09-26T13:55:20Z</time>
      </trkpt>
      <trkpt lat="44.66243" lon="3.78836">
        <ele>1207</ele>
        <time>2013-09-26T13:55:23Z</time>
      </trkpt>
      <trkpt lat="44.66239" lon="3.78831">
        <ele>1207</ele>
        <time>2013-09-26T13:55:28Z</time>
      </trkpt>
      <trkpt lat="44.66236" lon="3.78826">
        <ele>1207</ele>
        <time>2013-09-26T13:55:34Z</time>
      </trkpt>
      <trkpt lat="44.66233" lon="3.7882">
        <ele>1207</ele>
        <time>2013-09-26T13:55:38Z</time>
      </trkpt>
      <trkpt lat="44.6623" lon="3.78813">
        <ele>1207</ele>
        <time>2013-09-26T13:55:42Z</time>
      </trkpt>
      <trkpt lat="44.66228" lon="3.78807">
        <ele>1207</ele>
        <time>2013-09-26T13:55:46Z</time>
      </trkpt>
      <trkpt lat="44.66225" lon="3.788">
        <ele>1207</ele>
        <time>2013-09-26T13:55:51Z</time>
      </trkpt>
      <trkpt lat="44.66223" lon="3.78795">
        <ele>1207</ele>
        <time>2013-09-26T13:55:55Z</time>
      </trkpt>
      <trkpt lat="44.66221" lon="3.78789">
        <ele>1207</ele>
        <time>2013-09-26T13:55:59Z</time>
      </trkpt>
      <trkpt lat="44.66216" lon="3.78786">
        <ele>1207</ele>
        <time>2013-09-26T13:56:03Z</time>
      </trkpt>
      <trkpt lat="44.66212" lon="3.78783">
        <ele>1207</ele>
        <time>2013-09-26T13:56:06Z</time>
      </trkpt>
      <trkpt lat="44.66208" lon="3.78778">
        <ele>1207</ele>
        <time>2013-09-26T13:56:09Z</time>
      </trkpt>
      <trkpt lat="44.66206" lon="3.78773">
        <ele>1207</ele>
        <time>2013-09-26T13:56:13Z</time>
      </trkpt>
      <trkpt lat="44.66204" lon="3.78767">
        <ele>1207</ele>
        <time>2013-09-26T13:56:18Z</time>
      </trkpt>
    </trkseg>
  </trk>
</gpx>